<?xml version='1.0' encoding='UTF-8'?><gpx version="1.1" creator="JPX - https://github.com/jenetics/jpx" xmlns="http://www.topografix.com/GPX/1/1"><trk><trkseg><trkpt lat="41.5377676741647" lon="13.001125191835277"><ele>370.0</ele><time>2026-03-22T08:53:00Z</time></trkpt><trkpt lat="41.53772133452829" lon="13.00105394144158"><ele>370.0</ele><time>2026-03-22T08:53:02Z</time></trkpt><trkpt lat="41.537785674984974" lon="13.001132101145146"><ele>370.0</ele><time>2026-03-22T08:53:06Z</time></trkpt><trkpt lat="41.537840296450874" lon="13.00123979260532"><ele>370.0</ele><time>2026-03-22T08:53:07Z</time></trkpt><trkpt lat="41.53790200538115" lon="13.001376194384985"><ele>370.0</ele><time>2026-03-22T08:53:08Z</time></trkpt><trkpt lat="41.5379698095509" lon="13.001495342499112"><ele>371.0</ele><time>2026-03-22T08:53:09Z</time></trkpt><trkpt lat="41.538042856931575" lon="13.00162522294259"><ele>372.0</ele><time>2026-03-22T08:53:10Z</time></trkpt><trkpt lat="41.53811703963994" lon="13.001771663869896"><ele>373.0</ele><time>2026-03-22T08:53:11Z</time></trkpt><trkpt lat="41.53819296048065" lon="13.001927551601653"><ele>374.0</ele><time>2026-03-22T08:53:12Z</time></trkpt><trkpt lat="41.5382865824083" lon="13.00208630980935"><ele>374.0</ele><time>2026-03-22T08:53:13Z</time></trkpt><trkpt lat="41.538392154479006" lon="13.002255277699996"><ele>374.0</ele><time>2026-03-22T08:53:14Z</time></trkpt><trkpt lat="41.538502053051005" lon="13.002435172966571"><ele>374.0</ele><time>2026-03-22T08:53:15Z</time></trkpt><trkpt lat="41.53862720384952" lon="13.002614512465625"><ele>374.0</ele><time>2026-03-22T08:53:16Z</time></trkpt><trkpt lat="41.53874032710251" lon="13.002762011375157"><ele>374.0</ele><time>2026-03-22T08:53:17Z</time></trkpt><trkpt lat="41.53882785595725" lon="13.002913430969661"><ele>374.0</ele><time>2026-03-22T08:53:18Z</time></trkpt><trkpt lat="41.53889725045097" lon="13.003024371560034"><ele>374.0</ele><time>2026-03-22T08:53:19Z</time></trkpt><trkpt lat="41.53893576687842" lon="13.003127209593112"><ele>374.0</ele><time>2026-03-22T08:53:20Z</time></trkpt><trkpt lat="41.538951711431466" lon="13.003258262346419"><ele>374.0</ele><time>2026-03-22T08:53:21Z</time></trkpt><trkpt lat="41.53895349340933" lon="13.003425832644387"><ele>374.0</ele><time>2026-03-22T08:53:22Z</time></trkpt><trkpt lat="41.53896179198785" lon="13.003603393932572"><ele>374.0</ele><time>2026-03-22T08:53:23Z</time></trkpt><trkpt lat="41.53896805974084" lon="13.00376508305154"><ele>373.33333333333337</ele><time>2026-03-22T08:53:24Z</time></trkpt><trkpt lat="41.53897280292432" lon="13.003896770965486"><ele>372.6666666666667</ele><time>2026-03-22T08:53:25Z</time></trkpt><trkpt lat="41.53897611123665" lon="13.004002280386754"><ele>372.0</ele><time>2026-03-22T08:53:26Z</time></trkpt><trkpt lat="41.53895021472423" lon="13.004094282923981"><ele>371.3333333333333</ele><time>2026-03-22T08:53:28Z</time></trkpt><trkpt lat="41.53888563810445" lon="13.004089735188552"><ele>370.66666666666663</ele><time>2026-03-22T08:53:33Z</time></trkpt><trkpt lat="41.538786935079635" lon="13.003978300929417"><ele>370.0</ele><time>2026-03-22T08:53:35Z</time></trkpt><trkpt lat="41.53870226943794" lon="13.003928296646064"><ele>369.0</ele><time>2026-03-22T08:53:36Z</time></trkpt><trkpt lat="41.53860129356988" lon="13.003900936886598"><ele>368.0</ele><time>2026-03-22T08:53:37Z</time></trkpt><trkpt lat="41.53848878508567" lon="13.003889856302875"><ele>367.0</ele><time>2026-03-22T08:53:38Z</time></trkpt><trkpt lat="41.53837820690651" lon="13.003930364484383"><ele>366.0</ele><time>2026-03-22T08:53:39Z</time></trkpt><trkpt lat="41.538263350133356" lon="13.004014204591764"><ele>366.0</ele><time>2026-03-22T08:53:40Z</time></trkpt><trkpt lat="41.538155500667216" lon="13.00413049359133"><ele>366.0</ele><time>2026-03-22T08:53:41Z</time></trkpt><trkpt lat="41.538067769157415" lon="13.004237315857688"><ele>366.0</ele><time>2026-03-22T08:53:42Z</time></trkpt><trkpt lat="41.53799611974048" lon="13.004342585453097"><ele>366.0</ele><time>2026-03-22T08:53:43Z</time></trkpt><trkpt lat="41.53793932002874" lon="13.004440084887499"><ele>366.4</ele><time>2026-03-22T08:53:44Z</time></trkpt><trkpt lat="41.537886838326955" lon="13.00453145368825"><ele>366.8</ele><time>2026-03-22T08:53:45Z</time></trkpt><trkpt lat="41.53782441295077" lon="13.00462858281931"><ele>367.2</ele><time>2026-03-22T08:53:45.999Z</time></trkpt><trkpt lat="41.537747698173135" lon="13.004742125502473"><ele>367.59999999999997</ele><time>2026-03-22T08:53:46.999Z</time></trkpt><trkpt lat="41.53766403497326" lon="13.00486584583012"><ele>368.0</ele><time>2026-03-22T08:53:47.999Z</time></trkpt><trkpt lat="41.537578787861925" lon="13.004993079645521"><ele>368.25</ele><time>2026-03-22T08:53:48.999Z</time></trkpt><trkpt lat="41.53748833878264" lon="13.005123733151187"><ele>368.5</ele><time>2026-03-22T08:53:49.999Z</time></trkpt><trkpt lat="41.5373939915577" lon="13.005270629116533"><ele>368.75</ele><time>2026-03-22T08:53:50.999Z</time></trkpt><trkpt lat="41.53728525989059" lon="13.005423330686789"><ele>369.0</ele><time>2026-03-22T08:53:51.999Z</time></trkpt><trkpt lat="41.5371999096341" lon="13.005578629841963"><ele>369.0</ele><time>2026-03-22T08:53:52.999Z</time></trkpt><trkpt lat="41.53714586533937" lon="13.005730786945765"><ele>369.0</ele><time>2026-03-22T08:53:53.999Z</time></trkpt><trkpt lat="41.53711572813582" lon="13.005911890665036"><ele>369.0</ele><time>2026-03-22T08:53:54.999Z</time></trkpt><trkpt lat="41.537095936501665" lon="13.006084845013671"><ele>369.0</ele><time>2026-03-22T08:53:55.999Z</time></trkpt><trkpt lat="41.53706984787616" lon="13.006233170763803"><ele>369.6</ele><time>2026-03-22T08:53:56.999Z</time></trkpt><trkpt lat="41.53705697815094" lon="13.00637600781948"><ele>370.2</ele><time>2026-03-22T08:53:57.999Z</time></trkpt><trkpt lat="41.537087542594044" lon="13.006505459080424"><ele>370.8</ele><time>2026-03-22T08:53:58.999Z</time></trkpt><trkpt lat="41.53715292420423" lon="13.00663273265552"><ele>371.40000000000003</ele><time>2026-03-22T08:53:59.999Z</time></trkpt><trkpt lat="41.53723919444733" lon="13.006750039296614"><ele>372.0</ele><time>2026-03-22T08:54:00.999Z</time></trkpt><trkpt lat="41.53734667204938" lon="13.00685359548483"><ele>373.0</ele><time>2026-03-22T08:54:01.999Z</time></trkpt><trkpt lat="41.53746760291407" lon="13.006955412084544"><ele>374.0</ele><time>2026-03-22T08:54:02.999Z</time></trkpt><trkpt lat="41.537604123230196" lon="13.007047253657499"><ele>375.0</ele><time>2026-03-22T08:54:03.999Z</time></trkpt><trkpt lat="41.53775271415188" lon="13.007134715645833"><ele>375.0</ele><time>2026-03-22T08:54:04.999Z</time></trkpt><trkpt lat="41.537906657067914" lon="13.007229652590448"><ele>375.0</ele><time>2026-03-22T08:54:05.999Z</time></trkpt><trkpt lat="41.53805503902774" lon="13.007320378091206"><ele>375.0</ele><time>2026-03-22T08:54:06.999Z</time></trkpt><trkpt lat="41.538198730355276" lon="13.007414886136118"><ele>380.33333333333337</ele><time>2026-03-22T08:54:07.999Z</time></trkpt><trkpt lat="41.53834260212558" lon="13.007511840288526"><ele>385.6666666666667</ele><time>2026-03-22T08:54:08.999Z</time></trkpt><trkpt lat="41.538481447932625" lon="13.007604553391854"><ele>391.0</ele><time>2026-03-22T08:54:09.999Z</time></trkpt><trkpt lat="41.53862524172667" lon="13.007697489640819"><ele>390.33333333333337</ele><time>2026-03-22T08:54:10.999Z</time></trkpt><trkpt lat="41.53876578536496" lon="13.00779168512995"><ele>389.66666666666663</ele><time>2026-03-22T08:54:11.999Z</time></trkpt><trkpt lat="41.53891853781236" lon="13.007890747879934"><ele>389.0</ele><time>2026-03-22T08:54:12.999Z</time></trkpt><trkpt lat="41.53906093504899" lon="13.007997284225334"><ele>389.0</ele><time>2026-03-22T08:54:13.999Z</time></trkpt><trkpt lat="41.53919227578323" lon="13.008111003939057"><ele>389.0</ele><time>2026-03-22T08:54:14.999Z</time></trkpt><trkpt lat="41.53932507987377" lon="13.008234549487343"><ele>389.0</ele><time>2026-03-22T08:54:15.999Z</time></trkpt><trkpt lat="41.53946561831998" lon="13.00834749268318"><ele>395.0</ele><time>2026-03-22T08:54:16.999Z</time></trkpt><trkpt lat="41.53959450174718" lon="13.008423554688784"><ele>401.0</ele><time>2026-03-22T08:54:17.999Z</time></trkpt><trkpt lat="41.539727725869504" lon="13.008456398727471"><ele>407.0</ele><time>2026-03-22T08:54:18.999Z</time></trkpt><trkpt lat="41.53985912164716" lon="13.008455137366093"><ele>413.0</ele><time>2026-03-22T08:54:19.999Z</time></trkpt><trkpt lat="41.53998248408758" lon="13.008395113731693"><ele>413.0</ele><time>2026-03-22T08:54:20.999Z</time></trkpt><trkpt lat="41.540105247115754" lon="13.008344182631564"><ele>413.0</ele><time>2026-03-22T08:54:21.999Z</time></trkpt><trkpt lat="41.5402446730836" lon="13.008295417712246"><ele>413.0</ele><time>2026-03-22T08:54:22.999Z</time></trkpt><trkpt lat="41.540385966037505" lon="13.008226026189014"><ele>413.0</ele><time>2026-03-22T08:54:23.999Z</time></trkpt><trkpt lat="41.540524414611305" lon="13.008174477365666"><ele>409.25</ele><time>2026-03-22T08:54:24.999Z</time></trkpt><trkpt lat="41.54067146295833" lon="13.0081698131415"><ele>405.5</ele><time>2026-03-22T08:54:25.999Z</time></trkpt><trkpt lat="41.54082313879669" lon="13.008160716566996"><ele>401.75</ele><time>2026-03-22T08:54:26.999Z</time></trkpt><trkpt lat="41.540965682474074" lon="13.008146243060004"><ele>398.0</ele><time>2026-03-22T08:54:27.999Z</time></trkpt><trkpt lat="41.54110170054537" lon="13.00811865063841"><ele>400.5</ele><time>2026-03-22T08:54:28.999Z</time></trkpt><trkpt lat="41.54124010401767" lon="13.008084656735685"><ele>403.0</ele><time>2026-03-22T08:54:29.999Z</time></trkpt><trkpt lat="41.541385712928886" lon="13.008043664520102"><ele>405.5</ele><time>2026-03-22T08:54:30.999Z</time></trkpt><trkpt lat="41.54153455751242" lon="13.008013448586027"><ele>408.0</ele><time>2026-03-22T08:54:31.999Z</time></trkpt><trkpt lat="41.541684730329415" lon="13.007995203738252"><ele>408.0</ele><time>2026-03-22T08:54:32.999Z</time></trkpt><trkpt lat="41.54183276434561" lon="13.007990022282087"><ele>408.0</ele><time>2026-03-22T08:54:33.999Z</time></trkpt><trkpt lat="41.54199236930467" lon="13.008002058895752"><ele>408.0</ele><time>2026-03-22T08:54:34.999Z</time></trkpt><trkpt lat="41.542148532370135" lon="13.008015798702084"><ele>410.66666666666663</ele><time>2026-03-22T08:54:35.999Z</time></trkpt><trkpt lat="41.542309045916326" lon="13.008022102143416"><ele>413.3333333333333</ele><time>2026-03-22T08:54:36.999Z</time></trkpt><trkpt lat="41.542466121525166" lon="13.008040753489587"><ele>416.0</ele><time>2026-03-22T08:54:37.999Z</time></trkpt><trkpt lat="41.54262295321995" lon="13.00806704872532"><ele>416.0</ele><time>2026-03-22T08:54:38.999Z</time></trkpt><trkpt lat="41.54278151822748" lon="13.008097309141197"><ele>416.0</ele><time>2026-03-22T08:54:39.999Z</time></trkpt><trkpt lat="41.54293997103702" lon="13.008122834423816"><ele>416.0</ele><time>2026-03-22T08:54:40.999Z</time></trkpt><trkpt lat="41.5430932465149" lon="13.008149785747653"><ele>418.25</ele><time>2026-03-22T08:54:41.999Z</time></trkpt><trkpt lat="41.5432458198288" lon="13.008177835290127"><ele>420.5</ele><time>2026-03-22T08:54:42.999Z</time></trkpt><trkpt lat="41.54339136207781" lon="13.008198539452463"><ele>422.75</ele><time>2026-03-22T08:54:44Z</time></trkpt><trkpt lat="41.54353947961444" lon="13.008187267723793"><ele>425.0</ele><time>2026-03-22T08:54:45Z</time></trkpt><trkpt lat="41.54367711724396" lon="13.008141526868497"><ele>426.75</ele><time>2026-03-22T08:54:46Z</time></trkpt><trkpt lat="41.54380406919714" lon="13.00813724625177"><ele>428.5</ele><time>2026-03-22T08:54:47Z</time></trkpt><trkpt lat="41.5439343012575" lon="13.00817498825693"><ele>430.25</ele><time>2026-03-22T08:54:48Z</time></trkpt><trkpt lat="41.544062768515985" lon="13.008223451616892"><ele>432.0</ele><time>2026-03-22T08:54:49Z</time></trkpt><trkpt lat="41.544185195003124" lon="13.008304601342234"><ele>440.0</ele><time>2026-03-22T08:54:50Z</time></trkpt><trkpt lat="41.544288392422146" lon="13.008400775100972"><ele>448.0</ele><time>2026-03-22T08:54:51Z</time></trkpt><trkpt lat="41.5443602348771" lon="13.00855621813993"><ele>456.0</ele><time>2026-03-22T08:54:52Z</time></trkpt><trkpt lat="41.54443674466457" lon="13.008694276832891"><ele>464.0</ele><time>2026-03-22T08:54:53Z</time></trkpt><trkpt lat="41.544508738108206" lon="13.008838393747439"><ele>463.25</ele><time>2026-03-22T08:54:54Z</time></trkpt><trkpt lat="41.544560005812926" lon="13.008996723164964"><ele>462.5</ele><time>2026-03-22T08:54:55Z</time></trkpt><trkpt lat="41.544602683561834" lon="13.009161297230387"><ele>461.75</ele><time>2026-03-22T08:54:56Z</time></trkpt><trkpt lat="41.54464881810295" lon="13.009330877220302"><ele>461.0</ele><time>2026-03-22T08:54:57Z</time></trkpt><trkpt lat="41.54469357863284" lon="13.00949540661616"><ele>461.0</ele><time>2026-03-22T08:54:58Z</time></trkpt><trkpt lat="41.54473792683364" lon="13.009655150978741"><ele>461.0</ele><time>2026-03-22T08:54:59Z</time></trkpt><trkpt lat="41.54478399431744" lon="13.009817045263945"><ele>461.0</ele><time>2026-03-22T08:55:00Z</time></trkpt><trkpt lat="41.54484422713615" lon="13.00997033776878"><ele>461.0</ele><time>2026-03-22T08:55:01Z</time></trkpt><trkpt lat="41.544883770980675" lon="13.010139397835982"><ele>465.4</ele><time>2026-03-22T08:55:02Z</time></trkpt><trkpt lat="41.54491659997833" lon="13.010281998596673"><ele>469.8</ele><time>2026-03-22T08:55:03Z</time></trkpt><trkpt lat="41.544949233560764" lon="13.010429990804012"><ele>474.19999999999993</ele><time>2026-03-22T08:55:04Z</time></trkpt><trkpt lat="41.544987459190345" lon="13.010520751027506"><ele>478.59999999999997</ele><time>2026-03-22T08:55:05Z</time></trkpt><trkpt lat="41.54502146314009" lon="13.010600307929252"><ele>483.0</ele><time>2026-03-22T08:55:06Z</time></trkpt><trkpt lat="41.545102810380094" lon="13.010614800321976"><ele>483.0</ele><time>2026-03-22T08:55:08Z</time></trkpt><trkpt lat="41.545201771788115" lon="13.010512175886966"><ele>482.99999999999994</ele><time>2026-03-22T08:55:10Z</time></trkpt><trkpt lat="41.54524883783991" lon="13.010442968564773"><ele>482.99999999999994</ele><time>2026-03-22T08:55:11Z</time></trkpt><trkpt lat="41.54532476035296" lon="13.010374492070198"><ele>483.0</ele><time>2026-03-22T08:55:12Z</time></trkpt><trkpt lat="41.54543606993368" lon="13.010266392348168"><ele>483.0</ele><time>2026-03-22T08:55:13Z</time></trkpt><trkpt lat="41.54553844411051" lon="13.010167874147244"><ele>485.5</ele><time>2026-03-22T08:55:14Z</time></trkpt><trkpt lat="41.54562480738001" lon="13.01006628479089"><ele>488.0</ele><time>2026-03-22T08:55:15Z</time></trkpt><trkpt lat="41.545725971826" lon="13.01000435597219"><ele>490.5</ele><time>2026-03-22T08:55:16Z</time></trkpt><trkpt lat="41.545841957841375" lon="13.009912747367274"><ele>493.0</ele><time>2026-03-22T08:55:17Z</time></trkpt><trkpt lat="41.545966631511966" lon="13.00982439374433"><ele>490.5</ele><time>2026-03-22T08:55:18Z</time></trkpt><trkpt lat="41.54608534871759" lon="13.009733802624682"><ele>488.0</ele><time>2026-03-22T08:55:19Z</time></trkpt><trkpt lat="41.546210811248955" lon="13.009694661273254"><ele>485.5</ele><time>2026-03-22T08:55:20Z</time></trkpt><trkpt lat="41.54634552215801" lon="13.009644389456739"><ele>483.0</ele><time>2026-03-22T08:55:21Z</time></trkpt><trkpt lat="41.54646652948071" lon="13.00960926787631"><ele>483.0</ele><time>2026-03-22T08:55:22Z</time></trkpt><trkpt lat="41.54659350366643" lon="13.0095753998211"><ele>483.0</ele><time>2026-03-22T08:55:23Z</time></trkpt><trkpt lat="41.54671824922952" lon="13.009546798139928"><ele>483.0</ele><time>2026-03-22T08:55:24Z</time></trkpt><trkpt lat="41.54684875863813" lon="13.009539947191206"><ele>483.0</ele><time>2026-03-22T08:55:25Z</time></trkpt><trkpt lat="41.54698211294448" lon="13.009539469838558"><ele>486.0</ele><time>2026-03-22T08:55:26Z</time></trkpt><trkpt lat="41.54711616362253" lon="13.0095241786552"><ele>489.0</ele><time>2026-03-22T08:55:27Z</time></trkpt><trkpt lat="41.54725157071922" lon="13.00952041491653"><ele>492.0</ele><time>2026-03-22T08:55:28Z</time></trkpt><trkpt lat="41.54738478967716" lon="13.009520760814024"><ele>495.0</ele><time>2026-03-22T08:55:29Z</time></trkpt><trkpt lat="41.5475163395061" lon="13.009520077797426"><ele>495.0</ele><time>2026-03-22T08:55:30Z</time></trkpt><trkpt lat="41.54764436399602" lon="13.009512741211918"><ele>495.0</ele><time>2026-03-22T08:55:31Z</time></trkpt><trkpt lat="41.547778392019886" lon="13.009519523713664"><ele>495.0</ele><time>2026-03-22T08:55:32Z</time></trkpt><trkpt lat="41.54790702297188" lon="13.009458992865232"><ele>495.0</ele><time>2026-03-22T08:55:33Z</time></trkpt><trkpt lat="41.54803791837542" lon="13.009400213758571"><ele>499.5</ele><time>2026-03-22T08:55:34Z</time></trkpt><trkpt lat="41.54817488994856" lon="13.009380038163588"><ele>504.0</ele><time>2026-03-22T08:55:35Z</time></trkpt><trkpt lat="41.548309471376015" lon="13.00934087109072"><ele>508.5</ele><time>2026-03-22T08:55:36Z</time></trkpt><trkpt lat="41.548440750913926" lon="13.009286258472297"><ele>513.0</ele><time>2026-03-22T08:55:37Z</time></trkpt><trkpt lat="41.54857943944095" lon="13.00926454875565"><ele>517.25</ele><time>2026-03-22T08:55:38Z</time></trkpt><trkpt lat="41.54871135303878" lon="13.00924668103435"><ele>521.5</ele><time>2026-03-22T08:55:39Z</time></trkpt><trkpt lat="41.54884253566704" lon="13.009237013473797"><ele>525.75</ele><time>2026-03-22T08:55:40Z</time></trkpt><trkpt lat="41.54897153537285" lon="13.009262955782601"><ele>530.0</ele><time>2026-03-22T08:55:41Z</time></trkpt><trkpt lat="41.54910445825278" lon="13.009270982670287"><ele>530.0</ele><time>2026-03-22T08:55:42Z</time></trkpt><trkpt lat="41.549239931411186" lon="13.00927593655625"><ele>530.0</ele><time>2026-03-22T08:55:43Z</time></trkpt><trkpt lat="41.54937360480671" lon="13.009270404617673"><ele>530.0</ele><time>2026-03-22T08:55:43.999Z</time></trkpt><trkpt lat="41.54951285758121" lon="13.009235331162555"><ele>530.0</ele><time>2026-03-22T08:55:44.999Z</time></trkpt><trkpt lat="41.54965486876749" lon="13.009183635374969"><ele>524.5</ele><time>2026-03-22T08:55:45.999Z</time></trkpt><trkpt lat="41.54978956761615" lon="13.009131395182958"><ele>519.0</ele><time>2026-03-22T08:55:46.999Z</time></trkpt><trkpt lat="41.549927227656056" lon="13.009058859332951"><ele>513.5</ele><time>2026-03-22T08:55:47.999Z</time></trkpt><trkpt lat="41.55003967958284" lon="13.009051700027582"><ele>508.0</ele><time>2026-03-22T08:55:48.999Z</time></trkpt><trkpt lat="41.55013750148771" lon="13.009019550067887"><ele>508.0</ele><time>2026-03-22T08:55:49.999Z</time></trkpt><trkpt lat="41.55023292327017" lon="13.00906446582942"><ele>507.99999999999994</ele><time>2026-03-22T08:55:50.999Z</time></trkpt><trkpt lat="41.550325189835334" lon="13.009139255246833"><ele>507.99999999999994</ele><time>2026-03-22T08:55:51.999Z</time></trkpt><trkpt lat="41.55038505760806" lon="13.009229304730068"><ele>508.0</ele><time>2026-03-22T08:55:52.999Z</time></trkpt><trkpt lat="41.550449366117846" lon="13.00931073436429"><ele>508.0</ele><time>2026-03-22T08:55:53.999Z</time></trkpt><trkpt lat="41.55052152453201" lon="13.009389206656161"><ele>513.8</ele><time>2026-03-22T08:55:54.999Z</time></trkpt><trkpt lat="41.550600510315164" lon="13.009481719281174"><ele>519.5999999999999</ele><time>2026-03-22T08:55:55.999Z</time></trkpt><trkpt lat="41.55068196371222" lon="13.009566344143701"><ele>525.4000000000001</ele><time>2026-03-22T08:55:56.999Z</time></trkpt><trkpt lat="41.5507635891426" lon="13.009661695786942"><ele>531.2</ele><time>2026-03-22T08:55:57.999Z</time></trkpt><trkpt lat="41.550863911556" lon="13.009744871086832"><ele>537.0</ele><time>2026-03-22T08:55:58.999Z</time></trkpt><trkpt lat="41.55097513920132" lon="13.009869440373478"><ele>537.0</ele><time>2026-03-22T08:55:59.999Z</time></trkpt><trkpt lat="41.55106603179004" lon="13.009976803099418"><ele>537.0</ele><time>2026-03-22T08:56:00.999Z</time></trkpt><trkpt lat="41.551155866272815" lon="13.010068248144101"><ele>537.0</ele><time>2026-03-22T08:56:01.999Z</time></trkpt><trkpt lat="41.551242054198305" lon="13.010142129358158"><ele>537.0</ele><time>2026-03-22T08:56:02.999Z</time></trkpt><trkpt lat="41.551324105171716" lon="13.010184486496126"><ele>537.0</ele><time>2026-03-22T08:56:03.999Z</time></trkpt><trkpt lat="41.5514013144011" lon="13.01019404271015"><ele>539.3333333333334</ele><time>2026-03-22T08:56:04.999Z</time></trkpt><trkpt lat="41.55147567414025" lon="13.010195598533222"><ele>541.6666666666666</ele><time>2026-03-22T08:56:05.999Z</time></trkpt><trkpt lat="41.551560384195" lon="13.010158238684182"><ele>544.0</ele><time>2026-03-22T08:56:06.999Z</time></trkpt><trkpt lat="41.55164653605829" lon="13.01010150572221"><ele>546.3333333333333</ele><time>2026-03-22T08:56:07.999Z</time></trkpt><trkpt lat="41.551710443351766" lon="13.01003297061604"><ele>548.6666666666666</ele><time>2026-03-22T08:56:08.999Z</time></trkpt><trkpt lat="41.5517928544674" lon="13.009963581813814"><ele>551.0</ele><time>2026-03-22T08:56:09.999Z</time></trkpt><trkpt lat="41.55187599897541" lon="13.009855117877972"><ele>551.0</ele><time>2026-03-22T08:56:10.999Z</time></trkpt><trkpt lat="41.55194677465041" lon="13.009746952607285"><ele>551.0</ele><time>2026-03-22T08:56:11.999Z</time></trkpt><trkpt lat="41.552025199721704" lon="13.009642568220674"><ele>551.0</ele><time>2026-03-22T08:56:12.999Z</time></trkpt><trkpt lat="41.552099829322486" lon="13.009538476305865"><ele>551.0</ele><time>2026-03-22T08:56:13.999Z</time></trkpt><trkpt lat="41.55216838990807" lon="13.009419623381309"><ele>551.0</ele><time>2026-03-22T08:56:14.999Z</time></trkpt><trkpt lat="41.55223032542687" lon="13.009283157745745"><ele>555.25</ele><time>2026-03-22T08:56:15.999Z</time></trkpt><trkpt lat="41.552296524236425" lon="13.009148105593342"><ele>559.5</ele><time>2026-03-22T08:56:16.999Z</time></trkpt><trkpt lat="41.5523635811143" lon="13.009013000896081"><ele>563.75</ele><time>2026-03-22T08:56:17.999Z</time></trkpt><trkpt lat="41.55243449307915" lon="13.008883879561544"><ele>568.0</ele><time>2026-03-22T08:56:18.999Z</time></trkpt><trkpt lat="41.55251435201834" lon="13.008756163565513"><ele>568.0</ele><time>2026-03-22T08:56:19.999Z</time></trkpt><trkpt lat="41.552604303550865" lon="13.008618370480171"><ele>568.0</ele><time>2026-03-22T08:56:20.999Z</time></trkpt><trkpt lat="41.5527004776326" lon="13.008501795342896"><ele>568.0</ele><time>2026-03-22T08:56:21.999Z</time></trkpt><trkpt lat="41.55280146508959" lon="13.008383666231234"><ele>568.0</ele><time>2026-03-22T08:56:22.999Z</time></trkpt><trkpt lat="41.5529070842712" lon="13.008276843511945"><ele>576.0</ele><time>2026-03-22T08:56:23.999Z</time></trkpt><trkpt lat="41.553010272902846" lon="13.00814894997954"><ele>584.0</ele><time>2026-03-22T08:56:24.999Z</time></trkpt><trkpt lat="41.55310053018752" lon="13.00801812324856"><ele>592.0</ele><time>2026-03-22T08:56:25.999Z</time></trkpt><trkpt lat="41.55320142136734" lon="13.007884636944649"><ele>600.0</ele><time>2026-03-22T08:56:26.999Z</time></trkpt><trkpt lat="41.55327145247853" lon="13.00772257524272"><ele>600.0</ele><time>2026-03-22T08:56:27.999Z</time></trkpt><trkpt lat="41.553342207964704" lon="13.00755530328423"><ele>600.0</ele><time>2026-03-22T08:56:28.999Z</time></trkpt><trkpt lat="41.553412408583846" lon="13.007392805759485"><ele>600.0</ele><time>2026-03-22T08:56:29.999Z</time></trkpt><trkpt lat="41.55348065531638" lon="13.0072387184613"><ele>600.0</ele><time>2026-03-22T08:56:30.999Z</time></trkpt><trkpt lat="41.55355113439793" lon="13.00708449303653"><ele>602.75</ele><time>2026-03-22T08:56:31.999Z</time></trkpt><trkpt lat="41.55362380465986" lon="13.006931980065762"><ele>605.5</ele><time>2026-03-22T08:56:32.999Z</time></trkpt><trkpt lat="41.55369744818586" lon="13.006781403252004"><ele>608.25</ele><time>2026-03-22T08:56:33.999Z</time></trkpt><trkpt lat="41.55376389504576" lon="13.006631120362076"><ele>611.0</ele><time>2026-03-22T08:56:34.999Z</time></trkpt><trkpt lat="41.55384635641317" lon="13.006493433977571"><ele>611.0</ele><time>2026-03-22T08:56:35.999Z</time></trkpt><trkpt lat="41.55392519952082" lon="13.006364777382828"><ele>611.0</ele><time>2026-03-22T08:56:36.999Z</time></trkpt><trkpt lat="41.55400305805122" lon="13.006240097703559"><ele>611.0</ele><time>2026-03-22T08:56:37.999Z</time></trkpt><trkpt lat="41.55409639208403" lon="13.00613721935794"><ele>611.0</ele><time>2026-03-22T08:56:38.999Z</time></trkpt><trkpt lat="41.554185005950515" lon="13.006033248169068"><ele>611.0</ele><time>2026-03-22T08:56:39.999Z</time></trkpt><trkpt lat="41.55427827254031" lon="13.00593282622475"><ele>611.0</ele><time>2026-03-22T08:56:40.999Z</time></trkpt><trkpt lat="41.55437959009865" lon="13.005837699361319"><ele>611.0</ele><time>2026-03-22T08:56:41.999Z</time></trkpt><trkpt lat="41.55447429751132" lon="13.005763071573666"><ele>611.0</ele><time>2026-03-22T08:56:42.999Z</time></trkpt><trkpt lat="41.55454692415827" lon="13.00569976283262"><ele>611.0</ele><time>2026-03-22T08:56:43.999Z</time></trkpt><trkpt lat="41.55466059631392" lon="13.005674886350578"><ele>608.5714285714287</ele><time>2026-03-22T08:56:45.998Z</time></trkpt><trkpt lat="41.554730440599755" lon="13.005678549832822"><ele>606.1428571428571</ele><time>2026-03-22T08:56:46.998Z</time></trkpt><trkpt lat="41.55479463865493" lon="13.005695305354461"><ele>603.7142857142858</ele><time>2026-03-22T08:56:47.998Z</time></trkpt><trkpt lat="41.55486424589821" lon="13.00571525681696"><ele>601.2857142857143</ele><time>2026-03-22T08:56:50Z</time></trkpt><trkpt lat="41.554927500811765" lon="13.005731784524441"><ele>598.8571428571429</ele><time>2026-03-22T08:56:52Z</time></trkpt><trkpt lat="41.554999999302446" lon="13.005768691814426"><ele>596.4285714285714</ele><time>2026-03-22T08:56:53Z</time></trkpt><trkpt lat="41.55508720248436" lon="13.005808651320208"><ele>594.0</ele><time>2026-03-22T08:56:54Z</time></trkpt><trkpt lat="41.55518362936846" lon="13.005840374251537"><ele>601.2</ele><time>2026-03-22T08:56:55Z</time></trkpt><trkpt lat="41.55528076015781" lon="13.005876693960953"><ele>608.4</ele><time>2026-03-22T08:56:56Z</time></trkpt><trkpt lat="41.55537712911701" lon="13.005920312654192"><ele>615.6</ele><time>2026-03-22T08:56:57Z</time></trkpt><trkpt lat="41.55547840953782" lon="13.0059752382433"><ele>622.8</ele><time>2026-03-22T08:56:58Z</time></trkpt><trkpt lat="41.55557902468754" lon="13.006034985973635"><ele>630.0</ele><time>2026-03-22T08:56:59Z</time></trkpt><trkpt lat="41.55568000980732" lon="13.00610554533049"><ele>630.0</ele><time>2026-03-22T08:57:00Z</time></trkpt><trkpt lat="41.5557746586924" lon="13.006175938208923"><ele>630.0</ele><time>2026-03-22T08:57:01Z</time></trkpt><trkpt lat="41.555871467268176" lon="13.006245839540586"><ele>630.0</ele><time>2026-03-22T08:57:02Z</time></trkpt><trkpt lat="41.55596563660533" lon="13.00632850469255"><ele>630.0</ele><time>2026-03-22T08:57:03Z</time></trkpt><trkpt lat="41.556064170057255" lon="13.00639826375207"><ele>630.0</ele><time>2026-03-22T08:57:04Z</time></trkpt><trkpt lat="41.55617306119706" lon="13.006458144016488"><ele>630.5</ele><time>2026-03-22T08:57:05Z</time></trkpt><trkpt lat="41.55628035285979" lon="13.006508179355304"><ele>631.0</ele><time>2026-03-22T08:57:06Z</time></trkpt><trkpt lat="41.556400377659735" lon="13.006552596744339"><ele>631.5</ele><time>2026-03-22T08:57:07Z</time></trkpt><trkpt lat="41.55652585098887" lon="13.006568881810935"><ele>632.0</ele><time>2026-03-22T08:57:08Z</time></trkpt><trkpt lat="41.55664423028973" lon="13.006597049679586"><ele>632.0</ele><time>2026-03-22T08:57:09Z</time></trkpt><trkpt lat="41.55676863132725" lon="13.006577787514631"><ele>632.0</ele><time>2026-03-22T08:57:10Z</time></trkpt><trkpt lat="41.556882605309966" lon="13.006539780570543"><ele>632.0</ele><time>2026-03-22T08:57:11Z</time></trkpt><trkpt lat="41.55700299868276" lon="13.006485731152084"><ele>632.0</ele><time>2026-03-22T08:57:12Z</time></trkpt><trkpt lat="41.557121418650276" lon="13.006425714778889"><ele>636.75</ele><time>2026-03-22T08:57:13Z</time></trkpt><trkpt lat="41.557218738381586" lon="13.006357251033396"><ele>641.5</ele><time>2026-03-22T08:57:14Z</time></trkpt><trkpt lat="41.557331042526734" lon="13.006279369089642"><ele>646.25</ele><time>2026-03-22T08:57:15Z</time></trkpt><trkpt lat="41.557452610111675" lon="13.006209299813504"><ele>651.0</ele><time>2026-03-22T08:57:16Z</time></trkpt><trkpt lat="41.55755012827935" lon="13.006179497109997"><ele>651.0</ele><time>2026-03-22T08:57:17Z</time></trkpt><trkpt lat="41.55762276884299" lon="13.006113498751821"><ele>651.0</ele><time>2026-03-22T08:57:18Z</time></trkpt><trkpt lat="41.55769917218956" lon="13.006113890490774"><ele>651.0</ele><time>2026-03-22T08:57:19Z</time></trkpt><trkpt lat="41.55782269673952" lon="13.006172063378068"><ele>651.0</ele><time>2026-03-22T08:57:21Z</time></trkpt><trkpt lat="41.557897777109126" lon="13.006265624182742"><ele>651.0</ele><time>2026-03-22T08:57:22Z</time></trkpt><trkpt lat="41.55795434764287" lon="13.006357611375394"><ele>651.3333333333334</ele><time>2026-03-22T08:57:23Z</time></trkpt><trkpt lat="41.55801018790246" lon="13.006458913507451"><ele>651.6666666666666</ele><time>2026-03-22T08:57:25Z</time></trkpt><trkpt lat="41.55808603220088" lon="13.006579923985614"><ele>652.0</ele><time>2026-03-22T08:57:27Z</time></trkpt><trkpt lat="41.55811684260695" lon="13.006664992662996"><ele>652.3333333333333</ele><time>2026-03-22T08:57:28Z</time></trkpt><trkpt lat="41.55814674497741" lon="13.006752241180857"><ele>652.6666666666666</ele><time>2026-03-22T08:57:29Z</time></trkpt><trkpt lat="41.55816838008828" lon="13.006842521432224"><ele>653.0</ele><time>2026-03-22T08:57:30Z</time></trkpt><trkpt lat="41.558198849573415" lon="13.006927707918292"><ele>656.5999999999999</ele><time>2026-03-22T08:57:31Z</time></trkpt><trkpt lat="41.55821641960578" lon="13.007038628760835"><ele>660.1999999999999</ele><time>2026-03-22T08:57:32Z</time></trkpt><trkpt lat="41.558223558182384" lon="13.007162014761786"><ele>663.8</ele><time>2026-03-22T08:57:33Z</time></trkpt><trkpt lat="41.55820348095072" lon="13.007304630843246"><ele>667.4</ele><time>2026-03-22T08:57:34Z</time></trkpt><trkpt lat="41.55817136906137" lon="13.007443633524586"><ele>671.0</ele><time>2026-03-22T08:57:35Z</time></trkpt><trkpt lat="41.558149888909604" lon="13.00759063337773"><ele>673.4</ele><time>2026-03-22T08:57:36Z</time></trkpt><trkpt lat="41.5581040035283" lon="13.0077310044276"><ele>675.8</ele><time>2026-03-22T08:57:37Z</time></trkpt><trkpt lat="41.558039323401815" lon="13.007846104256693"><ele>678.1999999999999</ele><time>2026-03-22T08:57:38Z</time></trkpt><trkpt lat="41.557991941979516" lon="13.007968276447155"><ele>680.5999999999999</ele><time>2026-03-22T08:57:39Z</time></trkpt><trkpt lat="41.55794909627815" lon="13.008078753394104"><ele>683.0</ele><time>2026-03-22T08:57:40Z</time></trkpt><trkpt lat="41.55791685302278" lon="13.008193410539436"><ele>683.0</ele><time>2026-03-22T08:57:41Z</time></trkpt><trkpt lat="41.55790360754283" lon="13.00830842091363"><ele>683.0</ele><time>2026-03-22T08:57:42Z</time></trkpt><trkpt lat="41.557904226942696" lon="13.008414558610443"><ele>683.0</ele><time>2026-03-22T08:57:43Z</time></trkpt><trkpt lat="41.55793248402616" lon="13.008526609741269"><ele>683.0</ele><time>2026-03-22T08:57:44Z</time></trkpt><trkpt lat="41.557999112231194" lon="13.008602326851296"><ele>683.0</ele><time>2026-03-22T08:57:45Z</time></trkpt><trkpt lat="41.55808328180818" lon="13.00860987810748"><ele>683.0</ele><time>2026-03-22T08:57:46Z</time></trkpt><trkpt lat="41.55814847911269" lon="13.00860947742953"><ele>685.1666666666666</ele><time>2026-03-22T08:57:47Z</time></trkpt><trkpt lat="41.55823406638624" lon="13.008587545092215"><ele>687.3333333333333</ele><time>2026-03-22T08:57:48Z</time></trkpt><trkpt lat="41.55831949088364" lon="13.0085643742511"><ele>689.5</ele><time>2026-03-22T08:57:49Z</time></trkpt><trkpt lat="41.55841724344363" lon="13.008543423184522"><ele>691.6666666666666</ele><time>2026-03-22T08:57:50Z</time></trkpt><trkpt lat="41.55848755257719" lon="13.008548764317375"><ele>693.8333333333334</ele><time>2026-03-22T08:57:51Z</time></trkpt><trkpt lat="41.558563169893816" lon="13.008533907310047"><ele>696.0</ele><time>2026-03-22T08:57:52Z</time></trkpt><trkpt lat="41.558640068096835" lon="13.008529527503379"><ele>695.5</ele><time>2026-03-22T08:57:53Z</time></trkpt><trkpt lat="41.55875024831895" lon="13.008581453719565"><ele>695.0</ele><time>2026-03-22T08:57:55Z</time></trkpt><trkpt lat="41.5587876772685" lon="13.008742814714035"><ele>694.5</ele><time>2026-03-22T08:57:56.999Z</time></trkpt><trkpt lat="41.55879487638803" lon="13.00890377602937"><ele>694.0</ele><time>2026-03-22T08:57:58.999Z</time></trkpt><trkpt lat="41.558781633619056" lon="13.009022057907968"><ele>694.0</ele><time>2026-03-22T08:58:00.999Z</time></trkpt><trkpt lat="41.55878114718062" lon="13.009120400690332"><ele>694.0</ele><time>2026-03-22T08:58:03.999Z</time></trkpt><trkpt lat="41.55883391315169" lon="13.009241982091506"><ele>694.0</ele><time>2026-03-22T08:59:23Z</time></trkpt><trkpt lat="41.55877608982083" lon="13.0091313870409"><ele>694.0</ele><time>2026-03-22T08:59:27Z</time></trkpt><trkpt lat="41.55879460899282" lon="13.009013304439742"><ele>694.0</ele><time>2026-03-22T08:59:29Z</time></trkpt><trkpt lat="41.5588384551299" lon="13.0089268648465"><ele>694.0</ele><time>2026-03-22T08:59:30Z</time></trkpt><trkpt lat="41.558834260474505" lon="13.008837160258743"><ele>694.0</ele><time>2026-03-22T08:59:31Z</time></trkpt><trkpt lat="41.55884068377896" lon="13.00873807605734"><ele>694.0</ele><time>2026-03-22T08:59:32Z</time></trkpt><trkpt lat="41.558831184743966" lon="13.008641582760761"><ele>694.0</ele><time>2026-03-22T08:59:33Z</time></trkpt><trkpt lat="41.55880515984123" lon="13.008557909799721"><ele>694.0</ele><time>2026-03-22T08:59:34Z</time></trkpt><trkpt lat="41.55869494729017" lon="13.008474754695833"><ele>694.0</ele><time>2026-03-22T08:59:36Z</time></trkpt><trkpt lat="41.55862224129478" lon="13.008440687844983"><ele>694.0</ele><time>2026-03-22T08:59:37Z</time></trkpt><trkpt lat="41.55852695544748" lon="13.008468918080919"><ele>694.4000000000001</ele><time>2026-03-22T08:59:38Z</time></trkpt><trkpt lat="41.558431171629735" lon="13.008496225072319"><ele>694.8</ele><time>2026-03-22T08:59:39Z</time></trkpt><trkpt lat="41.558336802190986" lon="13.00851219194013"><ele>695.2</ele><time>2026-03-22T08:59:40Z</time></trkpt><trkpt lat="41.55823261488769" lon="13.008513232919526"><ele>695.5999999999999</ele><time>2026-03-22T08:59:41Z</time></trkpt><trkpt lat="41.55812849139225" lon="13.008554119140786"><ele>696.0</ele><time>2026-03-22T08:59:42Z</time></trkpt><trkpt lat="41.55803187260312" lon="13.008545275593882"><ele>696.0</ele><time>2026-03-22T08:59:43Z</time></trkpt><trkpt lat="41.55796408529843" lon="13.008516321268218"><ele>696.0</ele><time>2026-03-22T08:59:44Z</time></trkpt><trkpt lat="41.557922153253934" lon="13.008390117547336"><ele>696.0</ele><time>2026-03-22T08:59:46Z</time></trkpt><trkpt lat="41.55793189415657" lon="13.008275671395305"><ele>696.0</ele><time>2026-03-22T08:59:47Z</time></trkpt><trkpt lat="41.55795508739245" lon="13.008156497876257"><ele>696.0</ele><time>2026-03-22T08:59:48Z</time></trkpt><trkpt lat="41.558004087920324" lon="13.008033620906033"><ele>692.75</ele><time>2026-03-22T08:59:49Z</time></trkpt><trkpt lat="41.55806003733129" lon="13.00788935674062"><ele>689.5</ele><time>2026-03-22T08:59:50Z</time></trkpt><trkpt lat="41.55810901129434" lon="13.007769277765991"><ele>686.25</ele><time>2026-03-22T08:59:51Z</time></trkpt><trkpt lat="41.55818076941222" lon="13.007592269750393"><ele>683.0</ele><time>2026-03-22T08:59:52Z</time></trkpt><trkpt lat="41.55821791849809" lon="13.00743717000883"><ele>680.5999999999999</ele><time>2026-03-22T08:59:53Z</time></trkpt><trkpt lat="41.55824259482672" lon="13.007275579696206"><ele>678.1999999999999</ele><time>2026-03-22T08:59:54Z</time></trkpt><trkpt lat="41.55824502444664" lon="13.007130947981043"><ele>675.8</ele><time>2026-03-22T08:59:55Z</time></trkpt><trkpt lat="41.5582494981698" lon="13.006969946070503"><ele>673.4</ele><time>2026-03-22T08:59:56Z</time></trkpt><trkpt lat="41.55822873346679" lon="13.006850226140278"><ele>671.0</ele><time>2026-03-22T08:59:57Z</time></trkpt><trkpt lat="41.55818550486539" lon="13.006731120430768"><ele>667.4</ele><time>2026-03-22T08:59:58Z</time></trkpt><trkpt lat="41.558150560637884" lon="13.006629807996768"><ele>663.8</ele><time>2026-03-22T08:59:59Z</time></trkpt><trkpt lat="41.55809880141451" lon="13.00653195076391"><ele>660.1999999999999</ele><time>2026-03-22T09:00:00.999Z</time></trkpt><trkpt lat="41.55804204853319" lon="13.006463846534382"><ele>656.5999999999999</ele><time>2026-03-22T09:00:07.999Z</time></trkpt><trkpt lat="41.558010806780445" lon="13.006378231217614"><ele>653.0</ele><time>2026-03-22T09:00:10.999Z</time></trkpt><trkpt lat="41.557835529610564" lon="13.006364527656022"><ele>652.6666666666666</ele><time>2026-03-22T09:00:15.999Z</time></trkpt><trkpt lat="41.55775864334033" lon="13.006348374292587"><ele>652.3333333333333</ele><time>2026-03-22T09:00:16.999Z</time></trkpt><trkpt lat="41.55764864867311" lon="13.006397543801572"><ele>652.0</ele><time>2026-03-22T09:00:18.999Z</time></trkpt><trkpt lat="41.557567191822336" lon="13.006375241031261"><ele>651.6666666666666</ele><time>2026-03-22T09:00:19.999Z</time></trkpt><trkpt lat="41.5575027112881" lon="13.006431381775942"><ele>651.3333333333334</ele><time>2026-03-22T09:00:20.999Z</time></trkpt><trkpt lat="41.55745281795155" lon="13.006519000292586"><ele>651.0</ele><time>2026-03-22T09:00:21.999Z</time></trkpt><trkpt lat="41.557391616172715" lon="13.006621151757601"><ele>654.4</ele><time>2026-03-22T09:00:22.999Z</time></trkpt><trkpt lat="41.55731185742458" lon="13.006750588970391"><ele>657.8</ele><time>2026-03-22T09:00:23.999Z</time></trkpt><trkpt lat="41.55722781257775" lon="13.00684958037935"><ele>661.1999999999999</ele><time>2026-03-22T09:00:24.999Z</time></trkpt><trkpt lat="41.55714350931124" lon="13.00693096974294"><ele>664.5999999999999</ele><time>2026-03-22T09:00:25.999Z</time></trkpt><trkpt lat="41.55705371727187" lon="13.006972066755964"><ele>668.0</ele><time>2026-03-22T09:00:26.999Z</time></trkpt><trkpt lat="41.55693685192301" lon="13.007039773794931"><ele>668.0</ele><time>2026-03-22T09:00:28.999Z</time></trkpt><trkpt lat="41.55681280010398" lon="13.007115231945622"><ele>668.0</ele><time>2026-03-22T09:00:29.999Z</time></trkpt><trkpt lat="41.55670414819102" lon="13.007194504386485"><ele>668.0</ele><time>2026-03-22T09:00:30.999Z</time></trkpt><trkpt lat="41.556593918392984" lon="13.007279611068205"><ele>668.0</ele><time>2026-03-22T09:00:31.999Z</time></trkpt><trkpt lat="41.55649240472887" lon="13.007327745238058"><ele>668.0</ele><time>2026-03-22T09:00:32.999Z</time></trkpt><trkpt lat="41.55637233809137" lon="13.00736296947424"><ele>668.0</ele><time>2026-03-22T09:00:33.999Z</time></trkpt><trkpt lat="41.55626800963786" lon="13.007370204543465"><ele>668.0</ele><time>2026-03-22T09:00:34.999Z</time></trkpt><trkpt lat="41.55614490372741" lon="13.007368616338116"><ele>668.0</ele><time>2026-03-22T09:00:35.999Z</time></trkpt><trkpt lat="41.555990324049006" lon="13.007366525863508"><ele>667.5</ele><time>2026-03-22T09:00:36.999Z</time></trkpt><trkpt lat="41.555819164492036" lon="13.007374891222687"><ele>667.0</ele><time>2026-03-22T09:00:37.999Z</time></trkpt><trkpt lat="41.55566073984229" lon="13.007399478020618"><ele>666.5</ele><time>2026-03-22T09:00:38.999Z</time></trkpt><trkpt lat="41.55555447638968" lon="13.00743225337522"><ele>666.0</ele><time>2026-03-22T09:00:39.999Z</time></trkpt><trkpt lat="41.555457635508404" lon="13.007470339160266"><ele>671.8</ele><time>2026-03-22T09:00:40.999Z</time></trkpt><trkpt lat="41.55537973254773" lon="13.007508330369026"><ele>677.5999999999999</ele><time>2026-03-22T09:00:41.999Z</time></trkpt><trkpt lat="41.555318978316095" lon="13.007544091349901"><ele>683.4</ele><time>2026-03-22T09:00:42.999Z</time></trkpt><trkpt lat="41.55524845639031" lon="13.007542191671101"><ele>689.2</ele><time>2026-03-22T09:00:52.999Z</time></trkpt><trkpt lat="41.55522877778236" lon="13.007667683479262"><ele>695.0</ele><time>2026-03-22T09:00:56.999Z</time></trkpt><trkpt lat="41.55513753299856" lon="13.007806016234412"><ele>695.0</ele><time>2026-03-22T09:01:35Z</time></trkpt><trkpt lat="41.55507349539939" lon="13.00777850199491"><ele>695.0</ele><time>2026-03-22T09:02:37.999Z</time></trkpt><trkpt lat="41.55498842096506" lon="13.00775357533616"><ele>695.0</ele><time>2026-03-22T09:02:44.999Z</time></trkpt><trkpt lat="41.55491920919727" lon="13.007802482500573"><ele>695.0</ele><time>2026-03-22T09:02:47.999Z</time></trkpt><trkpt lat="41.55485514140289" lon="13.007889777754155"><ele>695.0</ele><time>2026-03-22T09:02:50.999Z</time></trkpt><trkpt lat="41.554814041707374" lon="13.00799558291828"><ele>695.0</ele><time>2026-03-22T09:02:53.999Z</time></trkpt><trkpt lat="41.55474901077698" lon="13.008083962957443"><ele>695.0000000000001</ele><time>2026-03-22T09:02:55.999Z</time></trkpt><trkpt lat="41.554707852536545" lon="13.008156510345854"><ele>695.0</ele><time>2026-03-22T09:02:57.999Z</time></trkpt><trkpt lat="41.5546576143634" lon="13.008243598955545"><ele>695.0</ele><time>2026-03-22T09:03:00.999Z</time></trkpt><trkpt lat="41.55460932652912" lon="13.008310116015736"><ele>695.0</ele><time>2026-03-22T09:03:03.999Z</time></trkpt><trkpt lat="41.55454987807966" lon="13.008349910809802"><ele>695.0</ele><time>2026-03-22T09:03:05.999Z</time></trkpt><trkpt lat="41.554503934357825" lon="13.008421849854026"><ele>695.0000000000001</ele><time>2026-03-22T09:03:09Z</time></trkpt><trkpt lat="41.55446562474522" lon="13.008496253213691"><ele>695.0</ele><time>2026-03-22T09:03:11Z</time></trkpt><trkpt lat="41.554423528597454" lon="13.008591133955447"><ele>691.6666666666666</ele><time>2026-03-22T09:03:15Z</time></trkpt><trkpt lat="41.554392875806926" lon="13.008671725455402"><ele>688.3333333333333</ele><time>2026-03-22T09:03:17Z</time></trkpt><trkpt lat="41.55433108701265" lon="13.008730300700703"><ele>685.0</ele><time>2026-03-22T09:03:19Z</time></trkpt><trkpt lat="41.5542830314424" lon="13.008816674167731"><ele>681.6666666666666</ele><time>2026-03-22T09:03:22Z</time></trkpt><trkpt lat="41.55423790876401" lon="13.008897530313618"><ele>678.3333333333334</ele><time>2026-03-22T09:03:25Z</time></trkpt><trkpt lat="41.554175213652584" lon="13.00895527915673"><ele>675.0</ele><time>2026-03-22T09:03:28Z</time></trkpt><trkpt lat="41.55409307764546" lon="13.009018567758563"><ele>675.0</ele><time>2026-03-22T09:03:31Z</time></trkpt><trkpt lat="41.554053644233626" lon="13.009097377079591"><ele>675.0</ele><time>2026-03-22T09:03:34Z</time></trkpt><trkpt lat="41.5539924012035" lon="13.009133127787665"><ele>675.0</ele><time>2026-03-22T09:03:38Z</time></trkpt><trkpt lat="41.5539359636763" lon="13.009184724198372"><ele>675.0</ele><time>2026-03-22T09:03:43Z</time></trkpt><trkpt lat="41.553887034719914" lon="13.009256851400785"><ele>675.0</ele><time>2026-03-22T09:03:48Z</time></trkpt><trkpt lat="41.55383813114937" lon="13.009315943627398"><ele>675.0</ele><time>2026-03-22T09:05:40Z</time></trkpt><trkpt lat="41.55378784736848" lon="13.009391059889916"><ele>675.0</ele><time>2026-03-22T09:05:45Z</time></trkpt><trkpt lat="41.55372235158352" lon="13.009464586944127"><ele>671.0</ele><time>2026-03-22T09:05:50Z</time></trkpt><trkpt lat="41.55366603752497" lon="13.00951652674941"><ele>667.0</ele><time>2026-03-22T09:05:54Z</time></trkpt><trkpt lat="41.553613392810476" lon="13.009571817155173"><ele>663.0</ele><time>2026-03-22T09:05:58Z</time></trkpt><trkpt lat="41.55355901951849" lon="13.009636613157433"><ele>659.0</ele><time>2026-03-22T09:06:00Z</time></trkpt><trkpt lat="41.55351829052204" lon="13.009704648439905"><ele>655.0</ele><time>2026-03-22T09:06:03Z</time></trkpt><trkpt lat="41.55347649615127" lon="13.00977696154067"><ele>651.0</ele><time>2026-03-22T09:06:06Z</time></trkpt><trkpt lat="41.553435149138615" lon="13.009846916316361"><ele>647.0</ele><time>2026-03-22T09:06:10Z</time></trkpt><trkpt lat="41.553405590512945" lon="13.009948900319849"><ele>649.8333333333333</ele><time>2026-03-22T09:06:14Z</time></trkpt><trkpt lat="41.55337118741503" lon="13.010051149206884"><ele>652.6666666666666</ele><time>2026-03-22T09:06:17.999Z</time></trkpt><trkpt lat="41.5533331233438" lon="13.010130108492922"><ele>655.5</ele><time>2026-03-22T09:06:21.999Z</time></trkpt><trkpt lat="41.55329780723891" lon="13.010203940625564"><ele>658.3333333333334</ele><time>2026-03-22T09:06:23.999Z</time></trkpt><trkpt lat="41.55327611983044" lon="13.010301243589145"><ele>661.1666666666667</ele><time>2026-03-22T09:06:26.999Z</time></trkpt><trkpt lat="41.55323593829452" lon="13.010386090726117"><ele>664.0</ele><time>2026-03-22T09:06:29.999Z</time></trkpt><trkpt lat="41.55317798630777" lon="13.010502868111688"><ele>664.0</ele><time>2026-03-22T09:06:31.999Z</time></trkpt><trkpt lat="41.55313032594611" lon="13.010575455831942"><ele>664.0</ele><time>2026-03-22T09:06:34.999Z</time></trkpt><trkpt lat="41.55305988026533" lon="13.010660213641398"><ele>664.0</ele><time>2026-03-22T09:06:36.999Z</time></trkpt><trkpt lat="41.55301068773778" lon="13.01076427094277"><ele>664.0</ele><time>2026-03-22T09:06:38.999Z</time></trkpt><trkpt lat="41.552960915491006" lon="13.010862887376218"><ele>664.0</ele><time>2026-03-22T09:06:40.999Z</time></trkpt><trkpt lat="41.55291621123861" lon="13.010925502164264"><ele>664.0</ele><time>2026-03-22T09:06:42.999Z</time></trkpt><trkpt lat="41.55284591359617" lon="13.011019827818703"><ele>660.5714285714286</ele><time>2026-03-22T09:06:45.999Z</time></trkpt><trkpt lat="41.55279950185395" lon="13.011095098345812"><ele>657.1428571428572</ele><time>2026-03-22T09:06:47.999Z</time></trkpt><trkpt lat="41.552747491548345" lon="13.011153063940544"><ele>653.7142857142858</ele><time>2026-03-22T09:06:49.999Z</time></trkpt><trkpt lat="41.55269660239634" lon="13.011209377348912"><ele>650.2857142857142</ele><time>2026-03-22T09:06:51.999Z</time></trkpt><trkpt lat="41.552641423520924" lon="13.01127049004142"><ele>646.8571428571429</ele><time>2026-03-22T09:06:53.999Z</time></trkpt><trkpt lat="41.552599199564554" lon="13.011340329896283"><ele>643.4285714285714</ele><time>2026-03-22T09:06:55.999Z</time></trkpt><trkpt lat="41.552519962777964" lon="13.011390862145602"><ele>640.0</ele><time>2026-03-22T09:06:58.999Z</time></trkpt><trkpt lat="41.55246467382188" lon="13.011451379558759"><ele>640.0</ele><time>2026-03-22T09:07:00.999Z</time></trkpt><trkpt lat="41.55240962655308" lon="13.011517357566703"><ele>640.0</ele><time>2026-03-22T09:07:02.999Z</time></trkpt><trkpt lat="41.552342610517684" lon="13.01155804824319"><ele>640.0</ele><time>2026-03-22T09:07:04.999Z</time></trkpt><trkpt lat="41.5522854928495" lon="13.011601401917012"><ele>640.0</ele><time>2026-03-22T09:07:06.999Z</time></trkpt><trkpt lat="41.55220347528754" lon="13.01164416331643"><ele>640.0</ele><time>2026-03-22T09:07:08.999Z</time></trkpt><trkpt lat="41.55213305861001" lon="13.011711858798884"><ele>640.0</ele><time>2026-03-22T09:07:10.999Z</time></trkpt><trkpt lat="41.55206863007236" lon="13.011761451578602"><ele>641.3333333333334</ele><time>2026-03-22T09:07:12.999Z</time></trkpt><trkpt lat="41.55198742651768" lon="13.011806101174388"><ele>642.6666666666667</ele><time>2026-03-22T09:07:14.999Z</time></trkpt><trkpt lat="41.55192273040611" lon="13.011823324585022"><ele>644.0</ele><time>2026-03-22T09:07:16.999Z</time></trkpt><trkpt lat="41.55185042252536" lon="13.011868380100731"><ele>645.3333333333334</ele><time>2026-03-22T09:07:20Z</time></trkpt><trkpt lat="41.55177332241266" lon="13.011874222137221"><ele>646.6666666666666</ele><time>2026-03-22T09:07:22Z</time></trkpt><trkpt lat="41.55170954547825" lon="13.011889652779457"><ele>648.0</ele><time>2026-03-22T09:07:25Z</time></trkpt><trkpt lat="41.551636314501536" lon="13.01192556934002"><ele>648.0</ele><time>2026-03-22T09:07:28Z</time></trkpt><trkpt lat="41.551551520894165" lon="13.01199540268164"><ele>648.0</ele><time>2026-03-22T09:07:30Z</time></trkpt><trkpt lat="41.551454851459845" lon="13.012034469269686"><ele>648.0</ele><time>2026-03-22T09:07:32Z</time></trkpt><trkpt lat="41.55138885784017" lon="13.012045952186595"><ele>648.0</ele><time>2026-03-22T09:07:34Z</time></trkpt><trkpt lat="41.55132807607349" lon="13.011992128133276"><ele>648.0</ele><time>2026-03-22T09:07:38Z</time></trkpt><trkpt lat="41.55126750004896" lon="13.01195775281526"><ele>648.0</ele><time>2026-03-22T09:07:40Z</time></trkpt><trkpt lat="41.551194650765275" lon="13.011962098780975"><ele>649.6666666666666</ele><time>2026-03-22T09:07:42Z</time></trkpt><trkpt lat="41.55113113797097" lon="13.0119424349932"><ele>651.3333333333334</ele><time>2026-03-22T09:07:44Z</time></trkpt><trkpt lat="41.55106472917971" lon="13.011883887966677"><ele>653.0</ele><time>2026-03-22T09:07:46Z</time></trkpt><trkpt lat="41.551013632669026" lon="13.011808654698319"><ele>654.6666666666667</ele><time>2026-03-22T09:07:48Z</time></trkpt><trkpt lat="41.55097193569335" lon="13.011705750848535"><ele>656.3333333333334</ele><time>2026-03-22T09:07:50Z</time></trkpt><trkpt lat="41.55087184299867" lon="13.011642751769006"><ele>658.0</ele><time>2026-03-22T09:07:53Z</time></trkpt><trkpt lat="41.550810365904155" lon="13.011595030688893"><ele>651.1666666666667</ele><time>2026-03-22T09:07:54Z</time></trkpt><trkpt lat="41.55073290024772" lon="13.011545835885421"><ele>644.3333333333334</ele><time>2026-03-22T09:07:57Z</time></trkpt><trkpt lat="41.550686691280966" lon="13.01145590345341"><ele>637.5</ele><time>2026-03-22T09:08:01Z</time></trkpt><trkpt lat="41.550626332483986" lon="13.01138637616054"><ele>630.6666666666666</ele><time>2026-03-22T09:08:04Z</time></trkpt><trkpt lat="41.550568642010134" lon="13.011350414808495"><ele>623.8333333333333</ele><time>2026-03-22T09:08:06Z</time></trkpt><trkpt lat="41.55049601715839" lon="13.011284095419924"><ele>617.0</ele><time>2026-03-22T09:08:09Z</time></trkpt><trkpt lat="41.55042922269645" lon="13.011219659824373"><ele>617.0</ele><time>2026-03-22T09:08:12Z</time></trkpt><trkpt lat="41.550402188741266" lon="13.011142729520033"><ele>617.0</ele><time>2026-03-22T09:08:14Z</time></trkpt><trkpt lat="41.55034305803393" lon="13.011106262911998"><ele>617.0</ele><time>2026-03-22T09:08:17Z</time></trkpt><trkpt lat="41.55029435985473" lon="13.011046851862096"><ele>617.0</ele><time>2026-03-22T09:08:33.999Z</time></trkpt><trkpt lat="41.55022958735863" lon="13.011008619050493"><ele>617.0</ele><time>2026-03-22T09:08:37.999Z</time></trkpt><trkpt lat="41.55015481984516" lon="13.011017169921546"><ele>617.0</ele><time>2026-03-22T09:08:42.999Z</time></trkpt><trkpt lat="41.550082372510325" lon="13.011020712183393"><ele>617.0</ele><time>2026-03-22T09:08:46.999Z</time></trkpt><trkpt lat="41.55001801813096" lon="13.010987146266372"><ele>617.1428571428572</ele><time>2026-03-22T09:08:49.999Z</time></trkpt><trkpt lat="41.54993951557028" lon="13.01099681921458"><ele>617.2857142857142</ele><time>2026-03-22T09:08:53.999Z</time></trkpt><trkpt lat="41.54987106949506" lon="13.0109804530755"><ele>617.4285714285714</ele><time>2026-03-22T09:08:58.999Z</time></trkpt><trkpt lat="41.54979804374695" lon="13.010940846930643"><ele>617.5714285714287</ele><time>2026-03-22T09:09:02.999Z</time></trkpt><trkpt lat="41.549729830028504" lon="13.01092611494871"><ele>617.7142857142858</ele><time>2026-03-22T09:09:05.999Z</time></trkpt><trkpt lat="41.54965965266655" lon="13.01090949741904"><ele>617.8571428571429</ele><time>2026-03-22T09:09:09.999Z</time></trkpt><trkpt lat="41.54959414485641" lon="13.010885676968016"><ele>618.0</ele><time>2026-03-22T09:09:14.999Z</time></trkpt><trkpt lat="41.54952144870911" lon="13.010872725795467"><ele>617.6666666666666</ele><time>2026-03-22T09:09:26Z</time></trkpt><trkpt lat="41.549455324470706" lon="13.010858465310575"><ele>617.3333333333334</ele><time>2026-03-22T09:09:30Z</time></trkpt><trkpt lat="41.54938425780578" lon="13.01088587523372"><ele>617.0</ele><time>2026-03-22T09:09:34Z</time></trkpt><trkpt lat="41.54931574604379" lon="13.010872677732708"><ele>616.6666666666667</ele><time>2026-03-22T09:09:37Z</time></trkpt><trkpt lat="41.54922160024541" lon="13.010876860704531"><ele>616.3333333333334</ele><time>2026-03-22T09:09:41Z</time></trkpt><trkpt lat="41.54914937296266" lon="13.010865573147763"><ele>616.0</ele><time>2026-03-22T09:09:44Z</time></trkpt><trkpt lat="41.54907474786181" lon="13.010874713494696"><ele>616.0</ele><time>2026-03-22T09:09:47Z</time></trkpt><trkpt lat="41.54900636668344" lon="13.010869469034821"><ele>616.0</ele><time>2026-03-22T09:09:50Z</time></trkpt><trkpt lat="41.54893954287444" lon="13.010906208338628"><ele>616.0</ele><time>2026-03-22T09:09:53Z</time></trkpt><trkpt lat="41.54883388631736" lon="13.010938542956376"><ele>616.0</ele><time>2026-03-22T09:09:55Z</time></trkpt><trkpt lat="41.553613392810476" lon="13.009571817155173"><ele>620.4285714285714</ele><time>2026-03-22T09:05:58Z</time></trkpt><trkpt lat="41.55355901951849" lon="13.009636613157433"><ele>624.8571428571429</ele><time>2026-03-22T09:06:00Z</time></trkpt><trkpt lat="41.55351829052204" lon="13.009704648439905"><ele>629.2857142857142</ele><time>2026-03-22T09:06:03Z</time></trkpt><trkpt lat="41.55347649615127" lon="13.00977696154067"><ele>633.7142857142858</ele><time>2026-03-22T09:06:06Z</time></trkpt><trkpt lat="41.553435149138615" lon="13.009846916316361"><ele>638.1428571428571</ele><time>2026-03-22T09:06:10Z</time></trkpt><trkpt lat="41.553405590512945" lon="13.009948900319849"><ele>642.5714285714286</ele><time>2026-03-22T09:06:14Z</time></trkpt><trkpt lat="41.55337118741503" lon="13.010051149206884"><ele>647.0</ele><time>2026-03-22T09:06:17.999Z</time></trkpt><trkpt lat="41.5533331233438" lon="13.010130108492922"><ele>649.8333333333333</ele><time>2026-03-22T09:06:21.999Z</time></trkpt><trkpt lat="41.55329780723891" lon="13.010203940625564"><ele>652.6666666666666</ele><time>2026-03-22T09:06:23.999Z</time></trkpt><trkpt lat="41.55327611983044" lon="13.010301243589145"><ele>655.5</ele><time>2026-03-22T09:06:26.999Z</time></trkpt><trkpt lat="41.55323593829452" lon="13.010386090726117"><ele>658.3333333333334</ele><time>2026-03-22T09:06:29.999Z</time></trkpt><trkpt lat="41.55317798630777" lon="13.010502868111688"><ele>661.1666666666667</ele><time>2026-03-22T09:06:31.999Z</time></trkpt><trkpt lat="41.55313032594611" lon="13.010575455831942"><ele>664.0</ele><time>2026-03-22T09:06:34.999Z</time></trkpt><trkpt lat="41.55305988026533" lon="13.010660213641398"><ele>664.0</ele><time>2026-03-22T09:06:36.999Z</time></trkpt><trkpt lat="41.55301068773778" lon="13.01076427094277"><ele>664.0</ele><time>2026-03-22T09:06:38.999Z</time></trkpt><trkpt lat="41.552960915491006" lon="13.010862887376218"><ele>664.0</ele><time>2026-03-22T09:06:40.999Z</time></trkpt><trkpt lat="41.55291621123861" lon="13.010925502164264"><ele>664.0</ele><time>2026-03-22T09:06:42.999Z</time></trkpt><trkpt lat="41.55284591359617" lon="13.011019827818703"><ele>664.0</ele><time>2026-03-22T09:06:45.999Z</time></trkpt><trkpt lat="41.55279950185395" lon="13.011095098345812"><ele>664.0</ele><time>2026-03-22T09:06:47.999Z</time></trkpt><trkpt lat="41.552747491548345" lon="13.011153063940544"><ele>660.5714285714286</ele><time>2026-03-22T09:06:49.999Z</time></trkpt><trkpt lat="41.55269660239634" lon="13.011209377348912"><ele>657.1428571428572</ele><time>2026-03-22T09:06:51.999Z</time></trkpt><trkpt lat="41.552641423520924" lon="13.01127049004142"><ele>653.7142857142858</ele><time>2026-03-22T09:06:53.999Z</time></trkpt><trkpt lat="41.552599199564554" lon="13.011340329896283"><ele>650.2857142857142</ele><time>2026-03-22T09:06:55.999Z</time></trkpt><trkpt lat="41.552519962777964" lon="13.011390862145602"><ele>646.8571428571429</ele><time>2026-03-22T09:06:58.999Z</time></trkpt><trkpt lat="41.55246467382188" lon="13.011451379558759"><ele>643.4285714285714</ele><time>2026-03-22T09:07:00.999Z</time></trkpt><trkpt lat="41.55240962655308" lon="13.011517357566703"><ele>640.0</ele><time>2026-03-22T09:07:02.999Z</time></trkpt><trkpt lat="41.552342610517684" lon="13.01155804824319"><ele>640.0</ele><time>2026-03-22T09:07:04.999Z</time></trkpt><trkpt lat="41.5522854928495" lon="13.011601401917012"><ele>640.0</ele><time>2026-03-22T09:07:06.999Z</time></trkpt><trkpt lat="41.55220347528754" lon="13.01164416331643"><ele>640.0</ele><time>2026-03-22T09:07:08.999Z</time></trkpt><trkpt lat="41.55213305861001" lon="13.011711858798884"><ele>640.0</ele><time>2026-03-22T09:07:10.999Z</time></trkpt><trkpt lat="41.55206863007236" lon="13.011761451578602"><ele>640.0</ele><time>2026-03-22T09:07:12.999Z</time></trkpt><trkpt lat="41.55198742651768" lon="13.011806101174388"><ele>640.0</ele><time>2026-03-22T09:07:14.999Z</time></trkpt><trkpt lat="41.55192273040611" lon="13.011823324585022"><ele>641.3333333333334</ele><time>2026-03-22T09:07:16.999Z</time></trkpt><trkpt lat="41.55185042252536" lon="13.011868380100731"><ele>642.6666666666667</ele><time>2026-03-22T09:07:20Z</time></trkpt><trkpt lat="41.55177332241266" lon="13.011874222137221"><ele>644.0</ele><time>2026-03-22T09:07:22Z</time></trkpt><trkpt lat="41.55170954547825" lon="13.011889652779457"><ele>645.3333333333334</ele><time>2026-03-22T09:07:25Z</time></trkpt><trkpt lat="41.551636314501536" lon="13.01192556934002"><ele>646.6666666666666</ele><time>2026-03-22T09:07:28Z</time></trkpt><trkpt lat="41.551551520894165" lon="13.01199540268164"><ele>648.0</ele><time>2026-03-22T09:07:30Z</time></trkpt><trkpt lat="41.551454851459845" lon="13.012034469269686"><ele>648.0</ele><time>2026-03-22T09:07:32Z</time></trkpt><trkpt lat="41.55138885784017" lon="13.012045952186595"><ele>648.0</ele><time>2026-03-22T09:07:34Z</time></trkpt><trkpt lat="41.55132807607349" lon="13.011992128133276"><ele>648.0</ele><time>2026-03-22T09:07:38Z</time></trkpt><trkpt lat="41.55126750004896" lon="13.01195775281526"><ele>648.0</ele><time>2026-03-22T09:07:40Z</time></trkpt><trkpt lat="41.551194650765275" lon="13.011962098780975"><ele>648.0</ele><time>2026-03-22T09:07:42Z</time></trkpt><trkpt lat="41.55113113797097" lon="13.0119424349932"><ele>648.0</ele><time>2026-03-22T09:07:44Z</time></trkpt><trkpt lat="41.55106472917971" lon="13.011883887966677"><ele>648.0</ele><time>2026-03-22T09:07:46Z</time></trkpt><trkpt lat="41.551013632669026" lon="13.011808654698319"><ele>649.6666666666666</ele><time>2026-03-22T09:07:48Z</time></trkpt><trkpt lat="41.55097193569335" lon="13.011705750848535"><ele>651.3333333333334</ele><time>2026-03-22T09:07:50Z</time></trkpt><trkpt lat="41.55087184299867" lon="13.011642751769006"><ele>653.0</ele><time>2026-03-22T09:07:53Z</time></trkpt><trkpt lat="41.550810365904155" lon="13.011595030688893"><ele>654.6666666666667</ele><time>2026-03-22T09:07:54Z</time></trkpt><trkpt lat="41.55073290024772" lon="13.011545835885421"><ele>656.3333333333334</ele><time>2026-03-22T09:07:57Z</time></trkpt><trkpt lat="41.550686691280966" lon="13.01145590345341"><ele>658.0</ele><time>2026-03-22T09:08:01Z</time></trkpt><trkpt lat="41.550626332483986" lon="13.01138637616054"><ele>652.2857142857143</ele><time>2026-03-22T09:08:04Z</time></trkpt><trkpt lat="41.550568642010134" lon="13.011350414808495"><ele>646.5714285714286</ele><time>2026-03-22T09:08:06Z</time></trkpt><trkpt lat="41.55049601715839" lon="13.011284095419924"><ele>640.8571428571429</ele><time>2026-03-22T09:08:09Z</time></trkpt><trkpt lat="41.55042922269645" lon="13.011219659824373"><ele>635.1428571428571</ele><time>2026-03-22T09:08:12Z</time></trkpt><trkpt lat="41.550402188741266" lon="13.011142729520033"><ele>629.4285714285714</ele><time>2026-03-22T09:08:14Z</time></trkpt><trkpt lat="41.55034305803393" lon="13.011106262911998"><ele>623.7142857142858</ele><time>2026-03-22T09:08:17Z</time></trkpt><trkpt lat="41.55029435985473" lon="13.011046851862096"><ele>618.0</ele><time>2026-03-22T09:08:33.999Z</time></trkpt><trkpt lat="41.55022958735863" lon="13.011008619050493"><ele>618.0000000000001</ele><time>2026-03-22T09:08:37.999Z</time></trkpt><trkpt lat="41.55015481984516" lon="13.011017169921546"><ele>618.0</ele><time>2026-03-22T09:08:42.999Z</time></trkpt><trkpt lat="41.550082372510325" lon="13.011020712183393"><ele>618.0</ele><time>2026-03-22T09:08:46.999Z</time></trkpt><trkpt lat="41.55001801813096" lon="13.010987146266372"><ele>618.0</ele><time>2026-03-22T09:08:49.999Z</time></trkpt><trkpt lat="41.54993951557028" lon="13.01099681921458"><ele>618.0</ele><time>2026-03-22T09:08:53.999Z</time></trkpt><trkpt lat="41.54987106949506" lon="13.0109804530755"><ele>618.0000000000001</ele><time>2026-03-22T09:08:58.999Z</time></trkpt><trkpt lat="41.54979804374695" lon="13.010940846930643"><ele>618.0</ele><time>2026-03-22T09:09:02.999Z</time></trkpt><trkpt lat="41.549729830028504" lon="13.01092611494871"><ele>618.0000000000001</ele><time>2026-03-22T09:09:05.999Z</time></trkpt><trkpt lat="41.54965965266655" lon="13.01090949741904"><ele>618.0</ele><time>2026-03-22T09:09:09.999Z</time></trkpt><trkpt lat="41.54959414485641" lon="13.010885676968016"><ele>618.0</ele><time>2026-03-22T09:09:14.999Z</time></trkpt><trkpt lat="41.54952144870911" lon="13.010872725795467"><ele>618.0</ele><time>2026-03-22T09:09:26Z</time></trkpt><trkpt lat="41.549455324470706" lon="13.010858465310575"><ele>618.0</ele><time>2026-03-22T09:09:30Z</time></trkpt><trkpt lat="41.54938425780578" lon="13.01088587523372"><ele>618.0000000000001</ele><time>2026-03-22T09:09:34Z</time></trkpt><trkpt lat="41.54931574604379" lon="13.010872677732708"><ele>618.0</ele><time>2026-03-22T09:09:37Z</time></trkpt><trkpt lat="41.54922160024541" lon="13.010876860704531"><ele>617.6666666666666</ele><time>2026-03-22T09:09:41Z</time></trkpt><trkpt lat="41.54914937296266" lon="13.010865573147763"><ele>617.3333333333334</ele><time>2026-03-22T09:09:44Z</time></trkpt><trkpt lat="41.54907474786181" lon="13.010874713494696"><ele>617.0</ele><time>2026-03-22T09:09:47Z</time></trkpt><trkpt lat="41.54900636668344" lon="13.010869469034821"><ele>616.6666666666667</ele><time>2026-03-22T09:09:50Z</time></trkpt><trkpt lat="41.54893954287444" lon="13.010906208338628"><ele>616.3333333333334</ele><time>2026-03-22T09:09:53Z</time></trkpt><trkpt lat="41.54883388631736" lon="13.010938542956376"><ele>616.0</ele><time>2026-03-22T09:09:55Z</time></trkpt><trkpt lat="41.54875662048134" lon="13.010953802545387"><ele>613.0</ele><time>2026-03-22T09:09:57Z</time></trkpt><trkpt lat="41.548664386594176" lon="13.010985568192892"><ele>610.0</ele><time>2026-03-22T09:10:00Z</time></trkpt><trkpt lat="41.54858806531759" lon="13.010996782751771"><ele>607.0</ele><time>2026-03-22T09:10:03Z</time></trkpt><trkpt lat="41.54849748542029" lon="13.011013109802638"><ele>604.0</ele><time>2026-03-22T09:10:07Z</time></trkpt><trkpt lat="41.548420976825675" lon="13.011039104738506"><ele>601.0</ele><time>2026-03-22T09:10:11Z</time></trkpt><trkpt lat="41.54835286391203" lon="13.011082278268534"><ele>598.0</ele><time>2026-03-22T09:10:16Z</time></trkpt><trkpt lat="41.548287356813894" lon="13.011116482359215"><ele>598.0</ele><time>2026-03-22T09:10:21Z</time></trkpt><trkpt lat="41.548211745354976" lon="13.011125893415"><ele>598.0</ele><time>2026-03-22T09:10:24Z</time></trkpt><trkpt lat="41.54814439274754" lon="13.0111434521509"><ele>598.0</ele><time>2026-03-22T09:10:25.999Z</time></trkpt><trkpt lat="41.54808057006217" lon="13.011133804255941"><ele>598.0</ele><time>2026-03-22T09:10:28.999Z</time></trkpt><trkpt lat="41.54799683998892" lon="13.011146822685696"><ele>598.0</ele><time>2026-03-22T09:10:32.999Z</time></trkpt><trkpt lat="41.54793576442557" lon="13.011173349441387"><ele>598.0</ele><time>2026-03-22T09:10:35.999Z</time></trkpt><trkpt lat="41.54786123931121" lon="13.011166070508063"><ele>598.0</ele><time>2026-03-22T09:10:38.999Z</time></trkpt><trkpt lat="41.547803702434614" lon="13.011208725408082"><ele>595.1428571428571</ele><time>2026-03-22T09:10:41.999Z</time></trkpt><trkpt lat="41.54772813465841" lon="13.011214302240754"><ele>592.2857142857143</ele><time>2026-03-22T09:10:45.999Z</time></trkpt><trkpt lat="41.54766056425452" lon="13.011233116101286"><ele>589.4285714285714</ele><time>2026-03-22T09:10:47.999Z</time></trkpt><trkpt lat="41.5475981060945" lon="13.011270011310645"><ele>586.5714285714286</ele><time>2026-03-22T09:10:49.999Z</time></trkpt><trkpt lat="41.547519069329645" lon="13.011271969447067"><ele>583.7142857142857</ele><time>2026-03-22T09:10:52.999Z</time></trkpt><trkpt lat="41.547455897784246" lon="13.011274060967398"><ele>580.8571428571429</ele><time>2026-03-22T09:10:54.999Z</time></trkpt><trkpt lat="41.547386904517616" lon="13.011301232306005"><ele>578.0</ele><time>2026-03-22T09:10:57.999Z</time></trkpt><trkpt lat="41.54731645321249" lon="13.01129832864308"><ele>578.0</ele><time>2026-03-22T09:11:02.999Z</time></trkpt><trkpt lat="41.547242311677245" lon="13.011300261866143"><ele>578.0</ele><time>2026-03-22T09:11:12.999Z</time></trkpt><trkpt lat="41.547174843187626" lon="13.011343488780339"><ele>578.0</ele><time>2026-03-22T09:11:16.999Z</time></trkpt><trkpt lat="41.547088420839046" lon="13.011382073063663"><ele>578.0</ele><time>2026-03-22T09:11:47Z</time></trkpt><trkpt lat="41.547030158535016" lon="13.011416878669978"><ele>578.0</ele><time>2026-03-22T09:11:50Z</time></trkpt><trkpt lat="41.54697645471572" lon="13.011461457644469"><ele>578.0</ele><time>2026-03-22T09:11:53Z</time></trkpt><trkpt lat="41.54691218040639" lon="13.011516642511326"><ele>578.0</ele><time>2026-03-22T09:11:56Z</time></trkpt><trkpt lat="41.54685519640367" lon="13.011577671028874"><ele>575.2857142857143</ele><time>2026-03-22T09:11:59Z</time></trkpt><trkpt lat="41.546787284149765" lon="13.011624257417855"><ele>572.5714285714286</ele><time>2026-03-22T09:12:02Z</time></trkpt><trkpt lat="41.54672979174242" lon="13.01167909357"><ele>569.8571428571429</ele><time>2026-03-22T09:12:04Z</time></trkpt><trkpt lat="41.546680134720475" lon="13.011732021941423"><ele>567.1428571428571</ele><time>2026-03-22T09:12:06Z</time></trkpt><trkpt lat="41.54662351921813" lon="13.011776715364453"><ele>564.4285714285714</ele><time>2026-03-22T09:12:08Z</time></trkpt><trkpt lat="41.546572320833434" lon="13.01184683660943"><ele>561.7142857142858</ele><time>2026-03-22T09:12:11Z</time></trkpt><trkpt lat="41.546527399389234" lon="13.011909249515828"><ele>559.0</ele><time>2026-03-22T09:12:18Z</time></trkpt><trkpt lat="41.54649185633573" lon="13.011992123237416"><ele>563.0</ele><time>2026-03-22T09:12:23Z</time></trkpt><trkpt lat="41.54643359065209" lon="13.012051761300622"><ele>567.0</ele><time>2026-03-22T09:12:27Z</time></trkpt><trkpt lat="41.54639579010547" lon="13.01211979949799"><ele>571.0</ele><time>2026-03-22T09:12:30Z</time></trkpt><trkpt lat="41.54635735789183" lon="13.01219156701434"><ele>575.0</ele><time>2026-03-22T09:12:32.999Z</time></trkpt><trkpt lat="41.54632093876093" lon="13.012264805789703"><ele>579.0</ele><time>2026-03-22T09:12:35.999Z</time></trkpt><trkpt lat="41.54627932560082" lon="13.012363581701013"><ele>583.0</ele><time>2026-03-22T09:12:39.999Z</time></trkpt><trkpt lat="41.54623297900596" lon="13.012432919453579"><ele>587.0</ele><time>2026-03-22T09:12:43.999Z</time></trkpt><trkpt lat="41.54619765769841" lon="13.012517674463032"><ele>587.0</ele><time>2026-03-22T09:12:46.999Z</time></trkpt><trkpt lat="41.54613928223074" lon="13.012590730154347"><ele>587.0</ele><time>2026-03-22T09:12:50.999Z</time></trkpt><trkpt lat="41.54610018746794" lon="13.012672632026561"><ele>587.0</ele><time>2026-03-22T09:12:54.999Z</time></trkpt><trkpt lat="41.546054802316924" lon="13.012743718130032"><ele>587.0</ele><time>2026-03-22T09:12:57.999Z</time></trkpt><trkpt lat="41.54600082561321" lon="13.01283978193456"><ele>587.0</ele><time>2026-03-22T09:13:01.999Z</time></trkpt><trkpt lat="41.54593413496849" lon="13.012920909636133"><ele>587.0</ele><time>2026-03-22T09:13:05.999Z</time></trkpt><trkpt lat="41.54588264198666" lon="13.01301053382764"><ele>587.0</ele><time>2026-03-22T09:13:09.999Z</time></trkpt><trkpt lat="41.54582304028019" lon="13.013040612547877"><ele>587.0</ele><time>2026-03-22T09:13:11.999Z</time></trkpt><trkpt lat="41.54575308138327" lon="13.013104596547125"><ele>587.0</ele><time>2026-03-22T09:13:14.999Z</time></trkpt><trkpt lat="41.54570022945506" lon="13.013154174733344"><ele>587.0</ele><time>2026-03-22T09:13:16.999Z</time></trkpt><trkpt lat="41.5456479781698" lon="13.01320185148584"><ele>587.0</ele><time>2026-03-22T09:13:18.999Z</time></trkpt><trkpt lat="41.545613775149185" lon="13.0133272222502"><ele>587.0</ele><time>2026-03-22T09:13:21.999Z</time></trkpt><trkpt lat="41.54561372289044" lon="13.013422001581262"><ele>587.0</ele><time>2026-03-22T09:13:24.999Z</time></trkpt><trkpt lat="41.545532942318026" lon="13.01349419975532"><ele>590.8000000000001</ele><time>2026-03-22T09:13:27.999Z</time></trkpt><trkpt lat="41.54546524930881" lon="13.0135677080364"><ele>594.6</ele><time>2026-03-22T09:13:30.999Z</time></trkpt><trkpt lat="41.54538317827221" lon="13.013592314754518"><ele>598.4000000000001</ele><time>2026-03-22T09:13:31.999Z</time></trkpt><trkpt lat="41.54532172150354" lon="13.013614562306664"><ele>602.2</ele><time>2026-03-22T09:13:33.998Z</time></trkpt><trkpt lat="41.545250513183746" lon="13.013629407275078"><ele>606.0</ele><time>2026-03-22T09:13:40Z</time></trkpt><trkpt lat="41.5454124611089" lon="13.013529958132908"><ele>606.0</ele><time>2026-03-22T09:13:47Z</time></trkpt><trkpt lat="41.5452115854862" lon="13.013624128257677"><ele>606.0</ele><time>2026-03-22T09:13:49Z</time></trkpt><trkpt lat="41.545161197980384" lon="13.013568199990305"><ele>606.0</ele><time>2026-03-22T09:14:09Z</time></trkpt><trkpt lat="41.54511665512249" lon="13.013504226185358"><ele>606.0</ele><time>2026-03-22T09:14:11Z</time></trkpt><trkpt lat="41.545058748490746" lon="13.013442143136903"><ele>606.0</ele><time>2026-03-22T09:14:14Z</time></trkpt><trkpt lat="41.54500304398817" lon="13.013401659191725"><ele>606.0</ele><time>2026-03-22T09:14:18Z</time></trkpt><trkpt lat="41.54495086702318" lon="13.013336812018832"><ele>606.0</ele><time>2026-03-22T09:14:22Z</time></trkpt><trkpt lat="41.544916704120126" lon="13.013262863868913"><ele>606.0</ele><time>2026-03-22T09:14:24Z</time></trkpt><trkpt lat="41.54486467493529" lon="13.013173647505079"><ele>606.0</ele><time>2026-03-22T09:14:27Z</time></trkpt><trkpt lat="41.54479967910506" lon="13.013109407788464"><ele>606.0</ele><time>2026-03-22T09:14:30Z</time></trkpt><trkpt lat="41.54472153024073" lon="13.01307428714095"><ele>606.0</ele><time>2026-03-22T09:14:34Z</time></trkpt><trkpt lat="41.544658289206836" lon="13.012994432950293"><ele>605.3333333333334</ele><time>2026-03-22T09:14:36.999Z</time></trkpt><trkpt lat="41.5446000094" lon="13.012960968680645"><ele>604.6666666666666</ele><time>2026-03-22T09:14:38.999Z</time></trkpt><trkpt lat="41.54453518468711" lon="13.012914900847415"><ele>604.0</ele><time>2026-03-22T09:14:40.999Z</time></trkpt><trkpt lat="41.54448808196159" lon="13.012844012394893"><ele>603.3333333333333</ele><time>2026-03-22T09:14:43.999Z</time></trkpt><trkpt lat="41.54443678844702" lon="13.012786481300958"><ele>602.6666666666666</ele><time>2026-03-22T09:14:45.999Z</time></trkpt><trkpt lat="41.54438052440739" lon="13.012692138683986"><ele>602.0</ele><time>2026-03-22T09:14:48.999Z</time></trkpt><trkpt lat="41.54431893924587" lon="13.012612117385594"><ele>602.0</ele><time>2026-03-22T09:14:51.999Z</time></trkpt><trkpt lat="41.54426465226437" lon="13.012529215532387"><ele>602.0</ele><time>2026-03-22T09:14:55.999Z</time></trkpt><trkpt lat="41.54422123000363" lon="13.012443543780654"><ele>602.0</ele><time>2026-03-22T09:14:58.999Z</time></trkpt><trkpt lat="41.54417913888496" lon="13.012379403638988"><ele>602.0</ele><time>2026-03-22T09:15:01.999Z</time></trkpt><trkpt lat="41.54410599255135" lon="13.012304765981767"><ele>602.0</ele><time>2026-03-22T09:15:04.999Z</time></trkpt><trkpt lat="41.54403183055423" lon="13.01224128538761"><ele>602.0</ele><time>2026-03-22T09:15:07.999Z</time></trkpt><trkpt lat="41.543976337689145" lon="13.01218377098075"><ele>598.0</ele><time>2026-03-22T09:15:10.999Z</time></trkpt><trkpt lat="41.543905853878286" lon="13.012165230764493"><ele>594.0</ele><time>2026-03-22T09:15:12.999Z</time></trkpt><trkpt lat="41.543842425211544" lon="13.012179775328413"><ele>590.0</ele><time>2026-03-22T09:15:14.999Z</time></trkpt><trkpt lat="41.5437225057932" lon="13.012159757088993"><ele>586.0</ele><time>2026-03-22T09:15:18.999Z</time></trkpt><trkpt lat="41.543658374330754" lon="13.012137365658623"><ele>582.0</ele><time>2026-03-22T09:15:21.999Z</time></trkpt><trkpt lat="41.54357527320707" lon="13.012134046411497"><ele>578.0</ele><time>2026-03-22T09:15:24.999Z</time></trkpt><trkpt lat="41.54348704473703" lon="13.0121092412272"><ele>578.0</ele><time>2026-03-22T09:15:26.999Z</time></trkpt><trkpt lat="41.543405510212104" lon="13.012086768569734"><ele>578.0</ele><time>2026-03-22T09:15:29.999Z</time></trkpt><trkpt lat="41.543336422196155" lon="13.012038125111896"><ele>578.0</ele><time>2026-03-22T09:15:32.999Z</time></trkpt><trkpt lat="41.54327184885444" lon="13.012007296513861"><ele>578.0</ele><time>2026-03-22T09:15:35.999Z</time></trkpt><trkpt lat="41.54318859647659" lon="13.011960952861639"><ele>578.0</ele><time>2026-03-22T09:15:38.999Z</time></trkpt><trkpt lat="41.543095642346536" lon="13.011928136571752"><ele>578.0</ele><time>2026-03-22T09:15:41.998Z</time></trkpt><trkpt lat="41.54301903147103" lon="13.011856889514267"><ele>578.0</ele><time>2026-03-22T09:15:45Z</time></trkpt><trkpt lat="41.54292684995601" lon="13.011828076358173"><ele>578.0</ele><time>2026-03-22T09:15:48Z</time></trkpt><trkpt lat="41.54284282849581" lon="13.011811473859476"><ele>578.0</ele><time>2026-03-22T09:15:50Z</time></trkpt><trkpt lat="41.5427806399987" lon="13.011787129415756"><ele>578.0</ele><time>2026-03-22T09:15:52Z</time></trkpt><trkpt lat="41.54280746744439" lon="13.011923662223678"><ele>578.0</ele><time>2026-03-22T09:15:54Z</time></trkpt><trkpt lat="41.54272408111011" lon="13.011910032383394"><ele>578.0</ele><time>2026-03-22T09:15:56Z</time></trkpt><trkpt lat="41.54262892833698" lon="13.011888506805711"><ele>577.8333333333333</ele><time>2026-03-22T09:15:58Z</time></trkpt><trkpt lat="41.54254410991544" lon="13.011874899985695"><ele>577.6666666666666</ele><time>2026-03-22T09:16:00Z</time></trkpt><trkpt lat="41.542449642062394" lon="13.011847745238878"><ele>577.5</ele><time>2026-03-22T09:16:02Z</time></trkpt><trkpt lat="41.54236940332303" lon="13.011834612996662"><ele>577.3333333333334</ele><time>2026-03-22T09:16:04Z</time></trkpt><trkpt lat="41.54228812015974" lon="13.011821131428228"><ele>577.1666666666667</ele><time>2026-03-22T09:16:06Z</time></trkpt><trkpt lat="41.54220889976967" lon="13.011815978986016"><ele>577.0</ele><time>2026-03-22T09:16:08Z</time></trkpt><trkpt lat="41.54214751339162" lon="13.011792693656647"><ele>577.0</ele><time>2026-03-22T09:16:10Z</time></trkpt><trkpt lat="41.542103108035924" lon="13.011670561823161"><ele>577.0</ele><time>2026-03-22T09:16:13Z</time></trkpt><trkpt lat="41.54200172811916" lon="13.01170287788815"><ele>577.0</ele><time>2026-03-22T09:16:16Z</time></trkpt><trkpt lat="41.54190880054604" lon="13.011717289314282"><ele>577.0</ele><time>2026-03-22T09:16:18Z</time></trkpt><trkpt lat="41.541814080608624" lon="13.011745605247517"><ele>577.0</ele><time>2026-03-22T09:16:22Z</time></trkpt><trkpt lat="41.54174982997117" lon="13.01176021370345"><ele>576.3333333333334</ele><time>2026-03-22T09:16:23Z</time></trkpt><trkpt lat="41.54167357789153" lon="13.011775864709634"><ele>575.6666666666667</ele><time>2026-03-22T09:16:25Z</time></trkpt><trkpt lat="41.54160641934076" lon="13.011805799341328"><ele>575.0</ele><time>2026-03-22T09:16:27Z</time></trkpt><trkpt lat="41.54153096832499" lon="13.011822333644856"><ele>574.3333333333334</ele><time>2026-03-22T09:16:29Z</time></trkpt><trkpt lat="41.54144376980274" lon="13.011845675291928"><ele>573.6666666666666</ele><time>2026-03-22T09:16:31Z</time></trkpt><trkpt lat="41.54135131606262" lon="13.011871443906735"><ele>573.0</ele><time>2026-03-22T09:17:04.999Z</time></trkpt><trkpt lat="41.54127711974418" lon="13.011909637235377"><ele>569.8333333333334</ele><time>2026-03-22T09:17:06.999Z</time></trkpt><trkpt lat="41.54121008633567" lon="13.011928045771564"><ele>566.6666666666666</ele><time>2026-03-22T09:17:08.999Z</time></trkpt><trkpt lat="41.541146504787136" lon="13.01195409006577"><ele>563.5</ele><time>2026-03-22T09:17:11.999Z</time></trkpt><trkpt lat="41.541055603312834" lon="13.012005719601362"><ele>560.3333333333333</ele><time>2026-03-22T09:17:14.999Z</time></trkpt><trkpt lat="41.54097533739811" lon="13.012061136594822"><ele>557.1666666666666</ele><time>2026-03-22T09:17:17.999Z</time></trkpt><trkpt lat="41.54090993700612" lon="13.012094889855927"><ele>554.0</ele><time>2026-03-22T09:17:19.999Z</time></trkpt><trkpt lat="41.54085076786761" lon="13.01213711062613"><ele>554.0</ele><time>2026-03-22T09:17:23.999Z</time></trkpt><trkpt lat="41.540782339257994" lon="13.012176069153568"><ele>554.0</ele><time>2026-03-22T09:17:27.999Z</time></trkpt><trkpt lat="41.54070737469253" lon="13.012221433471504"><ele>554.0</ele><time>2026-03-22T09:17:30.999Z</time></trkpt><trkpt lat="41.540637983485546" lon="13.012285738954938"><ele>554.0</ele><time>2026-03-22T09:17:34.999Z</time></trkpt><trkpt lat="41.540554901239275" lon="13.012355979168365"><ele>554.0</ele><time>2026-03-22T09:17:36.999Z</time></trkpt><trkpt lat="41.54048308751369" lon="13.01241498229501"><ele>554.0</ele><time>2026-03-22T09:17:39.999Z</time></trkpt><trkpt lat="41.54041858128898" lon="13.012442433694604"><ele>555.6666666666666</ele><time>2026-03-22T09:17:41.999Z</time></trkpt><trkpt lat="41.5403340964435" lon="13.012497523207834"><ele>557.3333333333333</ele><time>2026-03-22T09:17:45.998Z</time></trkpt><trkpt lat="41.54027066591922" lon="13.012553508024833"><ele>559.0</ele><time>2026-03-22T09:17:47.998Z</time></trkpt><trkpt lat="41.540211083450004" lon="13.012591252453017"><ele>560.6666666666666</ele><time>2026-03-22T09:17:50Z</time></trkpt><trkpt lat="41.54015468457616" lon="13.012649160798864"><ele>562.3333333333334</ele><time>2026-03-22T09:17:52Z</time></trkpt><trkpt lat="41.540095541950755" lon="13.012694435779565"><ele>564.0</ele><time>2026-03-22T09:17:54Z</time></trkpt><trkpt lat="41.540032959082176" lon="13.012753506429616"><ele>564.0</ele><time>2026-03-22T09:17:56Z</time></trkpt><trkpt lat="41.53997582586359" lon="13.012815601619304"><ele>564.0</ele><time>2026-03-22T09:18:00Z</time></trkpt><trkpt lat="41.53990701177448" lon="13.012870817867055"><ele>564.0</ele><time>2026-03-22T09:18:02Z</time></trkpt><trkpt lat="41.53984555138809" lon="13.012929768821698"><ele>564.0</ele><time>2026-03-22T09:18:04Z</time></trkpt><trkpt lat="41.53979754277379" lon="13.012992786536856"><ele>564.0</ele><time>2026-03-22T09:18:06Z</time></trkpt><trkpt lat="41.53974353347449" lon="13.013044132383595"><ele>564.0</ele><time>2026-03-22T09:18:09Z</time></trkpt><trkpt lat="41.53968436937239" lon="13.013117895986332"><ele>564.0</ele><time>2026-03-22T09:18:12Z</time></trkpt><trkpt lat="41.53961124546021" lon="13.013190159170957"><ele>565.1666666666666</ele><time>2026-03-22T09:18:15Z</time></trkpt><trkpt lat="41.53954637464503" lon="13.013268331728442"><ele>566.3333333333334</ele><time>2026-03-22T09:18:17Z</time></trkpt><trkpt lat="41.5394938565815" lon="13.013316705365561"><ele>567.5</ele><time>2026-03-22T09:18:19Z</time></trkpt><trkpt lat="41.5394318666448" lon="13.013375243589874"><ele>568.6666666666667</ele><time>2026-03-22T09:18:21Z</time></trkpt><trkpt lat="41.53935424856821" lon="13.013451392627474"><ele>569.8333333333334</ele><time>2026-03-22T09:18:25Z</time></trkpt><trkpt lat="41.539282479395226" lon="13.013522068400983"><ele>571.0</ele><time>2026-03-22T09:18:27Z</time></trkpt><trkpt lat="41.539206635009734" lon="13.013602699406604"><ele>571.0</ele><time>2026-03-22T09:18:29Z</time></trkpt><trkpt lat="41.53914340318877" lon="13.013656960498023"><ele>571.0</ele><time>2026-03-22T09:18:31Z</time></trkpt><trkpt lat="41.539066493198774" lon="13.013739098137611"><ele>571.0</ele><time>2026-03-22T09:18:34Z</time></trkpt><trkpt lat="41.538986955283896" lon="13.013795893514613"><ele>571.0</ele><time>2026-03-22T09:18:37Z</time></trkpt><trkpt lat="41.53891861472638" lon="13.013853309309145"><ele>571.0</ele><time>2026-03-22T09:18:39Z</time></trkpt><trkpt lat="41.538844672856314" lon="13.013880917414998"><ele>571.0</ele><time>2026-03-22T09:18:41Z</time></trkpt><trkpt lat="41.53877119136012" lon="13.013916657492706"><ele>572.1428571428571</ele><time>2026-03-22T09:18:45Z</time></trkpt><trkpt lat="41.53870566530014" lon="13.013950518690875"><ele>573.2857142857142</ele><time>2026-03-22T09:18:46.999Z</time></trkpt><trkpt lat="41.538641289555365" lon="13.013992104303881"><ele>574.4285714285713</ele><time>2026-03-22T09:18:48.999Z</time></trkpt><trkpt lat="41.53856050085301" lon="13.014038855955413"><ele>575.5714285714286</ele><time>2026-03-22T09:18:51.999Z</time></trkpt><trkpt lat="41.538503821720035" lon="13.01408559373379"><ele>576.7142857142857</ele><time>2026-03-22T09:18:53.999Z</time></trkpt><trkpt lat="41.53842601312391" lon="13.014114338570812"><ele>577.8571428571428</ele><time>2026-03-22T09:20:30Z</time></trkpt><trkpt lat="41.538368419675834" lon="13.014169830515334"><ele>579.0</ele><time>2026-03-22T09:20:34Z</time></trkpt><trkpt lat="41.538301657896554" lon="13.014206335354526"><ele>579.0</ele><time>2026-03-22T09:20:39Z</time></trkpt><trkpt lat="41.53822998730578" lon="13.014263505702708"><ele>579.0</ele><time>2026-03-22T09:20:42Z</time></trkpt><trkpt lat="41.53815418214721" lon="13.014327982352047"><ele>579.0</ele><time>2026-03-22T09:20:44Z</time></trkpt><trkpt lat="41.53808437149338" lon="13.014394800274665"><ele>579.0</ele><time>2026-03-22T09:20:46Z</time></trkpt><trkpt lat="41.53802682776904" lon="13.014463125160148"><ele>579.0</ele><time>2026-03-22T09:20:48Z</time></trkpt><trkpt lat="41.53797089847397" lon="13.014519090522935"><ele>579.0</ele><time>2026-03-22T09:20:49.999Z</time></trkpt><trkpt lat="41.5379195299669" lon="13.014573625525205"><ele>575.3333333333334</ele><time>2026-03-22T09:20:51.999Z</time></trkpt><trkpt lat="41.537843028047774" lon="13.014634303766789"><ele>571.6666666666666</ele><time>2026-03-22T09:20:55.999Z</time></trkpt><trkpt lat="41.53777493635863" lon="13.014647294322467"><ele>568.0</ele><time>2026-03-22T09:20:59.999Z</time></trkpt><trkpt lat="41.53771100717633" lon="13.014693204555208"><ele>564.3333333333333</ele><time>2026-03-22T09:21:03.999Z</time></trkpt><trkpt lat="41.53763890532273" lon="13.014700869827873"><ele>560.6666666666666</ele><time>2026-03-22T09:21:06.999Z</time></trkpt><trkpt lat="41.537564875012656" lon="13.01470394334442"><ele>557.0</ele><time>2026-03-22T09:21:09.999Z</time></trkpt><trkpt lat="41.537488928922684" lon="13.014716502418572"><ele>557.0</ele><time>2026-03-22T09:21:12.999Z</time></trkpt><trkpt lat="41.53740786937599" lon="13.014736117325862"><ele>557.0</ele><time>2026-03-22T09:21:15.999Z</time></trkpt><trkpt lat="41.53732192897926" lon="13.014769023416578"><ele>557.0</ele><time>2026-03-22T09:21:18.999Z</time></trkpt><trkpt lat="41.53722547262896" lon="13.014791145884649"><ele>557.0</ele><time>2026-03-22T09:21:20.999Z</time></trkpt><trkpt lat="41.53714994441559" lon="13.014829884644803"><ele>557.0</ele><time>2026-03-22T09:21:23.999Z</time></trkpt><trkpt lat="41.53706169658403" lon="13.014876648653622"><ele>557.0</ele><time>2026-03-22T09:21:26.999Z</time></trkpt><trkpt lat="41.53698404193925" lon="13.014947495328883"><ele>559.2857142857143</ele><time>2026-03-22T09:21:28.999Z</time></trkpt><trkpt lat="41.53691621814016" lon="13.01498791796942"><ele>561.5714285714286</ele><time>2026-03-22T09:21:30.999Z</time></trkpt><trkpt lat="41.53685079943335" lon="13.015032203562464"><ele>563.8571428571429</ele><time>2026-03-22T09:21:33.999Z</time></trkpt><trkpt lat="41.536789226317815" lon="13.015071428573808"><ele>566.1428571428571</ele><time>2026-03-22T09:21:43.999Z</time></trkpt><trkpt lat="41.53670983753911" lon="13.015119997120532"><ele>568.4285714285714</ele><time>2026-03-22T09:21:47.999Z</time></trkpt><trkpt lat="41.53663595246916" lon="13.015145752686887"><ele>570.7142857142858</ele><time>2026-03-22T09:22:35Z</time></trkpt><trkpt lat="41.53657850483426" lon="13.015184704039536"><ele>573.0</ele><time>2026-03-22T09:22:38Z</time></trkpt><trkpt lat="41.53651724283654" lon="13.015219052321735"><ele>573.0</ele><time>2026-03-22T09:22:43Z</time></trkpt><trkpt lat="41.53644951236934" lon="13.015248489785586"><ele>573.0</ele><time>2026-03-22T09:22:48Z</time></trkpt><trkpt lat="41.53637910724622" lon="13.015288874081158"><ele>573.0</ele><time>2026-03-22T09:22:50.999Z</time></trkpt><trkpt lat="41.53630998743604" lon="13.015330935937605"><ele>573.0</ele><time>2026-03-22T09:22:52.999Z</time></trkpt><trkpt lat="41.53624725885203" lon="13.015364571871311"><ele>573.0</ele><time>2026-03-22T09:22:56.999Z</time></trkpt><trkpt lat="41.53616982510165" lon="13.015398952649365"><ele>573.0</ele><time>2026-03-22T09:23:00.999Z</time></trkpt><trkpt lat="41.53607361274754" lon="13.015430163741941"><ele>569.8333333333334</ele><time>2026-03-22T09:23:02.999Z</time></trkpt><trkpt lat="41.53600900678766" lon="13.01545227814175"><ele>566.6666666666666</ele><time>2026-03-22T09:23:07.999Z</time></trkpt><trkpt lat="41.53592887265009" lon="13.015478755602649"><ele>563.5</ele><time>2026-03-22T09:23:10.999Z</time></trkpt><trkpt lat="41.53584238712855" lon="13.015508420120225"><ele>560.3333333333333</ele><time>2026-03-22T09:23:14.999Z</time></trkpt><trkpt lat="41.535755974264276" lon="13.015537044081183"><ele>557.1666666666666</ele><time>2026-03-22T09:23:17.999Z</time></trkpt><trkpt lat="41.53568334442948" lon="13.01555221757487"><ele>554.0</ele><time>2026-03-22T09:23:19.999Z</time></trkpt><trkpt lat="41.53561626445335" lon="13.015576759347956"><ele>554.0</ele><time>2026-03-22T09:23:23.999Z</time></trkpt><trkpt lat="41.535551079884826" lon="13.015586133016594"><ele>554.0</ele><time>2026-03-22T09:23:26.999Z</time></trkpt><trkpt lat="41.53548489764055" lon="13.015613610912805"><ele>554.0</ele><time>2026-03-22T09:23:29.999Z</time></trkpt><trkpt lat="41.5354056225447" lon="13.015660160698884"><ele>554.0</ele><time>2026-03-22T09:23:32.999Z</time></trkpt><trkpt lat="41.53534381532384" lon="13.015691841652602"><ele>554.0</ele><time>2026-03-22T09:23:36.999Z</time></trkpt><trkpt lat="41.53528853198434" lon="13.015736994454121"><ele>554.0</ele><time>2026-03-22T09:23:38.999Z</time></trkpt><trkpt lat="41.53523155607692" lon="13.015781834858087"><ele>554.0</ele><time>2026-03-22T09:23:39.999Z</time></trkpt><trkpt lat="41.53516761452243" lon="13.015862017146528"><ele>556.2857142857142</ele><time>2026-03-22T09:23:41.999Z</time></trkpt><trkpt lat="41.53510334069121" lon="13.01591590617465"><ele>558.5714285714286</ele><time>2026-03-22T09:23:43.999Z</time></trkpt><trkpt lat="41.53504612064705" lon="13.015957373814848"><ele>560.8571428571429</ele><time>2026-03-22T09:23:45.999Z</time></trkpt><trkpt lat="41.534987903508636" lon="13.016020608536953"><ele>563.1428571428571</ele><time>2026-03-22T09:23:48.999Z</time></trkpt><trkpt lat="41.53494359362724" lon="13.01608127745162"><ele>565.4285714285714</ele><time>2026-03-22T09:23:51.998Z</time></trkpt><trkpt lat="41.534881506635195" lon="13.016150694812499"><ele>567.7142857142857</ele><time>2026-03-22T09:23:55.998Z</time></trkpt><trkpt lat="41.53481872111899" lon="13.01622846410475"><ele>570.0</ele><time>2026-03-22T09:23:58.998Z</time></trkpt><trkpt lat="41.53476463554093" lon="13.016279111146927"><ele>570.0</ele><time>2026-03-22T09:24:02.998Z</time></trkpt><trkpt lat="41.534715327863196" lon="13.016342364406249"><ele>570.0</ele><time>2026-03-22T09:24:05.998Z</time></trkpt><trkpt lat="41.53464938935426" lon="13.016439900948532"><ele>570.0</ele><time>2026-03-22T09:24:09Z</time></trkpt><trkpt lat="41.5345981356913" lon="13.016531937590031"><ele>570.0</ele><time>2026-03-22T09:24:11Z</time></trkpt><trkpt lat="41.53456926981719" lon="13.016637768739399"><ele>570.0</ele><time>2026-03-22T09:24:13Z</time></trkpt><trkpt lat="41.53451243794199" lon="13.01675883094111"><ele>570.0</ele><time>2026-03-22T09:24:17Z</time></trkpt><trkpt lat="41.53446747451285" lon="13.016864270807606"><ele>569.0</ele><time>2026-03-22T09:24:21Z</time></trkpt><trkpt lat="41.53444222570339" lon="13.016962960678194"><ele>568.0</ele><time>2026-03-22T09:24:24Z</time></trkpt><trkpt lat="41.53442966339459" lon="13.017053492477068"><ele>567.0</ele><time>2026-03-22T09:24:30Z</time></trkpt><trkpt lat="41.53440604685028" lon="13.01714698891766"><ele>566.0</ele><time>2026-03-22T09:24:34Z</time></trkpt><trkpt lat="41.53441516469863" lon="13.01724113191024"><ele>565.0</ele><time>2026-03-22T09:24:36Z</time></trkpt><trkpt lat="41.53441762944761" lon="13.017376622545294"><ele>564.0</ele><time>2026-03-22T09:24:38Z</time></trkpt><trkpt lat="41.53440838331547" lon="13.017511950379896"><ele>564.0</ele><time>2026-03-22T09:24:40Z</time></trkpt><trkpt lat="41.53439483185228" lon="13.017615229945765"><ele>564.0</ele><time>2026-03-22T09:24:42Z</time></trkpt><trkpt lat="41.534399808144464" lon="13.017730341082956"><ele>564.0</ele><time>2026-03-22T09:24:44Z</time></trkpt><trkpt lat="41.53436852366241" lon="13.017830155938736"><ele>564.0</ele><time>2026-03-22T09:24:47Z</time></trkpt><trkpt lat="41.53436676231886" lon="13.017921760098282"><ele>564.0</ele><time>2026-03-22T09:24:50Z</time></trkpt><trkpt lat="41.534350617360914" lon="13.018009443880395"><ele>564.0</ele><time>2026-03-22T09:25:10.999Z</time></trkpt><trkpt lat="41.53433595176793" lon="13.018098933125874"><ele>564.0</ele><time>2026-03-22T09:25:14.999Z</time></trkpt><trkpt lat="41.53433284162043" lon="13.018188202073377"><ele>564.0</ele><time>2026-03-22T09:25:17.999Z</time></trkpt><trkpt lat="41.534298482824305" lon="13.01826382812082"><ele>564.0</ele><time>2026-03-22T09:25:21.999Z</time></trkpt><trkpt lat="41.53427621317356" lon="13.01836113277573"><ele>564.0</ele><time>2026-03-22T09:25:30.999Z</time></trkpt><trkpt lat="41.5342672575794" lon="13.018460794333341"><ele>564.0</ele><time>2026-03-22T09:25:34.999Z</time></trkpt><trkpt lat="41.534229531442925" lon="13.01857043635053"><ele>564.0</ele><time>2026-03-22T09:25:37.999Z</time></trkpt><trkpt lat="41.5341852950192" lon="13.018650703631993"><ele>564.0</ele><time>2026-03-22T09:25:40.999Z</time></trkpt><trkpt lat="41.53413500075218" lon="13.018715753156076"><ele>565.8571428571429</ele><time>2026-03-22T09:25:43.999Z</time></trkpt><trkpt lat="41.534101236139286" lon="13.018795567588066"><ele>567.7142857142857</ele><time>2026-03-22T09:25:45.999Z</time></trkpt><trkpt lat="41.534045431945" lon="13.018894579697491"><ele>569.5714285714286</ele><time>2026-03-22T09:25:48.999Z</time></trkpt><trkpt lat="41.53399991358945" lon="13.018986828048291"><ele>571.4285714285714</ele><time>2026-03-22T09:25:50.999Z</time></trkpt><trkpt lat="41.53394268755662" lon="13.019041960595423"><ele>573.2857142857143</ele><time>2026-03-22T09:25:53.999Z</time></trkpt><trkpt lat="41.53388136879677" lon="13.019085575604883"><ele>575.1428571428571</ele><time>2026-03-22T09:26:10.998Z</time></trkpt><trkpt lat="41.53383400039958" lon="13.01914408543297"><ele>577.0</ele><time>2026-03-22T09:26:15Z</time></trkpt><trkpt lat="41.53378025165675" lon="13.019201883383191"><ele>574.8571428571429</ele><time>2026-03-22T09:26:18Z</time></trkpt><trkpt lat="41.533730914041456" lon="13.019275825987691"><ele>572.7142857142858</ele><time>2026-03-22T09:26:20Z</time></trkpt><trkpt lat="41.5336761286982" lon="13.019323789892285"><ele>570.5714285714287</ele><time>2026-03-22T09:26:24Z</time></trkpt><trkpt lat="41.53360877364277" lon="13.01934958788699"><ele>568.4285714285714</ele><time>2026-03-22T09:26:32Z</time></trkpt><trkpt lat="41.53354694624071" lon="13.019411263271161"><ele>566.2857142857143</ele><time>2026-03-22T09:26:36Z</time></trkpt><trkpt lat="41.53348426565759" lon="13.019480455502356"><ele>564.1428571428572</ele><time>2026-03-22T09:26:39Z</time></trkpt><trkpt lat="41.5334247808842" lon="13.019520108408534"><ele>562.0</ele><time>2026-03-22T09:26:43Z</time></trkpt><trkpt lat="41.53337473792221" lon="13.019592759392744"><ele>562.0</ele><time>2026-03-22T09:26:48Z</time></trkpt><trkpt lat="41.53330389644748" lon="13.019641815022924"><ele>562.0</ele><time>2026-03-22T09:26:52Z</time></trkpt><trkpt lat="41.53324202242114" lon="13.019689656202296"><ele>562.0</ele><time>2026-03-22T09:26:54Z</time></trkpt><trkpt lat="41.533166015017265" lon="13.019726982159415"><ele>562.0</ele><time>2026-03-22T09:26:57Z</time></trkpt><trkpt lat="41.53308384266898" lon="13.019780976682293"><ele>562.0</ele><time>2026-03-22T09:27:00Z</time></trkpt><trkpt lat="41.53301819021313" lon="13.01984386800777"><ele>562.0</ele><time>2026-03-22T09:27:01.999Z</time></trkpt><trkpt lat="41.53296217199031" lon="13.01988447178972"><ele>562.0000000000001</ele><time>2026-03-22T09:27:04.999Z</time></trkpt><trkpt lat="41.53290901506521" lon="13.019935103996641"><ele>562.0</ele><time>2026-03-22T09:27:07.999Z</time></trkpt><trkpt lat="41.53286510015895" lon="13.02001670694398"><ele>562.0</ele><time>2026-03-22T09:27:10.999Z</time></trkpt><trkpt lat="41.53284034351563" lon="13.020120110245212"><ele>562.0</ele><time>2026-03-22T09:27:14.999Z</time></trkpt><trkpt lat="41.532819515821274" lon="13.020228628771974"><ele>562.0</ele><time>2026-03-22T09:27:17.999Z</time></trkpt><trkpt lat="41.53278619559522" lon="13.020305250043366"><ele>562.0000000000001</ele><time>2026-03-22T09:27:20.999Z</time></trkpt><trkpt lat="41.5327494855199" lon="13.02038913934978"><ele>562.0</ele><time>2026-03-22T09:27:25.999Z</time></trkpt><trkpt lat="41.532740585267724" lon="13.020487768791869"><ele>562.2857142857143</ele><time>2026-03-22T09:27:29.999Z</time></trkpt><trkpt lat="41.53273580022053" lon="13.020577521498325"><ele>562.5714285714286</ele><time>2026-03-22T09:27:31.999Z</time></trkpt><trkpt lat="41.53270079674215" lon="13.020657783416082"><ele>562.8571428571429</ele><time>2026-03-22T09:27:34.999Z</time></trkpt><trkpt lat="41.53267924925057" lon="13.020754303317664"><ele>563.1428571428571</ele><time>2026-03-22T09:27:38.999Z</time></trkpt><trkpt lat="41.532662088689605" lon="13.020848087307119"><ele>563.4285714285714</ele><time>2026-03-22T09:28:27Z</time></trkpt><trkpt lat="41.53264164152892" lon="13.020927816157306"><ele>563.7142857142858</ele><time>2026-03-22T09:28:30Z</time></trkpt><trkpt lat="41.532636065226505" lon="13.021031202970477"><ele>564.0</ele><time>2026-03-22T09:28:34Z</time></trkpt><trkpt lat="41.53261089364769" lon="13.021153707724816"><ele>564.0</ele><time>2026-03-22T09:28:37Z</time></trkpt><trkpt lat="41.53258298999954" lon="13.021275246517687"><ele>564.0</ele><time>2026-03-22T09:28:39Z</time></trkpt><trkpt lat="41.532556828581875" lon="13.021365131567192"><ele>564.0</ele><time>2026-03-22T09:28:43Z</time></trkpt><trkpt lat="41.532541679769174" lon="13.021453745127728"><ele>564.0</ele><time>2026-03-22T09:32:10.998Z</time></trkpt><trkpt lat="41.532536567776674" lon="13.021542541173602"><ele>564.0</ele><time>2026-03-22T09:32:13.998Z</time></trkpt><trkpt lat="41.53250791399628" lon="13.021657157328937"><ele>564.0</ele><time>2026-03-22T09:32:17.998Z</time></trkpt><trkpt lat="41.53248220097359" lon="13.021753501562557"><ele>563.0</ele><time>2026-03-22T09:32:19.998Z</time></trkpt><trkpt lat="41.53246382825319" lon="13.021841852194587"><ele>562.0</ele><time>2026-03-22T09:32:22.998Z</time></trkpt><trkpt lat="41.53241182141864" lon="13.021895343181109"><ele>561.0</ele><time>2026-03-22T09:32:29.998Z</time></trkpt><trkpt lat="41.532344718784714" lon="13.021890676561195"><ele>560.0</ele><time>2026-03-22T09:32:36Z</time></trkpt><trkpt lat="41.532267875395824" lon="13.021859539327819"><ele>559.0</ele><time>2026-03-22T09:32:39Z</time></trkpt><trkpt lat="41.53220522391164" lon="13.021846498130458"><ele>558.0</ele><time>2026-03-22T09:32:42Z</time></trkpt><trkpt lat="41.532120961458055" lon="13.021823321660737"><ele>557.0</ele><time>2026-03-22T09:32:44Z</time></trkpt><trkpt lat="41.53204769157521" lon="13.02182758540888"><ele>557.0</ele><time>2026-03-22T09:32:47Z</time></trkpt><trkpt lat="41.5319616946214" lon="13.021803662520655"><ele>557.0</ele><time>2026-03-22T09:32:50Z</time></trkpt><trkpt lat="41.53188949152144" lon="13.021828622815924"><ele>557.0</ele><time>2026-03-22T09:32:52Z</time></trkpt><trkpt lat="41.53180607591016" lon="13.021850692464572"><ele>557.0</ele><time>2026-03-22T09:32:55Z</time></trkpt><trkpt lat="41.5317465081671" lon="13.02188043971345"><ele>557.0</ele><time>2026-03-22T09:32:57Z</time></trkpt><trkpt lat="41.53165035760744" lon="13.021907579597059"><ele>557.0</ele><time>2026-03-22T09:33:01Z</time></trkpt><trkpt lat="41.531574799691086" lon="13.021934994599384"><ele>557.0</ele><time>2026-03-22T09:33:03Z</time></trkpt><trkpt lat="41.531508487623185" lon="13.021974808007387"><ele>557.0</ele><time>2026-03-22T09:33:06Z</time></trkpt><trkpt lat="41.53144261129948" lon="13.022023357472179"><ele>557.0</ele><time>2026-03-22T09:33:09Z</time></trkpt><trkpt lat="41.531363628214706" lon="13.02210428066297"><ele>557.0</ele><time>2026-03-22T09:33:11Z</time></trkpt><trkpt lat="41.531300343970706" lon="13.022202182196896"><ele>557.0</ele><time>2026-03-22T09:33:13Z</time></trkpt><trkpt lat="41.53124220646744" lon="13.022295947870006"><ele>557.0</ele><time>2026-03-22T09:33:14.999Z</time></trkpt><trkpt lat="41.53118534761618" lon="13.022376364241309"><ele>557.5</ele><time>2026-03-22T09:33:16.999Z</time></trkpt><trkpt lat="41.53112119593937" lon="13.022475317003677"><ele>558.0</ele><time>2026-03-22T09:33:18.999Z</time></trkpt><trkpt lat="41.53106158849355" lon="13.022597023353777"><ele>558.5</ele><time>2026-03-22T09:33:20.999Z</time></trkpt><trkpt lat="41.531025807539535" lon="13.022693019885192"><ele>559.0</ele><time>2026-03-22T09:33:22.999Z</time></trkpt><trkpt lat="41.53099147003646" lon="13.022771192324496"><ele>559.5</ele><time>2026-03-22T09:33:24.999Z</time></trkpt><trkpt lat="41.53094772601249" lon="13.02287207051685"><ele>560.0</ele><time>2026-03-22T09:33:26.999Z</time></trkpt><trkpt lat="41.53090693193653" lon="13.022978834125166"><ele>560.0</ele><time>2026-03-22T09:33:28.999Z</time></trkpt><trkpt lat="41.53087539784502" lon="13.023061558264592"><ele>560.0</ele><time>2026-03-22T09:33:30.999Z</time></trkpt><trkpt lat="41.53085524648124" lon="13.023164420370959"><ele>560.0</ele><time>2026-03-22T09:33:33.999Z</time></trkpt><trkpt lat="41.530831618721656" lon="13.023242678647499"><ele>560.0</ele><time>2026-03-22T09:33:36.999Z</time></trkpt><trkpt lat="41.53080908757188" lon="13.023353688295371"><ele>560.0</ele><time>2026-03-22T09:33:39.999Z</time></trkpt><trkpt lat="41.5307825179535" lon="13.023483656168413"><ele>560.0</ele><time>2026-03-22T09:33:41.999Z</time></trkpt><trkpt lat="41.53074640670683" lon="13.02356788335777"><ele>562.0</ele><time>2026-03-22T09:33:44.999Z</time></trkpt><trkpt lat="41.53073156615256" lon="13.023657035885423"><ele>564.0</ele><time>2026-03-22T09:33:47.999Z</time></trkpt><trkpt lat="41.530711067925964" lon="13.023738204467186"><ele>566.0</ele><time>2026-03-22T09:33:49.999Z</time></trkpt><trkpt lat="41.530693274550366" lon="13.02382710258013"><ele>568.0</ele><time>2026-03-22T09:33:52.999Z</time></trkpt><trkpt lat="41.530656932446064" lon="13.023928016217212"><ele>570.0</ele><time>2026-03-22T09:33:58.999Z</time></trkpt><trkpt lat="41.530638088533905" lon="13.024030577306528"><ele>572.0</ele><time>2026-03-22T09:34:03.999Z</time></trkpt><trkpt lat="41.53062360365462" lon="13.024117698829576"><ele>574.0</ele><time>2026-03-22T09:34:06.999Z</time></trkpt><trkpt lat="41.53061579949016" lon="13.0242066828927"><ele>575.4285714285714</ele><time>2026-03-22T09:34:09.999Z</time></trkpt><trkpt lat="41.530586898292" lon="13.024281757560336"><ele>576.8571428571429</ele><time>2026-03-22T09:34:13.999Z</time></trkpt><trkpt lat="41.53058240879876" lon="13.0243904284761"><ele>578.2857142857142</ele><time>2026-03-22T09:34:17.998Z</time></trkpt><trkpt lat="41.53056395418848" lon="13.024479987383156"><ele>579.7142857142858</ele><time>2026-03-22T09:34:21.998Z</time></trkpt><trkpt lat="41.530544136443964" lon="13.024583498991657"><ele>581.1428571428571</ele><time>2026-03-22T09:34:24.998Z</time></trkpt><trkpt lat="41.53051968534105" lon="13.024677554207367"><ele>582.5714285714286</ele><time>2026-03-22T09:34:27.998Z</time></trkpt><trkpt lat="41.53050635625727" lon="13.024771115411177"><ele>584.0</ele><time>2026-03-22T09:34:29.998Z</time></trkpt><trkpt lat="41.530483082879414" lon="13.024868432705384"><ele>584.0</ele><time>2026-03-22T09:34:33.998Z</time></trkpt><trkpt lat="41.530471796624816" lon="13.02497439151458"><ele>584.0</ele><time>2026-03-22T09:34:38Z</time></trkpt><trkpt lat="41.53046216890958" lon="13.02506531610233"><ele>584.0</ele><time>2026-03-22T09:34:41Z</time></trkpt><trkpt lat="41.53043865360511" lon="13.025165823548416"><ele>584.0</ele><time>2026-03-22T09:34:47Z</time></trkpt><trkpt lat="41.5304073162331" lon="13.025266602139395"><ele>584.0</ele><time>2026-03-22T09:34:49Z</time></trkpt><trkpt lat="41.53039793786652" lon="13.02536478706795"><ele>584.0</ele><time>2026-03-22T09:34:53Z</time></trkpt><trkpt lat="41.5303774289528" lon="13.025459989454594"><ele>578.3333333333333</ele><time>2026-03-22T09:34:56Z</time></trkpt><trkpt lat="41.53035560955536" lon="13.025548344291163"><ele>572.6666666666666</ele><time>2026-03-22T09:34:59Z</time></trkpt><trkpt lat="41.53033385792973" lon="13.025653895534552"><ele>567.0</ele><time>2026-03-22T09:35:02Z</time></trkpt><trkpt lat="41.53030710031261" lon="13.025762538201867"><ele>561.3333333333334</ele><time>2026-03-22T09:35:04Z</time></trkpt><trkpt lat="41.53027785561889" lon="13.025872559334069"><ele>555.6666666666667</ele><time>2026-03-22T09:35:07Z</time></trkpt><trkpt lat="41.53024990847669" lon="13.025988315028705"><ele>550.0</ele><time>2026-03-22T09:35:10Z</time></trkpt><trkpt lat="41.53021915766515" lon="13.026090135039817"><ele>550.0</ele><time>2026-03-22T09:35:13Z</time></trkpt><trkpt lat="41.530182024635614" lon="13.026198193619333"><ele>550.0</ele><time>2026-03-22T09:35:16Z</time></trkpt><trkpt lat="41.530155661678755" lon="13.026278795598213"><ele>550.0</ele><time>2026-03-22T09:35:18.999Z</time></trkpt><trkpt lat="41.530115255443924" lon="13.02638591193066"><ele>550.0</ele><time>2026-03-22T09:35:21.999Z</time></trkpt><trkpt lat="41.530087616178555" lon="13.02647752235256"><ele>550.0</ele><time>2026-03-22T09:35:25.999Z</time></trkpt><trkpt lat="41.53006044324489" lon="13.026557050232547"><ele>550.0</ele><time>2026-03-22T09:35:28.999Z</time></trkpt><trkpt lat="41.530026936753735" lon="13.02665527473592"><ele>551.5</ele><time>2026-03-22T09:35:31.999Z</time></trkpt><trkpt lat="41.52997126052644" lon="13.026755080167272"><ele>553.0</ele><time>2026-03-22T09:35:34.999Z</time></trkpt><trkpt lat="41.52990870169629" lon="13.02686756725741"><ele>554.5</ele><time>2026-03-22T09:35:37.999Z</time></trkpt><trkpt lat="41.529864038713406" lon="13.026935745575866"><ele>556.0</ele><time>2026-03-22T09:35:39.999Z</time></trkpt><trkpt lat="41.52984544691465" lon="13.027021260587551"><ele>557.5</ele><time>2026-03-22T09:35:44.999Z</time></trkpt><trkpt lat="41.52982207950849" lon="13.027110390597228"><ele>559.0</ele><time>2026-03-22T09:35:49.999Z</time></trkpt><trkpt lat="41.52975136898004" lon="13.027161094117568"><ele>559.0</ele><time>2026-03-22T09:35:53.999Z</time></trkpt><trkpt lat="41.529682989827634" lon="13.027196905336082"><ele>559.0</ele><time>2026-03-22T09:36:01.999Z</time></trkpt><trkpt lat="41.529618005540804" lon="13.027191592927924"><ele>559.0</ele><time>2026-03-22T09:36:04.999Z</time></trkpt><trkpt lat="41.5295207477725" lon="13.02721229693291"><ele>559.0</ele><time>2026-03-22T09:36:06.999Z</time></trkpt><trkpt lat="41.52946197827105" lon="13.027258007192554"><ele>559.0</ele><time>2026-03-22T09:36:09.999Z</time></trkpt><trkpt lat="41.52937513137153" lon="13.027288535604058"><ele>559.0</ele><time>2026-03-22T09:36:12.999Z</time></trkpt><trkpt lat="41.52930381038945" lon="13.027279793675765"><ele>557.8333333333334</ele><time>2026-03-22T09:36:15.999Z</time></trkpt><trkpt lat="41.52918969493198" lon="13.027289596147426"><ele>556.6666666666667</ele><time>2026-03-22T09:36:18.998Z</time></trkpt><trkpt lat="41.52921198418746" lon="13.027381960630034"><ele>555.5</ele><time>2026-03-22T09:47:51.999Z</time></trkpt><trkpt lat="41.52920590851282" lon="13.027469777912348"><ele>554.3333333333334</ele><time>2026-03-22T09:47:58.999Z</time></trkpt><trkpt lat="41.52915689077281" lon="13.027572089900763"><ele>553.1666666666666</ele><time>2026-03-22T09:48:03.999Z</time></trkpt><trkpt lat="41.52914190417233" lon="13.027670495407191"><ele>552.0</ele><time>2026-03-22T09:48:06.999Z</time></trkpt><trkpt lat="41.52914178500292" lon="13.027767857548085"><ele>552.0</ele><time>2026-03-22T09:48:10.999Z</time></trkpt><trkpt lat="41.52910775174514" lon="13.027856625522226"><ele>552.0</ele><time>2026-03-22T09:48:19.999Z</time></trkpt><trkpt lat="41.52905957352027" lon="13.027944888309394"><ele>552.0</ele><time>2026-03-22T09:48:22.999Z</time></trkpt><trkpt lat="41.529007765704186" lon="13.028013999969126"><ele>552.0</ele><time>2026-03-22T09:48:26.999Z</time></trkpt><trkpt lat="41.52896004571915" lon="13.02806986151514"><ele>552.0</ele><time>2026-03-22T09:48:29.999Z</time></trkpt><trkpt lat="41.528981953052615" lon="13.028170996222796"><ele>552.0</ele><time>2026-03-22T09:49:12.998Z</time></trkpt><trkpt lat="41.52891635814401" lon="13.028232763220972"><ele>552.0</ele><time>2026-03-22T09:49:20Z</time></trkpt><trkpt lat="41.5288474726158" lon="13.028272673671324"><ele>552.0</ele><time>2026-03-22T09:49:30Z</time></trkpt><trkpt lat="41.528775804980306" lon="13.028303796387084"><ele>552.0</ele><time>2026-03-22T09:49:34Z</time></trkpt><trkpt lat="41.5286932530199" lon="13.028311104927484"><ele>552.0</ele><time>2026-03-22T09:49:37Z</time></trkpt><trkpt lat="41.52864067574457" lon="13.028357436303276"><ele>552.0</ele><time>2026-03-22T09:49:39Z</time></trkpt><trkpt lat="41.52859721624476" lon="13.028435832540598"><ele>552.0</ele><time>2026-03-22T09:49:46Z</time></trkpt><trkpt lat="41.528507220885345" lon="13.028439339724287"><ele>554.7142857142858</ele><time>2026-03-22T09:49:55.999Z</time></trkpt><trkpt lat="41.52843733363402" lon="13.0284579378078"><ele>557.4285714285714</ele><time>2026-03-22T09:49:58.999Z</time></trkpt><trkpt lat="41.52837220222491" lon="13.028479826695175"><ele>560.1428571428571</ele><time>2026-03-22T09:50:01.999Z</time></trkpt><trkpt lat="41.528347227813924" lon="13.02857723836517"><ele>562.8571428571429</ele><time>2026-03-22T09:50:07.999Z</time></trkpt><trkpt lat="41.528309396716466" lon="13.028656494932921"><ele>565.5714285714286</ele><time>2026-03-22T09:50:11.999Z</time></trkpt><trkpt lat="41.528288555382225" lon="13.028741569420204"><ele>568.2857142857143</ele><time>2026-03-22T09:56:10.999Z</time></trkpt><trkpt lat="41.5282446791123" lon="13.028822773609708"><ele>571.0</ele><time>2026-03-22T09:56:23.999Z</time></trkpt><trkpt lat="41.52822140876868" lon="13.028905016138868"><ele>571.0</ele><time>2026-03-22T09:56:40.999Z</time></trkpt><trkpt lat="41.52827045943513" lon="13.028844022941389"><ele>571.0</ele><time>2026-03-22T09:57:27.998Z</time></trkpt><trkpt lat="41.52821261107077" lon="13.028884067413053"><ele>571.0</ele><time>2026-03-22T09:59:23.998Z</time></trkpt><trkpt lat="41.52817345193234" lon="13.028976588633505"><ele>571.0</ele><time>2026-03-22T10:00:03Z</time></trkpt><trkpt lat="41.528125433785576" lon="13.029071055453528"><ele>571.0</ele><time>2026-03-22T10:00:06Z</time></trkpt><trkpt lat="41.52806461347055" lon="13.02914333032101"><ele>571.0</ele><time>2026-03-22T10:00:09Z</time></trkpt><trkpt lat="41.527990820155324" lon="13.029183484378931"><ele>570.8333333333334</ele><time>2026-03-22T10:00:11.999Z</time></trkpt><trkpt lat="41.52791067215413" lon="13.02923289096765"><ele>570.6666666666667</ele><time>2026-03-22T10:00:14.999Z</time></trkpt><trkpt lat="41.527818425940225" lon="13.029251750711879"><ele>570.5</ele><time>2026-03-22T10:00:18.999Z</time></trkpt><trkpt lat="41.527749546792734" lon="13.029294132170854"><ele>570.3333333333334</ele><time>2026-03-22T10:00:21.999Z</time></trkpt><trkpt lat="41.52768365791761" lon="13.029332491017199"><ele>570.1666666666666</ele><time>2026-03-22T10:00:25.999Z</time></trkpt><trkpt lat="41.52761721031801" lon="13.029386927816994"><ele>570.0</ele><time>2026-03-22T10:00:30.999Z</time></trkpt><trkpt lat="41.52757372482883" lon="13.029470759660711"><ele>570.0</ele><time>2026-03-22T10:00:35.999Z</time></trkpt><trkpt lat="41.527529797488754" lon="13.029532419099015"><ele>570.0</ele><time>2026-03-22T10:00:38.999Z</time></trkpt><trkpt lat="41.527476553577756" lon="13.029591846410455"><ele>570.0</ele><time>2026-03-22T10:00:40.999Z</time></trkpt><trkpt lat="41.527416105079965" lon="13.029643472124318"><ele>570.0</ele><time>2026-03-22T10:00:43.999Z</time></trkpt><trkpt lat="41.52732565878939" lon="13.029676985861316"><ele>570.0</ele><time>2026-03-22T10:00:45.999Z</time></trkpt><trkpt lat="41.52726991091827" lon="13.02972307865532"><ele>570.0</ele><time>2026-03-22T10:00:47.999Z</time></trkpt><trkpt lat="41.52725611310645" lon="13.029814021626196"><ele>570.0</ele><time>2026-03-22T10:00:49.999Z</time></trkpt><trkpt lat="41.52718306471844" lon="13.02986099867393"><ele>570.0</ele><time>2026-03-22T10:00:53.999Z</time></trkpt><trkpt lat="41.527092006592646" lon="13.029909555246935"><ele>570.0</ele><time>2026-03-22T10:00:58.999Z</time></trkpt><trkpt lat="41.527029604598546" lon="13.02997998515484"><ele>570.0</ele><time>2026-03-22T10:01:00.999Z</time></trkpt><trkpt lat="41.526956755813735" lon="13.030037132255766"><ele>570.0</ele><time>2026-03-22T10:01:02.999Z</time></trkpt><trkpt lat="41.526902316277244" lon="13.030095800694516"><ele>570.0</ele><time>2026-03-22T10:01:05.999Z</time></trkpt><trkpt lat="41.52682763271269" lon="13.030162839468906"><ele>570.0</ele><time>2026-03-22T10:01:08.999Z</time></trkpt><trkpt lat="41.526763103175405" lon="13.030237080140038"><ele>570.8333333333334</ele><time>2026-03-22T10:01:11.998Z</time></trkpt><trkpt lat="41.52670519226656" lon="13.030298599662624"><ele>571.6666666666666</ele><time>2026-03-22T10:01:25.998Z</time></trkpt><trkpt lat="41.52665284903075" lon="13.030373964911746"><ele>572.5</ele><time>2026-03-22T10:01:29.998Z</time></trkpt><trkpt lat="41.526601220462666" lon="13.030445832572942"><ele>573.3333333333333</ele><time>2026-03-22T10:01:34.998Z</time></trkpt><trkpt lat="41.52653887774297" lon="13.030506791180619"><ele>574.1666666666666</ele><time>2026-03-22T10:01:38.998Z</time></trkpt><trkpt lat="41.526501198802045" lon="13.030577176915868"><ele>575.0</ele><time>2026-03-22T10:01:41.998Z</time></trkpt><trkpt lat="41.52643347978821" lon="13.030645845208545"><ele>575.0</ele><time>2026-03-22T10:01:55Z</time></trkpt><trkpt lat="41.526369852859126" lon="13.030713819386962"><ele>575.0</ele><time>2026-03-22T10:01:57Z</time></trkpt><trkpt lat="41.52631630758437" lon="13.03080152839772"><ele>575.0</ele><time>2026-03-22T10:01:59Z</time></trkpt><trkpt lat="41.52626364085911" lon="13.030848239749258"><ele>575.0</ele><time>2026-03-22T10:02:01Z</time></trkpt><trkpt lat="41.52621938766289" lon="13.030924556077892"><ele>575.0</ele><time>2026-03-22T10:02:04Z</time></trkpt><trkpt lat="41.526192606092565" lon="13.031035835716143"><ele>575.0</ele><time>2026-03-22T10:03:48.998Z</time></trkpt><trkpt lat="41.52614645261841" lon="13.031110702558108"><ele>577.3333333333333</ele><time>2026-03-22T10:03:51.998Z</time></trkpt><trkpt lat="41.52609089958343" lon="13.031168155331077"><ele>579.6666666666666</ele><time>2026-03-22T10:03:53.998Z</time></trkpt><trkpt lat="41.526041097045905" lon="13.031229398130257"><ele>582.0</ele><time>2026-03-22T10:03:55.998Z</time></trkpt><trkpt lat="41.52595435877415" lon="13.031286735644693"><ele>584.3333333333334</ele><time>2026-03-22T10:03:58Z</time></trkpt><trkpt lat="41.52589664990509" lon="13.031366277670019"><ele>586.6666666666667</ele><time>2026-03-22T10:04:00Z</time></trkpt><trkpt lat="41.525856532977095" lon="13.031470870894752"><ele>589.0</ele><time>2026-03-22T10:04:02Z</time></trkpt><trkpt lat="41.52583727173123" lon="13.03157309676315"><ele>590.8333333333334</ele><time>2026-03-22T10:04:04Z</time></trkpt><trkpt lat="41.52582770162979" lon="13.031672566629897"><ele>592.6666666666667</ele><time>2026-03-22T10:04:06Z</time></trkpt><trkpt lat="41.52585390654452" lon="13.031761745465912"><ele>594.5</ele><time>2026-03-22T10:04:08Z</time></trkpt><trkpt lat="41.525892871104965" lon="13.031855352988906"><ele>596.3333333333334</ele><time>2026-03-22T10:04:10Z</time></trkpt><trkpt lat="41.525894910032044" lon="13.031959123155469"><ele>598.1666666666666</ele><time>2026-03-22T10:04:13Z</time></trkpt><trkpt lat="41.52590211934736" lon="13.032059120660113"><ele>600.0</ele><time>2026-03-22T10:04:17Z</time></trkpt><trkpt lat="41.525912582329674" lon="13.032151826167578"><ele>600.0</ele><time>2026-03-22T10:04:31.999Z</time></trkpt><trkpt lat="41.52594317395292" lon="13.032251033858559"><ele>600.0</ele><time>2026-03-22T10:04:35.999Z</time></trkpt><trkpt lat="41.52594785605202" lon="13.032342766114281"><ele>600.0</ele><time>2026-03-22T10:04:37.999Z</time></trkpt><trkpt lat="41.52596271448281" lon="13.032441156746309"><ele>600.0</ele><time>2026-03-22T10:04:39.999Z</time></trkpt><trkpt lat="41.52594837563906" lon="13.032524056449242"><ele>600.0</ele><time>2026-03-22T10:04:41.999Z</time></trkpt><trkpt lat="41.52592730132512" lon="13.032647395473338"><ele>600.0</ele><time>2026-03-22T10:04:44.999Z</time></trkpt><trkpt lat="41.52586475832212" lon="13.032732405529808"><ele>602.0</ele><time>2026-03-22T10:04:47.999Z</time></trkpt><trkpt lat="41.52581802278094" lon="13.032847723094246"><ele>604.0</ele><time>2026-03-22T10:04:49.999Z</time></trkpt><trkpt lat="41.52575769097133" lon="13.032982401642897"><ele>606.0</ele><time>2026-03-22T10:04:51.999Z</time></trkpt><trkpt lat="41.525651084694395" lon="13.033114153145574"><ele>608.0</ele><time>2026-03-22T10:04:54.999Z</time></trkpt><trkpt lat="41.52559673916105" lon="13.033165432383136"><ele>610.0</ele><time>2026-03-22T10:04:56.999Z</time></trkpt><trkpt lat="41.525511598545535" lon="13.033137649835531"><ele>610.0</ele><time>2026-03-22T10:04:59.999Z</time></trkpt><trkpt lat="41.52546078166052" lon="13.033239486789123"><ele>610.0</ele><time>2026-03-22T10:05:01.999Z</time></trkpt><trkpt lat="41.52540962884045" lon="13.03333100365646"><ele>610.0</ele><time>2026-03-22T10:05:03.999Z</time></trkpt><trkpt lat="41.52536298939237" lon="13.033443793438503"><ele>610.0</ele><time>2026-03-22T10:05:05.999Z</time></trkpt><trkpt lat="41.52527084205519" lon="13.033510195997335"><ele>610.0</ele><time>2026-03-22T10:05:07.999Z</time></trkpt><trkpt lat="41.52523349302719" lon="13.03358672635275"><ele>610.0</ele><time>2026-03-22T10:05:08.999Z</time></trkpt><trkpt lat="41.525175363753085" lon="13.033642929529023"><ele>611.8571428571429</ele><time>2026-03-22T10:05:10.999Z</time></trkpt><trkpt lat="41.52510892345477" lon="13.033704864929332"><ele>613.7142857142857</ele><time>2026-03-22T10:05:12.999Z</time></trkpt><trkpt lat="41.52509221409612" lon="13.033811107848889"><ele>615.5714285714286</ele><time>2026-03-22T10:05:16.999Z</time></trkpt><trkpt lat="41.52506748870581" lon="13.033897323575417"><ele>617.4285714285714</ele><time>2026-03-22T10:05:20.999Z</time></trkpt><trkpt lat="41.52502645753296" lon="13.033964251954552"><ele>619.2857142857142</ele><time>2026-03-22T10:05:24.998Z</time></trkpt><trkpt lat="41.52503183038573" lon="13.034057741542428"><ele>621.1428571428571</ele><time>2026-03-22T10:05:26.998Z</time></trkpt><trkpt lat="41.52497026601779" lon="13.034101913966474"><ele>623.0</ele><time>2026-03-22T10:05:30.998Z</time></trkpt><trkpt lat="41.52489869831696" lon="13.034144384438951"><ele>623.0</ele><time>2026-03-22T10:05:33.998Z</time></trkpt><trkpt lat="41.52482361761634" lon="13.034152706428632"><ele>623.0</ele><time>2026-03-22T10:05:35.998Z</time></trkpt><trkpt lat="41.52475677729763" lon="13.034150120124641"><ele>623.0</ele><time>2026-03-22T10:05:37.998Z</time></trkpt><trkpt lat="41.52468720449066" lon="13.034165451226615"><ele>623.0</ele><time>2026-03-22T10:05:39.998Z</time></trkpt><trkpt lat="41.524608808361826" lon="13.034160104358715"><ele>623.0</ele><time>2026-03-22T10:05:42.998Z</time></trkpt><trkpt lat="41.524524570806804" lon="13.034178474768881"><ele>623.0</ele><time>2026-03-22T10:05:47.998Z</time></trkpt><trkpt lat="41.524441990410374" lon="13.034194235295072"><ele>622.6666666666666</ele><time>2026-03-22T10:05:50.998Z</time></trkpt><trkpt lat="41.52435109642067" lon="13.034196961346181"><ele>622.3333333333333</ele><time>2026-03-22T10:05:54.998Z</time></trkpt><trkpt lat="41.52427237526908" lon="13.034187901700914"><ele>622.0</ele><time>2026-03-22T10:05:58.998Z</time></trkpt><trkpt lat="41.52421842242417" lon="13.034245721995521"><ele>621.6666666666666</ele><time>2026-03-22T10:06:04Z</time></trkpt><trkpt lat="41.52415053551767" lon="13.034256512596425"><ele>621.3333333333334</ele><time>2026-03-22T10:06:25Z</time></trkpt><trkpt lat="41.5240759421878" lon="13.034231266071913"><ele>621.0</ele><time>2026-03-22T10:06:33.999Z</time></trkpt><trkpt lat="41.524006631482266" lon="13.03421421586188"><ele>620.9999999999999</ele><time>2026-03-22T10:06:38.999Z</time></trkpt><trkpt lat="41.523944147303986" lon="13.034191751780536"><ele>621.0</ele><time>2026-03-22T10:06:40.999Z</time></trkpt><trkpt lat="41.523887621854406" lon="13.034113729660694"><ele>621.0</ele><time>2026-03-22T10:07:02.999Z</time></trkpt><trkpt lat="41.523823100321046" lon="13.034106736241377"><ele>621.0</ele><time>2026-03-22T10:07:09.999Z</time></trkpt><trkpt lat="41.52375734360598" lon="13.034125756376348"><ele>621.0</ele><time>2026-03-22T10:07:17.999Z</time></trkpt><trkpt lat="41.523694418028754" lon="13.034117359564412"><ele>620.9999999999999</ele><time>2026-03-22T10:07:21.999Z</time></trkpt><trkpt lat="41.52361294854458" lon="13.03414501428649"><ele>621.0</ele><time>2026-03-22T10:07:25.998Z</time></trkpt><trkpt lat="41.52355812140333" lon="13.034195727120744"><ele>618.8333333333334</ele><time>2026-03-22T10:07:28.998Z</time></trkpt><trkpt lat="41.52349663634817" lon="13.034250837873323"><ele>616.6666666666666</ele><time>2026-03-22T10:07:32.998Z</time></trkpt><trkpt lat="41.52342694841158" lon="13.034259431715398"><ele>614.5</ele><time>2026-03-22T10:07:36.998Z</time></trkpt><trkpt lat="41.52336439070887" lon="13.034308251124104"><ele>612.3333333333333</ele><time>2026-03-22T10:07:43.998Z</time></trkpt><trkpt lat="41.523289327575206" lon="13.034334400095382"><ele>610.1666666666666</ele><time>2026-03-22T10:07:47.998Z</time></trkpt><trkpt lat="41.52320087616209" lon="13.034361273520242"><ele>608.0</ele><time>2026-03-22T10:07:51.998Z</time></trkpt><trkpt lat="41.5230737789094" lon="13.034384364510665"><ele>608.0</ele><time>2026-03-22T10:07:53.998Z</time></trkpt><trkpt lat="41.522983873654134" lon="13.034454224386396"><ele>608.0</ele><time>2026-03-22T10:07:55.998Z</time></trkpt><trkpt lat="41.52293797582348" lon="13.034530651505554"><ele>608.0</ele><time>2026-03-22T10:07:57.998Z</time></trkpt><trkpt lat="41.522909173445946" lon="13.034675891453002"><ele>608.0</ele><time>2026-03-22T10:14:02.998Z</time></trkpt><trkpt lat="41.522904071659866" lon="13.034773670563416"><ele>608.0</ele><time>2026-03-22T10:14:05.998Z</time></trkpt><trkpt lat="41.52285249760087" lon="13.034839595562696"><ele>608.0</ele><time>2026-03-22T10:14:12.998Z</time></trkpt><trkpt lat="41.522832782039785" lon="13.034937757298742"><ele>608.0</ele><time>2026-03-22T10:14:15.998Z</time></trkpt><trkpt lat="41.522830824181895" lon="13.035025467945617"><ele>608.0</ele><time>2026-03-22T10:14:17.998Z</time></trkpt><trkpt lat="41.52277839301326" lon="13.035077231038574"><ele>608.0</ele><time>2026-03-22T10:14:21.998Z</time></trkpt><trkpt lat="41.522729907177826" lon="13.035139776176322"><ele>608.0</ele><time>2026-03-22T10:14:23.998Z</time></trkpt><trkpt lat="41.52270954013798" lon="13.035234236352055"><ele>608.0</ele><time>2026-03-22T10:14:27.999Z</time></trkpt><trkpt lat="41.522695214898825" lon="13.035325515442738"><ele>608.0</ele><time>2026-03-22T10:14:30.999Z</time></trkpt><trkpt lat="41.5227138048567" lon="13.035431881383198"><ele>608.0</ele><time>2026-03-22T10:14:33.999Z</time></trkpt><trkpt lat="41.522729939109944" lon="13.035522669853094"><ele>608.0</ele><time>2026-03-22T10:14:36.999Z</time></trkpt><trkpt lat="41.522728663689" lon="13.035627817293724"><ele>608.0</ele><time>2026-03-22T10:14:40.999Z</time></trkpt><trkpt lat="41.52270486939308" lon="13.03570743415385"><ele>608.0</ele><time>2026-03-22T10:15:04.999Z</time></trkpt><trkpt lat="41.52270009770493" lon="13.035800152621764"><ele>608.0</ele><time>2026-03-22T10:15:13.999Z</time></trkpt><trkpt lat="41.522686534891506" lon="13.03588713661661"><ele>608.0</ele><time>2026-03-22T10:15:18.999Z</time></trkpt><trkpt lat="41.52268582586796" lon="13.035972318677995"><ele>608.0</ele><time>2026-03-22T10:15:21.999Z</time></trkpt><trkpt lat="41.5226581896164" lon="13.036058068316292"><ele>608.0</ele><time>2026-03-22T10:15:25.999Z</time></trkpt><trkpt lat="41.52265240942012" lon="13.036156992660079"><ele>609.1428571428571</ele><time>2026-03-22T10:15:30.999Z</time></trkpt><trkpt lat="41.522683024763566" lon="13.036237421837656"><ele>610.2857142857143</ele><time>2026-03-22T10:15:33.999Z</time></trkpt><trkpt lat="41.52265126543464" lon="13.03631438864484"><ele>611.4285714285714</ele><time>2026-03-22T10:15:43.998Z</time></trkpt><trkpt lat="41.52261813397354" lon="13.036398263896483"><ele>612.5714285714286</ele><time>2026-03-22T10:15:46.998Z</time></trkpt><trkpt lat="41.52260849213196" lon="13.036486122754798"><ele>613.7142857142858</ele><time>2026-03-22T10:15:50.998Z</time></trkpt><trkpt lat="41.522595261596216" lon="13.036581374638399"><ele>614.8571428571429</ele><time>2026-03-22T10:15:53.998Z</time></trkpt><trkpt lat="41.5225589481205" lon="13.03668546175329"><ele>616.0</ele><time>2026-03-22T10:15:57.998Z</time></trkpt><trkpt lat="41.52253376552072" lon="13.03677286096857"><ele>616.0</ele><time>2026-03-22T10:15:59.998Z</time></trkpt><trkpt lat="41.52251656491789" lon="13.036855803723784"><ele>616.0</ele><time>2026-03-22T10:16:01.998Z</time></trkpt><trkpt lat="41.52244893738133" lon="13.03691724802611"><ele>616.0</ele><time>2026-03-22T10:16:06.998Z</time></trkpt><trkpt lat="41.52240552233993" lon="13.036979161755761"><ele>616.0</ele><time>2026-03-22T10:16:12.998Z</time></trkpt><trkpt lat="41.52237425742261" lon="13.037054770088208"><ele>616.0</ele><time>2026-03-22T10:20:25.998Z</time></trkpt><trkpt lat="41.52236289904565" lon="13.037149513577273"><ele>616.0</ele><time>2026-03-22T10:20:35.998Z</time></trkpt><trkpt lat="41.522350387431786" lon="13.037236522902788"><ele>616.0</ele><time>2026-03-22T10:20:54.999Z</time></trkpt><trkpt lat="41.52233435558897" lon="13.037318269877783"><ele>616.0</ele><time>2026-03-22T10:21:00.999Z</time></trkpt><trkpt lat="41.52234434755222" lon="13.037409983705611"><ele>616.0</ele><time>2026-03-22T10:21:08.999Z</time></trkpt><trkpt lat="41.522311522397466" lon="13.037493255235162"><ele>616.0</ele><time>2026-03-22T10:21:12.999Z</time></trkpt><trkpt lat="41.52227405813096" lon="13.037572232079128"><ele>616.0</ele><time>2026-03-22T10:21:22.999Z</time></trkpt><trkpt lat="41.52222437168099" lon="13.037632964253733"><ele>616.0</ele><time>2026-03-22T10:21:28.999Z</time></trkpt><trkpt lat="41.522205405285874" lon="13.037718191765416"><ele>616.0</ele><time>2026-03-22T10:21:32.999Z</time></trkpt><trkpt lat="41.52217944686821" lon="13.037826882744561"><ele>616.0</ele><time>2026-03-22T10:21:38.999Z</time></trkpt><trkpt lat="41.52213758817781" lon="13.037923963248797"><ele>616.4285714285714</ele><time>2026-03-22T10:21:54Z</time></trkpt><trkpt lat="41.522095207600614" lon="13.03800154590588"><ele>616.8571428571429</ele><time>2026-03-22T10:21:59.999Z</time></trkpt><trkpt lat="41.52204599303702" lon="13.038078125644669"><ele>617.2857142857142</ele><time>2026-03-22T10:22:11.999Z</time></trkpt><trkpt lat="41.52201540178019" lon="13.038154558302974"><ele>617.7142857142858</ele><time>2026-03-22T10:22:18.999Z</time></trkpt><trkpt lat="41.521963136602984" lon="13.03824941905006"><ele>618.1428571428571</ele><time>2026-03-22T10:22:23.999Z</time></trkpt><trkpt lat="41.52191214195304" lon="13.038309699100685"><ele>618.5714285714286</ele><time>2026-03-22T10:22:27.999Z</time></trkpt><trkpt lat="41.521883513519455" lon="13.038389595037918"><ele>619.0</ele><time>2026-03-22T10:22:30.999Z</time></trkpt><trkpt lat="41.52184186930324" lon="13.038471925583949"><ele>619.0</ele><time>2026-03-22T10:22:34.999Z</time></trkpt><trkpt lat="41.52176740792092" lon="13.038502870456425"><ele>619.0</ele><time>2026-03-22T10:22:38.999Z</time></trkpt><trkpt lat="41.521703533709804" lon="13.038586624842688"><ele>619.0</ele><time>2026-03-22T10:22:41.999Z</time></trkpt><trkpt lat="41.521623512418515" lon="13.038640782148807"><ele>619.0</ele><time>2026-03-22T10:22:43.999Z</time></trkpt><trkpt lat="41.52156012407386" lon="13.038683806821474"><ele>619.0</ele><time>2026-03-22T10:22:45.999Z</time></trkpt><trkpt lat="41.52150090139161" lon="13.038727447929643"><ele>619.0</ele><time>2026-03-22T10:22:49Z</time></trkpt><trkpt lat="41.521444878874746" lon="13.038809724223494"><ele>619.0</ele><time>2026-03-22T10:26:08Z</time></trkpt><trkpt lat="41.52135416538735" lon="13.03886900697734"><ele>619.0</ele><time>2026-03-22T10:26:09.999Z</time></trkpt><trkpt lat="41.52125976141272" lon="13.038920858567023"><ele>619.0</ele><time>2026-03-22T10:26:11.999Z</time></trkpt><trkpt lat="41.521215950272776" lon="13.039002148319554"><ele>619.0</ele><time>2026-03-22T10:26:14.999Z</time></trkpt><trkpt lat="41.52114527170518" lon="13.039035762752412"><ele>619.0</ele><time>2026-03-22T10:26:17.999Z</time></trkpt><trkpt lat="41.521097996565224" lon="13.039160303956185"><ele>619.5</ele><time>2026-03-22T10:26:19.999Z</time></trkpt><trkpt lat="41.52104393927973" lon="13.039218174007036"><ele>620.0</ele><time>2026-03-22T10:26:22.999Z</time></trkpt><trkpt lat="41.521000551731056" lon="13.03933644375005"><ele>620.5</ele><time>2026-03-22T10:26:26.999Z</time></trkpt><trkpt lat="41.52095603275043" lon="13.039445671384811"><ele>621.0</ele><time>2026-03-22T10:26:29.999Z</time></trkpt><trkpt lat="41.520909120289275" lon="13.039543454278856"><ele>621.5</ele><time>2026-03-22T10:26:31.999Z</time></trkpt><trkpt lat="41.52087430279572" lon="13.03961470254481"><ele>622.0</ele><time>2026-03-22T10:26:34.999Z</time></trkpt><trkpt lat="41.52081819045293" lon="13.039706461694815"><ele>622.0</ele><time>2026-03-22T10:26:37.999Z</time></trkpt><trkpt lat="41.520828437252675" lon="13.039791194615812"><ele>622.0</ele><time>2026-03-22T10:26:40.999Z</time></trkpt><trkpt lat="41.5208830569039" lon="13.039840565545072"><ele>622.0</ele><time>2026-03-22T10:26:43.999Z</time></trkpt><trkpt lat="41.52082989619691" lon="13.039919190043104"><ele>622.0</ele><time>2026-03-22T10:26:49.999Z</time></trkpt><trkpt lat="41.52079424809653" lon="13.039989499069367"><ele>622.0</ele><time>2026-03-22T10:26:52.999Z</time></trkpt><trkpt lat="41.520742171102114" lon="13.04006605407187"><ele>622.0</ele><time>2026-03-22T10:26:55.999Z</time></trkpt><trkpt lat="41.52069159127782" lon="13.04013451151063"><ele>622.0</ele><time>2026-03-22T10:26:58.999Z</time></trkpt><trkpt lat="41.52063760370786" lon="13.040227322516506"><ele>621.8333333333334</ele><time>2026-03-22T10:27:02Z</time></trkpt><trkpt lat="41.52059913131118" lon="13.040335797516915"><ele>621.6666666666667</ele><time>2026-03-22T10:27:04Z</time></trkpt><trkpt lat="41.520513560893264" lon="13.040444384865278"><ele>621.5</ele><time>2026-03-22T10:27:06Z</time></trkpt><trkpt lat="41.520455755299785" lon="13.040515265885851"><ele>621.3333333333334</ele><time>2026-03-22T10:27:08Z</time></trkpt><trkpt lat="41.52039416698751" lon="13.040587682155438"><ele>621.1666666666666</ele><time>2026-03-22T10:27:11Z</time></trkpt><trkpt lat="41.52033837727687" lon="13.04066293466451"><ele>621.0</ele><time>2026-03-22T10:27:14Z</time></trkpt><trkpt lat="41.52028950696408" lon="13.04073433484976"><ele>618.3333333333334</ele><time>2026-03-22T10:27:16Z</time></trkpt><trkpt lat="41.52024488788744" lon="13.04084109309394"><ele>615.6666666666666</ele><time>2026-03-22T10:27:19Z</time></trkpt><trkpt lat="41.52023447367992" lon="13.040931887655418"><ele>613.0</ele><time>2026-03-22T10:27:21Z</time></trkpt><trkpt lat="41.52022801488238" lon="13.041015624101089"><ele>610.3333333333333</ele><time>2026-03-22T10:27:23Z</time></trkpt><trkpt lat="41.52023780511204" lon="13.041202486061641"><ele>607.6666666666666</ele><time>2026-03-22T10:27:25Z</time></trkpt><trkpt lat="41.52028425822677" lon="13.041283985695742"><ele>605.0</ele><time>2026-03-22T10:27:28Z</time></trkpt><trkpt lat="41.52028251512265" lon="13.041460480960446"><ele>605.0</ele><time>2026-03-22T10:27:31Z</time></trkpt><trkpt lat="41.52029108609769" lon="13.041551557729218"><ele>605.0</ele><time>2026-03-22T10:27:33Z</time></trkpt><trkpt lat="41.52029379509888" lon="13.04164968106356"><ele>605.0</ele><time>2026-03-22T10:27:35Z</time></trkpt><trkpt lat="41.5202781166217" lon="13.041751120206113"><ele>605.0</ele><time>2026-03-22T10:27:38Z</time></trkpt><trkpt lat="41.52031886625236" lon="13.041817041138167"><ele>605.0</ele><time>2026-03-22T10:27:40Z</time></trkpt><trkpt lat="41.520356963981854" lon="13.04191998415077"><ele>605.0</ele><time>2026-03-22T10:27:43Z</time></trkpt><trkpt lat="41.52034842542212" lon="13.042006164222387"><ele>605.0</ele><time>2026-03-22T10:27:45Z</time></trkpt><trkpt lat="41.52029130978159" lon="13.0420928306635"><ele>603.2857142857142</ele><time>2026-03-22T10:27:47Z</time></trkpt><trkpt lat="41.52024038260428" lon="13.042157549353481"><ele>601.5714285714286</ele><time>2026-03-22T10:27:50Z</time></trkpt><trkpt lat="41.52019252778443" lon="13.042252827665385"><ele>599.8571428571429</ele><time>2026-03-22T10:27:55Z</time></trkpt><trkpt lat="41.52015666608569" lon="13.042329639261924"><ele>598.1428571428571</ele><time>2026-03-22T10:27:57Z</time></trkpt><trkpt lat="41.52008988450102" lon="13.042361858243451"><ele>596.4285714285714</ele><time>2026-03-22T10:28:01Z</time></trkpt><trkpt lat="41.52002873816374" lon="13.042424099304775"><ele>594.7142857142857</ele><time>2026-03-22T10:28:04Z</time></trkpt><trkpt lat="41.519958319124086" lon="13.042428413467528"><ele>593.0</ele><time>2026-03-22T10:28:07Z</time></trkpt><trkpt lat="41.51976441205904" lon="13.04242022209564"><ele>593.0</ele><time>2026-03-22T10:28:09Z</time></trkpt><trkpt lat="41.51970177579393" lon="13.042443018003175"><ele>593.0</ele><time>2026-03-22T10:28:10Z</time></trkpt><trkpt lat="41.519630457495" lon="13.042467300379492"><ele>593.0</ele><time>2026-03-22T10:28:11Z</time></trkpt><trkpt lat="41.519556847299015" lon="13.0425033169255"><ele>593.0</ele><time>2026-03-22T10:28:12Z</time></trkpt><trkpt lat="41.519498458422376" lon="13.042554671164476"><ele>593.0</ele><time>2026-03-22T10:28:12.999Z</time></trkpt><trkpt lat="41.51942357317638" lon="13.042675657123699"><ele>593.0</ele><time>2026-03-22T10:28:14.999Z</time></trkpt><trkpt lat="41.51939140670885" lon="13.042762351823322"><ele>592.6666666666666</ele><time>2026-03-22T10:28:15.999Z</time></trkpt><trkpt lat="41.51935192523043" lon="13.04292947670874"><ele>592.3333333333333</ele><time>2026-03-22T10:28:17.999Z</time></trkpt><trkpt lat="41.519328947762276" lon="13.043016057762614"><ele>592.0</ele><time>2026-03-22T10:28:18.999Z</time></trkpt><trkpt lat="41.519291172365534" lon="13.04311648315676"><ele>591.6666666666666</ele><time>2026-03-22T10:28:20.999Z</time></trkpt><trkpt lat="41.519356443898104" lon="13.04309161292209"><ele>591.3333333333334</ele><time>2026-03-22T10:28:28.999Z</time></trkpt><trkpt lat="41.519330271249636" lon="13.043207920712767"><ele>591.0</ele><time>2026-03-22T10:31:45Z</time></trkpt><trkpt lat="41.519338894816734" lon="13.043318691150432"><ele>591.0</ele><time>2026-03-22T10:31:48Z</time></trkpt><trkpt lat="41.51943030378637" lon="13.043447356359508"><ele>591.0</ele><time>2026-03-22T10:31:50Z</time></trkpt><trkpt lat="41.51946277840401" lon="13.043532132410318"><ele>591.0</ele><time>2026-03-22T10:31:51Z</time></trkpt><trkpt lat="41.51951459938743" lon="13.043655617141848"><ele>591.0</ele><time>2026-03-22T10:31:53Z</time></trkpt><trkpt lat="41.51955602736822" lon="13.04374487733795"><ele>591.0</ele><time>2026-03-22T10:31:56Z</time></trkpt><trkpt lat="41.51951308083316" lon="13.043826888384602"><ele>591.0</ele><time>2026-03-22T10:32:02Z</time></trkpt><trkpt lat="41.51949606188435" lon="13.043912543515033"><ele>591.0</ele><time>2026-03-22T10:32:05Z</time></trkpt><trkpt lat="41.51946934134818" lon="13.044067524907291"><ele>591.0</ele><time>2026-03-22T10:32:07Z</time></trkpt><trkpt lat="41.519430108141144" lon="13.044151610327942"><ele>591.0</ele><time>2026-03-22T10:32:09Z</time></trkpt><trkpt lat="41.51936050965095" lon="13.044264770280428"><ele>591.0</ele><time>2026-03-22T10:32:11Z</time></trkpt><trkpt lat="41.51931418919057" lon="13.044354476943381"><ele>590.3333333333334</ele><time>2026-03-22T10:32:13Z</time></trkpt><trkpt lat="41.51929285096926" lon="13.04443476728741"><ele>589.6666666666666</ele><time>2026-03-22T10:32:15Z</time></trkpt><trkpt lat="41.51925556224637" lon="13.044534018625457"><ele>589.0</ele><time>2026-03-22T10:32:17Z</time></trkpt><trkpt lat="41.51922954138689" lon="13.044647698878494"><ele>588.3333333333333</ele><time>2026-03-22T10:32:19Z</time></trkpt><trkpt lat="41.519223576663116" lon="13.044764144732508"><ele>587.6666666666666</ele><time>2026-03-22T10:32:21Z</time></trkpt><trkpt lat="41.519207147319484" lon="13.044878596286077"><ele>587.0</ele><time>2026-03-22T10:32:23Z</time></trkpt><trkpt lat="41.51917206891243" lon="13.045005491228858"><ele>585.0</ele><time>2026-03-22T10:32:25.999Z</time></trkpt><trkpt lat="41.51916548174326" lon="13.045107433201814"><ele>583.0</ele><time>2026-03-22T10:32:27.999Z</time></trkpt><trkpt lat="41.51915706420341" lon="13.045214849737295"><ele>581.0</ele><time>2026-03-22T10:32:29.999Z</time></trkpt><trkpt lat="41.51915314822868" lon="13.045322375598579"><ele>579.0</ele><time>2026-03-22T10:32:33.999Z</time></trkpt><trkpt lat="41.51915936308777" lon="13.045426818201568"><ele>577.0</ele><time>2026-03-22T10:32:38.999Z</time></trkpt><trkpt lat="41.5191702888312" lon="13.04551241906935"><ele>575.0</ele><time>2026-03-22T10:32:41.999Z</time></trkpt><trkpt lat="41.519219427409595" lon="13.045584594753734"><ele>575.0</ele><time>2026-03-22T10:32:44.999Z</time></trkpt><trkpt lat="41.51927862618214" lon="13.045679469846128"><ele>575.0</ele><time>2026-03-22T10:32:47.999Z</time></trkpt><trkpt lat="41.51931495737414" lon="13.045786337589302"><ele>575.0</ele><time>2026-03-22T10:32:50.999Z</time></trkpt><trkpt lat="41.51939423618564" lon="13.045807357715796"><ele>575.0</ele><time>2026-03-22T10:32:55.999Z</time></trkpt><trkpt lat="41.519422238048705" lon="13.045722603169265"><ele>575.0</ele><time>2026-03-22T10:32:59.999Z</time></trkpt><trkpt lat="41.51946767239033" lon="13.04562582443828"><ele>575.0</ele><time>2026-03-22T10:33:02.999Z</time></trkpt><trkpt lat="41.51951096979112" lon="13.045558878755"><ele>575.0</ele><time>2026-03-22T10:33:05.999Z</time></trkpt><trkpt lat="41.51956118348962" lon="13.045482715995185"><ele>575.0</ele><time>2026-03-22T10:33:08.999Z</time></trkpt><trkpt lat="41.519628313343" lon="13.04546842674438"><ele>575.0</ele><time>2026-03-22T10:33:11.999Z</time></trkpt><trkpt lat="41.51969107363721" lon="13.045437373087273"><ele>575.0</ele><time>2026-03-22T10:33:29Z</time></trkpt><trkpt lat="41.51977286636993" lon="13.045358045120723"><ele>575.0</ele><time>2026-03-22T10:33:36Z</time></trkpt><trkpt lat="41.51982137850595" lon="13.045299653380235"><ele>575.0</ele><time>2026-03-22T10:33:38Z</time></trkpt><trkpt lat="41.51988123681871" lon="13.045239652414867"><ele>574.4285714285714</ele><time>2026-03-22T10:33:40Z</time></trkpt><trkpt lat="41.51994605689986" lon="13.045227355765563"><ele>573.8571428571428</ele><time>2026-03-22T10:33:43Z</time></trkpt><trkpt lat="41.520025948680896" lon="13.045196438496395"><ele>573.2857142857142</ele><time>2026-03-22T10:33:47Z</time></trkpt><trkpt lat="41.52007587355211" lon="13.045142523665765"><ele>572.7142857142857</ele><time>2026-03-22T10:33:51Z</time></trkpt><trkpt lat="41.52012789753196" lon="13.04508733704143"><ele>572.1428571428571</ele><time>2026-03-22T10:33:54Z</time></trkpt><trkpt lat="41.520177085454165" lon="13.045033736071987"><ele>571.5714285714286</ele><time>2026-03-22T10:33:57Z</time></trkpt><trkpt lat="41.520224669490645" lon="13.044944005650718"><ele>571.0</ele><time>2026-03-22T10:38:11Z</time></trkpt><trkpt lat="41.52017514246749" lon="13.045032274665381"><ele>569.0</ele><time>2026-03-22T10:40:10Z</time></trkpt><trkpt lat="41.52014158067249" lon="13.045123694826499"><ele>567.0</ele><time>2026-03-22T10:40:18Z</time></trkpt><trkpt lat="41.520085159424525" lon="13.0451726907087"><ele>565.0</ele><time>2026-03-22T10:40:21Z</time></trkpt><trkpt lat="41.52002283549209" lon="13.045209220876972"><ele>563.0</ele><time>2026-03-22T10:40:24Z</time></trkpt><trkpt lat="41.51995762428107" lon="13.04528003691431"><ele>561.0</ele><time>2026-03-22T10:40:27Z</time></trkpt><trkpt lat="41.51986250320415" lon="13.045288644991189"><ele>559.0</ele><time>2026-03-22T10:40:30Z</time></trkpt><trkpt lat="41.51980939025149" lon="13.045345770041846"><ele>559.0</ele><time>2026-03-22T10:40:32Z</time></trkpt><trkpt lat="41.519735184084205" lon="13.045433928987947"><ele>559.0</ele><time>2026-03-22T10:40:34Z</time></trkpt><trkpt lat="41.51964312332295" lon="13.045485049068008"><ele>559.0</ele><time>2026-03-22T10:40:36Z</time></trkpt><trkpt lat="41.51956140796504" lon="13.04552162885877"><ele>559.0</ele><time>2026-03-22T10:40:38Z</time></trkpt><trkpt lat="41.51950024833482" lon="13.045575708002296"><ele>559.0</ele><time>2026-03-22T10:40:40Z</time></trkpt><trkpt lat="41.519465329717406" lon="13.045671856408637"><ele>559.0</ele><time>2026-03-22T10:40:42Z</time></trkpt><trkpt lat="41.51943630086577" lon="13.045749730591913"><ele>559.5714285714286</ele><time>2026-03-22T10:40:43.999Z</time></trkpt><trkpt lat="41.51941794454911" lon="13.04585956644099"><ele>560.1428571428572</ele><time>2026-03-22T10:40:48.999Z</time></trkpt><trkpt lat="41.51934059195968" lon="13.045870433305353"><ele>560.7142857142858</ele><time>2026-03-22T10:40:52.999Z</time></trkpt><trkpt lat="41.519282610054994" lon="13.045927421317007"><ele>561.2857142857143</ele><time>2026-03-22T10:40:58.999Z</time></trkpt><trkpt lat="41.519276206072455" lon="13.04601295553864"><ele>561.8571428571429</ele><time>2026-03-22T10:41:01.999Z</time></trkpt><trkpt lat="41.519328299796435" lon="13.046075481439262"><ele>562.4285714285714</ele><time>2026-03-22T10:41:05.999Z</time></trkpt><trkpt lat="41.519382347059675" lon="13.046120734256005"><ele>563.0</ele><time>2026-03-22T10:41:52Z</time></trkpt><trkpt lat="41.519374869728274" lon="13.046222937027924"><ele>563.0</ele><time>2026-03-22T10:41:58Z</time></trkpt><trkpt lat="41.51928522982935" lon="13.046240285614187"><ele>563.0</ele><time>2026-03-22T10:42:02Z</time></trkpt><trkpt lat="41.51916649904663" lon="13.046255737665273"><ele>563.0</ele><time>2026-03-22T10:42:04Z</time></trkpt><trkpt lat="41.519044840749" lon="13.046265264145244"><ele>563.0</ele><time>2026-03-22T10:42:06Z</time></trkpt><trkpt lat="41.51895034996389" lon="13.046355508025762"><ele>563.0</ele><time>2026-03-22T10:42:08Z</time></trkpt><trkpt lat="41.518882243223324" lon="13.046453359454873"><ele>563.0</ele><time>2026-03-22T10:42:10Z</time></trkpt><trkpt lat="41.5187899652379" lon="13.046490760593272"><ele>563.0</ele><time>2026-03-22T10:42:12Z</time></trkpt><trkpt lat="41.51872293370561" lon="13.046584494203815"><ele>563.0</ele><time>2026-03-22T10:42:15Z</time></trkpt><trkpt lat="41.51866431935107" lon="13.046625462057195"><ele>563.0</ele><time>2026-03-22T10:42:17Z</time></trkpt><trkpt lat="41.51859858659861" lon="13.046659262255027"><ele>563.0</ele><time>2026-03-22T10:42:19Z</time></trkpt><trkpt lat="41.518531787861114" lon="13.046708193592579"><ele>563.0</ele><time>2026-03-22T10:42:22Z</time></trkpt><trkpt lat="41.51852897917968" lon="13.046802774620618"><ele>559.8333333333333</ele><time>2026-03-22T10:42:24Z</time></trkpt><trkpt lat="41.51851952897611" lon="13.046914699101846"><ele>556.6666666666666</ele><time>2026-03-22T10:42:27Z</time></trkpt><trkpt lat="41.518515151166696" lon="13.04701780599182"><ele>553.5</ele><time>2026-03-22T10:42:29Z</time></trkpt><trkpt lat="41.518460862128705" lon="13.047061028904148"><ele>550.3333333333334</ele><time>2026-03-22T10:42:31Z</time></trkpt><trkpt lat="41.51837985224656" lon="13.047071633902487"><ele>547.1666666666667</ele><time>2026-03-22T10:42:32Z</time></trkpt><trkpt lat="41.51830082492521" lon="13.047071154861401"><ele>544.0</ele><time>2026-03-22T10:42:33Z</time></trkpt><trkpt lat="41.5182272561612" lon="13.047102272316117"><ele>544.0</ele><time>2026-03-22T10:42:34Z</time></trkpt><trkpt lat="41.51815461971086" lon="13.047079658355509"><ele>544.0</ele><time>2026-03-22T10:42:37Z</time></trkpt><trkpt lat="41.51810054848959" lon="13.047009436830413"><ele>544.0</ele><time>2026-03-22T10:42:39Z</time></trkpt><trkpt lat="41.51801208306705" lon="13.046977957661726"><ele>544.0</ele><time>2026-03-22T10:42:41Z</time></trkpt><trkpt lat="41.51793254947351" lon="13.046921492841037"><ele>544.0</ele><time>2026-03-22T10:42:43Z</time></trkpt><trkpt lat="41.51787966852978" lon="13.046852830153876"><ele>544.0</ele><time>2026-03-22T10:42:46Z</time></trkpt><trkpt lat="41.51783844658284" lon="13.046779016666838"><ele>541.1666666666667</ele><time>2026-03-22T10:42:48.999Z</time></trkpt><trkpt lat="41.51778490353645" lon="13.046663734761621"><ele>538.3333333333334</ele><time>2026-03-22T10:42:51.999Z</time></trkpt><trkpt lat="41.517721033513524" lon="13.046634219510672"><ele>535.5</ele><time>2026-03-22T10:42:54.999Z</time></trkpt><trkpt lat="41.517647958581826" lon="13.046622967559989"><ele>532.6666666666666</ele><time>2026-03-22T10:42:56.999Z</time></trkpt><trkpt lat="41.517572071562796" lon="13.046657305895117"><ele>529.8333333333333</ele><time>2026-03-22T10:42:59.999Z</time></trkpt><trkpt lat="41.51751260398944" lon="13.046721774948303"><ele>527.0</ele><time>2026-03-22T10:43:01.999Z</time></trkpt><trkpt lat="41.517499859288115" lon="13.046810584252343"><ele>525.6</ele><time>2026-03-22T10:43:02.999Z</time></trkpt><trkpt lat="41.51747088621643" lon="13.046925417625044"><ele>524.2</ele><time>2026-03-22T10:43:03.999Z</time></trkpt><trkpt lat="41.51744720129866" lon="13.04704241483773"><ele>522.8</ele><time>2026-03-22T10:43:04.999Z</time></trkpt><trkpt lat="41.51743053168275" lon="13.047187830443383"><ele>521.4</ele><time>2026-03-22T10:43:05.999Z</time></trkpt><trkpt lat="41.51740648552896" lon="13.04735607409471"><ele>520.0</ele><time>2026-03-22T10:43:06.999Z</time></trkpt><trkpt lat="41.517385896853796" lon="13.04750325806072"><ele>518.8</ele><time>2026-03-22T10:43:07.999Z</time></trkpt><trkpt lat="41.51736867283236" lon="13.0476322238333"><ele>517.6</ele><time>2026-03-22T10:43:08.999Z</time></trkpt><trkpt lat="41.51734333743265" lon="13.047759348942778"><ele>516.4</ele><time>2026-03-22T10:43:09.999Z</time></trkpt><trkpt lat="41.517311014319674" lon="13.047884106130333"><ele>515.2</ele><time>2026-03-22T10:43:10.999Z</time></trkpt><trkpt lat="41.51729484871287" lon="13.048008265998638"><ele>514.0</ele><time>2026-03-22T10:43:11.999Z</time></trkpt><trkpt lat="41.517268134459236" lon="13.048133050462013"><ele>514.0</ele><time>2026-03-22T10:43:12.999Z</time></trkpt><trkpt lat="41.51724090930995" lon="13.048244111805754"><ele>514.0</ele><time>2026-03-22T10:43:13.999Z</time></trkpt><trkpt lat="41.51722350735962" lon="13.048352437368031"><ele>514.0</ele><time>2026-03-22T10:43:14.999Z</time></trkpt><trkpt lat="41.51720949880359" lon="13.04845397370988"><ele>514.0</ele><time>2026-03-22T10:43:15.999Z</time></trkpt><trkpt lat="41.5171892099785" lon="13.048562015611003"><ele>514.0</ele><time>2026-03-22T10:43:16.999Z</time></trkpt><trkpt lat="41.51717084588603" lon="13.048664628698846"><ele>514.0</ele><time>2026-03-22T10:43:17.999Z</time></trkpt><trkpt lat="41.51714801921533" lon="13.048763638510563"><ele>513.1666666666667</ele><time>2026-03-22T10:43:18.999Z</time></trkpt><trkpt lat="41.517122872984906" lon="13.048861667615224"><ele>512.3333333333334</ele><time>2026-03-22T10:43:19.999Z</time></trkpt><trkpt lat="41.51710261137949" lon="13.048946568614811"><ele>511.5</ele><time>2026-03-22T10:43:20.999Z</time></trkpt><trkpt lat="41.51708086235915" lon="13.049103286836603"><ele>510.66666666666663</ele><time>2026-03-22T10:43:22.999Z</time></trkpt><trkpt lat="41.51708108353418" lon="13.049239390897226"><ele>509.8333333333333</ele><time>2026-03-22T10:43:24.999Z</time></trkpt><trkpt lat="41.51711202881398" lon="13.04932097042428"><ele>509.0</ele><time>2026-03-22T10:43:26.999Z</time></trkpt><trkpt lat="41.517117405245564" lon="13.049416411079253"><ele>504.49999999999994</ele><time>2026-03-22T10:43:29.999Z</time></trkpt><trkpt lat="41.5170558344618" lon="13.049389871322132"><ele>500.0</ele><time>2026-03-22T10:43:33.999Z</time></trkpt><trkpt lat="41.517031210152545" lon="13.04930025595948"><ele>495.5</ele><time>2026-03-22T10:43:43.999Z</time></trkpt><trkpt lat="41.51698371307796" lon="13.049209538527375"><ele>491.0</ele><time>2026-03-22T10:43:47Z</time></trkpt><trkpt lat="41.516934365029684" lon="13.049050301420086"><ele>486.49999999999994</ele><time>2026-03-22T10:43:49Z</time></trkpt><trkpt lat="41.516920960958444" lon="13.048948274329096"><ele>482.0</ele><time>2026-03-22T10:43:50Z</time></trkpt><trkpt lat="41.51691206572784" lon="13.048833160289648"><ele>482.0</ele><time>2026-03-22T10:43:51Z</time></trkpt><trkpt lat="41.51691388252695" lon="13.048721191354185"><ele>482.00000000000006</ele><time>2026-03-22T10:43:52Z</time></trkpt><trkpt lat="41.516910867344464" lon="13.048610137920333"><ele>482.00000000000006</ele><time>2026-03-22T10:43:53Z</time></trkpt><trkpt lat="41.516903093570406" lon="13.048519551314834"><ele>482.0</ele><time>2026-03-22T10:43:54Z</time></trkpt><trkpt lat="41.51689094394813" lon="13.048321955375707"><ele>482.0</ele><time>2026-03-22T10:43:56Z</time></trkpt><trkpt lat="41.51688018715791" lon="13.048192135926907"><ele>481.8571428571429</ele><time>2026-03-22T10:43:57Z</time></trkpt><trkpt lat="41.51687482980126" lon="13.048076251207814"><ele>481.7142857142858</ele><time>2026-03-22T10:43:58Z</time></trkpt><trkpt lat="41.51685945663064" lon="13.047988571885012"><ele>481.57142857142856</ele><time>2026-03-22T10:43:59Z</time></trkpt><trkpt lat="41.516843979733544" lon="13.047890459730432"><ele>481.42857142857144</ele><time>2026-03-22T10:44:00Z</time></trkpt><trkpt lat="41.5168444559673" lon="13.047798843399018"><ele>481.2857142857143</ele><time>2026-03-22T10:44:01Z</time></trkpt><trkpt lat="41.516840944339236" lon="13.047713843281766"><ele>481.1428571428571</ele><time>2026-03-22T10:44:02Z</time></trkpt><trkpt lat="41.516832408158386" lon="13.047619749364554"><ele>480.99999999999994</ele><time>2026-03-22T10:44:03Z</time></trkpt><trkpt lat="41.516804731485955" lon="13.04751132876799"><ele>481.6</ele><time>2026-03-22T10:44:04Z</time></trkpt><trkpt lat="41.5168017272821" lon="13.04737111398914"><ele>482.20000000000005</ele><time>2026-03-22T10:44:05Z</time></trkpt><trkpt lat="41.51680859691554" lon="13.047218641424374"><ele>482.79999999999995</ele><time>2026-03-22T10:44:06Z</time></trkpt><trkpt lat="41.516804864763586" lon="13.047079634186513"><ele>483.4</ele><time>2026-03-22T10:44:07Z</time></trkpt><trkpt lat="41.51679193476701" lon="13.046970236543773"><ele>484.0</ele><time>2026-03-22T10:44:08Z</time></trkpt><trkpt lat="41.51678397898591" lon="13.046877768312616"><ele>484.00000000000006</ele><time>2026-03-22T10:44:09Z</time></trkpt><trkpt lat="41.51676978773913" lon="13.046761867702447"><ele>484.0</ele><time>2026-03-22T10:44:10Z</time></trkpt><trkpt lat="41.51674904667293" lon="13.046640322398337"><ele>484.0</ele><time>2026-03-22T10:44:11Z</time></trkpt><trkpt lat="41.51673181520404" lon="13.046535754322528"><ele>484.0</ele><time>2026-03-22T10:44:12Z</time></trkpt><trkpt lat="41.516718346792516" lon="13.04643073166935"><ele>484.00000000000006</ele><time>2026-03-22T10:44:13Z</time></trkpt><trkpt lat="41.51670812948429" lon="13.046338116461163"><ele>484.0</ele><time>2026-03-22T10:44:14Z</time></trkpt><trkpt lat="41.51670224777682" lon="13.046252658020267"><ele>484.0</ele><time>2026-03-22T10:44:15Z</time></trkpt><trkpt lat="41.51670095871376" lon="13.046091504276458"><ele>484.0</ele><time>2026-03-22T10:44:17Z</time></trkpt><trkpt lat="41.51670380233805" lon="13.045960478515205"><ele>484.0</ele><time>2026-03-22T10:44:19Z</time></trkpt><trkpt lat="41.516686584975986" lon="13.045872935466353"><ele>484.0</ele><time>2026-03-22T10:44:22Z</time></trkpt><trkpt lat="41.51661316906491" lon="13.045904384060798"><ele>484.0</ele><time>2026-03-22T10:44:25Z</time></trkpt><trkpt lat="41.51660145987931" lon="13.046053189703121"><ele>484.0</ele><time>2026-03-22T10:44:27Z</time></trkpt><trkpt lat="41.51660298488287" lon="13.046174666279523"><ele>484.0</ele><time>2026-03-22T10:44:28Z</time></trkpt><trkpt lat="41.516581877206306" lon="13.046295083962269"><ele>484.0</ele><time>2026-03-22T10:44:29Z</time></trkpt><trkpt lat="41.51656001289641" lon="13.046411563542662"><ele>484.0</ele><time>2026-03-22T10:44:30Z</time></trkpt><trkpt lat="41.51654117211243" lon="13.046530703713396"><ele>484.0</ele><time>2026-03-22T10:44:31Z</time></trkpt><trkpt lat="41.516519805319135" lon="13.046672914315181"><ele>484.0</ele><time>2026-03-22T10:44:32Z</time></trkpt><trkpt lat="41.51650484648732" lon="13.04681864461229"><ele>484.0</ele><time>2026-03-22T10:44:33Z</time></trkpt><trkpt lat="41.51648795624323" lon="13.046967329009238"><ele>484.0</ele><time>2026-03-22T10:44:34Z</time></trkpt><trkpt lat="41.51645718640634" lon="13.047124218576919"><ele>484.0</ele><time>2026-03-22T10:44:35Z</time></trkpt><trkpt lat="41.516426255773986" lon="13.047267848140145"><ele>484.0</ele><time>2026-03-22T10:44:36Z</time></trkpt><trkpt lat="41.51640941682215" lon="13.047392828827483"><ele>484.0</ele><time>2026-03-22T10:44:37Z</time></trkpt><trkpt lat="41.516388366608574" lon="13.047520035483538"><ele>484.0</ele><time>2026-03-22T10:44:38Z</time></trkpt><trkpt lat="41.516351685233005" lon="13.047647188310014"><ele>484.0</ele><time>2026-03-22T10:44:39Z</time></trkpt><trkpt lat="41.51631460340626" lon="13.047769983699016"><ele>484.0</ele><time>2026-03-22T10:44:40Z</time></trkpt><trkpt lat="41.516267278177445" lon="13.047896122060008"><ele>476.2</ele><time>2026-03-22T10:44:41Z</time></trkpt><trkpt lat="41.51622634027153" lon="13.04804068522164"><ele>468.4</ele><time>2026-03-22T10:44:42Z</time></trkpt><trkpt lat="41.51618401987626" lon="13.048187316695344"><ele>460.6</ele><time>2026-03-22T10:44:43Z</time></trkpt><trkpt lat="41.51614826992321" lon="13.04832124213648"><ele>452.8</ele><time>2026-03-22T10:44:44Z</time></trkpt><trkpt lat="41.51611618711103" lon="13.048450725652003"><ele>445.0</ele><time>2026-03-22T10:44:45Z</time></trkpt><trkpt lat="41.516074251044586" lon="13.048586988338952"><ele>445.0</ele><time>2026-03-22T10:44:46Z</time></trkpt><trkpt lat="41.51603168599858" lon="13.048736636329949"><ele>445.0</ele><time>2026-03-22T10:44:47Z</time></trkpt><trkpt lat="41.51599747842803" lon="13.04887297119267"><ele>445.0</ele><time>2026-03-22T10:44:48Z</time></trkpt><trkpt lat="41.51596609962726" lon="13.048981312699693"><ele>445.0</ele><time>2026-03-22T10:44:49Z</time></trkpt><trkpt lat="41.51595230449467" lon="13.049082637575697"><ele>445.0</ele><time>2026-03-22T10:44:50Z</time></trkpt><trkpt lat="41.51594452582509" lon="13.049190866481819"><ele>445.33333333333337</ele><time>2026-03-22T10:44:50.999Z</time></trkpt><trkpt lat="41.515940702752104" lon="13.04932414824365"><ele>445.6666666666667</ele><time>2026-03-22T10:44:51.999Z</time></trkpt><trkpt lat="41.515946805296224" lon="13.049450356486844"><ele>446.0</ele><time>2026-03-22T10:44:52.999Z</time></trkpt><trkpt lat="41.51594659173295" lon="13.049566837224466"><ele>446.33333333333337</ele><time>2026-03-22T10:44:53.999Z</time></trkpt><trkpt lat="41.515957404332624" lon="13.04967774072471"><ele>446.6666666666667</ele><time>2026-03-22T10:44:54.999Z</time></trkpt><trkpt lat="41.51597689031969" lon="13.04978379603851"><ele>447.0</ele><time>2026-03-22T10:44:55.999Z</time></trkpt><trkpt lat="41.51599610502607" lon="13.049884843543055"><ele>445.0</ele><time>2026-03-22T10:44:56.999Z</time></trkpt><trkpt lat="41.51601328232857" lon="13.049976511101415"><ele>443.00000000000006</ele><time>2026-03-22T10:44:57.999Z</time></trkpt><trkpt lat="41.516017974336044" lon="13.050117076444941"><ele>441.00000000000006</ele><time>2026-03-22T10:44:59.999Z</time></trkpt><trkpt lat="41.516035471822576" lon="13.050265017956505"><ele>439.0</ele><time>2026-03-22T10:45:01.999Z</time></trkpt><trkpt lat="41.51607943600857" lon="13.050407226768916"><ele>437.0</ele><time>2026-03-22T10:45:03.999Z</time></trkpt><trkpt lat="41.516107563355675" lon="13.050501666924465"><ele>436.99999999999994</ele><time>2026-03-22T10:45:04.999Z</time></trkpt><trkpt lat="41.51619166326435" lon="13.050638654807353"><ele>437.0</ele><time>2026-03-22T10:45:06.999Z</time></trkpt><trkpt lat="41.51627245971728" lon="13.050704870773618"><ele>437.0</ele><time>2026-03-22T10:45:08.999Z</time></trkpt><trkpt lat="41.51630174654809" lon="13.050779332908817"><ele>437.0</ele><time>2026-03-22T10:45:29.999Z</time></trkpt><trkpt lat="41.516361678161104" lon="13.050834301723757"><ele>436.99999999999994</ele><time>2026-03-22T10:45:36.999Z</time></trkpt><trkpt lat="41.51640130365065" lon="13.050903723400117"><ele>437.0</ele><time>2026-03-22T10:46:09Z</time></trkpt><trkpt lat="41.51645669291415" lon="13.05094388082191"><ele>437.7142857142857</ele><time>2026-03-22T10:46:15Z</time></trkpt><trkpt lat="41.516533959700695" lon="13.050968995693232"><ele>438.42857142857144</ele><time>2026-03-22T10:46:21Z</time></trkpt><trkpt lat="41.51660039194845" lon="13.050976544543516"><ele>439.14285714285717</ele><time>2026-03-22T10:46:24Z</time></trkpt><trkpt lat="41.51666652264641" lon="13.050982525992437"><ele>439.8571428571429</ele><time>2026-03-22T10:46:26Z</time></trkpt><trkpt lat="41.516735639382404" lon="13.050991943335523"><ele>440.57142857142856</ele><time>2026-03-22T10:46:28Z</time></trkpt><trkpt lat="41.51682385346472" lon="13.051012026710579"><ele>441.28571428571433</ele><time>2026-03-22T10:46:31Z</time></trkpt><trkpt lat="41.51689341939567" lon="13.051049320520214"><ele>442.0</ele><time>2026-03-22T10:46:34Z</time></trkpt><trkpt lat="41.51697468391293" lon="13.051074059268903"><ele>442.00000000000006</ele><time>2026-03-22T10:46:38Z</time></trkpt><trkpt lat="41.51704445679126" lon="13.051097197629495"><ele>442.0</ele><time>2026-03-22T10:46:41Z</time></trkpt><trkpt lat="41.51711782909604" lon="13.051153739365466"><ele>442.0</ele><time>2026-03-22T10:46:45Z</time></trkpt><trkpt lat="41.517185511747435" lon="13.05117533932606"><ele>442.0</ele><time>2026-03-22T10:46:49Z</time></trkpt><trkpt lat="41.51726327214865" lon="13.05117647209231"><ele>442.0</ele><time>2026-03-22T10:46:53Z</time></trkpt><trkpt lat="41.51733541796065" lon="13.051173145143208"><ele>442.00000000000006</ele><time>2026-03-22T10:46:56Z</time></trkpt><trkpt lat="41.51740131554253" lon="13.05117500220743"><ele>442.0</ele><time>2026-03-22T10:46:58.999Z</time></trkpt><trkpt lat="41.517467355976656" lon="13.051142125431369"><ele>442.50000000000006</ele><time>2026-03-22T10:47:02.999Z</time></trkpt><trkpt lat="41.51758221939469" lon="13.051144971774395"><ele>443.0</ele><time>2026-03-22T10:47:14.999Z</time></trkpt><trkpt lat="41.517643275330435" lon="13.051119927804104"><ele>443.5</ele><time>2026-03-22T10:47:18.999Z</time></trkpt><trkpt lat="41.51770837984487" lon="13.05108695274749"><ele>444.0</ele><time>2026-03-22T10:47:22.999Z</time></trkpt><trkpt lat="41.51778734021282" lon="13.051062922051594"><ele>444.50000000000006</ele><time>2026-03-22T10:47:25.999Z</time></trkpt><trkpt lat="41.51786202634982" lon="13.051053679356356"><ele>445.0</ele><time>2026-03-22T10:47:38.999Z</time></trkpt><trkpt lat="41.51790631514907" lon="13.050990804397664"><ele>445.0</ele><time>2026-03-22T10:47:42.999Z</time></trkpt><trkpt lat="41.51797042460015" lon="13.050927651379025"><ele>445.0</ele><time>2026-03-22T10:47:45.999Z</time></trkpt><trkpt lat="41.51804298704579" lon="13.05090170023489"><ele>445.0</ele><time>2026-03-22T10:47:48.999Z</time></trkpt><trkpt lat="41.51810729901707" lon="13.050870385608858"><ele>445.0</ele><time>2026-03-22T10:48:29Z</time></trkpt><trkpt lat="41.51815029956188" lon="13.050805181273029"><ele>445.0</ele><time>2026-03-22T10:54:30Z</time></trkpt><trkpt lat="41.51821956469965" lon="13.05075546634261"><ele>445.0</ele><time>2026-03-22T10:54:34Z</time></trkpt><trkpt lat="41.51828496287825" lon="13.050758046713616"><ele>445.0</ele><time>2026-03-22T10:54:38Z</time></trkpt><trkpt lat="41.51836436465919" lon="13.05075584531782"><ele>449.6666666666667</ele><time>2026-03-22T10:54:45Z</time></trkpt><trkpt lat="41.51844018306975" lon="13.050738494017391"><ele>454.33333333333337</ele><time>2026-03-22T10:54:49Z</time></trkpt><trkpt lat="41.51850348975545" lon="13.05075818328702"><ele>459.0</ele><time>2026-03-22T10:54:53Z</time></trkpt><trkpt lat="41.5185788318702" lon="13.050768613989241"><ele>463.66666666666663</ele><time>2026-03-22T10:56:47Z</time></trkpt><trkpt lat="41.518672330888435" lon="13.050737233762893"><ele>468.3333333333333</ele><time>2026-03-22T10:56:50Z</time></trkpt><trkpt lat="41.518737822038894" lon="13.050700837136059"><ele>473.0</ele><time>2026-03-22T10:56:55Z</time></trkpt><trkpt lat="41.51880374997498" lon="13.050709280599076"><ele>473.0</ele><time>2026-03-22T10:57:04Z</time></trkpt><trkpt lat="41.518880510429724" lon="13.050736812142047"><ele>472.99999999999994</ele><time>2026-03-22T10:57:09Z</time></trkpt><trkpt lat="41.51893938294468" lon="13.050769308847277"><ele>472.99999999999994</ele><time>2026-03-22T10:57:12Z</time></trkpt><trkpt lat="41.51901694506665" lon="13.050833452502172"><ele>473.0</ele><time>2026-03-22T10:57:16Z</time></trkpt><trkpt lat="41.51912781037022" lon="13.050902578741237"><ele>473.0</ele><time>2026-03-22T10:57:18.999Z</time></trkpt><trkpt lat="41.51920727645813" lon="13.05097060700196"><ele>470.16666666666663</ele><time>2026-03-22T10:57:20.999Z</time></trkpt><trkpt lat="41.51927006056184" lon="13.051005774328665"><ele>467.3333333333333</ele><time>2026-03-22T10:57:23.999Z</time></trkpt><trkpt lat="41.51933177389445" lon="13.051026384909049"><ele>464.5</ele><time>2026-03-22T10:57:25.999Z</time></trkpt><trkpt lat="41.51939920817416" lon="13.05105611791913"><ele>461.66666666666663</ele><time>2026-03-22T10:57:28.999Z</time></trkpt><trkpt lat="41.51947749034685" lon="13.051078990130799"><ele>458.8333333333333</ele><time>2026-03-22T10:57:32.999Z</time></trkpt><trkpt lat="41.51958693295839" lon="13.051104398960394"><ele>456.0</ele><time>2026-03-22T10:57:34.999Z</time></trkpt><trkpt lat="41.51964980731909" lon="13.051110004971582"><ele>456.0</ele><time>2026-03-22T10:57:35.999Z</time></trkpt><trkpt lat="41.51973116567216" lon="13.051111756893714"><ele>456.0</ele><time>2026-03-22T10:57:36.999Z</time></trkpt><trkpt lat="41.519802673292574" lon="13.051116648803715"><ele>456.0</ele><time>2026-03-22T10:57:37.999Z</time></trkpt><trkpt lat="41.5198769870919" lon="13.05115521493578"><ele>456.0</ele><time>2026-03-22T10:57:42.999Z</time></trkpt><trkpt lat="41.51995660582571" lon="13.05114922626763"><ele>456.0</ele><time>2026-03-22T11:03:26Z</time></trkpt><trkpt lat="41.520042495135584" lon="13.051136370098583"><ele>456.0</ele><time>2026-03-22T11:03:29Z</time></trkpt><trkpt lat="41.52008452384115" lon="13.051231821370338"><ele>456.0</ele><time>2026-03-22T11:03:32Z</time></trkpt><trkpt lat="41.52007556549959" lon="13.051328540598426"><ele>455.99999999999994</ele><time>2026-03-22T11:03:35Z</time></trkpt><trkpt lat="41.520061571040486" lon="13.05141600285692"><ele>456.0</ele><time>2026-03-22T11:03:37.999Z</time></trkpt><trkpt lat="41.52005511921474" lon="13.05151367899886"><ele>456.0</ele><time>2026-03-22T11:03:42.999Z</time></trkpt><trkpt lat="41.52001789172537" lon="13.051587379701397"><ele>455.99999999999994</ele><time>2026-03-22T11:03:48.999Z</time></trkpt><trkpt lat="41.51993303684073" lon="13.051586067336457"><ele>456.0</ele><time>2026-03-22T11:03:52.999Z</time></trkpt><trkpt lat="41.51987946541384" lon="13.05165398163999"><ele>456.0</ele><time>2026-03-22T11:03:54.999Z</time></trkpt><trkpt lat="41.51989016100221" lon="13.051753168721191"><ele>454.0</ele><time>2026-03-22T11:03:56.999Z</time></trkpt><trkpt lat="41.519887540026716" lon="13.051882991533434"><ele>452.0</ele><time>2026-03-22T11:03:58.999Z</time></trkpt><trkpt lat="41.519894034312415" lon="13.051980766950976"><ele>450.0</ele><time>2026-03-22T11:04:00.999Z</time></trkpt><trkpt lat="41.51986810726518" lon="13.052118030218455"><ele>448.0</ele><time>2026-03-22T11:04:02.999Z</time></trkpt><trkpt lat="41.51982987112614" lon="13.052216876984032"><ele>446.0</ele><time>2026-03-22T11:04:04.999Z</time></trkpt><trkpt lat="41.51980396085724" lon="13.052299506341484"><ele>444.0</ele><time>2026-03-22T11:04:06.999Z</time></trkpt><trkpt lat="41.51978184581671" lon="13.052411594159679"><ele>442.1428571428571</ele><time>2026-03-22T11:04:08.999Z</time></trkpt><trkpt lat="41.51976154261427" lon="13.052498903863098"><ele>440.28571428571433</ele><time>2026-03-22T11:04:11.999Z</time></trkpt><trkpt lat="41.51973909041534" lon="13.052582325232866"><ele>438.42857142857144</ele><time>2026-03-22T11:04:13.999Z</time></trkpt><trkpt lat="41.51974210896704" lon="13.052688598660824"><ele>436.57142857142856</ele><time>2026-03-22T11:04:16.999Z</time></trkpt><trkpt lat="41.51977443138339" lon="13.05277710281354"><ele>434.71428571428567</ele><time>2026-03-22T11:04:18.999Z</time></trkpt><trkpt lat="41.51979703535362" lon="13.052889862951183"><ele>432.8571428571429</ele><time>2026-03-22T11:04:20.999Z</time></trkpt><trkpt lat="41.5197931129901" lon="13.052974965548753"><ele>431.0</ele><time>2026-03-22T11:04:22.999Z</time></trkpt><trkpt lat="41.51979680349113" lon="13.053072088076387"><ele>431.0</ele><time>2026-03-22T11:04:24.999Z</time></trkpt><trkpt lat="41.5197620674215" lon="13.053155338081526"><ele>431.0</ele><time>2026-03-22T11:04:27.999Z</time></trkpt><trkpt lat="41.519676994384625" lon="13.053162393368261"><ele>431.0</ele><time>2026-03-22T11:04:30.999Z</time></trkpt><trkpt lat="41.51960290350931" lon="13.053201048081716"><ele>431.0</ele><time>2026-03-22T11:04:34.999Z</time></trkpt><trkpt lat="41.51953650554444" lon="13.053195787354364"><ele>431.0</ele><time>2026-03-22T11:04:38.998Z</time></trkpt><trkpt lat="41.51948097919416" lon="13.05323917008272"><ele>431.0</ele><time>2026-03-22T11:04:42.998Z</time></trkpt><trkpt lat="41.51943506016055" lon="13.053297762037804"><ele>431.0</ele><time>2026-03-22T11:04:45Z</time></trkpt><trkpt lat="41.51943384737431" lon="13.053439380229083"><ele>428.16666666666663</ele><time>2026-03-22T11:04:50Z</time></trkpt><trkpt lat="41.51936032455753" lon="13.053435546694834"><ele>425.3333333333333</ele><time>2026-03-22T11:04:53Z</time></trkpt><trkpt lat="41.519299384231225" lon="13.053385656027856"><ele>422.5</ele><time>2026-03-22T11:05:06Z</time></trkpt><trkpt lat="41.519198621680616" lon="13.053298977833636"><ele>419.66666666666663</ele><time>2026-03-22T11:05:08Z</time></trkpt><trkpt lat="41.519125697086935" lon="13.05322853761909"><ele>416.8333333333333</ele><time>2026-03-22T11:05:09Z</time></trkpt><trkpt lat="41.51907411953317" lon="13.053159526713763"><ele>414.0</ele><time>2026-03-22T11:05:10Z</time></trkpt><trkpt lat="41.51902710865873" lon="13.053077783573043"><ele>414.0</ele><time>2026-03-22T11:05:11Z</time></trkpt><trkpt lat="41.51896576794393" lon="13.052984370353215"><ele>414.0</ele><time>2026-03-22T11:05:12Z</time></trkpt><trkpt lat="41.518921142926644" lon="13.052921242467164"><ele>414.0</ele><time>2026-03-22T11:05:13Z</time></trkpt><trkpt lat="41.518868414256005" lon="13.052810946390276"><ele>414.0</ele><time>2026-03-22T11:05:15Z</time></trkpt><trkpt lat="41.518805759567364" lon="13.052709696764722"><ele>414.0</ele><time>2026-03-22T11:05:17Z</time></trkpt><trkpt lat="41.51872365110887" lon="13.052618974431276"><ele>415.0</ele><time>2026-03-22T11:05:19Z</time></trkpt><trkpt lat="41.518637985524556" lon="13.052529143091544"><ele>416.0</ele><time>2026-03-22T11:05:21Z</time></trkpt><trkpt lat="41.51855987701581" lon="13.052456087059971"><ele>417.0</ele><time>2026-03-22T11:05:23Z</time></trkpt><trkpt lat="41.51847014638197" lon="13.052406358872451"><ele>418.0</ele><time>2026-03-22T11:05:25Z</time></trkpt><trkpt lat="41.518361316595595" lon="13.0523542822184"><ele>419.0</ele><time>2026-03-22T11:05:27Z</time></trkpt><trkpt lat="41.51829847471099" lon="13.052322328959928"><ele>419.0</ele><time>2026-03-22T11:05:28Z</time></trkpt><trkpt lat="41.51820913981897" lon="13.052275572660744"><ele>419.0</ele><time>2026-03-22T11:05:30Z</time></trkpt><trkpt lat="41.5181292601063" lon="13.052323678446646"><ele>419.0</ele><time>2026-03-22T11:05:32Z</time></trkpt><trkpt lat="41.51802289480804" lon="13.0524591223958"><ele>419.0</ele><time>2026-03-22T11:05:34Z</time></trkpt><trkpt lat="41.51795002165627" lon="13.052536311246476"><ele>419.0</ele><time>2026-03-22T11:05:35Z</time></trkpt><trkpt lat="41.51788056430938" lon="13.052599716258767"><ele>413.99999999999994</ele><time>2026-03-22T11:05:36Z</time></trkpt><trkpt lat="41.51781798708148" lon="13.05266148212808"><ele>409.0</ele><time>2026-03-22T11:05:37Z</time></trkpt><trkpt lat="41.517761846052665" lon="13.052722477137614"><ele>404.0</ele><time>2026-03-22T11:05:38Z</time></trkpt><trkpt lat="41.51771402591873" lon="13.05278351222799"><ele>399.0</ele><time>2026-03-22T11:05:38.999Z</time></trkpt><trkpt lat="41.5176610671691" lon="13.05284990428462"><ele>393.99999999999994</ele><time>2026-03-22T11:05:39.999Z</time></trkpt><trkpt lat="41.51759944109836" lon="13.052919334602343"><ele>389.0</ele><time>2026-03-22T11:05:40.999Z</time></trkpt><trkpt lat="41.51752693190905" lon="13.052979413255246"><ele>388.99999999999994</ele><time>2026-03-22T11:05:41.999Z</time></trkpt><trkpt lat="41.517452009258186" lon="13.053024927257225"><ele>389.0</ele><time>2026-03-22T11:05:42.999Z</time></trkpt><trkpt lat="41.51737647436832" lon="13.053064847450662"><ele>389.0</ele><time>2026-03-22T11:05:43.999Z</time></trkpt><trkpt lat="41.517302839098726" lon="13.053095662875393"><ele>389.0</ele><time>2026-03-22T11:05:44.999Z</time></trkpt><trkpt lat="41.5172312045863" lon="13.053124092702106"><ele>388.99999999999994</ele><time>2026-03-22T11:05:45.999Z</time></trkpt><trkpt lat="41.517149823942496" lon="13.053147071271033"><ele>389.0</ele><time>2026-03-22T11:05:46.999Z</time></trkpt><trkpt lat="41.51706821261463" lon="13.053157801174251"><ele>387.8333333333333</ele><time>2026-03-22T11:05:47.999Z</time></trkpt><trkpt lat="41.51697895156479" lon="13.05316916882338"><ele>386.66666666666663</ele><time>2026-03-22T11:05:48.999Z</time></trkpt><trkpt lat="41.51689238451903" lon="13.053172616884392"><ele>385.5</ele><time>2026-03-22T11:05:49.999Z</time></trkpt><trkpt lat="41.51680927098101" lon="13.053176474557608"><ele>384.3333333333333</ele><time>2026-03-22T11:05:50.999Z</time></trkpt><trkpt lat="41.51672344557277" lon="13.053182220662038"><ele>383.16666666666663</ele><time>2026-03-22T11:05:51.999Z</time></trkpt><trkpt lat="41.51664629231269" lon="13.053189868410344"><ele>382.0</ele><time>2026-03-22T11:05:52.999Z</time></trkpt><trkpt lat="41.51654042839401" lon="13.053186719942445"><ele>382.0</ele><time>2026-03-22T11:05:54.999Z</time></trkpt><trkpt lat="41.51648382105732" lon="13.053227333282502"><ele>382.0</ele><time>2026-03-22T11:05:57.999Z</time></trkpt><trkpt lat="41.51657222783178" lon="13.053320607274827"><ele>382.0</ele><time>2026-03-22T11:06:01.999Z</time></trkpt><trkpt lat="41.51664664119935" lon="13.05337701225172"><ele>382.0</ele><time>2026-03-22T11:06:02.999Z</time></trkpt><trkpt lat="41.51670291985613" lon="13.053419724040937"><ele>382.0</ele><time>2026-03-22T11:06:03.999Z</time></trkpt><trkpt lat="41.51677693254637" lon="13.05347704176357"><ele>382.0</ele><time>2026-03-22T11:06:04.999Z</time></trkpt><trkpt lat="41.51684955678784" lon="13.05354474938734"><ele>378.3333333333333</ele><time>2026-03-22T11:06:05.999Z</time></trkpt><trkpt lat="41.516921382395594" lon="13.053602411521565"><ele>374.66666666666663</ele><time>2026-03-22T11:06:06.999Z</time></trkpt><trkpt lat="41.51697793575508" lon="13.053648565472217"><ele>371.0</ele><time>2026-03-22T11:06:07.999Z</time></trkpt><trkpt lat="41.51706435306535" lon="13.053697898715692"><ele>367.3333333333333</ele><time>2026-03-22T11:06:09.999Z</time></trkpt><trkpt lat="41.51712829357989" lon="13.053715842134702"><ele>363.6666666666667</ele><time>2026-03-22T11:06:11.999Z</time></trkpt><trkpt lat="41.51706414734699" lon="13.05372057005332"><ele>360.0</ele><time>2026-03-22T11:06:13.999Z</time></trkpt><trkpt lat="41.51717337286536" lon="13.053740767602438"><ele>360.0</ele><time>2026-03-22T11:06:45.998Z</time></trkpt><trkpt lat="41.51727668886437" lon="13.053786465422425"><ele>360.0</ele><time>2026-03-22T11:06:47.998Z</time></trkpt><trkpt lat="41.51734021065632" lon="13.053804947188047"><ele>360.0</ele><time>2026-03-22T11:06:48.998Z</time></trkpt><trkpt lat="41.517403316569094" lon="13.053836432361473"><ele>360.0</ele><time>2026-03-22T11:06:49.998Z</time></trkpt><trkpt lat="41.517532638868154" lon="13.053877699660895"><ele>360.0</ele><time>2026-03-22T11:06:52Z</time></trkpt><trkpt lat="41.51761307237604" lon="13.053880790662605"><ele>360.0</ele><time>2026-03-22T11:06:53Z</time></trkpt><trkpt lat="41.51770235750146" lon="13.053878687847453"><ele>360.0</ele><time>2026-03-22T11:06:54Z</time></trkpt><trkpt lat="41.51778256080933" lon="13.0538638254961"><ele>360.0</ele><time>2026-03-22T11:06:55Z</time></trkpt><trkpt lat="41.51788694797035" lon="13.053852688836411"><ele>360.0</ele><time>2026-03-22T11:06:57Z</time></trkpt><trkpt lat="41.517900869691545" lon="13.05395842081922"><ele>360.0</ele><time>2026-03-22T11:06:59Z</time></trkpt><trkpt lat="41.517862174696546" lon="13.054118068256592"><ele>358.4</ele><time>2026-03-22T11:07:01Z</time></trkpt><trkpt lat="41.517875638974914" lon="13.054262787215796"><ele>356.8</ele><time>2026-03-22T11:07:02Z</time></trkpt><trkpt lat="41.517894040406105" lon="13.054397812658458"><ele>355.20000000000005</ele><time>2026-03-22T11:07:03Z</time></trkpt><trkpt lat="41.51791687272286" lon="13.054527476714785"><ele>353.6</ele><time>2026-03-22T11:07:04Z</time></trkpt><trkpt lat="41.51795619556538" lon="13.054684028322058"><ele>352.0</ele><time>2026-03-22T11:07:05Z</time></trkpt><trkpt lat="41.51800231931758" lon="13.054832845536524"><ele>348.8333333333333</ele><time>2026-03-22T11:07:06Z</time></trkpt><trkpt lat="41.51804661889434" lon="13.054967423890812"><ele>345.66666666666663</ele><time>2026-03-22T11:07:07Z</time></trkpt><trkpt lat="41.51808426124638" lon="13.055085995491934"><ele>342.5</ele><time>2026-03-22T11:07:08Z</time></trkpt><trkpt lat="41.51811455493825" lon="13.055196205011274"><ele>339.3333333333333</ele><time>2026-03-22T11:07:09Z</time></trkpt><trkpt lat="41.51812740257176" lon="13.055285468569203"><ele>336.1666666666667</ele><time>2026-03-22T11:07:10Z</time></trkpt><trkpt lat="41.518100762736104" lon="13.055375629426656"><ele>333.0</ele><time>2026-03-22T11:07:11Z</time></trkpt><trkpt lat="41.51807733854357" lon="13.055490293898405"><ele>333.0</ele><time>2026-03-22T11:07:12Z</time></trkpt><trkpt lat="41.51806031440095" lon="13.05561180671585"><ele>333.0</ele><time>2026-03-22T11:07:13Z</time></trkpt><trkpt lat="41.51806121225023" lon="13.05572268298038"><ele>333.0</ele><time>2026-03-22T11:07:14Z</time></trkpt><trkpt lat="41.518073684883724" lon="13.055833768777369"><ele>333.0</ele><time>2026-03-22T11:07:15Z</time></trkpt><trkpt lat="41.51810133516056" lon="13.055938350451655"><ele>333.0</ele><time>2026-03-22T11:07:16Z</time></trkpt><trkpt lat="41.51811250773442" lon="13.056044671408113"><ele>333.0</ele><time>2026-03-22T11:07:18Z</time></trkpt><trkpt lat="41.518053222947074" lon="13.055889119671345"><ele>333.0</ele><time>2026-03-22T11:07:24Z</time></trkpt><trkpt lat="41.518002149159024" lon="13.055768536238642"><ele>333.0</ele><time>2026-03-22T11:07:25Z</time></trkpt><trkpt lat="41.51795429347851" lon="13.055645000216568"><ele>333.0</ele><time>2026-03-22T11:07:26Z</time></trkpt><trkpt lat="41.517898158836076" lon="13.055503143052714"><ele>333.0</ele><time>2026-03-22T11:07:27Z</time></trkpt><trkpt lat="41.517841246722206" lon="13.055385073178822"><ele>333.0</ele><time>2026-03-22T11:07:28Z</time></trkpt><trkpt lat="41.5177762928423" lon="13.05534236934789"><ele>328.2</ele><time>2026-03-22T11:07:29Z</time></trkpt><trkpt lat="41.517718377617385" lon="13.055301099279706"><ele>323.4</ele><time>2026-03-22T11:07:30Z</time></trkpt><trkpt lat="41.51765064642008" lon="13.055311155470552"><ele>318.59999999999997</ele><time>2026-03-22T11:07:31Z</time></trkpt><trkpt lat="41.51751282597411" lon="13.055301338656294"><ele>313.79999999999995</ele><time>2026-03-22T11:07:32Z</time></trkpt><trkpt lat="41.51740838846194" lon="13.055316611188678"><ele>309.0</ele><time>2026-03-22T11:07:34Z</time></trkpt><trkpt lat="41.5173272491825" lon="13.05533149387896"><ele>309.0</ele><time>2026-03-22T11:07:36Z</time></trkpt><trkpt lat="41.51725068482083" lon="13.055306068635035"><ele>309.0</ele><time>2026-03-22T11:10:05.999Z</time></trkpt><trkpt lat="41.51714956086598" lon="13.055255479625853"><ele>309.0</ele><time>2026-03-22T11:10:07.999Z</time></trkpt><trkpt lat="41.51707076434094" lon="13.055229356566693"><ele>309.0</ele><time>2026-03-22T11:10:08.999Z</time></trkpt><trkpt lat="41.51697486517152" lon="13.055217025494368"><ele>309.0</ele><time>2026-03-22T11:10:09.999Z</time></trkpt><trkpt lat="41.51689294401329" lon="13.055189739518953"><ele>309.0</ele><time>2026-03-22T11:10:10.999Z</time></trkpt><trkpt lat="41.516803595887815" lon="13.055206518486798"><ele>307.2</ele><time>2026-03-22T11:10:11.999Z</time></trkpt><trkpt lat="41.51672148089705" lon="13.055237561720974"><ele>305.4</ele><time>2026-03-22T11:10:12.999Z</time></trkpt><trkpt lat="41.51663524253182" lon="13.055285197105752"><ele>303.6</ele><time>2026-03-22T11:10:13.999Z</time></trkpt><trkpt lat="41.51656042830099" lon="13.05537979217115"><ele>301.8</ele><time>2026-03-22T11:10:14.999Z</time></trkpt><trkpt lat="41.51643179104057" lon="13.055424629406632"><ele>300.0</ele><time>2026-03-22T11:10:16.999Z</time></trkpt><trkpt lat="41.5163702821692" lon="13.05551165698865"><ele>300.0</ele><time>2026-03-22T11:10:17.999Z</time></trkpt><trkpt lat="41.51628333054243" lon="13.055549884635699"><ele>300.0</ele><time>2026-03-22T11:10:18.999Z</time></trkpt><trkpt lat="41.51619819075822" lon="13.05558404904686"><ele>300.0</ele><time>2026-03-22T11:10:19.999Z</time></trkpt><trkpt lat="41.51612087150967" lon="13.055612819869163"><ele>300.0</ele><time>2026-03-22T11:10:20.999Z</time></trkpt><trkpt lat="41.51604218620303" lon="13.05563001544761"><ele>300.0</ele><time>2026-03-22T11:10:21.999Z</time></trkpt><trkpt lat="41.51595407680649" lon="13.055595223994468"><ele>300.0</ele><time>2026-03-22T11:10:22.999Z</time></trkpt><trkpt lat="41.51586100383933" lon="13.055530771321674"><ele>298.8</ele><time>2026-03-22T11:10:23.999Z</time></trkpt><trkpt lat="41.515756171783345" lon="13.055476785838216"><ele>297.6</ele><time>2026-03-22T11:10:24.999Z</time></trkpt><trkpt lat="41.51564800577968" lon="13.055441323451127"><ele>296.4</ele><time>2026-03-22T11:10:25.999Z</time></trkpt><trkpt lat="41.515539179372425" lon="13.055425003569916"><ele>295.2</ele><time>2026-03-22T11:10:26.999Z</time></trkpt><trkpt lat="41.51544094200497" lon="13.055435183130328"><ele>294.0</ele><time>2026-03-22T11:10:27.999Z</time></trkpt><trkpt lat="41.51536793218601" lon="13.055431374955077"><ele>291.3333333333333</ele><time>2026-03-22T11:10:28.999Z</time></trkpt><trkpt lat="41.51529081857392" lon="13.055423837074649"><ele>288.6666666666667</ele><time>2026-03-22T11:10:29.999Z</time></trkpt><trkpt lat="41.515218146497396" lon="13.055382247948547"><ele>286.0</ele><time>2026-03-22T11:10:30.999Z</time></trkpt><trkpt lat="41.515182009429495" lon="13.055284320283912"><ele>283.33333333333337</ele><time>2026-03-22T11:10:31.999Z</time></trkpt><trkpt lat="41.515180356915344" lon="13.055176641201042"><ele>280.6666666666667</ele><time>2026-03-22T11:10:32.999Z</time></trkpt><trkpt lat="41.51515641557197" lon="13.055082406818878"><ele>278.0</ele><time>2026-03-22T11:10:33.999Z</time></trkpt><trkpt lat="41.51510702691972" lon="13.055002789013312"><ele>278.0</ele><time>2026-03-22T11:10:34.999Z</time></trkpt><trkpt lat="41.51504687375178" lon="13.054929882391926"><ele>278.0</ele><time>2026-03-22T11:10:35.999Z</time></trkpt><trkpt lat="41.51496532064063" lon="13.054896175615289"><ele>278.0</ele><time>2026-03-22T11:10:36.999Z</time></trkpt><trkpt lat="41.514874483045446" lon="13.054904691575949"><ele>278.0</ele><time>2026-03-22T11:10:37.999Z</time></trkpt><trkpt lat="41.514780976321546" lon="13.054973896344888"><ele>278.0</ele><time>2026-03-22T11:10:38.999Z</time></trkpt><trkpt lat="41.51469916081317" lon="13.055069766704559"><ele>278.0</ele><time>2026-03-22T11:10:39.999Z</time></trkpt><trkpt lat="41.51463410291267" lon="13.055199750469761"><ele>278.0</ele><time>2026-03-22T11:10:40.999Z</time></trkpt><trkpt lat="41.51459078990474" lon="13.055346248786174"><ele>278.0</ele><time>2026-03-22T11:10:41.999Z</time></trkpt><trkpt lat="41.51454699306149" lon="13.055490579297828"><ele>278.0</ele><time>2026-03-22T11:10:42.999Z</time></trkpt><trkpt lat="41.51453636609956" lon="13.055633839875368"><ele>275.83333333333337</ele><time>2026-03-22T11:10:43.999Z</time></trkpt><trkpt lat="41.51453875782821" lon="13.055750334083218"><ele>273.6666666666667</ele><time>2026-03-22T11:10:44.998Z</time></trkpt><trkpt lat="41.51452984439485" lon="13.055846189526257"><ele>271.5</ele><time>2026-03-22T11:10:45.998Z</time></trkpt><trkpt lat="41.51449731261557" lon="13.055924112719053"><ele>269.3333333333333</ele><time>2026-03-22T11:10:46.998Z</time></trkpt><trkpt lat="41.514431390761686" lon="13.055975056178793"><ele>267.16666666666663</ele><time>2026-03-22T11:10:47.998Z</time></trkpt><trkpt lat="41.514360879533434" lon="13.05601750504665"><ele>265.0</ele><time>2026-03-22T11:10:48.998Z</time></trkpt><trkpt lat="41.51428551175756" lon="13.056045018453062"><ele>263.3333333333333</ele><time>2026-03-22T11:10:49.998Z</time></trkpt><trkpt lat="41.51420653034476" lon="13.05605801670765"><ele>261.66666666666663</ele><time>2026-03-22T11:10:50.998Z</time></trkpt><trkpt lat="41.51412407733054" lon="13.05606099950332"><ele>260.0</ele><time>2026-03-22T11:10:51.998Z</time></trkpt><trkpt lat="41.514047909587596" lon="13.056043854671223"><ele>258.3333333333333</ele><time>2026-03-22T11:10:52.998Z</time></trkpt><trkpt lat="41.51396916617485" lon="13.055953074328423"><ele>256.6666666666667</ele><time>2026-03-22T11:10:53.998Z</time></trkpt><trkpt lat="41.513876148106704" lon="13.055940129722885"><ele>255.0</ele><time>2026-03-22T11:10:54.998Z</time></trkpt><trkpt lat="41.51378309510432" lon="13.055932439419818"><ele>253.6</ele><time>2026-03-22T11:10:55.998Z</time></trkpt><trkpt lat="41.51368980187111" lon="13.055932439413299"><ele>252.2</ele><time>2026-03-22T11:10:56.998Z</time></trkpt><trkpt lat="41.51358884666531" lon="13.055947898717394"><ele>250.8</ele><time>2026-03-22T11:10:57.998Z</time></trkpt><trkpt lat="41.51349433041293" lon="13.05596753846403"><ele>249.4</ele><time>2026-03-22T11:10:58.998Z</time></trkpt><trkpt lat="41.51339152496868" lon="13.055981625857427"><ele>248.0</ele><time>2026-03-22T11:10:59.998Z</time></trkpt><trkpt lat="41.51328430211625" lon="13.055988278000358"><ele>248.0</ele><time>2026-03-22T11:11:00.998Z</time></trkpt><trkpt lat="41.513175632158585" lon="13.05599336164736"><ele>248.0</ele><time>2026-03-22T11:11:01.998Z</time></trkpt><trkpt lat="41.51305417948283" lon="13.055996184792985"><ele>248.0</ele><time>2026-03-22T11:11:03Z</time></trkpt><trkpt lat="41.51293895579783" lon="13.055996839362995"><ele>248.0</ele><time>2026-03-22T11:11:04Z</time></trkpt><trkpt lat="41.512820112834206" lon="13.055996839359295"><ele>244.5</ele><time>2026-03-22T11:11:05Z</time></trkpt><trkpt lat="41.512706155855604" lon="13.055997604996984"><ele>241.0</ele><time>2026-03-22T11:11:06Z</time></trkpt><trkpt lat="41.5125882186325" lon="13.056000596424282"><ele>237.5</ele><time>2026-03-22T11:11:07Z</time></trkpt><trkpt lat="41.51247461758238" lon="13.056006533982336"><ele>234.0</ele><time>2026-03-22T11:11:08Z</time></trkpt><trkpt lat="41.512360122663594" lon="13.056017510659451"><ele>234.0</ele><time>2026-03-22T11:11:09Z</time></trkpt><trkpt lat="41.51225216652651" lon="13.05603555882224"><ele>233.99999999999997</ele><time>2026-03-22T11:11:10Z</time></trkpt><trkpt lat="41.512141849825476" lon="13.056072782681188"><ele>233.99999999999997</ele><time>2026-03-22T11:11:11Z</time></trkpt><trkpt lat="41.5120450314295" lon="13.056093079090095"><ele>234.0</ele><time>2026-03-22T11:11:12Z</time></trkpt><trkpt lat="41.511945495950634" lon="13.056097402260411"><ele>234.0</ele><time>2026-03-22T11:11:13Z</time></trkpt><trkpt lat="41.51186297107184" lon="13.056045302448021"><ele>233.5</ele><time>2026-03-22T11:11:14Z</time></trkpt><trkpt lat="41.51178958997005" lon="13.055975885253106"><ele>233.0</ele><time>2026-03-22T11:11:15Z</time></trkpt><trkpt lat="41.511723051256055" lon="13.05589566597827"><ele>232.5</ele><time>2026-03-22T11:11:16Z</time></trkpt><trkpt lat="41.51166426680951" lon="13.055815189698802"><ele>232.0</ele><time>2026-03-22T11:11:17Z</time></trkpt><trkpt lat="41.51159762342445" lon="13.055736395862459"><ele>231.5</ele><time>2026-03-22T11:11:18Z</time></trkpt><trkpt lat="41.511529120770405" lon="13.05566713939667"><ele>231.0</ele><time>2026-03-22T11:11:19Z</time></trkpt><trkpt lat="41.5114471841236" lon="13.055625245404338"><ele>231.0</ele><time>2026-03-22T11:11:20Z</time></trkpt><trkpt lat="41.5113586501306" lon="13.055586178909612"><ele>231.00000000000003</ele><time>2026-03-22T11:11:21Z</time></trkpt><trkpt lat="41.511268470855654" lon="13.055557436796642"><ele>231.00000000000003</ele><time>2026-03-22T11:11:22Z</time></trkpt><trkpt lat="41.51116433858532" lon="13.055524247576017"><ele>231.0</ele><time>2026-03-22T11:11:23Z</time></trkpt><trkpt lat="41.51104402888133" lon="13.055485902196303"><ele>231.0</ele><time>2026-03-22T11:11:24Z</time></trkpt><trkpt lat="41.51091700575577" lon="13.055443630132245"><ele>227.75</ele><time>2026-03-22T11:11:25Z</time></trkpt><trkpt lat="41.51078648983284" lon="13.055412787637644"><ele>224.5</ele><time>2026-03-22T11:11:26Z</time></trkpt><trkpt lat="41.510657646958144" lon="13.055345159150908"><ele>221.25</ele><time>2026-03-22T11:11:27Z</time></trkpt><trkpt lat="41.51053041713812" lon="13.055278551843097"><ele>218.0</ele><time>2026-03-22T11:11:28Z</time></trkpt><trkpt lat="41.5104081189425" lon="13.055219365429764"><ele>215.5</ele><time>2026-03-22T11:11:29Z</time></trkpt><trkpt lat="41.51027548149172" lon="13.055168370516196"><ele>213.0</ele><time>2026-03-22T11:11:30Z</time></trkpt><trkpt lat="41.510158093037354" lon="13.055109605593199"><ele>210.5</ele><time>2026-03-22T11:11:31Z</time></trkpt><trkpt lat="41.510040423971816" lon="13.055059144400403"><ele>208.0</ele><time>2026-03-22T11:11:32Z</time></trkpt><trkpt lat="41.50993413266716" lon="13.054996386595276"><ele>208.0</ele><time>2026-03-22T11:11:33Z</time></trkpt><trkpt lat="41.50982457771612" lon="13.054968230353577"><ele>208.0</ele><time>2026-03-22T11:11:34Z</time></trkpt><trkpt lat="41.509718856138925" lon="13.054942460683177"><ele>208.0</ele><time>2026-03-22T11:11:35Z</time></trkpt><trkpt lat="41.50961923304568" lon="13.054867349575584"><ele>208.0</ele><time>2026-03-22T11:11:36Z</time></trkpt><trkpt lat="41.50951367622547" lon="13.054767461375095"><ele>208.25</ele><time>2026-03-22T11:11:37Z</time></trkpt><trkpt lat="41.5094090503639" lon="13.054661307554637"><ele>208.5</ele><time>2026-03-22T11:11:38Z</time></trkpt><trkpt lat="41.509308300601795" lon="13.054553131913755"><ele>208.75</ele><time>2026-03-22T11:11:39Z</time></trkpt><trkpt lat="41.50920762546438" lon="13.054457714361357"><ele>209.0</ele><time>2026-03-22T11:11:40Z</time></trkpt><trkpt lat="41.50910534526383" lon="13.05437019582789"><ele>209.0</ele><time>2026-03-22T11:11:41Z</time></trkpt><trkpt lat="41.50900702278428" lon="13.054283221599988"><ele>209.0</ele><time>2026-03-22T11:11:42Z</time></trkpt><trkpt lat="41.508909206993714" lon="13.054205662521257"><ele>209.0</ele><time>2026-03-22T11:11:43Z</time></trkpt><trkpt lat="41.50882036744182" lon="13.054134031621961"><ele>209.0</ele><time>2026-03-22T11:11:44Z</time></trkpt><trkpt lat="41.50875874981372" lon="13.054054987482559"><ele>209.0</ele><time>2026-03-22T11:11:45Z</time></trkpt><trkpt lat="41.508701803252414" lon="13.054011636096002"><ele>209.50000000000003</ele><time>2026-03-22T11:11:46Z</time></trkpt><trkpt lat="41.50863725488588" lon="13.053979940434905"><ele>210.0</ele><time>2026-03-22T11:11:47.999Z</time></trkpt><trkpt lat="41.50857003922686" lon="13.053956134169713"><ele>210.5</ele><time>2026-03-22T11:11:51.999Z</time></trkpt><trkpt lat="41.50849775705816" lon="13.053964710422282"><ele>211.0</ele><time>2026-03-22T11:11:55.999Z</time></trkpt><trkpt lat="41.50842846319796" lon="13.05395422272289"><ele>211.50000000000003</ele><time>2026-03-22T11:12:06.999Z</time></trkpt><trkpt lat="41.508562494478475" lon="13.053932907468187"><ele>212.0</ele><time>2026-03-22T11:34:01.998Z</time></trkpt><trkpt lat="41.508677979244055" lon="13.054025890668946"><ele>211.39999999999998</ele><time>2026-03-22T11:34:03.998Z</time></trkpt><trkpt lat="41.50876159949804" lon="13.054064374070435"><ele>210.79999999999998</ele><time>2026-03-22T11:34:05Z</time></trkpt><trkpt lat="41.508843526919385" lon="13.054136851254595"><ele>210.2</ele><time>2026-03-22T11:34:06Z</time></trkpt><trkpt lat="41.50892518572912" lon="13.054256640205889"><ele>209.6</ele><time>2026-03-22T11:34:07Z</time></trkpt><trkpt lat="41.50902943960892" lon="13.054348320053652"><ele>209.0</ele><time>2026-03-22T11:34:08Z</time></trkpt><trkpt lat="41.50912232415828" lon="13.05443140817145"><ele>209.0</ele><time>2026-03-22T11:34:09Z</time></trkpt><trkpt lat="41.509220064319074" lon="13.05452415812462"><ele>209.0</ele><time>2026-03-22T11:34:10Z</time></trkpt><trkpt lat="41.50932324673225" lon="13.054627264327923"><ele>209.0</ele><time>2026-03-22T11:34:11Z</time></trkpt><trkpt lat="41.50943256605656" lon="13.054743104441476"><ele>209.0</ele><time>2026-03-22T11:34:12Z</time></trkpt><trkpt lat="41.50953963264512" lon="13.054859502694839"><ele>208.75</ele><time>2026-03-22T11:34:13Z</time></trkpt><trkpt lat="41.50963994337956" lon="13.054952470784675"><ele>208.5</ele><time>2026-03-22T11:34:14Z</time></trkpt><trkpt lat="41.50975978823676" lon="13.055002289078473"><ele>208.25</ele><time>2026-03-22T11:34:15Z</time></trkpt><trkpt lat="41.509894788179466" lon="13.055038371925514"><ele>208.0</ele><time>2026-03-22T11:34:16Z</time></trkpt><trkpt lat="41.51003874918556" lon="13.05507464538867"><ele>208.0</ele><time>2026-03-22T11:34:17Z</time></trkpt><trkpt lat="41.51017840067196" lon="13.0551431963981"><ele>208.0</ele><time>2026-03-22T11:34:18Z</time></trkpt><trkpt lat="41.51031731902071" lon="13.05521462965293"><ele>208.0</ele><time>2026-03-22T11:34:19Z</time></trkpt><trkpt lat="41.510448601845944" lon="13.055267499056345"><ele>208.0</ele><time>2026-03-22T11:34:20Z</time></trkpt><trkpt lat="41.51057541762127" lon="13.055330503632998"><ele>210.5</ele><time>2026-03-22T11:34:21Z</time></trkpt><trkpt lat="41.51070175981435" lon="13.055397464283274"><ele>213.0</ele><time>2026-03-22T11:34:22Z</time></trkpt><trkpt lat="41.51083659877729" lon="13.05545733944457"><ele>215.5</ele><time>2026-03-22T11:34:23Z</time></trkpt><trkpt lat="41.51095402965612" lon="13.055508961931842"><ele>218.0</ele><time>2026-03-22T11:34:24Z</time></trkpt><trkpt lat="41.511065114135754" lon="13.055558603834363"><ele>218.0</ele><time>2026-03-22T11:34:25Z</time></trkpt><trkpt lat="41.51117473004422" lon="13.055590831504139"><ele>218.0</ele><time>2026-03-22T11:34:26Z</time></trkpt><trkpt lat="41.51129203198245" lon="13.055608322875702"><ele>218.0</ele><time>2026-03-22T11:34:27Z</time></trkpt><trkpt lat="41.51140195438638" lon="13.055630091690855"><ele>218.0</ele><time>2026-03-22T11:34:27.999Z</time></trkpt><trkpt lat="41.51149399884485" lon="13.055682326179355"><ele>218.0</ele><time>2026-03-22T11:34:28.999Z</time></trkpt><trkpt lat="41.51155926197451" lon="13.05577111663861"><ele>218.66666666666669</ele><time>2026-03-22T11:34:29.999Z</time></trkpt><trkpt lat="41.51162211307808" lon="13.055846103958741"><ele>219.33333333333334</ele><time>2026-03-22T11:34:30.999Z</time></trkpt><trkpt lat="41.51166912826677" lon="13.055903917483718"><ele>220.0</ele><time>2026-03-22T11:34:31.999Z</time></trkpt><trkpt lat="41.5117451089838" lon="13.055995343054555"><ele>220.66666666666669</ele><time>2026-03-22T11:34:33.999Z</time></trkpt><trkpt lat="41.51180053489162" lon="13.056046306124644"><ele>221.33333333333334</ele><time>2026-03-22T11:34:34.999Z</time></trkpt><trkpt lat="41.51186459717893" lon="13.05608421570227"><ele>222.0</ele><time>2026-03-22T11:34:35.999Z</time></trkpt><trkpt lat="41.51193685498597" lon="13.056119538670945"><ele>222.0</ele><time>2026-03-22T11:34:36.999Z</time></trkpt><trkpt lat="41.51202981017135" lon="13.056128431089766"><ele>222.0</ele><time>2026-03-22T11:34:37.999Z</time></trkpt><trkpt lat="41.51213822086434" lon="13.05610900918861"><ele>222.0</ele><time>2026-03-22T11:34:38.999Z</time></trkpt><trkpt lat="41.51226222677217" lon="13.056073339267373"><ele>222.0</ele><time>2026-03-22T11:34:39.999Z</time></trkpt><trkpt lat="41.512400017435766" lon="13.056042578163668"><ele>226.0</ele><time>2026-03-22T11:34:40.999Z</time></trkpt><trkpt lat="41.51254926039176" lon="13.056031262447114"><ele>230.0</ele><time>2026-03-22T11:34:41.999Z</time></trkpt><trkpt lat="41.512709790298146" lon="13.056024788511662"><ele>234.0</ele><time>2026-03-22T11:34:42.999Z</time></trkpt><trkpt lat="41.51287264510168" lon="13.0560273394048"><ele>238.66666666666669</ele><time>2026-03-22T11:34:43.999Z</time></trkpt><trkpt lat="41.51303241766652" lon="13.05603216552107"><ele>243.33333333333334</ele><time>2026-03-22T11:34:44.999Z</time></trkpt><trkpt lat="41.51319329000197" lon="13.05602337161993"><ele>248.0</ele><time>2026-03-22T11:34:45.999Z</time></trkpt><trkpt lat="41.51334754955126" lon="13.056014431895216"><ele>248.0</ele><time>2026-03-22T11:34:46.999Z</time></trkpt><trkpt lat="41.513497602735484" lon="13.056000827874982"><ele>248.0</ele><time>2026-03-22T11:34:47.999Z</time></trkpt><trkpt lat="41.5136465365317" lon="13.055978434707"><ele>248.0</ele><time>2026-03-22T11:34:48.999Z</time></trkpt><trkpt lat="41.513784206328474" lon="13.055961997939953"><ele>248.0</ele><time>2026-03-22T11:34:49.999Z</time></trkpt><trkpt lat="41.5139240217646" lon="13.055989912976267"><ele>249.4</ele><time>2026-03-22T11:34:50.999Z</time></trkpt><trkpt lat="41.51405329320248" lon="13.056000207688733"><ele>250.8</ele><time>2026-03-22T11:34:51.999Z</time></trkpt><trkpt lat="41.51415820567606" lon="13.056018038464199"><ele>252.2</ele><time>2026-03-22T11:34:52.999Z</time></trkpt><trkpt lat="41.5142518300353" lon="13.056008749146796"><ele>253.6</ele><time>2026-03-22T11:34:53.999Z</time></trkpt><trkpt lat="41.51433882730628" lon="13.05596025141627"><ele>255.0</ele><time>2026-03-22T11:34:54.999Z</time></trkpt><trkpt lat="41.514417436460114" lon="13.055925435381877"><ele>255.0</ele><time>2026-03-22T11:34:55.999Z</time></trkpt><trkpt lat="41.51447550669852" lon="13.055888682062346"><ele>255.0</ele><time>2026-03-22T11:34:56.999Z</time></trkpt><trkpt lat="41.51454629779926" lon="13.05586356474135"><ele>255.0</ele><time>2026-03-22T11:34:59.999Z</time></trkpt><trkpt lat="41.51441485268293" lon="13.055906433306383"><ele>255.0</ele><time>2026-03-22T11:35:28.999Z</time></trkpt><trkpt lat="41.51432948935991" lon="13.055959957851623"><ele>255.0</ele><time>2026-03-22T11:35:30.999Z</time></trkpt><trkpt lat="41.514265770758826" lon="13.055994094629837"><ele>255.0</ele><time>2026-03-22T11:35:32.998Z</time></trkpt><trkpt lat="41.514378984724935" lon="13.055947848431606"><ele>255.0</ele><time>2026-03-22T11:37:39.998Z</time></trkpt><trkpt lat="41.514438559613566" lon="13.055913484642987"><ele>255.0</ele><time>2026-03-22T11:37:40.998Z</time></trkpt><trkpt lat="41.51449791493329" lon="13.05588224826406"><ele>255.0</ele><time>2026-03-22T11:37:41.998Z</time></trkpt><trkpt lat="41.514543203667095" lon="13.055783649236242"><ele>255.0</ele><time>2026-03-22T11:37:43.998Z</time></trkpt><trkpt lat="41.514528417435656" lon="13.055625033805317"><ele>255.0</ele><time>2026-03-22T11:37:45.998Z</time></trkpt><trkpt lat="41.514532584063055" lon="13.055516794165785"><ele>255.0</ele><time>2026-03-22T11:37:46.998Z</time></trkpt><trkpt lat="41.514550667125" lon="13.05542768899583"><ele>258.8333333333333</ele><time>2026-03-22T11:37:47.998Z</time></trkpt><trkpt lat="41.51457986018684" lon="13.055325716577624"><ele>262.6666666666667</ele><time>2026-03-22T11:37:48.998Z</time></trkpt><trkpt lat="41.51461831765845" lon="13.055219475149507"><ele>266.5</ele><time>2026-03-22T11:37:49.998Z</time></trkpt><trkpt lat="41.51465667748921" lon="13.055126265408608"><ele>270.33333333333337</ele><time>2026-03-22T11:37:50.998Z</time></trkpt><trkpt lat="41.5147072762376" lon="13.055029976588818"><ele>274.1666666666667</ele><time>2026-03-22T11:37:51.998Z</time></trkpt><trkpt lat="41.51477377718637" lon="13.05495297229867"><ele>278.0</ele><time>2026-03-22T11:37:52.998Z</time></trkpt><trkpt lat="41.51485177690391" lon="13.054905217303476"><ele>278.0</ele><time>2026-03-22T11:37:53.998Z</time></trkpt><trkpt lat="41.51493840994204" lon="13.054886833084389"><ele>278.0</ele><time>2026-03-22T11:37:54.998Z</time></trkpt><trkpt lat="41.51502493277471" lon="13.054917676759656"><ele>278.0</ele><time>2026-03-22T11:37:55.998Z</time></trkpt><trkpt lat="41.51509559948219" lon="13.054998736218456"><ele>278.0</ele><time>2026-03-22T11:37:56.998Z</time></trkpt><trkpt lat="41.51511533803307" lon="13.055132680974324"><ele>278.0</ele><time>2026-03-22T11:37:57.998Z</time></trkpt><trkpt lat="41.51516286362402" lon="13.055249178182143"><ele>278.0</ele><time>2026-03-22T11:37:58.998Z</time></trkpt><trkpt lat="41.51519858845479" lon="13.055351876921153"><ele>278.0</ele><time>2026-03-22T11:37:59.998Z</time></trkpt><trkpt lat="41.51524553164273" lon="13.055445078747441"><ele>278.0</ele><time>2026-03-22T11:38:00.998Z</time></trkpt><trkpt lat="41.51535229971119" lon="13.05545550618917"><ele>278.0</ele><time>2026-03-22T11:38:01.998Z</time></trkpt><trkpt lat="41.51544349863532" lon="13.055418455520563"><ele>278.0</ele><time>2026-03-22T11:38:02.998Z</time></trkpt><trkpt lat="41.51554656228398" lon="13.055418216806247"><ele>281.2</ele><time>2026-03-22T11:38:03.998Z</time></trkpt><trkpt lat="41.51565634013481" lon="13.055414158407542"><ele>284.4</ele><time>2026-03-22T11:38:04.998Z</time></trkpt><trkpt lat="41.51575989273208" lon="13.05546468925506"><ele>287.59999999999997</ele><time>2026-03-22T11:38:05.998Z</time></trkpt><trkpt lat="41.51584903103575" lon="13.05554794814305"><ele>290.8</ele><time>2026-03-22T11:38:06.998Z</time></trkpt><trkpt lat="41.51593918293595" lon="13.055592767685882"><ele>294.0</ele><time>2026-03-22T11:38:07.998Z</time></trkpt><trkpt lat="41.516025143469314" lon="13.055607023286967"><ele>294.0</ele><time>2026-03-22T11:38:08.998Z</time></trkpt><trkpt lat="41.516094501890244" lon="13.055614663656577"><ele>294.0</ele><time>2026-03-22T11:38:09.998Z</time></trkpt><trkpt lat="41.51616709102725" lon="13.055589731371695"><ele>294.0</ele><time>2026-03-22T11:38:10.998Z</time></trkpt><trkpt lat="41.5162550831567" lon="13.055548471354264"><ele>294.0</ele><time>2026-03-22T11:38:11.998Z</time></trkpt><trkpt lat="41.51633875286622" lon="13.055503695144871"><ele>294.0</ele><time>2026-03-22T11:38:12.998Z</time></trkpt><trkpt lat="41.516416977422104" lon="13.055472083648795"><ele>294.0</ele><time>2026-03-22T11:38:13.998Z</time></trkpt><trkpt lat="41.51647947677903" lon="13.055445197607792"><ele>295.0</ele><time>2026-03-22T11:38:14.998Z</time></trkpt><trkpt lat="41.516557539688215" lon="13.055431015882817"><ele>296.0</ele><time>2026-03-22T11:38:15.998Z</time></trkpt><trkpt lat="41.516621650761344" lon="13.055402771576889"><ele>297.0</ele><time>2026-03-22T11:38:16.999Z</time></trkpt><trkpt lat="41.516664310184865" lon="13.055320839684603"><ele>298.0</ele><time>2026-03-22T11:38:17.999Z</time></trkpt><trkpt lat="41.51673042747564" lon="13.055274313833886"><ele>299.0</ele><time>2026-03-22T11:38:18.999Z</time></trkpt><trkpt lat="41.51680196637699" lon="13.055233391823972"><ele>300.0</ele><time>2026-03-22T11:38:19.999Z</time></trkpt><trkpt lat="41.51688623254309" lon="13.055210891031875"><ele>300.0</ele><time>2026-03-22T11:38:20.999Z</time></trkpt><trkpt lat="41.51696617138884" lon="13.055228587811627"><ele>300.0</ele><time>2026-03-22T11:38:21.999Z</time></trkpt><trkpt lat="41.51704317245606" lon="13.055207595819956"><ele>300.0</ele><time>2026-03-22T11:38:22.999Z</time></trkpt><trkpt lat="41.51711574615211" lon="13.055227825182179"><ele>300.0</ele><time>2026-03-22T11:38:23.999Z</time></trkpt><trkpt lat="41.517188144939624" lon="13.055261746556559"><ele>300.0</ele><time>2026-03-22T11:38:24.999Z</time></trkpt><trkpt lat="41.517250283984794" lon="13.05532844641941"><ele>300.0</ele><time>2026-03-22T11:38:25.999Z</time></trkpt><trkpt lat="41.51732845205084" lon="13.055339403538266"><ele>301.2857142857143</ele><time>2026-03-22T11:38:26.999Z</time></trkpt><trkpt lat="41.51740098771174" lon="13.055359503938222"><ele>302.57142857142856</ele><time>2026-03-22T11:38:27.999Z</time></trkpt><trkpt lat="41.51746893082927" lon="13.055358600770532"><ele>303.8571428571429</ele><time>2026-03-22T11:38:28.999Z</time></trkpt><trkpt lat="41.51753306807196" lon="13.055344067744244"><ele>305.1428571428571</ele><time>2026-03-22T11:38:29.999Z</time></trkpt><trkpt lat="41.51760002112818" lon="13.055320332056487"><ele>306.42857142857144</ele><time>2026-03-22T11:38:30.999Z</time></trkpt><trkpt lat="41.51766839759369" lon="13.055310261435388"><ele>307.7142857142857</ele><time>2026-03-22T11:38:31.999Z</time></trkpt><trkpt lat="41.517732028269144" lon="13.0553517407481"><ele>309.0</ele><time>2026-03-22T11:38:32.999Z</time></trkpt><trkpt lat="41.51778632053112" lon="13.055400479741653"><ele>309.0</ele><time>2026-03-22T11:38:33.999Z</time></trkpt><trkpt lat="41.51783579051466" lon="13.05546722401402"><ele>309.0</ele><time>2026-03-22T11:38:34.999Z</time></trkpt><trkpt lat="41.51787233204675" lon="13.05555100722192"><ele>309.0</ele><time>2026-03-22T11:38:35.999Z</time></trkpt><trkpt lat="41.51791132272357" lon="13.055641165389774"><ele>309.0</ele><time>2026-03-22T11:38:36.999Z</time></trkpt><trkpt lat="41.51794681386543" lon="13.055735336913475"><ele>309.0</ele><time>2026-03-22T11:38:37.999Z</time></trkpt><trkpt lat="41.51798692286302" lon="13.05584068514759"><ele>309.0</ele><time>2026-03-22T11:38:38.999Z</time></trkpt><trkpt lat="41.51802782194095" lon="13.055943509239091"><ele>311.0</ele><time>2026-03-22T11:38:39.999Z</time></trkpt><trkpt lat="41.51807492002861" lon="13.056038024501259"><ele>313.0</ele><time>2026-03-22T11:38:40.999Z</time></trkpt><trkpt lat="41.5181555798176" lon="13.056114750737805"><ele>315.0</ele><time>2026-03-22T11:38:42.999Z</time></trkpt><trkpt lat="41.518171378362716" lon="13.056217987215081"><ele>317.0</ele><time>2026-03-22T11:38:44.999Z</time></trkpt><trkpt lat="41.518248793224615" lon="13.056335552396714"><ele>319.0</ele><time>2026-03-22T11:38:46.999Z</time></trkpt><trkpt lat="41.51830647604718" lon="13.056394696756632"><ele>319.0</ele><time>2026-03-22T11:38:47.999Z</time></trkpt><trkpt lat="41.51838281926434" lon="13.056427107161012"><ele>319.0</ele><time>2026-03-22T11:38:48.999Z</time></trkpt><trkpt lat="41.51843953135972" lon="13.0564883123626"><ele>319.0</ele><time>2026-03-22T11:38:49.999Z</time></trkpt><trkpt lat="41.51850897953513" lon="13.056507081690782"><ele>319.0</ele><time>2026-03-22T11:38:50.999Z</time></trkpt><trkpt lat="41.518567644344714" lon="13.056552314912327"><ele>319.0</ele><time>2026-03-22T11:38:51.999Z</time></trkpt><trkpt lat="41.51863688913904" lon="13.056581074611413"><ele>319.0</ele><time>2026-03-22T11:38:52.999Z</time></trkpt><trkpt lat="41.51870078235049" lon="13.056622697858604"><ele>319.0</ele><time>2026-03-22T11:38:53.999Z</time></trkpt><trkpt lat="41.51880860093932" lon="13.056690369525514"><ele>320.66666666666663</ele><time>2026-03-22T11:38:55.999Z</time></trkpt><trkpt lat="41.51886738824924" lon="13.056726081429808"><ele>322.3333333333333</ele><time>2026-03-22T11:38:56.999Z</time></trkpt><trkpt lat="41.51896053108275" lon="13.056802696167011"><ele>324.0</ele><time>2026-03-22T11:38:58.999Z</time></trkpt><trkpt lat="41.51902087248702" lon="13.056842294101047"><ele>325.6666666666667</ele><time>2026-03-22T11:39:02.999Z</time></trkpt><trkpt lat="41.51894989543437" lon="13.056782985111033"><ele>327.33333333333337</ele><time>2026-03-22T11:39:35.999Z</time></trkpt><trkpt lat="41.518878546241616" lon="13.056732849944757"><ele>329.0</ele><time>2026-03-22T11:39:36.999Z</time></trkpt><trkpt lat="41.518812027357754" lon="13.056687741752286"><ele>327.0</ele><time>2026-03-22T11:39:37.999Z</time></trkpt><trkpt lat="41.518733219638065" lon="13.056638082377676"><ele>325.0</ele><time>2026-03-22T11:39:38.998Z</time></trkpt><trkpt lat="41.51865512119029" lon="13.056564222044841"><ele>323.0</ele><time>2026-03-22T11:39:39.998Z</time></trkpt><trkpt lat="41.51856573054746" lon="13.05651015326228"><ele>321.0</ele><time>2026-03-22T11:39:40.998Z</time></trkpt><trkpt lat="41.518471473950626" lon="13.056478259065587"><ele>319.0</ele><time>2026-03-22T11:39:41.998Z</time></trkpt><trkpt lat="41.51837812902609" lon="13.05641339078126"><ele>319.0</ele><time>2026-03-22T11:39:42.998Z</time></trkpt><trkpt lat="41.518295156088804" lon="13.056338214943182"><ele>319.0</ele><time>2026-03-22T11:39:43.998Z</time></trkpt><trkpt lat="41.51822499616867" lon="13.056241685566805"><ele>319.0</ele><time>2026-03-22T11:39:44.998Z</time></trkpt><trkpt lat="41.518165991789935" lon="13.056140255964092"><ele>319.0</ele><time>2026-03-22T11:39:45.998Z</time></trkpt><trkpt lat="41.51811459274337" lon="13.056039587632217"><ele>319.0</ele><time>2026-03-22T11:39:46.998Z</time></trkpt><trkpt lat="41.51809346776334" lon="13.055928026913042"><ele>319.0</ele><time>2026-03-22T11:39:47.998Z</time></trkpt><trkpt lat="41.5180235424728" lon="13.055846821620301"><ele>319.0</ele><time>2026-03-22T11:39:48.998Z</time></trkpt><trkpt lat="41.5179812036044" lon="13.055734011456183"><ele>319.0</ele><time>2026-03-22T11:39:49.998Z</time></trkpt><trkpt lat="41.51794381157178" lon="13.055636448032573"><ele>319.0</ele><time>2026-03-22T11:39:50.998Z</time></trkpt><trkpt lat="41.51791264413035" lon="13.055558493234086"><ele>319.0</ele><time>2026-03-22T11:39:51.998Z</time></trkpt><trkpt lat="41.51784980403218" lon="13.055445935523581"><ele>319.0</ele><time>2026-03-22T11:39:53.998Z</time></trkpt><trkpt lat="41.517771870832526" lon="13.055353707494818"><ele>317.0</ele><time>2026-03-22T11:39:55.998Z</time></trkpt><trkpt lat="41.5176633869529" lon="13.055300627662788"><ele>315.0</ele><time>2026-03-22T11:39:57.998Z</time></trkpt><trkpt lat="41.51759957842755" lon="13.05529539189206"><ele>313.0</ele><time>2026-03-22T11:39:58.998Z</time></trkpt><trkpt lat="41.51748070127416" lon="13.055299625584476"><ele>311.0</ele><time>2026-03-22T11:40:00.998Z</time></trkpt><trkpt lat="41.517391812886174" lon="13.05530931881695"><ele>309.0</ele><time>2026-03-22T11:40:02.998Z</time></trkpt><trkpt lat="41.517327367995584" lon="13.055316326342844"><ele>309.00000000000006</ele><time>2026-03-22T11:40:03.998Z</time></trkpt><trkpt lat="41.51725244229541" lon="13.055286897942011"><ele>309.0</ele><time>2026-03-22T11:40:04.998Z</time></trkpt><trkpt lat="41.51718587892404" lon="13.055241713142694"><ele>309.0</ele><time>2026-03-22T11:40:05.998Z</time></trkpt><trkpt lat="41.517115706448415" lon="13.055214937606234"><ele>309.0</ele><time>2026-03-22T11:40:06.998Z</time></trkpt><trkpt lat="41.51704366057251" lon="13.055182828856701"><ele>309.0</ele><time>2026-03-22T11:40:07.998Z</time></trkpt><trkpt lat="41.51696817325816" lon="13.055194900479869"><ele>309.00000000000006</ele><time>2026-03-22T11:40:08.998Z</time></trkpt><trkpt lat="41.51689801476003" lon="13.055200262072207"><ele>309.0</ele><time>2026-03-22T11:40:09.998Z</time></trkpt><trkpt lat="41.51682450795277" lon="13.055222280319215"><ele>307.5</ele><time>2026-03-22T11:40:10.998Z</time></trkpt><trkpt lat="41.516745885635174" lon="13.055226087256079"><ele>306.0</ele><time>2026-03-22T11:40:11.998Z</time></trkpt><trkpt lat="41.51667265112848" lon="13.055264397134781"><ele>304.5</ele><time>2026-03-22T11:40:12.998Z</time></trkpt><trkpt lat="41.51660990622556" lon="13.055312029170187"><ele>303.0</ele><time>2026-03-22T11:40:13.998Z</time></trkpt><trkpt lat="41.51654077198138" lon="13.055397319239884"><ele>301.5</ele><time>2026-03-22T11:40:15.998Z</time></trkpt><trkpt lat="41.516645217946824" lon="13.055372541493055"><ele>300.0</ele><time>2026-03-22T11:42:04.998Z</time></trkpt><trkpt lat="41.516721378332626" lon="13.055278093847617"><ele>300.0</ele><time>2026-03-22T11:42:06.998Z</time></trkpt><trkpt lat="41.51681539429408" lon="13.055235129606785"><ele>300.0</ele><time>2026-03-22T11:42:08.998Z</time></trkpt><trkpt lat="41.51693884628258" lon="13.055210605287188"><ele>300.0</ele><time>2026-03-22T11:42:10.998Z</time></trkpt><trkpt lat="41.51700571783214" lon="13.05522836203178"><ele>300.0</ele><time>2026-03-22T11:42:11.998Z</time></trkpt><trkpt lat="41.51707401611215" lon="13.055212920272796"><ele>300.0</ele><time>2026-03-22T11:42:12.998Z</time></trkpt><trkpt lat="41.51714451888422" lon="13.055239226851503"><ele>300.0</ele><time>2026-03-22T11:42:13.998Z</time></trkpt><trkpt lat="41.51721027537201" lon="13.055311949256808"><ele>301.2857142857143</ele><time>2026-03-22T11:42:14.998Z</time></trkpt><trkpt lat="41.51728538394424" lon="13.055342922307196"><ele>302.57142857142856</ele><time>2026-03-22T11:42:15.998Z</time></trkpt><trkpt lat="41.5173594051165" lon="13.055344697897521"><ele>303.8571428571429</ele><time>2026-03-22T11:42:16.998Z</time></trkpt><trkpt lat="41.51743071039529" lon="13.055348607894919"><ele>305.1428571428571</ele><time>2026-03-22T11:42:17.998Z</time></trkpt><trkpt lat="41.51750163699015" lon="13.055338589927318"><ele>306.42857142857144</ele><time>2026-03-22T11:42:18.998Z</time></trkpt><trkpt lat="41.517569741423316" lon="13.055315617113505"><ele>307.7142857142857</ele><time>2026-03-22T11:42:19.998Z</time></trkpt><trkpt lat="41.51763796639986" lon="13.055313448989015"><ele>309.0</ele><time>2026-03-22T11:42:20.998Z</time></trkpt><trkpt lat="41.51770439757966" lon="13.055334125985635"><ele>309.0</ele><time>2026-03-22T11:42:21.998Z</time></trkpt><trkpt lat="41.51778016801201" lon="13.05538154008392"><ele>309.0</ele><time>2026-03-22T11:42:22.998Z</time></trkpt><trkpt lat="41.51785845310829" lon="13.055520905263078"><ele>309.0</ele><time>2026-03-22T11:42:24.998Z</time></trkpt><trkpt lat="41.51790077743247" lon="13.055614144043803"><ele>309.0</ele><time>2026-03-22T11:42:25.998Z</time></trkpt><trkpt lat="41.5179409547815" lon="13.055719791382096"><ele>309.0</ele><time>2026-03-22T11:42:26.998Z</time></trkpt><trkpt lat="41.517978108607885" lon="13.05581852568184"><ele>310.6666666666667</ele><time>2026-03-22T11:42:27.998Z</time></trkpt><trkpt lat="41.518017001736666" lon="13.055916306933767"><ele>312.3333333333333</ele><time>2026-03-22T11:42:28.999Z</time></trkpt><trkpt lat="41.518052197525684" lon="13.056004793377701"><ele>314.0</ele><time>2026-03-22T11:42:29.999Z</time></trkpt><trkpt lat="41.51809658649094" lon="13.056077620086093"><ele>315.66666666666663</ele><time>2026-03-22T11:42:30.999Z</time></trkpt><trkpt lat="41.51813606477421" lon="13.056147851197817"><ele>317.3333333333333</ele><time>2026-03-22T11:42:31.999Z</time></trkpt><trkpt lat="41.518176905055576" lon="13.056230247517819"><ele>319.0</ele><time>2026-03-22T11:42:32.999Z</time></trkpt><trkpt lat="41.518234318363206" lon="13.05631684552907"><ele>319.0</ele><time>2026-03-22T11:42:33.999Z</time></trkpt><trkpt lat="41.5183023976946" lon="13.056390450067118"><ele>319.0</ele><time>2026-03-22T11:42:34.999Z</time></trkpt><trkpt lat="41.51837887174329" lon="13.05644857863178"><ele>319.0</ele><time>2026-03-22T11:42:35.999Z</time></trkpt><trkpt lat="41.51845288247114" lon="13.056496918400178"><ele>319.0</ele><time>2026-03-22T11:42:36.999Z</time></trkpt><trkpt lat="41.51854668443301" lon="13.056526667091466"><ele>319.0</ele><time>2026-03-22T11:42:37.999Z</time></trkpt><trkpt lat="41.518628081657226" lon="13.056596425585123"><ele>321.0</ele><time>2026-03-22T11:42:38.999Z</time></trkpt><trkpt lat="41.51868969044791" lon="13.056634299784903"><ele>323.0</ele><time>2026-03-22T11:42:39.999Z</time></trkpt><trkpt lat="41.51881592552223" lon="13.056711903359727"><ele>325.0</ele><time>2026-03-22T11:42:41.999Z</time></trkpt><trkpt lat="41.5188873400344" lon="13.056755805740822"><ele>327.0</ele><time>2026-03-22T11:42:42.999Z</time></trkpt><trkpt lat="41.518963888925036" lon="13.056804899646608"><ele>329.0</ele><time>2026-03-22T11:42:43.999Z</time></trkpt><trkpt lat="41.51904611170525" lon="13.05685885693253"><ele>329.0</ele><time>2026-03-22T11:42:44.999Z</time></trkpt><trkpt lat="41.51913543385216" lon="13.056915122076445"><ele>329.0</ele><time>2026-03-22T11:42:45.999Z</time></trkpt><trkpt lat="41.51923512806436" lon="13.05697322994106"><ele>329.0</ele><time>2026-03-22T11:42:46.999Z</time></trkpt><trkpt lat="41.519314316522966" lon="13.05701686181612"><ele>329.0</ele><time>2026-03-22T11:42:47.999Z</time></trkpt><trkpt lat="41.51940730797852" lon="13.0570678860422"><ele>329.0</ele><time>2026-03-22T11:42:48.999Z</time></trkpt><trkpt lat="41.519509356746276" lon="13.05712385784755"><ele>333.0</ele><time>2026-03-22T11:42:49.999Z</time></trkpt><trkpt lat="41.51958820254909" lon="13.05716710326986"><ele>337.0</ele><time>2026-03-22T11:42:50.999Z</time></trkpt><trkpt lat="41.519673951730894" lon="13.057191677519926"><ele>341.0</ele><time>2026-03-22T11:42:51.999Z</time></trkpt><trkpt lat="41.51975482721548" lon="13.057233189559895"><ele>345.0</ele><time>2026-03-22T11:42:52.999Z</time></trkpt><trkpt lat="41.51984295875899" lon="13.057280615870276"><ele>349.0</ele><time>2026-03-22T11:42:53.999Z</time></trkpt><trkpt lat="41.51992761341551" lon="13.05732378328622"><ele>353.0</ele><time>2026-03-22T11:42:54.999Z</time></trkpt><trkpt lat="41.520005504284306" lon="13.057359726296045"><ele>353.0</ele><time>2026-03-22T11:42:55.999Z</time></trkpt><trkpt lat="41.520074167015935" lon="13.057381751622676"><ele>353.0</ele><time>2026-03-22T11:42:56.999Z</time></trkpt><trkpt lat="41.520149427627906" lon="13.057378509217028"><ele>353.0</ele><time>2026-03-22T11:42:57.999Z</time></trkpt><trkpt lat="41.520220563432076" lon="13.057348502314069"><ele>353.0</ele><time>2026-03-22T11:42:58.999Z</time></trkpt><trkpt lat="41.52030108010666" lon="13.05730958178186"><ele>353.0</ele><time>2026-03-22T11:42:59.999Z</time></trkpt><trkpt lat="41.5203819321911" lon="13.057259862436307"><ele>353.0</ele><time>2026-03-22T11:43:00.999Z</time></trkpt><trkpt lat="41.520455686521544" lon="13.057204822596256"><ele>354.5</ele><time>2026-03-22T11:43:01.999Z</time></trkpt><trkpt lat="41.52054294845685" lon="13.057138156912949"><ele>356.0</ele><time>2026-03-22T11:43:02.999Z</time></trkpt><trkpt lat="41.52061608144141" lon="13.057078483483053"><ele>357.5</ele><time>2026-03-22T11:43:03.999Z</time></trkpt><trkpt lat="41.52068374982181" lon="13.05702883359702"><ele>359.0</ele><time>2026-03-22T11:43:04.999Z</time></trkpt><trkpt lat="41.52074705537837" lon="13.0569808777131"><ele>360.5</ele><time>2026-03-22T11:43:05.999Z</time></trkpt><trkpt lat="41.52081593358183" lon="13.056921293521931"><ele>362.0</ele><time>2026-03-22T11:43:06.999Z</time></trkpt><trkpt lat="41.520882335681996" lon="13.05685068547393"><ele>362.0</ele><time>2026-03-22T11:43:07.999Z</time></trkpt><trkpt lat="41.52094151933169" lon="13.056770051433693"><ele>362.0</ele><time>2026-03-22T11:43:08.999Z</time></trkpt><trkpt lat="41.52100150590244" lon="13.056677444310042"><ele>362.0</ele><time>2026-03-22T11:43:09.999Z</time></trkpt><trkpt lat="41.521075119737645" lon="13.056575006806217"><ele>362.0</ele><time>2026-03-22T11:43:10.999Z</time></trkpt><trkpt lat="41.52115285191929" lon="13.056477941461562"><ele>362.0</ele><time>2026-03-22T11:43:11.999Z</time></trkpt><trkpt lat="41.52123154507687" lon="13.05637091524057"><ele>364.1666666666667</ele><time>2026-03-22T11:43:12.999Z</time></trkpt><trkpt lat="41.5213037856081" lon="13.056269045835013"><ele>366.33333333333337</ele><time>2026-03-22T11:43:13.999Z</time></trkpt><trkpt lat="41.521372496141886" lon="13.056158194976588"><ele>368.5</ele><time>2026-03-22T11:43:14.999Z</time></trkpt><trkpt lat="41.5214178655875" lon="13.056080998649458"><ele>370.6666666666667</ele><time>2026-03-22T11:43:15.999Z</time></trkpt><trkpt lat="41.52146792361283" lon="13.056007660471797"><ele>372.8333333333333</ele><time>2026-03-22T11:43:16.999Z</time></trkpt><trkpt lat="41.52152146970784" lon="13.05593268204866"><ele>375.0</ele><time>2026-03-22T11:43:17.999Z</time></trkpt><trkpt lat="41.52159160232043" lon="13.055848332099004"><ele>378.8</ele><time>2026-03-22T11:43:18.999Z</time></trkpt><trkpt lat="41.521666693588685" lon="13.055772589376415"><ele>382.6</ele><time>2026-03-22T11:43:19.999Z</time></trkpt><trkpt lat="41.5217553045954" lon="13.055701190415894"><ele>386.4</ele><time>2026-03-22T11:43:20.999Z</time></trkpt><trkpt lat="41.521843022873654" lon="13.055625552372284"><ele>390.2</ele><time>2026-03-22T11:43:21.999Z</time></trkpt><trkpt lat="41.521924514269905" lon="13.055545859292247"><ele>394.0</ele><time>2026-03-22T11:43:22.999Z</time></trkpt><trkpt lat="41.52200242437532" lon="13.055472921305597"><ele>393.4</ele><time>2026-03-22T11:43:23.999Z</time></trkpt><trkpt lat="41.522092721417124" lon="13.055426225202671"><ele>392.79999999999995</ele><time>2026-03-22T11:43:24.999Z</time></trkpt><trkpt lat="41.52218429513811" lon="13.055366311484741"><ele>392.20000000000005</ele><time>2026-03-22T11:43:25.999Z</time></trkpt><trkpt lat="41.52227347320359" lon="13.055326528710227"><ele>391.6</ele><time>2026-03-22T11:43:26.999Z</time></trkpt><trkpt lat="41.52236735915854" lon="13.05529597042316"><ele>391.0</ele><time>2026-03-22T11:43:27.999Z</time></trkpt><trkpt lat="41.522477826762696" lon="13.055258205426448"><ele>391.0</ele><time>2026-03-22T11:43:28.999Z</time></trkpt><trkpt lat="41.522583734444645" lon="13.05521183088096"><ele>391.0</ele><time>2026-03-22T11:43:29.999Z</time></trkpt><trkpt lat="41.52268732509119" lon="13.055147205371846"><ele>391.0</ele><time>2026-03-22T11:43:30.999Z</time></trkpt><trkpt lat="41.52277740447907" lon="13.055076647609713"><ele>391.0</ele><time>2026-03-22T11:43:31.999Z</time></trkpt><trkpt lat="41.5228405555146" lon="13.055005453154491"><ele>391.0</ele><time>2026-03-22T11:43:32.999Z</time></trkpt><trkpt lat="41.5229040092609" lon="13.054937465492193"><ele>391.0</ele><time>2026-03-22T11:43:34.999Z</time></trkpt><trkpt lat="41.5229976093711" lon="13.054886371066733"><ele>391.0</ele><time>2026-03-22T11:43:57.998Z</time></trkpt><trkpt lat="41.52306653615935" lon="13.054821391642529"><ele>391.0</ele><time>2026-03-22T11:43:58.998Z</time></trkpt><trkpt lat="41.52315098335729" lon="13.054747217782134"><ele>391.0</ele><time>2026-03-22T11:43:59.998Z</time></trkpt><trkpt lat="41.52323935825794" lon="13.05466525266724"><ele>391.0</ele><time>2026-03-22T11:44:00.998Z</time></trkpt><trkpt lat="41.5233290603712" lon="13.05458947662962"><ele>391.0</ele><time>2026-03-22T11:44:01.998Z</time></trkpt><trkpt lat="41.5234191278456" lon="13.054519913086574"><ele>391.0</ele><time>2026-03-22T11:44:02.998Z</time></trkpt><trkpt lat="41.52351074765847" lon="13.054471438307793"><ele>391.0</ele><time>2026-03-22T11:44:03.998Z</time></trkpt><trkpt lat="41.52359445820558" lon="13.054409700750213"><ele>391.0</ele><time>2026-03-22T11:44:04.998Z</time></trkpt><trkpt lat="41.52368293287162" lon="13.05434443555688"><ele>391.0</ele><time>2026-03-22T11:44:05.998Z</time></trkpt><trkpt lat="41.52374792518998" lon="13.054235616694077"><ele>390.4</ele><time>2026-03-22T11:44:06.998Z</time></trkpt><trkpt lat="41.52383527366477" lon="13.054165469592638"><ele>389.8</ele><time>2026-03-22T11:44:07.998Z</time></trkpt><trkpt lat="41.523922481337465" lon="13.054108659936691"><ele>389.2</ele><time>2026-03-22T11:44:08.998Z</time></trkpt><trkpt lat="41.52400299884218" lon="13.054060029041285"><ele>388.59999999999997</ele><time>2026-03-22T11:44:09.998Z</time></trkpt><trkpt lat="41.5240898393225" lon="13.054022625843697"><ele>388.0</ele><time>2026-03-22T11:44:10.998Z</time></trkpt><trkpt lat="41.52417693017404" lon="13.053983900117982"><ele>388.00000000000006</ele><time>2026-03-22T11:44:11.998Z</time></trkpt><trkpt lat="41.52426294580845" lon="13.053930886317472"><ele>388.0</ele><time>2026-03-22T11:44:12.998Z</time></trkpt><trkpt lat="41.5243423680919" lon="13.05387958588272"><ele>388.0</ele><time>2026-03-22T11:44:13.998Z</time></trkpt><trkpt lat="41.52440456352641" lon="13.053834806176319"><ele>388.0</ele><time>2026-03-22T11:44:14.998Z</time></trkpt><trkpt lat="41.524486850660324" lon="13.05375936317009"><ele>388.00000000000006</ele><time>2026-03-22T11:44:16.998Z</time></trkpt><trkpt lat="41.52453764340352" lon="13.053654919643995"><ele>388.0</ele><time>2026-03-22T11:44:18.998Z</time></trkpt><trkpt lat="41.52455691544234" lon="13.053523650670638"><ele>388.00000000000006</ele><time>2026-03-22T11:44:20.998Z</time></trkpt><trkpt lat="41.524550757508784" lon="13.053413750678596"><ele>388.0</ele><time>2026-03-22T11:44:22.998Z</time></trkpt><trkpt lat="41.52455822964185" lon="13.053305304711975"><ele>388.0</ele><time>2026-03-22T11:44:24.998Z</time></trkpt><trkpt lat="41.52452421482079" lon="13.053189479798815"><ele>388.0</ele><time>2026-03-22T11:44:26.998Z</time></trkpt><trkpt lat="41.524467323503345" lon="13.053070900120487"><ele>388.00000000000006</ele><time>2026-03-22T11:44:28.998Z</time></trkpt><trkpt lat="41.52442828358028" lon="13.053003342009486"><ele>388.0</ele><time>2026-03-22T11:44:30.998Z</time></trkpt><trkpt lat="41.52437053870493" lon="13.052906789465723"><ele>387.85714285714283</ele><time>2026-03-22T11:44:56.999Z</time></trkpt><trkpt lat="41.52433485835542" lon="13.05283487515128"><ele>387.7142857142857</ele><time>2026-03-22T11:44:58.999Z</time></trkpt><trkpt lat="41.524300829130425" lon="13.05276159656091"><ele>387.57142857142856</ele><time>2026-03-22T11:45:00.999Z</time></trkpt><trkpt lat="41.5242535397658" lon="13.052685189448518"><ele>387.42857142857144</ele><time>2026-03-22T11:45:04.999Z</time></trkpt><trkpt lat="41.52422165640489" lon="13.052608277616057"><ele>387.28571428571433</ele><time>2026-03-22T11:45:07.999Z</time></trkpt><trkpt lat="41.52420495216102" lon="13.052508526132295"><ele>387.14285714285717</ele><time>2026-03-22T11:45:10.999Z</time></trkpt><trkpt lat="41.524173209863754" lon="13.052418850225203"><ele>387.0</ele><time>2026-03-22T11:45:13.999Z</time></trkpt><trkpt lat="41.52412411716135" lon="13.052355098023423"><ele>388.5</ele><time>2026-03-22T11:45:15.999Z</time></trkpt><trkpt lat="41.524112895783794" lon="13.052271544035712"><ele>390.0</ele><time>2026-03-22T11:45:17.999Z</time></trkpt><trkpt lat="41.5241418563958" lon="13.052193126219088"><ele>391.5</ele><time>2026-03-22T11:45:19.999Z</time></trkpt><trkpt lat="41.524189437344404" lon="13.0521289393175"><ele>393.0</ele><time>2026-03-22T11:45:21.999Z</time></trkpt><trkpt lat="41.52426750200723" lon="13.052034322370208"><ele>394.5</ele><time>2026-03-22T11:45:23.999Z</time></trkpt><trkpt lat="41.524357145765656" lon="13.051958436687332"><ele>396.0</ele><time>2026-03-22T11:45:25.999Z</time></trkpt><trkpt lat="41.52443063796104" lon="13.051910456605523"><ele>396.0</ele><time>2026-03-22T11:45:26.999Z</time></trkpt><trkpt lat="41.524528783703715" lon="13.051884934757457"><ele>396.0</ele><time>2026-03-22T11:45:28.999Z</time></trkpt><trkpt lat="41.52458025464297" lon="13.051831501175638"><ele>396.0</ele><time>2026-03-22T11:45:30.999Z</time></trkpt><trkpt lat="41.524640469899495" lon="13.051784249912032"><ele>396.0</ele><time>2026-03-22T11:45:41.999Z</time></trkpt><trkpt lat="41.5247078514728" lon="13.05171301538364"><ele>396.0</ele><time>2026-03-22T11:46:13.998Z</time></trkpt><trkpt lat="41.52476686108866" lon="13.051652742738863"><ele>396.0</ele><time>2026-03-22T11:46:15.998Z</time></trkpt><trkpt lat="41.52481623240766" lon="13.051589579547851"><ele>396.20000000000005</ele><time>2026-03-22T11:46:17.998Z</time></trkpt><trkpt lat="41.524883828127464" lon="13.051503536576321"><ele>396.40000000000003</ele><time>2026-03-22T11:46:19.998Z</time></trkpt><trkpt lat="41.52494707050911" lon="13.051431524919296"><ele>396.6</ele><time>2026-03-22T11:46:21.998Z</time></trkpt><trkpt lat="41.52500468692351" lon="13.051382311419436"><ele>396.8</ele><time>2026-03-22T11:46:56.999Z</time></trkpt><trkpt lat="41.5251763318722" lon="13.051349714478624"><ele>397.0</ele><time>2026-03-22T11:47:07.999Z</time></trkpt><trkpt lat="41.525250104021765" lon="13.051319390675024"><ele>391.25</ele><time>2026-03-22T11:47:10.999Z</time></trkpt><trkpt lat="41.52546833445187" lon="13.051323459717683"><ele>385.5</ele><time>2026-03-22T11:47:21.999Z</time></trkpt><trkpt lat="41.525541065462804" lon="13.051355343531469"><ele>379.75</ele><time>2026-03-22T11:47:27.999Z</time></trkpt><trkpt lat="41.525616257762586" lon="13.051415340466338"><ele>374.0</ele><time>2026-03-22T11:47:35.999Z</time></trkpt><trkpt lat="41.5256776186269" lon="13.05146871473793"><ele>374.0</ele><time>2026-03-22T11:47:39.999Z</time></trkpt><trkpt lat="41.525838225681504" lon="13.051427409618917"><ele>374.0</ele><time>2026-03-22T11:47:50.999Z</time></trkpt><trkpt lat="41.52591248370148" lon="13.051437730811179"><ele>374.0</ele><time>2026-03-22T11:47:53.999Z</time></trkpt><trkpt lat="41.525978310275654" lon="13.051467317381846"><ele>374.0</ele><time>2026-03-22T11:47:57.999Z</time></trkpt><trkpt lat="41.52610786926363" lon="13.051467736694487"><ele>374.0</ele><time>2026-03-22T11:49:38.999Z</time></trkpt><trkpt lat="41.52618031784653" lon="13.05150035440578"><ele>372.1666666666667</ele><time>2026-03-22T11:49:44.999Z</time></trkpt><trkpt lat="41.52624951326724" lon="13.05151997015633"><ele>370.33333333333337</ele><time>2026-03-22T11:49:58.999Z</time></trkpt><trkpt lat="41.526314910779575" lon="13.051559107220058"><ele>368.5</ele><time>2026-03-22T11:50:06.998Z</time></trkpt><trkpt lat="41.5263816482524" lon="13.051657281936901"><ele>366.6666666666667</ele><time>2026-03-22T11:50:17.998Z</time></trkpt><trkpt lat="41.5264265184428" lon="13.05171691253292"><ele>364.8333333333333</ele><time>2026-03-22T11:50:37.998Z</time></trkpt><trkpt lat="41.52648268062344" lon="13.051768176882572"><ele>363.0</ele><time>2026-03-22T11:50:52.999Z</time></trkpt><trkpt lat="41.52667342287818" lon="13.051799239129874"><ele>361.6666666666667</ele><time>2026-03-22T11:51:11.999Z</time></trkpt><trkpt lat="41.526735168137485" lon="13.05178157038585"><ele>360.3333333333333</ele><time>2026-03-22T11:51:13.999Z</time></trkpt><trkpt lat="41.52680549655299" lon="13.051800771461235"><ele>359.0</ele><time>2026-03-22T11:51:16.999Z</time></trkpt><trkpt lat="41.52687998672522" lon="13.051799821129961"><ele>357.66666666666663</ele><time>2026-03-22T11:51:20Z</time></trkpt><trkpt lat="41.52696689512989" lon="13.051874577596978"><ele>356.3333333333333</ele><time>2026-03-22T11:51:47Z</time></trkpt><trkpt lat="41.52704295342934" lon="13.05192438688444"><ele>355.0</ele><time>2026-03-22T11:51:49Z</time></trkpt><trkpt lat="41.5271285121787" lon="13.051993380212844"><ele>353.66666666666663</ele><time>2026-03-22T11:51:51Z</time></trkpt><trkpt lat="41.52722924501836" lon="13.052076170169869"><ele>352.3333333333333</ele><time>2026-03-22T11:51:53Z</time></trkpt><trkpt lat="41.52727970245952" lon="13.05213873205192"><ele>351.0</ele><time>2026-03-22T11:51:54Z</time></trkpt><trkpt lat="41.52732401696755" lon="13.052200961232343"><ele>349.6666666666667</ele><time>2026-03-22T11:51:55Z</time></trkpt><trkpt lat="41.527375814082774" lon="13.05227050555284"><ele>348.33333333333337</ele><time>2026-03-22T11:51:56Z</time></trkpt><trkpt lat="41.52743160405797" lon="13.052345159645489"><ele>347.0</ele><time>2026-03-22T11:51:57Z</time></trkpt><trkpt lat="41.52748394747309" lon="13.052409038850355"><ele>346.5</ele><time>2026-03-22T11:51:58Z</time></trkpt><trkpt lat="41.527532151508495" lon="13.052473717852891"><ele>346.0</ele><time>2026-03-22T11:51:59Z</time></trkpt><trkpt lat="41.52758357643416" lon="13.052569441701609"><ele>345.5</ele><time>2026-03-22T11:52:00Z</time></trkpt><trkpt lat="41.5275855247021" lon="13.052677671805567"><ele>345.0</ele><time>2026-03-22T11:52:01Z</time></trkpt><trkpt lat="41.5275982905165" lon="13.052799365039691"><ele>344.5</ele><time>2026-03-22T11:52:02Z</time></trkpt><trkpt lat="41.52760588775759" lon="13.052892103302653"><ele>344.0</ele><time>2026-03-22T11:52:03Z</time></trkpt><trkpt lat="41.527639070817784" lon="13.053031771217915"><ele>344.0</ele><time>2026-03-22T11:52:04Z</time></trkpt><trkpt lat="41.52765822136627" lon="13.053155482049805"><ele>344.0</ele><time>2026-03-22T11:52:05Z</time></trkpt><trkpt lat="41.5276682911946" lon="13.053271350138106"><ele>344.0</ele><time>2026-03-22T11:52:06Z</time></trkpt><trkpt lat="41.527671866799025" lon="13.053388452550676"><ele>344.0</ele><time>2026-03-22T11:52:07Z</time></trkpt><trkpt lat="41.5276712232059" lon="13.053501088040294"><ele>344.0</ele><time>2026-03-22T11:52:09Z</time></trkpt><trkpt lat="41.52766498067988" lon="13.053600399157121"><ele>344.0</ele><time>2026-03-22T11:52:13.999Z</time></trkpt><trkpt lat="41.52768901393942" lon="13.05368514434987"><ele>343.83333333333337</ele><time>2026-03-22T11:52:16.999Z</time></trkpt><trkpt lat="41.527733923324966" lon="13.053759693640732"><ele>343.6666666666667</ele><time>2026-03-22T11:52:19.999Z</time></trkpt><trkpt lat="41.52782080940644" lon="13.053728270368515"><ele>343.5</ele><time>2026-03-22T11:52:37.999Z</time></trkpt><trkpt lat="41.527810429505735" lon="13.053624833121294"><ele>343.3333333333333</ele><time>2026-03-22T11:52:40.999Z</time></trkpt><trkpt lat="41.527798065965975" lon="13.053515360970943"><ele>343.16666666666663</ele><time>2026-03-22T11:52:43.999Z</time></trkpt><trkpt lat="41.52778705347781" lon="13.053390567859584"><ele>343.0</ele><time>2026-03-22T11:52:46.999Z</time></trkpt><trkpt lat="41.52776983839121" lon="13.053302831092969"><ele>343.2</ele><time>2026-03-22T11:52:48.999Z</time></trkpt><trkpt lat="41.527773022269116" lon="13.053156012572677"><ele>343.4</ele><time>2026-03-22T11:52:51.999Z</time></trkpt><trkpt lat="41.52777831634728" lon="13.053042578070162"><ele>343.59999999999997</ele><time>2026-03-22T11:52:53.999Z</time></trkpt><trkpt lat="41.52777766768935" lon="13.052906053815905"><ele>343.79999999999995</ele><time>2026-03-22T11:52:55.999Z</time></trkpt><trkpt lat="41.52779579051682" lon="13.052775757858067"><ele>344.0</ele><time>2026-03-22T11:52:58Z</time></trkpt><trkpt lat="41.52781018308917" lon="13.052662371344674"><ele>344.0</ele><time>2026-03-22T11:53:00Z</time></trkpt><trkpt lat="41.527848215656284" lon="13.052567289160264"><ele>344.0</ele><time>2026-03-22T11:53:02Z</time></trkpt><trkpt lat="41.52788103533423" lon="13.052453830869085"><ele>344.0</ele><time>2026-03-22T11:53:04Z</time></trkpt><trkpt lat="41.52791322353988" lon="13.052347392420426"><ele>344.0</ele><time>2026-03-22T11:53:06Z</time></trkpt><trkpt lat="41.52796109411519" lon="13.052220832389333"><ele>344.0</ele><time>2026-03-22T11:53:08Z</time></trkpt><trkpt lat="41.527987216399374" lon="13.052094753788404"><ele>345.1666666666667</ele><time>2026-03-22T11:53:10Z</time></trkpt><trkpt lat="41.52804961566767" lon="13.051982288705359"><ele>346.33333333333337</ele><time>2026-03-22T11:53:13Z</time></trkpt><trkpt lat="41.52810988279313" lon="13.051905389643998"><ele>347.5</ele><time>2026-03-22T11:53:15Z</time></trkpt><trkpt lat="41.528165115887624" lon="13.051857251187954"><ele>348.6666666666667</ele><time>2026-03-22T11:53:33Z</time></trkpt><trkpt lat="41.52821883644524" lon="13.051783893547073"><ele>349.8333333333333</ele><time>2026-03-22T11:53:38Z</time></trkpt><trkpt lat="41.5282833125136" lon="13.051698620196369"><ele>351.0</ele><time>2026-03-22T11:53:41Z</time></trkpt><trkpt lat="41.528346681520716" lon="13.051647566564554"><ele>351.3333333333333</ele><time>2026-03-22T11:53:44Z</time></trkpt><trkpt lat="41.52842649744994" lon="13.051606190932473"><ele>351.6666666666667</ele><time>2026-03-22T11:53:46Z</time></trkpt><trkpt lat="41.52850997150211" lon="13.051538504413564"><ele>352.0</ele><time>2026-03-22T11:53:49Z</time></trkpt><trkpt lat="41.52857556758111" lon="13.051484859050989"><ele>352.33333333333337</ele><time>2026-03-22T11:53:51Z</time></trkpt><trkpt lat="41.528639623658485" lon="13.051423240246729"><ele>352.6666666666667</ele><time>2026-03-22T11:53:53Z</time></trkpt><trkpt lat="41.52871114847929" lon="13.05134334660811"><ele>353.0</ele><time>2026-03-22T11:53:55Z</time></trkpt><trkpt lat="41.528766805059256" lon="13.051291986918486"><ele>353.6666666666667</ele><time>2026-03-22T11:53:57Z</time></trkpt><trkpt lat="41.52884431430386" lon="13.051258288844272"><ele>354.33333333333337</ele><time>2026-03-22T11:53:59Z</time></trkpt><trkpt lat="41.52890481364393" lon="13.05121181730436"><ele>355.0</ele><time>2026-03-22T11:54:01Z</time></trkpt><trkpt lat="41.529006699061796" lon="13.051168916208686"><ele>355.6666666666667</ele><time>2026-03-22T11:54:04Z</time></trkpt><trkpt lat="41.529081080575054" lon="13.051093538772607"><ele>356.3333333333333</ele><time>2026-03-22T11:54:06Z</time></trkpt><trkpt lat="41.5291466607318" lon="13.05100362766058"><ele>357.0</ele><time>2026-03-22T11:54:08Z</time></trkpt><trkpt lat="41.52922624000916" lon="13.050958073721084"><ele>357.0</ele><time>2026-03-22T11:54:10Z</time></trkpt><trkpt lat="41.529323107233886" lon="13.050901726681257"><ele>357.0</ele><time>2026-03-22T11:54:12Z</time></trkpt><trkpt lat="41.52941779945902" lon="13.050829930138024"><ele>357.0</ele><time>2026-03-22T11:54:14Z</time></trkpt><trkpt lat="41.52951390519184" lon="13.050790776804721"><ele>357.0</ele><time>2026-03-22T11:54:16Z</time></trkpt><trkpt lat="41.52960601384792" lon="13.050722979822568"><ele>357.0</ele><time>2026-03-22T11:54:18Z</time></trkpt><trkpt lat="41.529699137361746" lon="13.05067239479589"><ele>357.40000000000003</ele><time>2026-03-22T11:54:20Z</time></trkpt><trkpt lat="41.52978495534141" lon="13.050655308213036"><ele>357.8</ele><time>2026-03-22T11:54:22Z</time></trkpt><trkpt lat="41.52991510810327" lon="13.050675067907052"><ele>358.2</ele><time>2026-03-22T11:54:24Z</time></trkpt><trkpt lat="41.53000260098388" lon="13.050681329198163"><ele>358.6</ele><time>2026-03-22T11:54:25.999Z</time></trkpt><trkpt lat="41.53008144627993" lon="13.050638622903456"><ele>359.0</ele><time>2026-03-22T11:54:28.999Z</time></trkpt><trkpt lat="41.53024013503549" lon="13.05062711054599"><ele>359.0</ele><time>2026-03-22T11:54:41.999Z</time></trkpt><trkpt lat="41.53034500335096" lon="13.050626459386717"><ele>359.0</ele><time>2026-03-22T11:54:43.999Z</time></trkpt><trkpt lat="41.530457157977615" lon="13.050613844235736"><ele>359.0</ele><time>2026-03-22T11:54:45.999Z</time></trkpt><trkpt lat="41.530518978290885" lon="13.050580470232386"><ele>359.0</ele><time>2026-03-22T11:54:47.999Z</time></trkpt><trkpt lat="41.53068071008531" lon="13.050578468718834"><ele>359.0</ele><time>2026-03-22T11:54:51.999Z</time></trkpt><trkpt lat="41.53076681128576" lon="13.050567259768451"><ele>359.0</ele><time>2026-03-22T11:54:53.999Z</time></trkpt><trkpt lat="41.53087307171237" lon="13.050571195145604"><ele>359.0</ele><time>2026-03-22T11:54:55.999Z</time></trkpt><trkpt lat="41.53096541094295" lon="13.050607504846448"><ele>359.0</ele><time>2026-03-22T11:54:57.999Z</time></trkpt><trkpt lat="41.531039438573664" lon="13.050602079605863"><ele>359.0</ele><time>2026-03-22T11:54:58.999Z</time></trkpt><trkpt lat="41.53113291085736" lon="13.050570273387986"><ele>359.0</ele><time>2026-03-22T11:55:00.999Z</time></trkpt><trkpt lat="41.53124076645605" lon="13.050539542046014"><ele>359.0</ele><time>2026-03-22T11:55:05Z</time></trkpt><trkpt lat="41.53131360748127" lon="13.05047562876002"><ele>359.0</ele><time>2026-03-22T11:55:07Z</time></trkpt><trkpt lat="41.53141199767108" lon="13.050408845255612"><ele>359.0</ele><time>2026-03-22T11:55:09Z</time></trkpt><trkpt lat="41.53160279243386" lon="13.050390107915879"><ele>359.0</ele><time>2026-03-22T11:55:14Z</time></trkpt><trkpt lat="41.53186776324741" lon="13.050422287824007"><ele>359.0</ele><time>2026-03-22T11:55:19Z</time></trkpt><trkpt lat="41.53196222670167" lon="13.050433959304844"><ele>359.0</ele><time>2026-03-22T11:55:20Z</time></trkpt><trkpt lat="41.53203526162115" lon="13.050440136695403"><ele>359.0</ele><time>2026-03-22T11:55:21Z</time></trkpt><trkpt lat="41.53209488972962" lon="13.05041187160101"><ele>359.0</ele><time>2026-03-22T11:55:22Z</time></trkpt><trkpt lat="41.532156855509996" lon="13.050362618669075"><ele>359.0</ele><time>2026-03-22T11:55:23Z</time></trkpt><trkpt lat="41.53223315160355" lon="13.050313505318021"><ele>359.0</ele><time>2026-03-22T11:55:24Z</time></trkpt><trkpt lat="41.53232351326424" lon="13.050280708163895"><ele>360.1666666666667</ele><time>2026-03-22T11:55:25Z</time></trkpt><trkpt lat="41.5324130996434" lon="13.050254868066014"><ele>361.33333333333337</ele><time>2026-03-22T11:55:26Z</time></trkpt><trkpt lat="41.53248382193204" lon="13.050217890164767"><ele>362.5</ele><time>2026-03-22T11:55:27Z</time></trkpt><trkpt lat="41.532542485722956" lon="13.050166983349262"><ele>363.6666666666667</ele><time>2026-03-22T11:55:28Z</time></trkpt><trkpt lat="41.53259270664208" lon="13.050115870133357"><ele>364.8333333333333</ele><time>2026-03-22T11:55:29Z</time></trkpt><trkpt lat="41.53265261019065" lon="13.050043598186136"><ele>366.0</ele><time>2026-03-22T11:55:30Z</time></trkpt><trkpt lat="41.53271160607965" lon="13.049948591481506"><ele>366.8333333333333</ele><time>2026-03-22T11:55:31Z</time></trkpt><trkpt lat="41.532751315899155" lon="13.049842099521923"><ele>367.6666666666667</ele><time>2026-03-22T11:55:32Z</time></trkpt><trkpt lat="41.532782265293044" lon="13.049758746390975"><ele>368.5</ele><time>2026-03-22T11:55:33Z</time></trkpt><trkpt lat="41.53279336461966" lon="13.049669649647598"><ele>369.33333333333337</ele><time>2026-03-22T11:55:34Z</time></trkpt><trkpt lat="41.532783957890054" lon="13.049575258169094"><ele>370.1666666666667</ele><time>2026-03-22T11:55:35Z</time></trkpt><trkpt lat="41.532804754074434" lon="13.0494628230571"><ele>371.0</ele><time>2026-03-22T11:55:37Z</time></trkpt><trkpt lat="41.53290439536227" lon="13.049480993892054"><ele>373.4</ele><time>2026-03-22T11:55:39Z</time></trkpt><trkpt lat="41.53300791664839" lon="13.049522755911914"><ele>375.8</ele><time>2026-03-22T11:55:40Z</time></trkpt><trkpt lat="41.53309767799176" lon="13.049556732561845"><ele>378.2</ele><time>2026-03-22T11:55:41Z</time></trkpt><trkpt lat="41.533159811254606" lon="13.049615220096683"><ele>380.59999999999997</ele><time>2026-03-22T11:55:42Z</time></trkpt><trkpt lat="41.533213426918564" lon="13.049698318177267"><ele>383.0</ele><time>2026-03-22T11:55:44Z</time></trkpt><trkpt lat="41.533245037608395" lon="13.049845811974194"><ele>383.0</ele><time>2026-03-22T11:55:46Z</time></trkpt><trkpt lat="41.53325391167668" lon="13.049940427819921"><ele>383.0</ele><time>2026-03-22T11:55:47Z</time></trkpt><trkpt lat="41.533294197995744" lon="13.050016555221285"><ele>383.0</ele><time>2026-03-22T11:55:48Z</time></trkpt><trkpt lat="41.53337615469072" lon="13.050080303550923"><ele>383.0</ele><time>2026-03-22T11:55:49Z</time></trkpt><trkpt lat="41.53348293553465" lon="13.050152765070745"><ele>383.0</ele><time>2026-03-22T11:55:50Z</time></trkpt><trkpt lat="41.53359338852509" lon="13.050225953962144"><ele>383.5</ele><time>2026-03-22T11:55:51Z</time></trkpt><trkpt lat="41.53366351075646" lon="13.0502862981195"><ele>384.0</ele><time>2026-03-22T11:55:52Z</time></trkpt><trkpt lat="41.53369900134978" lon="13.050362473848606"><ele>384.5</ele><time>2026-03-22T11:55:53Z</time></trkpt><trkpt lat="41.53366715834529" lon="13.05043599321029"><ele>385.0</ele><time>2026-03-22T11:55:54Z</time></trkpt><trkpt lat="41.53366943873113" lon="13.050566562309802"><ele>385.49999999999994</ele><time>2026-03-22T11:55:55Z</time></trkpt><trkpt lat="41.533700946916746" lon="13.05071835236328"><ele>386.0</ele><time>2026-03-22T11:55:56Z</time></trkpt><trkpt lat="41.533739413667185" lon="13.050849573201068"><ele>386.0</ele><time>2026-03-22T11:55:57Z</time></trkpt><trkpt lat="41.533794920815545" lon="13.050954014935781"><ele>386.0</ele><time>2026-03-22T11:55:58Z</time></trkpt><trkpt lat="41.533833541146855" lon="13.05107363441884"><ele>386.0</ele><time>2026-03-22T11:55:59Z</time></trkpt><trkpt lat="41.53389586982104" lon="13.051189590554289"><ele>386.0</ele><time>2026-03-22T11:56:00Z</time></trkpt><trkpt lat="41.53396012364008" lon="13.051266075471174"><ele>386.0</ele><time>2026-03-22T11:56:01Z</time></trkpt><trkpt lat="41.5339983643924" lon="13.051348694721868"><ele>385.99999999999994</ele><time>2026-03-22T11:56:02Z</time></trkpt><trkpt lat="41.53403671243599" lon="13.051438927537271"><ele>386.0</ele><time>2026-03-22T11:56:03Z</time></trkpt><trkpt lat="41.53406861506357" lon="13.051523617044747"><ele>386.0</ele><time>2026-03-22T11:56:04Z</time></trkpt><trkpt lat="41.534082234422016" lon="13.051616926594084"><ele>386.0</ele><time>2026-03-22T11:56:05Z</time></trkpt><trkpt lat="41.53407779081246" lon="13.051718525220677"><ele>385.99999999999994</ele><time>2026-03-22T11:56:06Z</time></trkpt><trkpt lat="41.534073805932806" lon="13.051825315461011"><ele>386.0</ele><time>2026-03-22T11:56:07Z</time></trkpt><trkpt lat="41.53407015410701" lon="13.051929176276813"><ele>385.0</ele><time>2026-03-22T11:56:08Z</time></trkpt><trkpt lat="41.5340612915941" lon="13.052059775241313"><ele>384.0</ele><time>2026-03-22T11:56:09Z</time></trkpt><trkpt lat="41.534040660936" lon="13.052186496486593"><ele>383.0</ele><time>2026-03-22T11:56:10Z</time></trkpt><trkpt lat="41.53402381870981" lon="13.052290150495926"><ele>382.0</ele><time>2026-03-22T11:56:11Z</time></trkpt><trkpt lat="41.53402491851787" lon="13.052400266879856"><ele>381.0</ele><time>2026-03-22T11:56:12Z</time></trkpt><trkpt lat="41.53392245635838" lon="13.052572896163097"><ele>379.8</ele><time>2026-03-22T11:56:13Z</time></trkpt><trkpt lat="41.53395178265993" lon="13.052742453941708"><ele>378.6</ele><time>2026-03-22T11:56:14Z</time></trkpt><trkpt lat="41.53398536856748" lon="13.052925100372109"><ele>377.4</ele><time>2026-03-22T11:56:15Z</time></trkpt><trkpt lat="41.53400418307193" lon="13.05305525246439"><ele>376.2</ele><time>2026-03-22T11:56:16Z</time></trkpt><trkpt lat="41.534005543961214" lon="13.05315535924279"><ele>375.0</ele><time>2026-03-22T11:56:17Z</time></trkpt><trkpt lat="41.53400762701235" lon="13.053277972132024"><ele>376.5</ele><time>2026-03-22T11:56:19Z</time></trkpt><trkpt lat="41.53401699584451" lon="13.053395915929354"><ele>378.0</ele><time>2026-03-22T11:56:35.999Z</time></trkpt><trkpt lat="41.53404867900582" lon="13.053471013998214"><ele>379.5</ele><time>2026-03-22T11:56:38.999Z</time></trkpt><trkpt lat="41.53407189254485" lon="13.053596300813483"><ele>381.0</ele><time>2026-03-22T11:56:40.999Z</time></trkpt><trkpt lat="41.53402948620439" lon="13.053746383955666"><ele>382.5</ele><time>2026-03-22T11:56:42.999Z</time></trkpt><trkpt lat="41.53401240991074" lon="13.053836586959523"><ele>384.0</ele><time>2026-03-22T11:56:43.999Z</time></trkpt><trkpt lat="41.53400406948211" lon="13.053931124187095"><ele>383.99999999999994</ele><time>2026-03-22T11:56:44.999Z</time></trkpt><trkpt lat="41.534004256649375" lon="13.054028510467658"><ele>384.0</ele><time>2026-03-22T11:56:45.999Z</time></trkpt><trkpt lat="41.534009395758495" lon="13.054118561650192"><ele>384.0</ele><time>2026-03-22T11:56:46.999Z</time></trkpt><trkpt lat="41.53401995917264" lon="13.05420809723161"><ele>384.0</ele><time>2026-03-22T11:56:47.999Z</time></trkpt><trkpt lat="41.534036685165844" lon="13.054298554559097"><ele>384.0</ele><time>2026-03-22T11:56:48.999Z</time></trkpt><trkpt lat="41.53406480715089" lon="13.05438702331424"><ele>383.99999999999994</ele><time>2026-03-22T11:56:49.999Z</time></trkpt><trkpt lat="41.53412931646421" lon="13.054449608564472"><ele>384.0</ele><time>2026-03-22T11:56:50.999Z</time></trkpt><trkpt lat="41.53416282054921" lon="13.05453020779925"><ele>385.0</ele><time>2026-03-22T11:56:51.999Z</time></trkpt><trkpt lat="41.53419987404582" lon="13.054600443428214"><ele>386.0</ele><time>2026-03-22T11:56:52.999Z</time></trkpt><trkpt lat="41.53427518081215" lon="13.05472889405678"><ele>387.0</ele><time>2026-03-22T11:56:54.999Z</time></trkpt><trkpt lat="41.534316485004155" lon="13.05482008320033"><ele>388.0</ele><time>2026-03-22T11:56:55.999Z</time></trkpt><trkpt lat="41.53436978250885" lon="13.054921127271097"><ele>389.0</ele><time>2026-03-22T11:56:56.999Z</time></trkpt><trkpt lat="41.534431517261716" lon="13.055029623451055"><ele>389.0</ele><time>2026-03-22T11:56:57.999Z</time></trkpt><trkpt lat="41.53450417256809" lon="13.055171294808522"><ele>389.0</ele><time>2026-03-22T11:56:58.999Z</time></trkpt><trkpt lat="41.53454356264814" lon="13.055286203850143"><ele>389.0</ele><time>2026-03-22T11:56:59.999Z</time></trkpt><trkpt lat="41.53460060650488" lon="13.055421220415747"><ele>389.0</ele><time>2026-03-22T11:57:00.999Z</time></trkpt><trkpt lat="41.53464530618173" lon="13.055553893340186"><ele>389.0</ele><time>2026-03-22T11:57:01.999Z</time></trkpt><trkpt lat="41.53468106951658" lon="13.055683650586374"><ele>389.79999999999995</ele><time>2026-03-22T11:57:02.999Z</time></trkpt><trkpt lat="41.53471833465871" lon="13.055797607652355"><ele>390.59999999999997</ele><time>2026-03-22T11:57:03.999Z</time></trkpt><trkpt lat="41.53475108771008" lon="13.05591499636511"><ele>391.4</ele><time>2026-03-22T11:57:04.999Z</time></trkpt><trkpt lat="41.534737454926265" lon="13.056079937832617"><ele>392.2</ele><time>2026-03-22T11:57:05.999Z</time></trkpt><trkpt lat="41.53479538129542" lon="13.056224158060795"><ele>393.0</ele><time>2026-03-22T11:57:06.999Z</time></trkpt><trkpt lat="41.53485791162541" lon="13.056362531732862"><ele>393.0</ele><time>2026-03-22T11:57:07.999Z</time></trkpt><trkpt lat="41.53492288500842" lon="13.056495675484603"><ele>393.0</ele><time>2026-03-22T11:57:09Z</time></trkpt><trkpt lat="41.534985347428616" lon="13.056616888038079"><ele>393.0</ele><time>2026-03-22T11:57:10Z</time></trkpt><trkpt lat="41.535043620585206" lon="13.056728793910038"><ele>393.0</ele><time>2026-03-22T11:57:11Z</time></trkpt><trkpt lat="41.53510279478604" lon="13.056840602769906"><ele>393.0</ele><time>2026-03-22T11:57:12Z</time></trkpt><trkpt lat="41.5351652233051" lon="13.056951754057986"><ele>394.0</ele><time>2026-03-22T11:57:13Z</time></trkpt><trkpt lat="41.5352463391241" lon="13.057057791582459"><ele>395.0</ele><time>2026-03-22T11:57:14Z</time></trkpt><trkpt lat="41.535321425959886" lon="13.057177905000513"><ele>396.0</ele><time>2026-03-22T11:57:15Z</time></trkpt><trkpt lat="41.535410169334966" lon="13.057290770740586"><ele>397.0</ele><time>2026-03-22T11:57:16Z</time></trkpt><trkpt lat="41.535509310505326" lon="13.057402127724965"><ele>399.25</ele><time>2026-03-22T11:57:17Z</time></trkpt><trkpt lat="41.535607977756676" lon="13.057518071842617"><ele>401.5</ele><time>2026-03-22T11:57:18Z</time></trkpt><trkpt lat="41.535697900622196" lon="13.057637378590794"><ele>403.75</ele><time>2026-03-22T11:57:19Z</time></trkpt><trkpt lat="41.53578492214048" lon="13.057742638901276"><ele>406.0</ele><time>2026-03-22T11:57:20Z</time></trkpt><trkpt lat="41.53585967266731" lon="13.05783168357319"><ele>406.00000000000006</ele><time>2026-03-22T11:57:21Z</time></trkpt><trkpt lat="41.535922335636634" lon="13.057912091696776"><ele>406.0</ele><time>2026-03-22T11:57:22Z</time></trkpt><trkpt lat="41.535978403569736" lon="13.057982871633316"><ele>406.0</ele><time>2026-03-22T11:57:23Z</time></trkpt><trkpt lat="41.53602360636936" lon="13.05805104588703"><ele>406.0</ele><time>2026-03-22T11:57:24Z</time></trkpt><trkpt lat="41.53606311773957" lon="13.058152497878059"><ele>406.00000000000006</ele><time>2026-03-22T11:57:26Z</time></trkpt><trkpt lat="41.536097681985396" lon="13.058235276606627"><ele>406.0</ele><time>2026-03-22T11:57:32Z</time></trkpt><trkpt lat="41.536272670032474" lon="13.05806134323134"><ele>408.0</ele><time>2026-03-22T11:57:35Z</time></trkpt><trkpt lat="41.53628675202936" lon="13.05796946596492"><ele>410.0</ele><time>2026-03-22T11:57:36Z</time></trkpt><trkpt lat="41.53630718307147" lon="13.057833020224106"><ele>412.0</ele><time>2026-03-22T11:57:38Z</time></trkpt><trkpt lat="41.536324075120575" lon="13.057693907737699"><ele>414.0</ele><time>2026-03-22T11:57:40Z</time></trkpt><trkpt lat="41.5363676060124" lon="13.057594362165467"><ele>416.0</ele><time>2026-03-22T11:57:42Z</time></trkpt><trkpt lat="41.53645111815912" lon="13.057559588409047"><ele>416.0</ele><time>2026-03-22T11:57:45Z</time></trkpt><trkpt lat="41.536542589448246" lon="13.057656982019216"><ele>416.0</ele><time>2026-03-22T11:57:47Z</time></trkpt><trkpt lat="41.536606469418025" lon="13.057734319253484"><ele>416.0</ele><time>2026-03-22T11:57:48Z</time></trkpt><trkpt lat="41.53667896554888" lon="13.057818677766466"><ele>416.0</ele><time>2026-03-22T11:57:49Z</time></trkpt><trkpt lat="41.536744179306346" lon="13.057884280997376"><ele>416.0</ele><time>2026-03-22T11:57:50Z</time></trkpt><trkpt lat="41.53680967010249" lon="13.057945360208002"><ele>415.99999999999994</ele><time>2026-03-22T11:57:51Z</time></trkpt><trkpt lat="41.53687336811384" lon="13.057982934270482"><ele>416.0</ele><time>2026-03-22T11:57:52Z</time></trkpt><trkpt lat="41.53693886149255" lon="13.058027445112165"><ele>416.0</ele><time>2026-03-22T11:57:53Z</time></trkpt><trkpt lat="41.53702418248442" lon="13.058073009606716"><ele>416.0</ele><time>2026-03-22T11:57:55Z</time></trkpt><trkpt lat="41.53708994402019" lon="13.058113017178108"><ele>415.99999999999994</ele><time>2026-03-22T11:57:56Z</time></trkpt><trkpt lat="41.537148698652885" lon="13.058145645630372"><ele>416.0</ele><time>2026-03-22T11:57:57Z</time></trkpt><trkpt lat="41.53724178428099" lon="13.058201312183119"><ele>418.8</ele><time>2026-03-22T11:57:59Z</time></trkpt><trkpt lat="41.53732615937156" lon="13.058258207546043"><ele>421.6</ele><time>2026-03-22T11:58:01Z</time></trkpt><trkpt lat="41.53742039265274" lon="13.058352393204903"><ele>424.4</ele><time>2026-03-22T11:58:03Z</time></trkpt><trkpt lat="41.537515759771324" lon="13.058446200473927"><ele>427.2</ele><time>2026-03-22T11:58:05Z</time></trkpt><trkpt lat="41.53757876668826" lon="13.05846548854598"><ele>430.0</ele><time>2026-03-22T11:58:06Z</time></trkpt><trkpt lat="41.53766155003236" lon="13.058520429043323"><ele>431.2</ele><time>2026-03-22T11:58:07Z</time></trkpt><trkpt lat="41.537734640771475" lon="13.058539735667763"><ele>432.4</ele><time>2026-03-22T11:58:08Z</time></trkpt><trkpt lat="41.53782977169752" lon="13.058571418048928"><ele>433.6</ele><time>2026-03-22T11:58:10Z</time></trkpt><trkpt lat="41.537911765389794" lon="13.058576147829513"><ele>434.8</ele><time>2026-03-22T11:58:13Z</time></trkpt><trkpt lat="41.53805406564176" lon="13.058441160152471"><ele>436.0</ele><time>2026-03-22T11:58:22Z</time></trkpt><trkpt lat="41.53812958617332" lon="13.058344089587074"><ele>436.20000000000005</ele><time>2026-03-22T11:58:24Z</time></trkpt><trkpt lat="41.53819144523731" lon="13.058232509448732"><ele>436.40000000000003</ele><time>2026-03-22T11:58:26Z</time></trkpt><trkpt lat="41.53821712585162" lon="13.05814941262166"><ele>436.6</ele><time>2026-03-22T11:58:27Z</time></trkpt><trkpt lat="41.53831458284303" lon="13.058020710396645"><ele>436.8</ele><time>2026-03-22T11:58:29Z</time></trkpt><trkpt lat="41.538395066090374" lon="13.057942329244515"><ele>437.0</ele><time>2026-03-22T11:58:30Z</time></trkpt><trkpt lat="41.53844486427861" lon="13.057867086022021"><ele>436.99999999999994</ele><time>2026-03-22T11:58:31Z</time></trkpt><trkpt lat="41.53851392031307" lon="13.057818710392512"><ele>437.0</ele><time>2026-03-22T11:58:32Z</time></trkpt><trkpt lat="41.538576997363066" lon="13.057752954042865"><ele>437.0</ele><time>2026-03-22T11:58:32.999Z</time></trkpt><trkpt lat="41.53864151171915" lon="13.057687415990655"><ele>437.0</ele><time>2026-03-22T11:58:33.999Z</time></trkpt><trkpt lat="41.53870823619632" lon="13.057619940397894"><ele>436.99999999999994</ele><time>2026-03-22T11:58:34.999Z</time></trkpt><trkpt lat="41.53875563679941" lon="13.05754606298756"><ele>437.0</ele><time>2026-03-22T11:58:35.999Z</time></trkpt><trkpt lat="41.538767072154975" lon="13.057440566075408"><ele>437.40000000000003</ele><time>2026-03-22T11:58:36.999Z</time></trkpt><trkpt lat="41.53882443338163" lon="13.057307648496902"><ele>437.80000000000007</ele><time>2026-03-22T11:58:37.999Z</time></trkpt><trkpt lat="41.53889132148874" lon="13.057147503689743"><ele>438.2</ele><time>2026-03-22T11:58:38.999Z</time></trkpt><trkpt lat="41.53893551912675" lon="13.057029977748824"><ele>438.6</ele><time>2026-03-22T11:58:39.999Z</time></trkpt><trkpt lat="41.538968742508494" lon="13.05691588043145"><ele>439.0</ele><time>2026-03-22T11:58:40.999Z</time></trkpt><trkpt lat="41.53899969097141" lon="13.05681811159087"><ele>439.0</ele><time>2026-03-22T11:58:41.999Z</time></trkpt><trkpt lat="41.539041933038654" lon="13.056673161255306"><ele>439.0</ele><time>2026-03-22T11:58:43.999Z</time></trkpt><trkpt lat="41.53907162213179" lon="13.056570628455997"><ele>439.0</ele><time>2026-03-22T11:58:44.999Z</time></trkpt><trkpt lat="41.53912130876132" lon="13.056467600358596"><ele>439.0</ele><time>2026-03-22T11:58:45.999Z</time></trkpt><trkpt lat="41.539189998949794" lon="13.05640471184086"><ele>439.0</ele><time>2026-03-22T11:58:46.999Z</time></trkpt><trkpt lat="41.539263076563046" lon="13.056371289334477"><ele>438.1666666666667</ele><time>2026-03-22T11:58:47.999Z</time></trkpt><trkpt lat="41.539359725308785" lon="13.056338272416825"><ele>437.33333333333337</ele><time>2026-03-22T11:58:48.999Z</time></trkpt><trkpt lat="41.53942906876901" lon="13.056319541562138"><ele>436.5</ele><time>2026-03-22T11:58:49.999Z</time></trkpt><trkpt lat="41.53951780731209" lon="13.056201415816759"><ele>435.66666666666663</ele><time>2026-03-22T11:58:51.999Z</time></trkpt><trkpt lat="41.53952807485631" lon="13.056117661452415"><ele>434.8333333333333</ele><time>2026-03-22T11:58:52.999Z</time></trkpt><trkpt lat="41.53952179294184" lon="13.056017629861847"><ele>434.0</ele><time>2026-03-22T11:58:53.999Z</time></trkpt><trkpt lat="41.53949224519807" lon="13.055902445707298"><ele>434.0</ele><time>2026-03-22T11:58:54.999Z</time></trkpt><trkpt lat="41.53944985650072" lon="13.055796507537643"><ele>434.0</ele><time>2026-03-22T11:58:55.999Z</time></trkpt><trkpt lat="41.539418735722634" lon="13.055682220160397"><ele>434.0</ele><time>2026-03-22T11:58:56.999Z</time></trkpt><trkpt lat="41.53939213928021" lon="13.055546332505648"><ele>434.0</ele><time>2026-03-22T11:58:57.999Z</time></trkpt><trkpt lat="41.53937746755475" lon="13.055414533352671"><ele>434.0</ele><time>2026-03-22T11:58:58.999Z</time></trkpt><trkpt lat="41.53937803980541" lon="13.055272439266647"><ele>433.79999999999995</ele><time>2026-03-22T11:58:59.999Z</time></trkpt><trkpt lat="41.53937639997905" lon="13.05512747989335"><ele>433.59999999999997</ele><time>2026-03-22T11:59:00.999Z</time></trkpt><trkpt lat="41.53935573878062" lon="13.05498449392488"><ele>433.4</ele><time>2026-03-22T11:59:01.999Z</time></trkpt><trkpt lat="41.5393320289013" lon="13.054837225051275"><ele>433.2</ele><time>2026-03-22T11:59:02.999Z</time></trkpt><trkpt lat="41.53933914104904" lon="13.05470886267581"><ele>433.0</ele><time>2026-03-22T11:59:03.999Z</time></trkpt><trkpt lat="41.539355656124705" lon="13.054605461847014"><ele>433.00000000000006</ele><time>2026-03-22T11:59:04.999Z</time></trkpt><trkpt lat="41.539366419826855" lon="13.054480440892348"><ele>433.0</ele><time>2026-03-22T11:59:05.999Z</time></trkpt><trkpt lat="41.539389945470084" lon="13.054359704256182"><ele>433.0</ele><time>2026-03-22T11:59:06.999Z</time></trkpt><trkpt lat="41.539406060809654" lon="13.054252806731727"><ele>433.0</ele><time>2026-03-22T11:59:07.999Z</time></trkpt><trkpt lat="41.53940939657784" lon="13.054141525281086"><ele>433.00000000000006</ele><time>2026-03-22T11:59:08.999Z</time></trkpt><trkpt lat="41.53940890899641" lon="13.054014372610036"><ele>433.0</ele><time>2026-03-22T11:59:09.999Z</time></trkpt><trkpt lat="41.53939132975365" lon="13.053897950055779"><ele>433.4285714285714</ele><time>2026-03-22T11:59:10.999Z</time></trkpt><trkpt lat="41.539368220854215" lon="13.053814217994193"><ele>433.85714285714283</ele><time>2026-03-22T11:59:11.999Z</time></trkpt><trkpt lat="41.53935640812099" lon="13.053730466130979"><ele>434.2857142857143</ele><time>2026-03-22T11:59:12.999Z</time></trkpt><trkpt lat="41.53937510116966" lon="13.053632139967636"><ele>434.71428571428567</ele><time>2026-03-22T11:59:14Z</time></trkpt><trkpt lat="41.539414943066554" lon="13.05352936780676"><ele>435.14285714285717</ele><time>2026-03-22T11:59:15.001Z</time></trkpt><trkpt lat="41.53946794762131" lon="13.053451174262854"><ele>435.57142857142856</ele><time>2026-03-22T11:59:16Z</time></trkpt><trkpt lat="41.539516965550966" lon="13.053387923559727"><ele>436.0</ele><time>2026-03-22T11:59:17Z</time></trkpt><trkpt lat="41.53960359693575" lon="13.053297450076592"><ele>433.83333333333337</ele><time>2026-03-22T11:59:19Z</time></trkpt><trkpt lat="41.539644911476714" lon="13.05323211976746"><ele>431.6666666666667</ele><time>2026-03-22T11:59:20Z</time></trkpt><trkpt lat="41.53967741310619" lon="13.053081801472324"><ele>429.5</ele><time>2026-03-22T11:59:22Z</time></trkpt><trkpt lat="41.539691907438744" lon="13.052969404559697"><ele>427.33333333333337</ele><time>2026-03-22T11:59:23Z</time></trkpt><trkpt lat="41.539705759690555" lon="13.052846736065556"><ele>425.1666666666667</ele><time>2026-03-22T11:59:24Z</time></trkpt><trkpt lat="41.539721257507416" lon="13.052746821292715"><ele>423.0</ele><time>2026-03-22T11:59:25Z</time></trkpt><trkpt lat="41.53975707873509" lon="13.052646753708316"><ele>423.0</ele><time>2026-03-22T11:59:26Z</time></trkpt><trkpt lat="41.5397910270676" lon="13.052516270777366"><ele>423.0</ele><time>2026-03-22T11:59:27Z</time></trkpt><trkpt lat="41.539815966496654" lon="13.052409180601158"><ele>423.0</ele><time>2026-03-22T11:59:28Z</time></trkpt><trkpt lat="41.53984062522043" lon="13.052317424783539"><ele>423.0</ele><time>2026-03-22T11:59:29Z</time></trkpt><trkpt lat="41.53988108484872" lon="13.052241573921703"><ele>423.0</ele><time>2026-03-22T11:59:30Z</time></trkpt><trkpt lat="41.53993445628014" lon="13.052161618506128"><ele>423.0</ele><time>2026-03-22T11:59:31Z</time></trkpt><trkpt lat="41.53999075338594" lon="13.052072145306399"><ele>423.0</ele><time>2026-03-22T11:59:33Z</time></trkpt><trkpt lat="41.540113072547804" lon="13.052034591077504"><ele>423.0</ele><time>2026-03-22T11:59:44Z</time></trkpt><trkpt lat="41.54016373622638" lon="13.051975463568189"><ele>423.0</ele><time>2026-03-22T11:59:48Z</time></trkpt><trkpt lat="41.54019286481849" lon="13.051858013018267"><ele>423.0</ele><time>2026-03-22T11:59:51Z</time></trkpt><trkpt lat="41.54016157886119" lon="13.05168882887451"><ele>423.0</ele><time>2026-03-22T11:59:53Z</time></trkpt><trkpt lat="41.540138105652204" lon="13.0515759581469"><ele>423.0</ele><time>2026-03-22T11:59:54Z</time></trkpt><trkpt lat="41.54010297323109" lon="13.051446371109101"><ele>423.0</ele><time>2026-03-22T11:59:56Z</time></trkpt><trkpt lat="41.540129974060314" lon="13.05129154267852"><ele>423.0</ele><time>2026-03-22T11:59:58Z</time></trkpt><trkpt lat="41.540222375521004" lon="13.051206039076227"><ele>423.0</ele><time>2026-03-22T12:00:00Z</time></trkpt><trkpt lat="41.54030237669421" lon="13.051203258374924"><ele>423.0</ele><time>2026-03-22T12:00:01Z</time></trkpt><trkpt lat="41.540395379280014" lon="13.051185462533875"><ele>424.2</ele><time>2026-03-22T12:00:02Z</time></trkpt><trkpt lat="41.54049428869888" lon="13.051138455740135"><ele>425.4</ele><time>2026-03-22T12:00:03Z</time></trkpt><trkpt lat="41.54055921909987" lon="13.051058047896449"><ele>426.59999999999997</ele><time>2026-03-22T12:00:04Z</time></trkpt><trkpt lat="41.540590243661974" lon="13.050984696423619"><ele>427.79999999999995</ele><time>2026-03-22T12:00:05Z</time></trkpt><trkpt lat="41.54062994116537" lon="13.050872005416473"><ele>429.0</ele><time>2026-03-22T12:00:06Z</time></trkpt><trkpt lat="41.540683997353106" lon="13.050747372041897"><ele>429.5</ele><time>2026-03-22T12:00:07Z</time></trkpt><trkpt lat="41.54070694901894" lon="13.050663450955085"><ele>430.0</ele><time>2026-03-22T12:00:08Z</time></trkpt><trkpt lat="41.54071347445418" lon="13.050530191164775"><ele>430.5</ele><time>2026-03-22T12:00:10Z</time></trkpt><trkpt lat="41.54069670081149" lon="13.050425270458241"><ele>431.0</ele><time>2026-03-22T12:00:12Z</time></trkpt><trkpt lat="41.54065177123104" lon="13.050290823274038"><ele>431.5</ele><time>2026-03-22T12:00:14Z</time></trkpt><trkpt lat="41.54062911576443" lon="13.050200866064033"><ele>432.0</ele><time>2026-03-22T12:00:15Z</time></trkpt><trkpt lat="41.54063174935435" lon="13.05011679767834"><ele>432.0</ele><time>2026-03-22T12:00:16Z</time></trkpt><trkpt lat="41.540608440142314" lon="13.05003276950918"><ele>432.0</ele><time>2026-03-22T12:00:17Z</time></trkpt><trkpt lat="41.540579333846125" lon="13.04995259354484"><ele>432.0</ele><time>2026-03-22T12:00:19Z</time></trkpt><trkpt lat="41.54055375913434" lon="13.049850214968473"><ele>432.0</ele><time>2026-03-22T12:00:22Z</time></trkpt><trkpt lat="41.54053412168772" lon="13.0497653830902"><ele>432.0</ele><time>2026-03-22T12:00:24Z</time></trkpt><trkpt lat="41.5405318627423" lon="13.049652016688002"><ele>432.0</ele><time>2026-03-22T12:00:27Z</time></trkpt><trkpt lat="41.54058705350837" lon="13.049599842621669"><ele>432.0</ele><time>2026-03-22T12:00:30Z</time></trkpt><trkpt lat="41.54068690263181" lon="13.049549745619592"><ele>434.5</ele><time>2026-03-22T12:00:32Z</time></trkpt><trkpt lat="41.54075019266952" lon="13.04951635568492"><ele>437.0</ele><time>2026-03-22T12:00:33Z</time></trkpt><trkpt lat="41.54081005930545" lon="13.049489651234497"><ele>439.5</ele><time>2026-03-22T12:00:34Z</time></trkpt><trkpt lat="41.54090849870984" lon="13.049451005888624"><ele>442.0</ele><time>2026-03-22T12:00:36Z</time></trkpt><trkpt lat="41.540986820157954" lon="13.049395785485693"><ele>444.5</ele><time>2026-03-22T12:00:38Z</time></trkpt><trkpt lat="41.541000394165756" lon="13.049312685859148"><ele>447.0</ele><time>2026-03-22T12:00:39.999Z</time></trkpt><trkpt lat="41.540963724630046" lon="13.049220596896946"><ele>447.0</ele><time>2026-03-22T12:00:43.999Z</time></trkpt><trkpt lat="41.54093434155514" lon="13.049140456854445"><ele>447.0</ele><time>2026-03-22T12:00:45.999Z</time></trkpt><trkpt lat="41.54094056932991" lon="13.049033202407964"><ele>447.0</ele><time>2026-03-22T12:00:47.999Z</time></trkpt><trkpt lat="41.54091198083982" lon="13.04889204080646"><ele>447.0</ele><time>2026-03-22T12:00:49.999Z</time></trkpt><trkpt lat="41.54094000509448" lon="13.048757265613718"><ele>447.0</ele><time>2026-03-22T12:00:52.999Z</time></trkpt><trkpt lat="41.54097343254883" lon="13.048668239182689"><ele>447.0</ele><time>2026-03-22T12:00:54.999Z</time></trkpt><trkpt lat="41.54102382177506" lon="13.04839626186166"><ele>447.1666666666667</ele><time>2026-03-22T12:01:00.999Z</time></trkpt><trkpt lat="41.54100180064699" lon="13.048298205734973"><ele>447.33333333333337</ele><time>2026-03-22T12:01:02.999Z</time></trkpt><trkpt lat="41.54103630352076" lon="13.048225778684461"><ele>447.5</ele><time>2026-03-22T12:01:07.999Z</time></trkpt><trkpt lat="41.54104853636725" lon="13.048129637782926"><ele>447.6666666666667</ele><time>2026-03-22T12:01:14.999Z</time></trkpt><trkpt lat="41.54109953575502" lon="13.048007285648339"><ele>447.83333333333337</ele><time>2026-03-22T12:01:17.999Z</time></trkpt><trkpt lat="41.54116404951577" lon="13.047975569151564"><ele>448.0</ele><time>2026-03-22T12:01:18.999Z</time></trkpt><trkpt lat="41.54122233394502" lon="13.047932820066634"><ele>449.33333333333337</ele><time>2026-03-22T12:01:20Z</time></trkpt><trkpt lat="41.541289463733065" lon="13.047878956098465"><ele>450.6666666666667</ele><time>2026-03-22T12:01:21Z</time></trkpt><trkpt lat="41.541359046498826" lon="13.047836843582811"><ele>452.0</ele><time>2026-03-22T12:01:22Z</time></trkpt><trkpt lat="41.5414456058369" lon="13.047787420872522"><ele>453.33333333333337</ele><time>2026-03-22T12:01:23Z</time></trkpt><trkpt lat="41.541528570596356" lon="13.047740535092533"><ele>454.6666666666667</ele><time>2026-03-22T12:01:24Z</time></trkpt><trkpt lat="41.54161056422173" lon="13.047690312824457"><ele>456.0</ele><time>2026-03-22T12:01:25Z</time></trkpt><trkpt lat="41.54169506178444" lon="13.047638236784797"><ele>456.0</ele><time>2026-03-22T12:01:26Z</time></trkpt><trkpt lat="41.541769336811896" lon="13.047591096508665"><ele>456.0</ele><time>2026-03-22T12:01:27Z</time></trkpt><trkpt lat="41.54185236900011" lon="13.047515212242457"><ele>456.0</ele><time>2026-03-22T12:01:28Z</time></trkpt><trkpt lat="41.541935011813926" lon="13.047428369279068"><ele>456.0</ele><time>2026-03-22T12:01:29Z</time></trkpt><trkpt lat="41.54203446117209" lon="13.047332454021173"><ele>456.0</ele><time>2026-03-22T12:01:30Z</time></trkpt><trkpt lat="41.54215914707176" lon="13.047228370280138"><ele>458.0</ele><time>2026-03-22T12:01:31Z</time></trkpt><trkpt lat="41.542271052088275" lon="13.047116294449658"><ele>460.0</ele><time>2026-03-22T12:01:32Z</time></trkpt><trkpt lat="41.542359871537954" lon="13.047003779569877"><ele>462.0</ele><time>2026-03-22T12:01:33Z</time></trkpt><trkpt lat="41.542441850391036" lon="13.046893810655815"><ele>464.0</ele><time>2026-03-22T12:01:34Z</time></trkpt><trkpt lat="41.54251877022968" lon="13.046766311658672"><ele>464.0</ele><time>2026-03-22T12:01:35Z</time></trkpt><trkpt lat="41.54259048895787" lon="13.046628204085675"><ele>464.0</ele><time>2026-03-22T12:01:36Z</time></trkpt><trkpt lat="41.542664665608264" lon="13.04648919579413"><ele>464.0</ele><time>2026-03-22T12:01:37Z</time></trkpt><trkpt lat="41.542735468050786" lon="13.046346532953704"><ele>464.0</ele><time>2026-03-22T12:01:38Z</time></trkpt><trkpt lat="41.542812824380434" lon="13.046192538615626"><ele>467.66666666666663</ele><time>2026-03-22T12:01:39Z</time></trkpt><trkpt lat="41.54289383101833" lon="13.046027358383508"><ele>471.33333333333337</ele><time>2026-03-22T12:01:40Z</time></trkpt><trkpt lat="41.54297845297842" lon="13.045854378417733"><ele>475.0</ele><time>2026-03-22T12:01:41Z</time></trkpt><trkpt lat="41.54306113862512" lon="13.045678271042703"><ele>476.33333333333337</ele><time>2026-03-22T12:01:42Z</time></trkpt><trkpt lat="41.543146521990835" lon="13.045500372403545"><ele>477.66666666666663</ele><time>2026-03-22T12:01:43Z</time></trkpt><trkpt lat="41.54323290460093" lon="13.045331755505337"><ele>479.0</ele><time>2026-03-22T12:01:44Z</time></trkpt><trkpt lat="41.54331125028299" lon="13.04517559980758"><ele>479.0</ele><time>2026-03-22T12:01:45Z</time></trkpt><trkpt lat="41.5433858936824" lon="13.045028406628893"><ele>479.0</ele><time>2026-03-22T12:01:46Z</time></trkpt><trkpt lat="41.543461437538426" lon="13.044875959955188"><ele>479.0</ele><time>2026-03-22T12:01:47Z</time></trkpt><trkpt lat="41.5435400446671" lon="13.044725321940227"><ele>479.0</ele><time>2026-03-22T12:01:48Z</time></trkpt><trkpt lat="41.54360816195361" lon="13.04458866903118"><ele>479.25</ele><time>2026-03-22T12:01:49Z</time></trkpt><trkpt lat="41.54367972154136" lon="13.044448268300963"><ele>479.5</ele><time>2026-03-22T12:01:50Z</time></trkpt><trkpt lat="41.543754758728255" lon="13.044311460156152"><ele>479.75</ele><time>2026-03-22T12:01:51Z</time></trkpt><trkpt lat="41.54383134045685" lon="13.044167450313534"><ele>480.0</ele><time>2026-03-22T12:01:52Z</time></trkpt><trkpt lat="41.54390222611592" lon="13.04400599361009"><ele>483.0</ele><time>2026-03-22T12:01:53Z</time></trkpt><trkpt lat="41.54396548914833" lon="13.04383128846435"><ele>486.0</ele><time>2026-03-22T12:01:54Z</time></trkpt><trkpt lat="41.544013664081604" lon="13.04365535292427"><ele>489.0</ele><time>2026-03-22T12:01:55Z</time></trkpt><trkpt lat="41.544059924933194" lon="13.043495429734351"><ele>492.0</ele><time>2026-03-22T12:01:56Z</time></trkpt><trkpt lat="41.5441065303178" lon="13.043317325031033"><ele>490.66666666666663</ele><time>2026-03-22T12:01:57Z</time></trkpt><trkpt lat="41.54417549632975" lon="13.043136764344686"><ele>489.3333333333333</ele><time>2026-03-22T12:01:58Z</time></trkpt><trkpt lat="41.54425539451271" lon="13.042952144001607"><ele>488.0</ele><time>2026-03-22T12:01:59Z</time></trkpt><trkpt lat="41.54432415768565" lon="13.042786568590868"><ele>488.0</ele><time>2026-03-22T12:02:00Z</time></trkpt><trkpt lat="41.544394789080044" lon="13.042620152666094"><ele>488.0</ele><time>2026-03-22T12:02:01Z</time></trkpt><trkpt lat="41.54447764431357" lon="13.04244072361922"><ele>488.0</ele><time>2026-03-22T12:02:02Z</time></trkpt><trkpt lat="41.5445502254587" lon="13.042276018211536"><ele>488.0</ele><time>2026-03-22T12:02:03Z</time></trkpt><trkpt lat="41.54461630978272" lon="13.042134185867418"><ele>489.25</ele><time>2026-03-22T12:02:04Z</time></trkpt><trkpt lat="41.54468295625999" lon="13.041992194775657"><ele>490.5</ele><time>2026-03-22T12:02:05Z</time></trkpt><trkpt lat="41.544752167877114" lon="13.04184753282773"><ele>491.75</ele><time>2026-03-22T12:02:06Z</time></trkpt><trkpt lat="41.544821933086986" lon="13.041706891419555"><ele>493.0</ele><time>2026-03-22T12:02:07Z</time></trkpt><trkpt lat="41.54489536725627" lon="13.041590531749565"><ele>493.0</ele><time>2026-03-22T12:02:08Z</time></trkpt><trkpt lat="41.54498265416679" lon="13.041475136430877"><ele>493.0</ele><time>2026-03-22T12:02:09Z</time></trkpt><trkpt lat="41.545085142131335" lon="13.041355942556567"><ele>493.0</ele><time>2026-03-22T12:02:10Z</time></trkpt><trkpt lat="41.545203802669505" lon="13.041233586919136"><ele>493.0</ele><time>2026-03-22T12:02:11Z</time></trkpt><trkpt lat="41.545332722197806" lon="13.041101135485096"><ele>492.33333333333337</ele><time>2026-03-22T12:02:12Z</time></trkpt><trkpt lat="41.54545165331646" lon="13.040975898817031"><ele>491.66666666666663</ele><time>2026-03-22T12:02:13Z</time></trkpt><trkpt lat="41.54557518939899" lon="13.040842532541626"><ele>491.0</ele><time>2026-03-22T12:02:14Z</time></trkpt><trkpt lat="41.545709852703986" lon="13.04070683824477"><ele>491.0</ele><time>2026-03-22T12:02:15Z</time></trkpt><trkpt lat="41.545838377566554" lon="13.040579150102097"><ele>491.0</ele><time>2026-03-22T12:02:16Z</time></trkpt><trkpt lat="41.54596096342544" lon="13.040452474615487"><ele>491.0</ele><time>2026-03-22T12:02:17Z</time></trkpt><trkpt lat="41.546078100816665" lon="13.04033292545605"><ele>491.0</ele><time>2026-03-22T12:02:18Z</time></trkpt><trkpt lat="41.54619055856821" lon="13.040219180668464"><ele>491.0</ele><time>2026-03-22T12:02:19Z</time></trkpt><trkpt lat="41.54629750021739" lon="13.040112619568475"><ele>491.0</ele><time>2026-03-22T12:02:20Z</time></trkpt><trkpt lat="41.546399210984326" lon="13.04000979418727"><ele>491.0</ele><time>2026-03-22T12:02:21Z</time></trkpt><trkpt lat="41.546505655541836" lon="13.039905644451586"><ele>490.3333333333333</ele><time>2026-03-22T12:02:22Z</time></trkpt><trkpt lat="41.54662293355099" lon="13.039790945273957"><ele>489.66666666666663</ele><time>2026-03-22T12:02:23Z</time></trkpt><trkpt lat="41.54674633552902" lon="13.039663772536292"><ele>489.0</ele><time>2026-03-22T12:02:24Z</time></trkpt><trkpt lat="41.54687472911908" lon="13.039522823610396"><ele>489.0</ele><time>2026-03-22T12:02:25Z</time></trkpt><trkpt lat="41.54700111295894" lon="13.039387903953262"><ele>489.0</ele><time>2026-03-22T12:02:26Z</time></trkpt><trkpt lat="41.54712429882288" lon="13.039268239483933"><ele>489.0</ele><time>2026-03-22T12:02:27Z</time></trkpt><trkpt lat="41.547248428750564" lon="13.039156326119828"><ele>488.5</ele><time>2026-03-22T12:02:28Z</time></trkpt><trkpt lat="41.54737009976902" lon="13.039057584785759"><ele>488.0</ele><time>2026-03-22T12:02:29Z</time></trkpt><trkpt lat="41.54748490313109" lon="13.038961084456036"><ele>487.5</ele><time>2026-03-22T12:02:30Z</time></trkpt><trkpt lat="41.547608216901814" lon="13.038852940966244"><ele>487.0</ele><time>2026-03-22T12:02:31Z</time></trkpt><trkpt lat="41.547744198698716" lon="13.038740966445486"><ele>488.33333333333337</ele><time>2026-03-22T12:02:32Z</time></trkpt><trkpt lat="41.547877165727726" lon="13.038629442714194"><ele>489.66666666666663</ele><time>2026-03-22T12:02:33Z</time></trkpt><trkpt lat="41.54801021584325" lon="13.038520452022532"><ele>491.0</ele><time>2026-03-22T12:02:34Z</time></trkpt><trkpt lat="41.5481375177033" lon="13.038416309858425"><ele>491.0</ele><time>2026-03-22T12:02:35Z</time></trkpt><trkpt lat="41.54826132451206" lon="13.038319703293128"><ele>491.0</ele><time>2026-03-22T12:02:36Z</time></trkpt><trkpt lat="41.548378280784746" lon="13.038222765951195"><ele>491.0</ele><time>2026-03-22T12:02:37Z</time></trkpt><trkpt lat="41.54848731403946" lon="13.038136851102744"><ele>491.0</ele><time>2026-03-22T12:02:38Z</time></trkpt><trkpt lat="41.54859155897807" lon="13.038056244189832"><ele>490.8</ele><time>2026-03-22T12:02:39Z</time></trkpt><trkpt lat="41.54868581345422" lon="13.037972733308656"><ele>490.6</ele><time>2026-03-22T12:02:40Z</time></trkpt><trkpt lat="41.54876460788361" lon="13.037879301203436"><ele>490.4</ele><time>2026-03-22T12:02:40.999Z</time></trkpt><trkpt lat="41.54883191617884" lon="13.037769415958678"><ele>490.2</ele><time>2026-03-22T12:02:41.999Z</time></trkpt><trkpt lat="41.54888034679649" lon="13.03765598753117"><ele>490.0</ele><time>2026-03-22T12:02:42.999Z</time></trkpt><trkpt lat="41.54890590066135" lon="13.037543443682027"><ele>491.00000000000006</ele><time>2026-03-22T12:02:43.999Z</time></trkpt><trkpt lat="41.54892586694896" lon="13.037438205450627"><ele>492.0</ele><time>2026-03-22T12:02:44.999Z</time></trkpt><trkpt lat="41.548949006287685" lon="13.037345816139753"><ele>493.0</ele><time>2026-03-22T12:02:45.999Z</time></trkpt><trkpt lat="41.548978914611226" lon="13.037245475284067"><ele>494.0</ele><time>2026-03-22T12:02:46.999Z</time></trkpt><trkpt lat="41.54902244880721" lon="13.03714472670864"><ele>495.00000000000006</ele><time>2026-03-22T12:02:47.999Z</time></trkpt><trkpt lat="41.549084383418496" lon="13.037050392014612"><ele>496.0</ele><time>2026-03-22T12:02:48.999Z</time></trkpt><trkpt lat="41.54917079156631" lon="13.036981023037901"><ele>496.0</ele><time>2026-03-22T12:02:49.999Z</time></trkpt><trkpt lat="41.54926928038166" lon="13.036919143087118"><ele>496.0</ele><time>2026-03-22T12:02:50.999Z</time></trkpt><trkpt lat="41.549375708369396" lon="13.03685134797742"><ele>496.0</ele><time>2026-03-22T12:02:51.999Z</time></trkpt><trkpt lat="41.54949058210285" lon="13.036775714692688"><ele>496.0</ele><time>2026-03-22T12:02:52.999Z</time></trkpt><trkpt lat="41.54961332107544" lon="13.036697557185109"><ele>498.75</ele><time>2026-03-22T12:02:53.999Z</time></trkpt><trkpt lat="41.549745118998786" lon="13.036614353411867"><ele>501.5</ele><time>2026-03-22T12:02:54.999Z</time></trkpt><trkpt lat="41.5498779796204" lon="13.036527505057629"><ele>504.25</ele><time>2026-03-22T12:02:55.999Z</time></trkpt><trkpt lat="41.550007164529525" lon="13.036433345883859"><ele>507.0</ele><time>2026-03-22T12:02:56.999Z</time></trkpt><trkpt lat="41.550122931588284" lon="13.03630771181885"><ele>507.0</ele><time>2026-03-22T12:02:57.999Z</time></trkpt><trkpt lat="41.55022218167991" lon="13.036148343655382"><ele>507.0</ele><time>2026-03-22T12:02:58.999Z</time></trkpt><trkpt lat="41.55031277781288" lon="13.03596544939581"><ele>507.0</ele><time>2026-03-22T12:02:59.999Z</time></trkpt><trkpt lat="41.55041415009931" lon="13.035790957771194"><ele>507.33333333333337</ele><time>2026-03-22T12:03:00.999Z</time></trkpt><trkpt lat="41.55053540739695" lon="13.035641424016777"><ele>507.6666666666667</ele><time>2026-03-22T12:03:01.999Z</time></trkpt><trkpt lat="41.55067517630909" lon="13.03551934787217"><ele>508.0</ele><time>2026-03-22T12:03:02.999Z</time></trkpt><trkpt lat="41.550817752591215" lon="13.035396431673684"><ele>508.0</ele><time>2026-03-22T12:03:03.999Z</time></trkpt><trkpt lat="41.5509590963332" lon="13.03526286024607"><ele>508.0</ele><time>2026-03-22T12:03:04.999Z</time></trkpt><trkpt lat="41.55110086730386" lon="13.035129898208892"><ele>508.0</ele><time>2026-03-22T12:03:05.999Z</time></trkpt><trkpt lat="41.551237379315616" lon="13.035000943085453"><ele>505.0</ele><time>2026-03-22T12:03:06.999Z</time></trkpt><trkpt lat="41.55137062710974" lon="13.034880057255744"><ele>502.0</ele><time>2026-03-22T12:03:07.999Z</time></trkpt><trkpt lat="41.551499695499906" lon="13.03476142102067"><ele>499.0</ele><time>2026-03-22T12:03:08.999Z</time></trkpt><trkpt lat="41.55162957214125" lon="13.034654071206926"><ele>499.0</ele><time>2026-03-22T12:03:09.999Z</time></trkpt><trkpt lat="41.55176943699062" lon="13.03457185709697"><ele>499.0</ele><time>2026-03-22T12:03:10.999Z</time></trkpt><trkpt lat="41.55191397625024" lon="13.034512098512893"><ele>499.0</ele><time>2026-03-22T12:03:11.999Z</time></trkpt><trkpt lat="41.55206116002021" lon="13.034470200752747"><ele>495.75</ele><time>2026-03-22T12:03:12.999Z</time></trkpt><trkpt lat="41.55220606828551" lon="13.034435889597786"><ele>492.5</ele><time>2026-03-22T12:03:13.999Z</time></trkpt><trkpt lat="41.55235194395852" lon="13.034410441426026"><ele>489.25</ele><time>2026-03-22T12:03:14.999Z</time></trkpt><trkpt lat="41.5524945936156" lon="13.034389946793102"><ele>486.0</ele><time>2026-03-22T12:03:15.999Z</time></trkpt><trkpt lat="41.552635531830845" lon="13.034381599383341"><ele>486.0</ele><time>2026-03-22T12:03:16.999Z</time></trkpt><trkpt lat="41.55277448447747" lon="13.034380467872236"><ele>486.0</ele><time>2026-03-22T12:03:17.999Z</time></trkpt><trkpt lat="41.55291168213323" lon="13.034372431511574"><ele>486.0</ele><time>2026-03-22T12:03:18.999Z</time></trkpt><trkpt lat="41.55304693397314" lon="13.034361318480784"><ele>486.0</ele><time>2026-03-22T12:03:19.999Z</time></trkpt><trkpt lat="41.55317928190679" lon="13.03434248876665"><ele>486.75</ele><time>2026-03-22T12:03:20.999Z</time></trkpt><trkpt lat="41.55330992972458" lon="13.034295466699179"><ele>487.5</ele><time>2026-03-22T12:03:21.999Z</time></trkpt><trkpt lat="41.55343557668145" lon="13.03421269144307"><ele>488.25</ele><time>2026-03-22T12:03:22.999Z</time></trkpt><trkpt lat="41.55354918542146" lon="13.034096560793484"><ele>489.0</ele><time>2026-03-22T12:03:23.999Z</time></trkpt><trkpt lat="41.55367432650433" lon="13.03395658693864"><ele>484.33333333333337</ele><time>2026-03-22T12:03:24.999Z</time></trkpt><trkpt lat="41.5538059195907" lon="13.033814143679106"><ele>479.6666666666667</ele><time>2026-03-22T12:03:26.001Z</time></trkpt><trkpt lat="41.55392871723985" lon="13.03368294103575"><ele>475.0</ele><time>2026-03-22T12:03:27.001Z</time></trkpt><trkpt lat="41.554047107897645" lon="13.033556116528628"><ele>475.0</ele><time>2026-03-22T12:03:28.001Z</time></trkpt><trkpt lat="41.554174128820165" lon="13.03343071052297"><ele>475.0</ele><time>2026-03-22T12:03:29.001Z</time></trkpt><trkpt lat="41.55431445843782" lon="13.033313112181094"><ele>475.0</ele><time>2026-03-22T12:03:30.001Z</time></trkpt><trkpt lat="41.55446303311736" lon="13.033217447553266"><ele>473.6666666666667</ele><time>2026-03-22T12:03:31.001Z</time></trkpt><trkpt lat="41.554607157645265" lon="13.033128037188456"><ele>472.33333333333337</ele><time>2026-03-22T12:03:32.001Z</time></trkpt><trkpt lat="41.5547480148371" lon="13.033038871594353"><ele>471.0</ele><time>2026-03-22T12:03:33.001Z</time></trkpt><trkpt lat="41.55487205786492" lon="13.03292177309591"><ele>471.0</ele><time>2026-03-22T12:03:34Z</time></trkpt><trkpt lat="41.55498725411012" lon="13.032798120070545"><ele>471.0</ele><time>2026-03-22T12:03:35Z</time></trkpt><trkpt lat="41.555096577595314" lon="13.032674185771542"><ele>471.0</ele><time>2026-03-22T12:03:36.001Z</time></trkpt><trkpt lat="41.55518375879796" lon="13.032519399325912"><ele>471.0</ele><time>2026-03-22T12:03:37Z</time></trkpt><trkpt lat="41.55529252309299" lon="13.032383583127242"><ele>467.0</ele><time>2026-03-22T12:03:38Z</time></trkpt><trkpt lat="41.55537720210017" lon="13.032204093490702"><ele>463.0</ele><time>2026-03-22T12:03:39Z</time></trkpt><trkpt lat="41.55543632651768" lon="13.031999424242846"><ele>459.0</ele><time>2026-03-22T12:03:40Z</time></trkpt><trkpt lat="41.5555293951043" lon="13.031805822894432"><ele>460.33333333333337</ele><time>2026-03-22T12:03:41Z</time></trkpt><trkpt lat="41.55562780364748" lon="13.031608447383048"><ele>461.6666666666667</ele><time>2026-03-22T12:03:42Z</time></trkpt><trkpt lat="41.55572367064102" lon="13.031429426830604"><ele>463.0</ele><time>2026-03-22T12:03:43Z</time></trkpt><trkpt lat="41.55581909791015" lon="13.031249752860933"><ele>463.0</ele><time>2026-03-22T12:03:44Z</time></trkpt><trkpt lat="41.55591955873754" lon="13.03106490588028"><ele>463.0</ele><time>2026-03-22T12:03:45Z</time></trkpt><trkpt lat="41.556003275790715" lon="13.030884332186359"><ele>463.0</ele><time>2026-03-22T12:03:46Z</time></trkpt><trkpt lat="41.556083671665625" lon="13.03070512352466"><ele>464.5</ele><time>2026-03-22T12:03:47Z</time></trkpt><trkpt lat="41.55617337846433" lon="13.03053885833488"><ele>466.0</ele><time>2026-03-22T12:03:48Z</time></trkpt><trkpt lat="41.55627895586789" lon="13.030400263440132"><ele>467.5</ele><time>2026-03-22T12:03:49Z</time></trkpt><trkpt lat="41.55637517666672" lon="13.030263198971141"><ele>469.0</ele><time>2026-03-22T12:03:50Z</time></trkpt><trkpt lat="41.556449052723046" lon="13.030101790163974"><ele>463.0</ele><time>2026-03-22T12:03:51Z</time></trkpt><trkpt lat="41.55650892764425" lon="13.029929758188556"><ele>457.0</ele><time>2026-03-22T12:03:52Z</time></trkpt><trkpt lat="41.55656221984729" lon="13.02975326728389"><ele>451.0</ele><time>2026-03-22T12:03:53Z</time></trkpt><trkpt lat="41.55660170206651" lon="13.029567102750757"><ele>445.0</ele><time>2026-03-22T12:03:54Z</time></trkpt><trkpt lat="41.55662597294971" lon="13.02939159555555"><ele>445.0</ele><time>2026-03-22T12:03:55Z</time></trkpt><trkpt lat="41.556652078333016" lon="13.029229092419255"><ele>445.0</ele><time>2026-03-22T12:03:56Z</time></trkpt><trkpt lat="41.5566928809785" lon="13.029082366929416"><ele>445.0</ele><time>2026-03-22T12:03:57Z</time></trkpt><trkpt lat="41.556755709361276" lon="13.028945106876472"><ele>445.0</ele><time>2026-03-22T12:03:58Z</time></trkpt><trkpt lat="41.556844208305364" lon="13.028838429769696"><ele>445.25</ele><time>2026-03-22T12:03:59Z</time></trkpt><trkpt lat="41.5569474780535" lon="13.02875625611527"><ele>445.5</ele><time>2026-03-22T12:04:00Z</time></trkpt><trkpt lat="41.55707021978949" lon="13.028686407118022"><ele>445.75</ele><time>2026-03-22T12:04:01Z</time></trkpt><trkpt lat="41.557197419318555" lon="13.02860999902399"><ele>446.0</ele><time>2026-03-22T12:04:02Z</time></trkpt><trkpt lat="41.557311841907435" lon="13.028516303570303"><ele>443.5</ele><time>2026-03-22T12:04:03Z</time></trkpt><trkpt lat="41.55740822486891" lon="13.028396977678396"><ele>441.0</ele><time>2026-03-22T12:04:04Z</time></trkpt><trkpt lat="41.55748557866715" lon="13.028244541620278"><ele>438.5</ele><time>2026-03-22T12:04:05Z</time></trkpt><trkpt lat="41.55756169760809" lon="13.028076293937628"><ele>436.0</ele><time>2026-03-22T12:04:06Z</time></trkpt><trkpt lat="41.55763543278748" lon="13.02788104610502"><ele>436.0</ele><time>2026-03-22T12:04:07Z</time></trkpt><trkpt lat="41.55769274466522" lon="13.02768464411755"><ele>436.0</ele><time>2026-03-22T12:04:08Z</time></trkpt><trkpt lat="41.55774687460189" lon="13.027506416558815"><ele>436.0</ele><time>2026-03-22T12:04:09Z</time></trkpt><trkpt lat="41.55781608001625" lon="13.027339750461216"><ele>436.0</ele><time>2026-03-22T12:04:10Z</time></trkpt><trkpt lat="41.557892865048515" lon="13.027181789327164"><ele>432.0</ele><time>2026-03-22T12:04:11Z</time></trkpt><trkpt lat="41.55798875934719" lon="13.027034233574781"><ele>428.0</ele><time>2026-03-22T12:04:12Z</time></trkpt><trkpt lat="41.558104296452875" lon="13.026894043033167"><ele>424.0</ele><time>2026-03-22T12:04:13Z</time></trkpt><trkpt lat="41.55821841663036" lon="13.02676515781578"><ele>425.0</ele><time>2026-03-22T12:04:14Z</time></trkpt><trkpt lat="41.55832717301829" lon="13.026643705614541"><ele>426.0</ele><time>2026-03-22T12:04:15Z</time></trkpt><trkpt lat="41.55844178605824" lon="13.02653657680304"><ele>427.0</ele><time>2026-03-22T12:04:16Z</time></trkpt><trkpt lat="41.55855896401079" lon="13.026443516481024"><ele>428.0</ele><time>2026-03-22T12:04:17Z</time></trkpt><trkpt lat="41.55867531631993" lon="13.026353930729824"><ele>425.5</ele><time>2026-03-22T12:04:18Z</time></trkpt><trkpt lat="41.558794112439124" lon="13.026265420608407"><ele>423.0</ele><time>2026-03-22T12:04:19Z</time></trkpt><trkpt lat="41.558918945997554" lon="13.026179086955139"><ele>420.5</ele><time>2026-03-22T12:04:20Z</time></trkpt><trkpt lat="41.55904980652256" lon="13.026079810806872"><ele>418.0</ele><time>2026-03-22T12:04:21Z</time></trkpt><trkpt lat="41.55919058027692" lon="13.02597209968832"><ele>418.0</ele><time>2026-03-22T12:04:22Z</time></trkpt><trkpt lat="41.55931900670315" lon="13.025863687851604"><ele>418.0</ele><time>2026-03-22T12:04:23Z</time></trkpt><trkpt lat="41.55944132534281" lon="13.025753323023388"><ele>418.0</ele><time>2026-03-22T12:04:24Z</time></trkpt><trkpt lat="41.55956297838814" lon="13.02565167049358"><ele>418.0</ele><time>2026-03-22T12:04:25Z</time></trkpt><trkpt lat="41.55969076881015" lon="13.02556647236"><ele>416.75</ele><time>2026-03-22T12:04:26Z</time></trkpt><trkpt lat="41.5598167724249" lon="13.025487892443127"><ele>415.5</ele><time>2026-03-22T12:04:27Z</time></trkpt><trkpt lat="41.55993589578078" lon="13.0254006656798"><ele>414.25</ele><time>2026-03-22T12:04:28Z</time></trkpt><trkpt lat="41.560046327612206" lon="13.025296887942938"><ele>413.0</ele><time>2026-03-22T12:04:29Z</time></trkpt><trkpt lat="41.5601550075012" lon="13.025177013999139"><ele>413.0</ele><time>2026-03-22T12:04:30Z</time></trkpt><trkpt lat="41.56026815311075" lon="13.025041747120667"><ele>413.0</ele><time>2026-03-22T12:04:31Z</time></trkpt><trkpt lat="41.56037349351644" lon="13.024911329634605"><ele>413.0</ele><time>2026-03-22T12:04:32Z</time></trkpt><trkpt lat="41.560477039561995" lon="13.024774162705343"><ele>413.0</ele><time>2026-03-22T12:04:33Z</time></trkpt><trkpt lat="41.56057912939558" lon="13.02462154465679"><ele>412.0</ele><time>2026-03-22T12:04:34Z</time></trkpt><trkpt lat="41.56067304719509" lon="13.024457252437264"><ele>411.0</ele><time>2026-03-22T12:04:35Z</time></trkpt><trkpt lat="41.560758914292734" lon="13.024274010288424"><ele>410.0</ele><time>2026-03-22T12:04:36Z</time></trkpt><trkpt lat="41.5608431678672" lon="13.024084135133533"><ele>405.3333333333333</ele><time>2026-03-22T12:04:37Z</time></trkpt><trkpt lat="41.56092413263453" lon="13.023900245685471"><ele>400.66666666666663</ele><time>2026-03-22T12:04:38Z</time></trkpt><trkpt lat="41.561008047290514" lon="13.0237225466759"><ele>396.0</ele><time>2026-03-22T12:04:39Z</time></trkpt><trkpt lat="41.5610835295999" lon="13.023544608778495"><ele>396.0</ele><time>2026-03-22T12:04:40Z</time></trkpt><trkpt lat="41.56116529828662" lon="13.023370525843324"><ele>396.0</ele><time>2026-03-22T12:04:41Z</time></trkpt><trkpt lat="41.561242620325004" lon="13.023195257314299"><ele>396.0</ele><time>2026-03-22T12:04:42Z</time></trkpt><trkpt lat="41.561317325862426" lon="13.023019161594231"><ele>396.25</ele><time>2026-03-22T12:04:43Z</time></trkpt><trkpt lat="41.561390326114726" lon="13.022846306785684"><ele>396.5</ele><time>2026-03-22T12:04:44Z</time></trkpt><trkpt lat="41.561461741807605" lon="13.02267449813443"><ele>396.75</ele><time>2026-03-22T12:04:45Z</time></trkpt><trkpt lat="41.56153280862279" lon="13.022505763930708"><ele>397.0</ele><time>2026-03-22T12:04:46Z</time></trkpt><trkpt lat="41.561604096610246" lon="13.02233793489431"><ele>396.0</ele><time>2026-03-22T12:04:46.999Z</time></trkpt><trkpt lat="41.561675012474694" lon="13.022173083977526"><ele>395.0</ele><time>2026-03-22T12:04:47.999Z</time></trkpt><trkpt lat="41.56174797919962" lon="13.022010968248406"><ele>394.0</ele><time>2026-03-22T12:04:48.999Z</time></trkpt><trkpt lat="41.56182020216463" lon="13.021846870775109"><ele>393.0</ele><time>2026-03-22T12:04:49.999Z</time></trkpt><trkpt lat="41.56189332863732" lon="13.021686634538117"><ele>393.25</ele><time>2026-03-22T12:04:50.999Z</time></trkpt><trkpt lat="41.561964626537275" lon="13.021525858731522"><ele>393.5</ele><time>2026-03-22T12:04:51.999Z</time></trkpt><trkpt lat="41.562036061698" lon="13.021365318073267"><ele>393.75</ele><time>2026-03-22T12:04:52.999Z</time></trkpt><trkpt lat="41.56210034698901" lon="13.021200690275386"><ele>394.0</ele><time>2026-03-22T12:04:53.999Z</time></trkpt><trkpt lat="41.562141238210536" lon="13.021023329131856"><ele>395.0</ele><time>2026-03-22T12:04:54.999Z</time></trkpt><trkpt lat="41.56217042979486" lon="13.020848367258653"><ele>396.0</ele><time>2026-03-22T12:04:55.999Z</time></trkpt><trkpt lat="41.562202307258026" lon="13.020670202400495"><ele>397.0</ele><time>2026-03-22T12:04:56.999Z</time></trkpt><trkpt lat="41.562230396817135" lon="13.020491058568487"><ele>398.0</ele><time>2026-03-22T12:04:57.999Z</time></trkpt><trkpt lat="41.56226309980853" lon="13.020315746392047"><ele>393.25</ele><time>2026-03-22T12:04:58.999Z</time></trkpt><trkpt lat="41.56231534634886" lon="13.020144821485715"><ele>388.5</ele><time>2026-03-22T12:04:59.999Z</time></trkpt><trkpt lat="41.56238460413633" lon="13.019989176733308"><ele>383.75</ele><time>2026-03-22T12:05:00.999Z</time></trkpt><trkpt lat="41.562459792965946" lon="13.019841274265108"><ele>379.0</ele><time>2026-03-22T12:05:01.999Z</time></trkpt><trkpt lat="41.56254134100068" lon="13.01970244857777"><ele>376.0</ele><time>2026-03-22T12:05:02.999Z</time></trkpt><trkpt lat="41.5626226389157" lon="13.01955776991794"><ele>373.0</ele><time>2026-03-22T12:05:03.999Z</time></trkpt><trkpt lat="41.56270388878405" lon="13.01941711237963"><ele>370.0</ele><time>2026-03-22T12:05:04.999Z</time></trkpt><trkpt lat="41.56278540656297" lon="13.019273490248167"><ele>367.0</ele><time>2026-03-22T12:05:05.999Z</time></trkpt><trkpt lat="41.56286787328683" lon="13.019120014719093"><ele>367.0</ele><time>2026-03-22T12:05:06.999Z</time></trkpt><trkpt lat="41.56295897270482" lon="13.018932630895566"><ele>367.0</ele><time>2026-03-22T12:05:07.999Z</time></trkpt><trkpt lat="41.563050845807275" lon="13.018725578079145"><ele>367.0</ele><time>2026-03-22T12:05:08.999Z</time></trkpt><trkpt lat="41.563133113659305" lon="13.018527310731114"><ele>367.0</ele><time>2026-03-22T12:05:09.999Z</time></trkpt><trkpt lat="41.5632131559084" lon="13.018327699030197"><ele>367.0</ele><time>2026-03-22T12:05:10.999Z</time></trkpt><trkpt lat="41.56329516179003" lon="13.018131985590342"><ele>367.0</ele><time>2026-03-22T12:05:11.999Z</time></trkpt><trkpt lat="41.56337742650345" lon="13.017943960550355"><ele>367.0</ele><time>2026-03-22T12:05:12.999Z</time></trkpt><trkpt lat="41.563463488648516" lon="13.017756110835098"><ele>367.0</ele><time>2026-03-22T12:05:13.999Z</time></trkpt><trkpt lat="41.56355031453737" lon="13.01756737169526"><ele>367.0</ele><time>2026-03-22T12:05:14.999Z</time></trkpt><trkpt lat="41.563637619873376" lon="13.017385555748424"><ele>360.66666666666663</ele><time>2026-03-22T12:05:15.999Z</time></trkpt><trkpt lat="41.56372417458206" lon="13.017208640890953"><ele>354.3333333333333</ele><time>2026-03-22T12:05:16.999Z</time></trkpt><trkpt lat="41.56380928980714" lon="13.017034103801842"><ele>348.0</ele><time>2026-03-22T12:05:17.999Z</time></trkpt><trkpt lat="41.56389755426197" lon="13.016865180113879"><ele>348.0</ele><time>2026-03-22T12:05:18.999Z</time></trkpt><trkpt lat="41.56398484655708" lon="13.01669602402566"><ele>348.0</ele><time>2026-03-22T12:05:19.999Z</time></trkpt><trkpt lat="41.56407432378964" lon="13.016533130364959"><ele>348.0</ele><time>2026-03-22T12:05:20.999Z</time></trkpt><trkpt lat="41.564176727448476" lon="13.016390522854689"><ele>347.75</ele><time>2026-03-22T12:05:21.999Z</time></trkpt><trkpt lat="41.564295268908175" lon="13.01627338646356"><ele>347.5</ele><time>2026-03-22T12:05:22.999Z</time></trkpt><trkpt lat="41.56442491181894" lon="13.01617288973813"><ele>347.25</ele><time>2026-03-22T12:05:23.999Z</time></trkpt><trkpt lat="41.564558063203975" lon="13.016081041332894"><ele>347.0</ele><time>2026-03-22T12:05:24.999Z</time></trkpt><trkpt lat="41.564693177134316" lon="13.015996198236792"><ele>347.75</ele><time>2026-03-22T12:05:25.999Z</time></trkpt><trkpt lat="41.56482256323819" lon="13.015908319812231"><ele>348.5</ele><time>2026-03-22T12:05:26.999Z</time></trkpt><trkpt lat="41.56494018090422" lon="13.015792359781425"><ele>349.25</ele><time>2026-03-22T12:05:27.999Z</time></trkpt><trkpt lat="41.56504152822343" lon="13.015660922554137"><ele>350.0</ele><time>2026-03-22T12:05:28.999Z</time></trkpt><trkpt lat="41.56512816793382" lon="13.015513248040756"><ele>348.0</ele><time>2026-03-22T12:05:29.999Z</time></trkpt><trkpt lat="41.56519167750877" lon="13.015351195813224"><ele>346.0</ele><time>2026-03-22T12:05:30.999Z</time></trkpt><trkpt lat="41.565249013347554" lon="13.015186825238992"><ele>344.0</ele><time>2026-03-22T12:05:32.001Z</time></trkpt><trkpt lat="41.565314993150594" lon="13.015033416342554"><ele>342.0</ele><time>2026-03-22T12:05:33.001Z</time></trkpt><trkpt lat="41.5653848353603" lon="13.01488312709625"><ele>338.0</ele><time>2026-03-22T12:05:34.001Z</time></trkpt><trkpt lat="41.565457210581286" lon="13.014738287877538"><ele>334.0</ele><time>2026-03-22T12:05:35.001Z</time></trkpt><trkpt lat="41.565526212086674" lon="13.01459263772498"><ele>330.0</ele><time>2026-03-22T12:05:36.001Z</time></trkpt><trkpt lat="41.565610752264575" lon="13.014463260253516"><ele>326.0</ele><time>2026-03-22T12:05:37.001Z</time></trkpt><trkpt lat="41.565708493750876" lon="13.01435321783132"><ele>326.0</ele><time>2026-03-22T12:05:38.001Z</time></trkpt><trkpt lat="41.56580965760306" lon="13.01425484767196"><ele>326.0</ele><time>2026-03-22T12:05:39.001Z</time></trkpt><trkpt lat="41.56591080230271" lon="13.014143399808924"><ele>326.0</ele><time>2026-03-22T12:05:40.001Z</time></trkpt><trkpt lat="41.566015098523415" lon="13.014023146240463"><ele>326.0</ele><time>2026-03-22T12:05:41.001Z</time></trkpt><trkpt lat="41.56611763741365" lon="13.013888187598901"><ele>325.75</ele><time>2026-03-22T12:05:42.001Z</time></trkpt><trkpt lat="41.56620807721714" lon="13.013748116672017"><ele>325.5</ele><time>2026-03-22T12:05:43.001Z</time></trkpt><trkpt lat="41.56629603559804" lon="13.013604653254426"><ele>325.25</ele><time>2026-03-22T12:05:44.001Z</time></trkpt><trkpt lat="41.566383690973964" lon="13.013459782314678"><ele>325.0</ele><time>2026-03-22T12:05:45.001Z</time></trkpt><trkpt lat="41.5664734413134" lon="13.013327253886128"><ele>321.25</ele><time>2026-03-22T12:05:46.001Z</time></trkpt><trkpt lat="41.566559046879796" lon="13.013196968929215"><ele>317.5</ele><time>2026-03-22T12:05:47.001Z</time></trkpt><trkpt lat="41.56664417661741" lon="13.013079638350854"><ele>313.75</ele><time>2026-03-22T12:05:48.001Z</time></trkpt><trkpt lat="41.5667269043956" lon="13.012980324677825"><ele>310.0</ele><time>2026-03-22T12:05:49Z</time></trkpt><trkpt lat="41.566797593522935" lon="13.012908438925573"><ele>310.0</ele><time>2026-03-22T12:05:50Z</time></trkpt><trkpt lat="41.56686415613881" lon="13.012864262772197"><ele>310.0</ele><time>2026-03-22T12:05:51Z</time></trkpt><trkpt lat="41.56692896418603" lon="13.012820319220323"><ele>310.0</ele><time>2026-03-22T12:05:52Z</time></trkpt><trkpt lat="41.567014675768895" lon="13.012713320621716"><ele>310.0</ele><time>2026-03-22T12:05:54Z</time></trkpt><trkpt lat="41.566992146738464" lon="13.01257370024117"><ele>310.0</ele><time>2026-03-22T12:05:56Z</time></trkpt><trkpt lat="41.56692746596739" lon="13.0125567943048"><ele>310.0</ele><time>2026-03-22T12:05:57Z</time></trkpt><trkpt lat="41.566868940236226" lon="13.01259003241579"><ele>310.0</ele><time>2026-03-22T12:05:58Z</time></trkpt><trkpt lat="41.56679396738502" lon="13.012659701974014"><ele>310.0</ele><time>2026-03-22T12:05:59Z</time></trkpt><trkpt lat="41.56672497277426" lon="13.01271218187952"><ele>310.0</ele><time>2026-03-22T12:06:00Z</time></trkpt><trkpt lat="41.566653818775045" lon="13.012785699710488"><ele>310.0</ele><time>2026-03-22T12:06:01Z</time></trkpt><trkpt lat="41.566585203760326" lon="13.012857061634463"><ele>310.0</ele><time>2026-03-22T12:06:02Z</time></trkpt><trkpt lat="41.56652638208758" lon="13.012917056919283"><ele>310.0</ele><time>2026-03-22T12:06:03Z</time></trkpt><trkpt lat="41.566471330026694" lon="13.01296969615199"><ele>310.0</ele><time>2026-03-22T12:06:04Z</time></trkpt><trkpt lat="41.566354156683545" lon="13.012949324954748"><ele>310.0</ele><time>2026-03-22T12:06:06Z</time></trkpt><trkpt lat="41.56634144706241" lon="13.012865377034574"><ele>310.0</ele><time>2026-03-22T12:06:07Z</time></trkpt><trkpt lat="41.566389293535266" lon="13.012775365523428"><ele>310.0</ele><time>2026-03-22T12:06:08Z</time></trkpt><trkpt lat="41.566506072594386" lon="13.012737460143718"><ele>310.0</ele><time>2026-03-22T12:06:09Z</time></trkpt><trkpt lat="41.56659852074649" lon="13.012665506043845"><ele>310.0</ele><time>2026-03-22T12:06:10Z</time></trkpt><trkpt lat="41.56668300680784" lon="13.01256723465444"><ele>310.0</ele><time>2026-03-22T12:06:11Z</time></trkpt><trkpt lat="41.5667864404905" lon="13.012472709355373"><ele>310.0</ele><time>2026-03-22T12:06:12Z</time></trkpt><trkpt lat="41.56688047742831" lon="13.012377073740781"><ele>310.0</ele><time>2026-03-22T12:06:13Z</time></trkpt><trkpt lat="41.56696586783077" lon="13.01225436742077"><ele>308.5</ele><time>2026-03-22T12:06:14Z</time></trkpt><trkpt lat="41.56703461077398" lon="13.012106354077796"><ele>307.0</ele><time>2026-03-22T12:06:15Z</time></trkpt><trkpt lat="41.56710783087584" lon="13.011965015486147"><ele>305.5</ele><time>2026-03-22T12:06:16Z</time></trkpt><trkpt lat="41.56717848848003" lon="13.011819191765515"><ele>304.0</ele><time>2026-03-22T12:06:17Z</time></trkpt><trkpt lat="41.56725243852173" lon="13.011677290847377"><ele>304.25</ele><time>2026-03-22T12:06:18Z</time></trkpt><trkpt lat="41.567350289825995" lon="13.011538414359515"><ele>304.5</ele><time>2026-03-22T12:06:19Z</time></trkpt><trkpt lat="41.567456344525965" lon="13.011401653542736"><ele>304.75</ele><time>2026-03-22T12:06:20Z</time></trkpt><trkpt lat="41.567551358459255" lon="13.011262716798399"><ele>305.0</ele><time>2026-03-22T12:06:21Z</time></trkpt><trkpt lat="41.56764681565379" lon="13.01113132398547"><ele>305.0</ele><time>2026-03-22T12:06:22Z</time></trkpt><trkpt lat="41.567740160541625" lon="13.011006866510455"><ele>305.0</ele><time>2026-03-22T12:06:23Z</time></trkpt><trkpt lat="41.567831471124116" lon="13.010889480762309"><ele>305.0</ele><time>2026-03-22T12:06:24Z</time></trkpt><trkpt lat="41.56793297586449" lon="13.010773061987894"><ele>305.0</ele><time>2026-03-22T12:06:25Z</time></trkpt><trkpt lat="41.56804791286682" lon="13.01067729495802"><ele>300.75</ele><time>2026-03-22T12:06:26Z</time></trkpt><trkpt lat="41.56816525763331" lon="13.010594125741257"><ele>296.5</ele><time>2026-03-22T12:06:27Z</time></trkpt><trkpt lat="41.5682791753098" lon="13.010516827624032"><ele>292.25</ele><time>2026-03-22T12:06:28Z</time></trkpt><trkpt lat="41.568396260412406" lon="13.010468361099774"><ele>288.0</ele><time>2026-03-22T12:06:29Z</time></trkpt><trkpt lat="41.56848901273361" lon="13.010368887816853"><ele>288.0</ele><time>2026-03-22T12:06:30Z</time></trkpt><trkpt lat="41.56858412697681" lon="13.010262722403"><ele>288.0</ele><time>2026-03-22T12:06:31Z</time></trkpt><trkpt lat="41.56867888996048" lon="13.010140235674683"><ele>288.0</ele><time>2026-03-22T12:06:32Z</time></trkpt><trkpt lat="41.568785856423496" lon="13.01001569493905"><ele>288.0</ele><time>2026-03-22T12:06:33Z</time></trkpt><trkpt lat="41.568878845386116" lon="13.009888258620817"><ele>285.5</ele><time>2026-03-22T12:06:34Z</time></trkpt><trkpt lat="41.56897589745494" lon="13.009773370999378"><ele>283.0</ele><time>2026-03-22T12:06:35Z</time></trkpt><trkpt lat="41.569088164325635" lon="13.009691557728798"><ele>280.5</ele><time>2026-03-22T12:06:36Z</time></trkpt><trkpt lat="41.5692049518647" lon="13.009627735234135"><ele>278.0</ele><time>2026-03-22T12:06:37Z</time></trkpt><trkpt lat="41.5693281200759" lon="13.009550717009493"><ele>278.0</ele><time>2026-03-22T12:06:38Z</time></trkpt><trkpt lat="41.56944978085012" lon="13.009443893438796"><ele>278.0</ele><time>2026-03-22T12:06:39Z</time></trkpt><trkpt lat="41.56955397810145" lon="13.009290474549807"><ele>278.0</ele><time>2026-03-22T12:06:40Z</time></trkpt><trkpt lat="41.569629951341085" lon="13.009118500199001"><ele>277.0</ele><time>2026-03-22T12:06:41Z</time></trkpt><trkpt lat="41.569694778762006" lon="13.008946670296186"><ele>276.0</ele><time>2026-03-22T12:06:42Z</time></trkpt><trkpt lat="41.56977133106428" lon="13.008790170174777"><ele>275.0</ele><time>2026-03-22T12:06:43Z</time></trkpt><trkpt lat="41.569846444485755" lon="13.008637492596044"><ele>274.0</ele><time>2026-03-22T12:06:44Z</time></trkpt><trkpt lat="41.56991983990398" lon="13.008488883989726"><ele>274.0</ele><time>2026-03-22T12:06:45Z</time></trkpt><trkpt lat="41.56999872319086" lon="13.008355645469324"><ele>274.0</ele><time>2026-03-22T12:06:46Z</time></trkpt><trkpt lat="41.57007696428743" lon="13.008230072266716"><ele>274.0</ele><time>2026-03-22T12:06:47Z</time></trkpt><trkpt lat="41.57015735184445" lon="13.008118564269616"><ele>274.0</ele><time>2026-03-22T12:06:48Z</time></trkpt><trkpt lat="41.57023595734279" lon="13.00801571581305"><ele>271.8333333333333</ele><time>2026-03-22T12:06:49Z</time></trkpt><trkpt lat="41.57029880930821" lon="13.007926677392392"><ele>269.66666666666663</ele><time>2026-03-22T12:06:50Z</time></trkpt><trkpt lat="41.570337504865165" lon="13.007852343057383"><ele>267.5</ele><time>2026-03-22T12:06:51Z</time></trkpt><trkpt lat="41.570329687609615" lon="13.007699036171804"><ele>265.3333333333333</ele><time>2026-03-22T12:06:53Z</time></trkpt><trkpt lat="41.570269192847384" lon="13.007654162237115"><ele>263.1666666666667</ele><time>2026-03-22T12:06:54Z</time></trkpt><trkpt lat="41.57019769895589" lon="13.007670322415956"><ele>261.0</ele><time>2026-03-22T12:06:54.999Z</time></trkpt><trkpt lat="41.57012850810239" lon="13.007749224419216"><ele>261.0</ele><time>2026-03-22T12:06:55.999Z</time></trkpt><trkpt lat="41.57007041942823" lon="13.007867086962653"><ele>261.0</ele><time>2026-03-22T12:06:56.999Z</time></trkpt><trkpt lat="41.570008635516785" lon="13.007964501879114"><ele>261.0</ele><time>2026-03-22T12:06:57.999Z</time></trkpt><trkpt lat="41.569961089820204" lon="13.008060953352636"><ele>261.0</ele><time>2026-03-22T12:06:58.999Z</time></trkpt><trkpt lat="41.56990546502566" lon="13.008142446874627"><ele>261.0</ele><time>2026-03-22T12:06:59.999Z</time></trkpt><trkpt lat="41.56983085084344" lon="13.008184295681742"><ele>261.0</ele><time>2026-03-22T12:07:00.999Z</time></trkpt><trkpt lat="41.56975878504689" lon="13.008233104400741"><ele>261.0</ele><time>2026-03-22T12:07:01.999Z</time></trkpt><trkpt lat="41.56968850628072" lon="13.008257308925058"><ele>261.0</ele><time>2026-03-22T12:07:02.999Z</time></trkpt><trkpt lat="41.56961859211967" lon="13.008262886175249"><ele>261.0</ele><time>2026-03-22T12:07:03.999Z</time></trkpt><trkpt lat="41.56956225347828" lon="13.008187974176735"><ele>261.0</ele><time>2026-03-22T12:07:04.999Z</time></trkpt><trkpt lat="41.56955253945524" lon="13.008085966865046"><ele>261.0</ele><time>2026-03-22T12:07:05.999Z</time></trkpt><trkpt lat="41.56959840809435" lon="13.00797868516137"><ele>261.0</ele><time>2026-03-22T12:07:06.999Z</time></trkpt><trkpt lat="41.569672283664715" lon="13.007855768386516"><ele>261.0</ele><time>2026-03-22T12:07:07.999Z</time></trkpt><trkpt lat="41.56973676242479" lon="13.007733365881053"><ele>261.0</ele><time>2026-03-22T12:07:08.999Z</time></trkpt><trkpt lat="41.569812786417636" lon="13.007601258620758"><ele>261.0</ele><time>2026-03-22T12:07:09.999Z</time></trkpt><trkpt lat="41.56987629385505" lon="13.007471978046645"><ele>258.5</ele><time>2026-03-22T12:07:10.999Z</time></trkpt><trkpt lat="41.569928499951985" lon="13.007337822669411"><ele>256.0</ele><time>2026-03-22T12:07:11.999Z</time></trkpt><trkpt lat="41.56997355692929" lon="13.00719603266175"><ele>253.5</ele><time>2026-03-22T12:07:12.999Z</time></trkpt><trkpt lat="41.57000787969869" lon="13.007051741604025"><ele>251.0</ele><time>2026-03-22T12:07:13.999Z</time></trkpt><trkpt lat="41.57003766251318" lon="13.006901232325982"><ele>251.0</ele><time>2026-03-22T12:07:14.999Z</time></trkpt><trkpt lat="41.57006607955613" lon="13.006749701984317"><ele>251.0</ele><time>2026-03-22T12:07:15.999Z</time></trkpt><trkpt lat="41.570095758640065" lon="13.006599945348796"><ele>251.0</ele><time>2026-03-22T12:07:16.999Z</time></trkpt><trkpt lat="41.57013199976655" lon="13.006454072132412"><ele>251.0</ele><time>2026-03-22T12:07:17.999Z</time></trkpt><trkpt lat="41.57018910099721" lon="13.006312249677642"><ele>251.25</ele><time>2026-03-22T12:07:18.999Z</time></trkpt><trkpt lat="41.57026248605339" lon="13.006169640501678"><ele>251.5</ele><time>2026-03-22T12:07:19.999Z</time></trkpt><trkpt lat="41.57032655691592" lon="13.006017042596117"><ele>251.75</ele><time>2026-03-22T12:07:20.999Z</time></trkpt><trkpt lat="41.570392690137474" lon="13.005842708699102"><ele>252.0</ele><time>2026-03-22T12:07:21.999Z</time></trkpt><trkpt lat="41.57045282985934" lon="13.005673560301123"><ele>252.0</ele><time>2026-03-22T12:07:22.999Z</time></trkpt><trkpt lat="41.570515394871165" lon="13.005485065174474"><ele>252.0</ele><time>2026-03-22T12:07:23.999Z</time></trkpt><trkpt lat="41.57057746013979" lon="13.005288148637884"><ele>252.0</ele><time>2026-03-22T12:07:24.999Z</time></trkpt><trkpt lat="41.57061790500311" lon="13.005071957320565"><ele>250.0</ele><time>2026-03-22T12:07:25.999Z</time></trkpt><trkpt lat="41.57063759429559" lon="13.004837953995729"><ele>248.0</ele><time>2026-03-22T12:07:26.999Z</time></trkpt><trkpt lat="41.57063422190145" lon="13.004610202678498"><ele>246.0</ele><time>2026-03-22T12:07:27.999Z</time></trkpt><trkpt lat="41.57063116369383" lon="13.004394380580276"><ele>246.0</ele><time>2026-03-22T12:07:28.999Z</time></trkpt><trkpt lat="41.570630668564455" lon="13.004172911891299"><ele>246.0</ele><time>2026-03-22T12:07:29.999Z</time></trkpt><trkpt lat="41.570624052375635" lon="13.003967969213193"><ele>246.0</ele><time>2026-03-22T12:07:30.999Z</time></trkpt><trkpt lat="41.57060972411645" lon="13.003765893067161"><ele>244.75</ele><time>2026-03-22T12:07:31.999Z</time></trkpt><trkpt lat="41.570590170316315" lon="13.003571558561783"><ele>243.5</ele><time>2026-03-22T12:07:32.999Z</time></trkpt><trkpt lat="41.57058247342793" lon="13.003390267106408"><ele>242.25</ele><time>2026-03-22T12:07:33.999Z</time></trkpt><trkpt lat="41.57060130915267" lon="13.003215496146584"><ele>241.0</ele><time>2026-03-22T12:07:34.999Z</time></trkpt><trkpt lat="41.570645218204724" lon="13.003046360614714"><ele>238.5</ele><time>2026-03-22T12:07:35.999Z</time></trkpt><trkpt lat="41.57070362756105" lon="13.002889109812516"><ele>236.0</ele><time>2026-03-22T12:07:36.999Z</time></trkpt><trkpt lat="41.57076922201008" lon="13.002740418423167"><ele>233.5</ele><time>2026-03-22T12:07:38.001Z</time></trkpt><trkpt lat="41.57085935217551" lon="13.00261236652731"><ele>231.0</ele><time>2026-03-22T12:07:39.001Z</time></trkpt><trkpt lat="41.570949812317274" lon="13.002484315415233"><ele>231.0</ele><time>2026-03-22T12:07:40.001Z</time></trkpt><trkpt lat="41.57104649714275" lon="13.002364987593708"><ele>231.0</ele><time>2026-03-22T12:07:41.001Z</time></trkpt><trkpt lat="41.57114512336399" lon="13.002247934534932"><ele>231.0</ele><time>2026-03-22T12:07:42.001Z</time></trkpt><trkpt lat="41.57124390552552" lon="13.002118116799114"><ele>231.0</ele><time>2026-03-22T12:07:43.001Z</time></trkpt><trkpt lat="41.571345849591104" lon="13.001983653859867"><ele>231.0</ele><time>2026-03-22T12:07:44.001Z</time></trkpt><trkpt lat="41.57144785446336" lon="13.001848717874827"><ele>231.0</ele><time>2026-03-22T12:07:45.001Z</time></trkpt><trkpt lat="41.5715467621296" lon="13.001700973853042"><ele>231.0</ele><time>2026-03-22T12:07:46.001Z</time></trkpt><trkpt lat="41.57163556466485" lon="13.001542346240022"><ele>231.0</ele><time>2026-03-22T12:07:47.001Z</time></trkpt><trkpt lat="41.57171333008831" lon="13.001368453809738"><ele>226.0</ele><time>2026-03-22T12:07:48.001Z</time></trkpt><trkpt lat="41.57178726762351" lon="13.001188041056432"><ele>221.0</ele><time>2026-03-22T12:07:49.001Z</time></trkpt><trkpt lat="41.571856871325174" lon="13.000997555391068"><ele>216.0</ele><time>2026-03-22T12:07:50.001Z</time></trkpt><trkpt lat="41.57193288427382" lon="13.000795837464176"><ele>216.0</ele><time>2026-03-22T12:07:51.001Z</time></trkpt><trkpt lat="41.57200151273119" lon="13.000582687079532"><ele>216.0</ele><time>2026-03-22T12:07:52.001Z</time></trkpt><trkpt lat="41.57205881515678" lon="13.000381614321382"><ele>216.0</ele><time>2026-03-22T12:07:53.001Z</time></trkpt><trkpt lat="41.572100511205626" lon="13.000180674286725"><ele>219.33333333333331</ele><time>2026-03-22T12:07:54.001Z</time></trkpt><trkpt lat="41.57213427564053" lon="12.999984760004383"><ele>222.66666666666666</ele><time>2026-03-22T12:07:55Z</time></trkpt><trkpt lat="41.572166456307826" lon="12.999786541184902"><ele>226.0</ele><time>2026-03-22T12:07:56Z</time></trkpt><trkpt lat="41.57221094463307" lon="12.999595352433072"><ele>226.0</ele><time>2026-03-22T12:07:57Z</time></trkpt><trkpt lat="41.572276195890844" lon="12.999414314329503"><ele>226.0</ele><time>2026-03-22T12:07:58Z</time></trkpt><trkpt lat="41.572361380153346" lon="12.999254252896815"><ele>226.0</ele><time>2026-03-22T12:07:59Z</time></trkpt><trkpt lat="41.57246701263815" lon="12.999116735792954"><ele>226.0</ele><time>2026-03-22T12:08:00Z</time></trkpt><trkpt lat="41.57258348818188" lon="12.99899125016547"><ele>228.33333333333331</ele><time>2026-03-22T12:08:01Z</time></trkpt><trkpt lat="41.572718859848784" lon="12.998871097098442"><ele>230.66666666666669</ele><time>2026-03-22T12:08:02Z</time></trkpt><trkpt lat="41.5728565437923" lon="12.998744132606074"><ele>233.0</ele><time>2026-03-22T12:08:03Z</time></trkpt><trkpt lat="41.57296372692427" lon="12.99858448828152"><ele>233.0</ele><time>2026-03-22T12:08:04Z</time></trkpt><trkpt lat="41.573042902759326" lon="12.99840349920266"><ele>233.0</ele><time>2026-03-22T12:08:05Z</time></trkpt><trkpt lat="41.57309891487859" lon="12.998209442029992"><ele>233.0</ele><time>2026-03-22T12:08:06Z</time></trkpt><trkpt lat="41.573142156070894" lon="12.99802106469196"><ele>226.0</ele><time>2026-03-22T12:08:07Z</time></trkpt><trkpt lat="41.573181813398016" lon="12.997838075496267"><ele>219.0</ele><time>2026-03-22T12:08:08Z</time></trkpt><trkpt lat="41.573224253529055" lon="12.997657191702839"><ele>212.0</ele><time>2026-03-22T12:08:09Z</time></trkpt><trkpt lat="41.57327850822739" lon="12.997483620785754"><ele>205.0</ele><time>2026-03-22T12:08:10Z</time></trkpt><trkpt lat="41.57335292084628" lon="12.997315503824906"><ele>200.66666666666666</ele><time>2026-03-22T12:08:11Z</time></trkpt><trkpt lat="41.5734406092891" lon="12.9971363815081"><ele>196.33333333333331</ele><time>2026-03-22T12:08:12Z</time></trkpt><trkpt lat="41.57353928192283" lon="12.996949449935364"><ele>192.0</ele><time>2026-03-22T12:08:13Z</time></trkpt><trkpt lat="41.57364250754667" lon="12.99676728711885"><ele>191.0</ele><time>2026-03-22T12:08:14Z</time></trkpt><trkpt lat="41.57373762080027" lon="12.996595063742326"><ele>190.0</ele><time>2026-03-22T12:08:15Z</time></trkpt><trkpt lat="41.57382782253803" lon="12.996427875855979"><ele>189.0</ele><time>2026-03-22T12:08:16Z</time></trkpt><trkpt lat="41.573921140963684" lon="12.996269927819306"><ele>189.0</ele><time>2026-03-22T12:08:17Z</time></trkpt><trkpt lat="41.57402367220447" lon="12.996127124645328"><ele>189.0</ele><time>2026-03-22T12:08:18Z</time></trkpt><trkpt lat="41.57413859409568" lon="12.996010474346425"><ele>189.0</ele><time>2026-03-22T12:08:19Z</time></trkpt><trkpt lat="41.57426229678129" lon="12.995911255294477"><ele>189.0</ele><time>2026-03-22T12:08:20Z</time></trkpt><trkpt lat="41.574377343531076" lon="12.995803735983003"><ele>190.5</ele><time>2026-03-22T12:08:21Z</time></trkpt><trkpt lat="41.57448646083886" lon="12.995687897910218"><ele>192.0</ele><time>2026-03-22T12:08:22Z</time></trkpt><trkpt lat="41.57459324746485" lon="12.995568600117087"><ele>193.5</ele><time>2026-03-22T12:08:23Z</time></trkpt><trkpt lat="41.57469451849954" lon="12.995441684111151"><ele>195.0</ele><time>2026-03-22T12:08:24Z</time></trkpt><trkpt lat="41.5747865958312" lon="12.995305592538273"><ele>195.0</ele><time>2026-03-22T12:08:25Z</time></trkpt><trkpt lat="41.57486289908065" lon="12.995155706678316"><ele>195.0</ele><time>2026-03-22T12:08:26Z</time></trkpt><trkpt lat="41.57492532374464" lon="12.99499432261161"><ele>195.0</ele><time>2026-03-22T12:08:27Z</time></trkpt><trkpt lat="41.57498989234425" lon="12.994838854356235"><ele>195.0</ele><time>2026-03-22T12:08:28Z</time></trkpt><trkpt lat="41.57505943726276" lon="12.994685562821234"><ele>187.66666666666666</ele><time>2026-03-22T12:08:29Z</time></trkpt><trkpt lat="41.575131889735374" lon="12.994514459097529"><ele>180.33333333333331</ele><time>2026-03-22T12:08:30Z</time></trkpt><trkpt lat="41.57521504669164" lon="12.99431831172735"><ele>173.0</ele><time>2026-03-22T12:08:31Z</time></trkpt><trkpt lat="41.57531231065666" lon="12.994100546313932"><ele>176.33333333333331</ele><time>2026-03-22T12:08:32Z</time></trkpt><trkpt lat="41.57541033191437" lon="12.993880984267678"><ele>179.66666666666666</ele><time>2026-03-22T12:08:33Z</time></trkpt><trkpt lat="41.57549818167707" lon="12.99367124339788"><ele>183.0</ele><time>2026-03-22T12:08:34Z</time></trkpt><trkpt lat="41.575581884551035" lon="12.993474979309122"><ele>178.33333333333334</ele><time>2026-03-22T12:08:35Z</time></trkpt><trkpt lat="41.57565797878194" lon="12.993284065402431"><ele>173.66666666666669</ele><time>2026-03-22T12:08:36Z</time></trkpt><trkpt lat="41.57572020221534" lon="12.993086631951266"><ele>169.0</ele><time>2026-03-22T12:08:37Z</time></trkpt><trkpt lat="41.575755722498656" lon="12.992888670265335"><ele>169.0</ele><time>2026-03-22T12:08:38Z</time></trkpt><trkpt lat="41.57576506856877" lon="12.992689786703387"><ele>169.0</ele><time>2026-03-22T12:08:39Z</time></trkpt><trkpt lat="41.575763343718506" lon="12.99249726827879"><ele>169.0</ele><time>2026-03-22T12:08:40Z</time></trkpt><trkpt lat="41.575757994883475" lon="12.992309924288039"><ele>169.0</ele><time>2026-03-22T12:08:41Z</time></trkpt><trkpt lat="41.57575173684667" lon="12.992125483901846"><ele>167.25</ele><time>2026-03-22T12:08:42Z</time></trkpt><trkpt lat="41.575749751616485" lon="12.991945658580834"><ele>165.5</ele><time>2026-03-22T12:08:43Z</time></trkpt><trkpt lat="41.57574655055688" lon="12.991768674740682"><ele>163.75</ele><time>2026-03-22T12:08:44Z</time></trkpt><trkpt lat="41.57574274794222" lon="12.99159460300516"><ele>162.0</ele><time>2026-03-22T12:08:45Z</time></trkpt><trkpt lat="41.57574118189736" lon="12.991423523040936"><ele>160.25</ele><time>2026-03-22T12:08:46Z</time></trkpt><trkpt lat="41.57574164858759" lon="12.991255580881496"><ele>158.5</ele><time>2026-03-22T12:08:47Z</time></trkpt><trkpt lat="41.57574477363814" lon="12.99109022843066"><ele>156.75</ele><time>2026-03-22T12:08:48Z</time></trkpt><trkpt lat="41.57574516250577" lon="12.990923653513832"><ele>155.0</ele><time>2026-03-22T12:08:49Z</time></trkpt><trkpt lat="41.575742814617406" lon="12.99076560128486"><ele>152.75</ele><time>2026-03-22T12:08:50Z</time></trkpt><trkpt lat="41.57572992953787" lon="12.990603822048232"><ele>150.5</ele><time>2026-03-22T12:08:51Z</time></trkpt><trkpt lat="41.57568506720539" lon="12.990440926700785"><ele>148.25</ele><time>2026-03-22T12:08:52Z</time></trkpt><trkpt lat="41.57561909454046" lon="12.990271102430388"><ele>146.0</ele><time>2026-03-22T12:08:53Z</time></trkpt><trkpt lat="41.575547048903395" lon="12.990103343935376"><ele>145.33333333333331</ele><time>2026-03-22T12:08:54Z</time></trkpt><trkpt lat="41.57548203757932" lon="12.989913012332511"><ele>144.66666666666666</ele><time>2026-03-22T12:08:55Z</time></trkpt><trkpt lat="41.5754412929441" lon="12.989702875879388"><ele>144.0</ele><time>2026-03-22T12:08:56Z</time></trkpt><trkpt lat="41.57541712290009" lon="12.989498329832402"><ele>144.0</ele><time>2026-03-22T12:08:56.999Z</time></trkpt><trkpt lat="41.57539021427189" lon="12.989291216766741"><ele>144.0</ele><time>2026-03-22T12:08:57.999Z</time></trkpt><trkpt lat="41.57536969539376" lon="12.989087518582489"><ele>144.0</ele><time>2026-03-22T12:08:58.999Z</time></trkpt><trkpt lat="41.575339488078924" lon="12.988889323443527"><ele>143.75</ele><time>2026-03-22T12:08:59.999Z</time></trkpt><trkpt lat="41.575309691796534" lon="12.988698971786503"><ele>143.5</ele><time>2026-03-22T12:09:00.999Z</time></trkpt><trkpt lat="41.575277539270445" lon="12.988510998418516"><ele>143.25</ele><time>2026-03-22T12:09:01.999Z</time></trkpt><trkpt lat="41.57524157224826" lon="12.988329999411835"><ele>143.0</ele><time>2026-03-22T12:09:02.999Z</time></trkpt><trkpt lat="41.57519324239912" lon="12.988156341914992"><ele>143.0</ele><time>2026-03-22T12:09:03.999Z</time></trkpt><trkpt lat="41.5751247347921" lon="12.987989160285984"><ele>143.0</ele><time>2026-03-22T12:09:04.999Z</time></trkpt><trkpt lat="41.57502804237749" lon="12.987832538635969"><ele>143.0</ele><time>2026-03-22T12:09:05.999Z</time></trkpt><trkpt lat="41.574914493560364" lon="12.987677811120808"><ele>143.0</ele><time>2026-03-22T12:09:06.999Z</time></trkpt><trkpt lat="41.574791930488004" lon="12.987524176786255"><ele>143.0</ele><time>2026-03-22T12:09:07.999Z</time></trkpt><trkpt lat="41.574674047803256" lon="12.987360894165489"><ele>143.0</ele><time>2026-03-22T12:09:08.999Z</time></trkpt><trkpt lat="41.57455251796372" lon="12.987245059134343"><ele>147.33333333333331</ele><time>2026-03-22T12:09:09.999Z</time></trkpt><trkpt lat="41.574431639637226" lon="12.987138636804648"><ele>151.66666666666666</ele><time>2026-03-22T12:09:10.999Z</time></trkpt><trkpt lat="41.57429576866645" lon="12.987044192676121"><ele>156.0</ele><time>2026-03-22T12:09:11.999Z</time></trkpt><trkpt lat="41.5741718772492" lon="12.9869115245041"><ele>156.0</ele><time>2026-03-22T12:09:12.999Z</time></trkpt><trkpt lat="41.574062372362555" lon="12.986752397944436"><ele>156.0</ele><time>2026-03-22T12:09:13.999Z</time></trkpt><trkpt lat="41.5739630762905" lon="12.986569215378607"><ele>156.0</ele><time>2026-03-22T12:09:14.999Z</time></trkpt><trkpt lat="41.57386902998134" lon="12.98640096770949"><ele>156.5</ele><time>2026-03-22T12:09:15.999Z</time></trkpt><trkpt lat="41.57377138029165" lon="12.9862538086221"><ele>157.0</ele><time>2026-03-22T12:09:16.999Z</time></trkpt><trkpt lat="41.57367308489037" lon="12.986102653242813"><ele>157.5</ele><time>2026-03-22T12:09:17.999Z</time></trkpt><trkpt lat="41.573571703982445" lon="12.985953813748983"><ele>158.0</ele><time>2026-03-22T12:09:18.999Z</time></trkpt><trkpt lat="41.57347169192398" lon="12.985801425229909"><ele>153.25</ele><time>2026-03-22T12:09:19.999Z</time></trkpt><trkpt lat="41.57337063008426" lon="12.985659677658184"><ele>148.5</ele><time>2026-03-22T12:09:20.999Z</time></trkpt><trkpt lat="41.57326172428396" lon="12.985524343530649"><ele>143.75</ele><time>2026-03-22T12:09:21.999Z</time></trkpt><trkpt lat="41.57315323794734" lon="12.985391307830172"><ele>139.0</ele><time>2026-03-22T12:09:22.999Z</time></trkpt><trkpt lat="41.57305396806152" lon="12.98525054460084"><ele>139.0</ele><time>2026-03-22T12:09:23.999Z</time></trkpt><trkpt lat="41.572935238751626" lon="12.985130361503774"><ele>139.0</ele><time>2026-03-22T12:09:24.999Z</time></trkpt><trkpt lat="41.57281599938525" lon="12.985018074641584"><ele>139.0</ele><time>2026-03-22T12:09:25.999Z</time></trkpt><trkpt lat="41.57268327827455" lon="12.984913683801953"><ele>139.0</ele><time>2026-03-22T12:09:26.999Z</time></trkpt><trkpt lat="41.572566912482024" lon="12.984780432970052"><ele>139.33333333333334</ele><time>2026-03-22T12:09:27.999Z</time></trkpt><trkpt lat="41.5724578165275" lon="12.984636462519694"><ele>139.66666666666666</ele><time>2026-03-22T12:09:28.999Z</time></trkpt><trkpt lat="41.57234872339188" lon="12.984492337033073"><ele>140.0</ele><time>2026-03-22T12:09:29.999Z</time></trkpt><trkpt lat="41.57224534873096" lon="12.98433109908948"><ele>142.33333333333331</ele><time>2026-03-22T12:09:30.999Z</time></trkpt><trkpt lat="41.57215240254408" lon="12.984153207557787"><ele>144.66666666666666</ele><time>2026-03-22T12:09:31.999Z</time></trkpt><trkpt lat="41.572056171820144" lon="12.983953961786076"><ele>147.0</ele><time>2026-03-22T12:09:32.999Z</time></trkpt><trkpt lat="41.57195712264359" lon="12.983771519270617"><ele>147.0</ele><time>2026-03-22T12:09:33.999Z</time></trkpt><trkpt lat="41.57186127143895" lon="12.983619553707479"><ele>147.0</ele><time>2026-03-22T12:09:34.999Z</time></trkpt><trkpt lat="41.571771630224966" lon="12.983466573357362"><ele>147.0</ele><time>2026-03-22T12:09:35.999Z</time></trkpt><trkpt lat="41.5716970597709" lon="12.983305670960016"><ele>147.0</ele><time>2026-03-22T12:09:36.999Z</time></trkpt><trkpt lat="41.571621789370326" lon="12.983151446718708"><ele>142.5</ele><time>2026-03-22T12:09:37.999Z</time></trkpt><trkpt lat="41.57154589086276" lon="12.982987785070899"><ele>138.0</ele><time>2026-03-22T12:09:38.999Z</time></trkpt><trkpt lat="41.57146383677084" lon="12.982848393885094"><ele>133.5</ele><time>2026-03-22T12:09:39.999Z</time></trkpt><trkpt lat="41.57137348662672" lon="12.982701319254822"><ele>129.0</ele><time>2026-03-22T12:09:40.999Z</time></trkpt><trkpt lat="41.57123834052478" lon="12.982594412966352"><ele>128.0</ele><time>2026-03-22T12:09:41.999Z</time></trkpt><trkpt lat="41.5710835973435" lon="12.982516458839056"><ele>127.0</ele><time>2026-03-22T12:09:43.001Z</time></trkpt><trkpt lat="41.57092746979849" lon="12.982452425944908"><ele>126.0</ele><time>2026-03-22T12:09:44.001Z</time></trkpt><trkpt lat="41.570782340657146" lon="12.982388329335858"><ele>126.0</ele><time>2026-03-22T12:09:45.001Z</time></trkpt><trkpt lat="41.57064246915413" lon="12.98231349568043"><ele>126.0</ele><time>2026-03-22T12:09:46.001Z</time></trkpt><trkpt lat="41.57050704535005" lon="12.982242324137653"><ele>126.0</ele><time>2026-03-22T12:09:47.001Z</time></trkpt><trkpt lat="41.57038380029544" lon="12.982134333354521"><ele>126.0</ele><time>2026-03-22T12:09:48.001Z</time></trkpt><trkpt lat="41.57025499994854" lon="12.982009827149975"><ele>127.33333333333334</ele><time>2026-03-22T12:09:49.001Z</time></trkpt><trkpt lat="41.570123915511786" lon="12.98187691934076"><ele>128.66666666666669</ele><time>2026-03-22T12:09:50.001Z</time></trkpt><trkpt lat="41.570006829830795" lon="12.981713115700963"><ele>130.0</ele><time>2026-03-22T12:09:51.001Z</time></trkpt><trkpt lat="41.569887985641465" lon="12.981575853738951"><ele>126.33333333333334</ele><time>2026-03-22T12:09:52.001Z</time></trkpt><trkpt lat="41.569785192507936" lon="12.981416633404837"><ele>122.66666666666666</ele><time>2026-03-22T12:09:53.001Z</time></trkpt><trkpt lat="41.569680951380995" lon="12.981265679194697"><ele>119.0</ele><time>2026-03-22T12:09:54.001Z</time></trkpt><trkpt lat="41.56957466461046" lon="12.981120912581527"><ele>119.25</ele><time>2026-03-22T12:09:55.001Z</time></trkpt><trkpt lat="41.56946977944092" lon="12.980981397589133"><ele>119.5</ele><time>2026-03-22T12:09:56.001Z</time></trkpt><trkpt lat="41.569366276264304" lon="12.980848172540226"><ele>119.75</ele><time>2026-03-22T12:09:57.001Z</time></trkpt><trkpt lat="41.56926047686249" lon="12.980726995860593"><ele>120.0</ele><time>2026-03-22T12:09:58Z</time></trkpt><trkpt lat="41.56915500034589" lon="12.980612457916543"><ele>119.0</ele><time>2026-03-22T12:09:59Z</time></trkpt><trkpt lat="41.56905466395943" lon="12.980492518096536"><ele>118.0</ele><time>2026-03-22T12:10:00Z</time></trkpt><trkpt lat="41.568963303836696" lon="12.980357769892455"><ele>117.0</ele><time>2026-03-22T12:10:01Z</time></trkpt><trkpt lat="41.568888128582245" lon="12.980211410438537"><ele>116.0</ele><time>2026-03-22T12:10:02Z</time></trkpt><trkpt lat="41.56880824239256" lon="12.980067061557637"><ele>115.0</ele><time>2026-03-22T12:10:03Z</time></trkpt><trkpt lat="41.56877710803028" lon="12.979902181368532"><ele>114.0</ele><time>2026-03-22T12:10:04Z</time></trkpt><trkpt lat="41.56872456580304" lon="12.979745637963815"><ele>113.0</ele><time>2026-03-22T12:10:05Z</time></trkpt><trkpt lat="41.568689155380646" lon="12.979585739016217"><ele>112.0</ele><time>2026-03-22T12:10:06Z</time></trkpt><trkpt lat="41.56867330756761" lon="12.979430581340784"><ele>110.75</ele><time>2026-03-22T12:10:07Z</time></trkpt><trkpt lat="41.568682464080624" lon="12.979289239731376"><ele>109.5</ele><time>2026-03-22T12:10:08Z</time></trkpt><trkpt lat="41.568739195161456" lon="12.979168124776516"><ele>108.25</ele><time>2026-03-22T12:10:09Z</time></trkpt><trkpt lat="41.56882768606514" lon="12.979058790087919"><ele>107.0</ele><time>2026-03-22T12:10:10Z</time></trkpt><trkpt lat="41.56891725271631" lon="12.978942536719641"><ele>106.25</ele><time>2026-03-22T12:10:11Z</time></trkpt><trkpt lat="41.56901499368897" lon="12.978850469316074"><ele>105.5</ele><time>2026-03-22T12:10:12Z</time></trkpt><trkpt lat="41.56912934434192" lon="12.97880169147664"><ele>104.75</ele><time>2026-03-22T12:10:13Z</time></trkpt><trkpt lat="41.56924734723998" lon="12.978799350510831"><ele>104.0</ele><time>2026-03-22T12:10:14Z</time></trkpt><trkpt lat="41.569362243186596" lon="12.978830732176139"><ele>104.0</ele><time>2026-03-22T12:10:15Z</time></trkpt><trkpt lat="41.569471411973495" lon="12.978849568507439"><ele>104.0</ele><time>2026-03-22T12:10:16Z</time></trkpt><trkpt lat="41.56957977600894" lon="12.97884539934451"><ele>104.0</ele><time>2026-03-22T12:10:17Z</time></trkpt><trkpt lat="41.5696852374515" lon="12.978806855047091"><ele>104.0</ele><time>2026-03-22T12:10:18Z</time></trkpt><trkpt lat="41.569770275926" lon="12.978717431461435"><ele>104.0</ele><time>2026-03-22T12:10:19Z</time></trkpt><trkpt lat="41.56983456983451" lon="12.978614021687962"><ele>103.80000000000001</ele><time>2026-03-22T12:10:20Z</time></trkpt><trkpt lat="41.56988733506012" lon="12.97849624154198"><ele>103.60000000000001</ele><time>2026-03-22T12:10:21Z</time></trkpt><trkpt lat="41.56993160812383" lon="12.978372945783228"><ele>103.4</ele><time>2026-03-22T12:10:22Z</time></trkpt><trkpt lat="41.56998192335541" lon="12.978250739668523"><ele>103.2</ele><time>2026-03-22T12:10:23Z</time></trkpt><trkpt lat="41.57002176177217" lon="12.978116840141752"><ele>103.0</ele><time>2026-03-22T12:10:24Z</time></trkpt><trkpt lat="41.57002997630573" lon="12.977968966304552"><ele>102.5</ele><time>2026-03-22T12:10:25Z</time></trkpt><trkpt lat="41.570000100607906" lon="12.97781861801891"><ele>102.0</ele><time>2026-03-22T12:10:26Z</time></trkpt><trkpt lat="41.56995066501077" lon="12.97768029217898"><ele>101.5</ele><time>2026-03-22T12:10:27Z</time></trkpt><trkpt lat="41.569892953142144" lon="12.977540975880652"><ele>101.0</ele><time>2026-03-22T12:10:28Z</time></trkpt><trkpt lat="41.56984099617221" lon="12.977383338809496"><ele>101.0</ele><time>2026-03-22T12:10:29Z</time></trkpt><trkpt lat="41.5697885374377" lon="12.977216179690013"><ele>101.0</ele><time>2026-03-22T12:10:30Z</time></trkpt><trkpt lat="41.56973216748641" lon="12.977049912638202"><ele>101.0</ele><time>2026-03-22T12:10:31Z</time></trkpt><trkpt lat="41.56966731603329" lon="12.976905876420206"><ele>101.0</ele><time>2026-03-22T12:10:32Z</time></trkpt><trkpt lat="41.569593329564455" lon="12.976777887745568"><ele>98.0</ele><time>2026-03-22T12:10:33Z</time></trkpt><trkpt lat="41.569512170945245" lon="12.976661083456971"><ele>95.0</ele><time>2026-03-22T12:10:34Z</time></trkpt><trkpt lat="41.56942034518747" lon="12.976548385446307"><ele>92.0</ele><time>2026-03-22T12:10:35Z</time></trkpt><trkpt lat="41.569327070666944" lon="12.976444851955298"><ele>89.0</ele><time>2026-03-22T12:10:36Z</time></trkpt><trkpt lat="41.56923409308548" lon="12.976340863015162"><ele>89.0</ele><time>2026-03-22T12:10:37Z</time></trkpt><trkpt lat="41.56914883424958" lon="12.976224212975918"><ele>89.0</ele><time>2026-03-22T12:10:38Z</time></trkpt><trkpt lat="41.56907114594447" lon="12.976085452056644"><ele>89.0</ele><time>2026-03-22T12:10:39Z</time></trkpt><trkpt lat="41.568984064694874" lon="12.975945717140076"><ele>89.0</ele><time>2026-03-22T12:10:40Z</time></trkpt><trkpt lat="41.568881360472595" lon="12.975800674939572"><ele>91.0</ele><time>2026-03-22T12:10:41Z</time></trkpt><trkpt lat="41.56877388459258" lon="12.9756522132094"><ele>93.0</ele><time>2026-03-22T12:10:42Z</time></trkpt><trkpt lat="41.56865007826003" lon="12.975531531017193"><ele>95.0</ele><time>2026-03-22T12:10:43Z</time></trkpt><trkpt lat="41.568525290430024" lon="12.975425730019415"><ele>91.5</ele><time>2026-03-22T12:10:44Z</time></trkpt><trkpt lat="41.568416776881286" lon="12.9753003835102"><ele>88.0</ele><time>2026-03-22T12:10:45Z</time></trkpt><trkpt lat="41.56833189339159" lon="12.975151843524637"><ele>84.5</ele><time>2026-03-22T12:10:46Z</time></trkpt><trkpt lat="41.56826995887071" lon="12.974980782255223"><ele>81.0</ele><time>2026-03-22T12:10:47Z</time></trkpt><trkpt lat="41.568236344991234" lon="12.97480201620107"><ele>81.0</ele><time>2026-03-22T12:10:48Z</time></trkpt><trkpt lat="41.568226239188505" lon="12.974610209577625"><ele>81.0</ele><time>2026-03-22T12:10:49Z</time></trkpt><trkpt lat="41.568202247668765" lon="12.974411685106015"><ele>81.0</ele><time>2026-03-22T12:10:50Z</time></trkpt><trkpt lat="41.56816155972002" lon="12.974210124228978"><ele>81.33333333333333</ele><time>2026-03-22T12:10:51Z</time></trkpt><trkpt lat="41.56811021431786" lon="12.974008481864603"><ele>81.66666666666666</ele><time>2026-03-22T12:10:52Z</time></trkpt><trkpt lat="41.568047490081206" lon="12.97381433448687"><ele>82.0</ele><time>2026-03-22T12:10:53Z</time></trkpt><trkpt lat="41.56797979806372" lon="12.97362400360449"><ele>82.0</ele><time>2026-03-22T12:10:54Z</time></trkpt><trkpt lat="41.56790898722842" lon="12.973433430771898"><ele>82.0</ele><time>2026-03-22T12:10:55Z</time></trkpt><trkpt lat="41.567822364781954" lon="12.973243370260606"><ele>82.0</ele><time>2026-03-22T12:10:56Z</time></trkpt><trkpt lat="41.56772709134899" lon="12.973059718866011"><ele>78.33333333333333</ele><time>2026-03-22T12:10:57Z</time></trkpt><trkpt lat="41.567636278978284" lon="12.972883099918926"><ele>74.66666666666667</ele><time>2026-03-22T12:10:57.999Z</time></trkpt><trkpt lat="41.567548035115074" lon="12.972713066461674"><ele>71.0</ele><time>2026-03-22T12:10:58.999Z</time></trkpt><trkpt lat="41.56745795104445" lon="12.972553997217892"><ele>70.5</ele><time>2026-03-22T12:10:59.999Z</time></trkpt><trkpt lat="41.56736594415651" lon="12.97241072147038"><ele>70.0</ele><time>2026-03-22T12:11:00.999Z</time></trkpt><trkpt lat="41.56727719456031" lon="12.9722701185149"><ele>69.5</ele><time>2026-03-22T12:11:01.999Z</time></trkpt><trkpt lat="41.56719284747041" lon="12.97213230751487"><ele>69.0</ele><time>2026-03-22T12:11:02.999Z</time></trkpt><trkpt lat="41.567110460853606" lon="12.971997258025231"><ele>67.75</ele><time>2026-03-22T12:11:03.999Z</time></trkpt><trkpt lat="41.56702694335186" lon="12.971866776003695"><ele>66.5</ele><time>2026-03-22T12:11:04.999Z</time></trkpt><trkpt lat="41.56694425736363" lon="12.971738916933571"><ele>65.25</ele><time>2026-03-22T12:11:05.999Z</time></trkpt><trkpt lat="41.56686398151131" lon="12.971613078921203"><ele>64.0</ele><time>2026-03-22T12:11:06.999Z</time></trkpt><trkpt lat="41.56678400982147" lon="12.971487836623362"><ele>63.25</ele><time>2026-03-22T12:11:07.999Z</time></trkpt><trkpt lat="41.566702712818646" lon="12.971365744178291"><ele>62.5</ele><time>2026-03-22T12:11:08.999Z</time></trkpt><trkpt lat="41.566625120679255" lon="12.971242655230068"><ele>61.75</ele><time>2026-03-22T12:11:09.999Z</time></trkpt><trkpt lat="41.56654769794576" lon="12.971120704560919"><ele>61.0</ele><time>2026-03-22T12:11:10.999Z</time></trkpt><trkpt lat="41.56647047959898" lon="12.97100074645819"><ele>61.0</ele><time>2026-03-22T12:11:11.999Z</time></trkpt><trkpt lat="41.5663940029262" lon="12.970883049693542"><ele>61.0</ele><time>2026-03-22T12:11:12.999Z</time></trkpt><trkpt lat="41.56631987625292" lon="12.970765631715727"><ele>61.0</ele><time>2026-03-22T12:11:13.999Z</time></trkpt><trkpt lat="41.56624692623841" lon="12.970651510336939"><ele>61.0</ele><time>2026-03-22T12:11:14.999Z</time></trkpt><trkpt lat="41.566175743408955" lon="12.970536955865903"><ele>60.0</ele><time>2026-03-22T12:11:15.999Z</time></trkpt><trkpt lat="41.56610552849452" lon="12.970426884933199"><ele>58.99999999999999</ele><time>2026-03-22T12:11:16.999Z</time></trkpt><trkpt lat="41.56603447673405" lon="12.970321061961203"><ele>57.99999999999999</ele><time>2026-03-22T12:11:17.999Z</time></trkpt><trkpt lat="41.565964658518084" lon="12.970216208250976"><ele>57.0</ele><time>2026-03-22T12:11:18.999Z</time></trkpt><trkpt lat="41.56589772232112" lon="12.970111232808469"><ele>56.0</ele><time>2026-03-22T12:11:19.999Z</time></trkpt><trkpt lat="41.565830290535246" lon="12.970010878912573"><ele>55.599999999999994</ele><time>2026-03-22T12:11:20.999Z</time></trkpt><trkpt lat="41.56576190217377" lon="12.969914526211667"><ele>55.199999999999996</ele><time>2026-03-22T12:11:21.999Z</time></trkpt><trkpt lat="41.56568323492327" lon="12.969836154652544"><ele>54.800000000000004</ele><time>2026-03-22T12:11:22.999Z</time></trkpt><trkpt lat="41.56559925957029" lon="12.969778718348161"><ele>54.400000000000006</ele><time>2026-03-22T12:11:23.999Z</time></trkpt><trkpt lat="41.56550792947429" lon="12.969764399072107"><ele>54.0</ele><time>2026-03-22T12:11:24.999Z</time></trkpt><trkpt lat="41.56540533367724" lon="12.969882484456669"><ele>54.0</ele><time>2026-03-22T12:11:25.999Z</time></trkpt><trkpt lat="41.56533349809593" lon="12.969964919012202"><ele>54.00000000000001</ele><time>2026-03-22T12:11:26.999Z</time></trkpt><trkpt lat="41.565256274735674" lon="12.970055579591172"><ele>54.00000000000001</ele><time>2026-03-22T12:11:27.999Z</time></trkpt><trkpt lat="41.56517282861309" lon="12.970144507121569"><ele>54.0</ele><time>2026-03-22T12:11:28.999Z</time></trkpt><trkpt lat="41.565086976019884" lon="12.970237391410098"><ele>54.0</ele><time>2026-03-22T12:11:29.999Z</time></trkpt><trkpt lat="41.56499769884167" lon="12.970331361019742"><ele>54.0</ele><time>2026-03-22T12:11:30.999Z</time></trkpt><trkpt lat="41.56490323017494" lon="12.970424848778329"><ele>54.0</ele><time>2026-03-22T12:11:31.999Z</time></trkpt><trkpt lat="41.56479647861025" lon="12.970507509607678"><ele>54.0</ele><time>2026-03-22T12:11:32.999Z</time></trkpt><trkpt lat="41.564671823177314" lon="12.970596166695099"><ele>54.0</ele><time>2026-03-22T12:11:33.999Z</time></trkpt><trkpt lat="41.56455735625852" lon="12.970705166072543"><ele>54.0</ele><time>2026-03-22T12:11:34.999Z</time></trkpt><trkpt lat="41.564464991532915" lon="12.970812352701033"><ele>54.00000000000001</ele><time>2026-03-22T12:11:35.999Z</time></trkpt><trkpt lat="41.56438238835092" lon="12.97091242928191"><ele>54.00000000000001</ele><time>2026-03-22T12:11:36.999Z</time></trkpt><trkpt lat="41.564302494253134" lon="12.971007439445218"><ele>54.0</ele><time>2026-03-22T12:11:37.999Z</time></trkpt><trkpt lat="41.5642276274542" lon="12.971096471116125"><ele>54.0</ele><time>2026-03-22T12:11:38.999Z</time></trkpt><trkpt lat="41.564156237340754" lon="12.971180351998782"><ele>54.0</ele><time>2026-03-22T12:11:39.999Z</time></trkpt><trkpt lat="41.56408800184376" lon="12.971259094766593"><ele>54.0</ele><time>2026-03-22T12:11:40.999Z</time></trkpt><trkpt lat="41.56402296907072" lon="12.971334141665372"><ele>54.0</ele><time>2026-03-22T12:11:41.999Z</time></trkpt><trkpt lat="41.56396254800706" lon="12.971403663402285"><ele>54.0</ele><time>2026-03-22T12:11:42.999Z</time></trkpt><trkpt lat="41.56390436031148" lon="12.971460828125911"><ele>54.0</ele><time>2026-03-22T12:11:43.999Z</time></trkpt><trkpt lat="41.56384338963177" lon="12.97150548543244"><ele>54.0</ele><time>2026-03-22T12:11:44.999Z</time></trkpt><trkpt lat="41.563778230424916" lon="12.971546581926866"><ele>54.0</ele><time>2026-03-22T12:11:45.999Z</time></trkpt><trkpt lat="41.56370628878203" lon="12.971473859926126"><ele>54.00000000000001</ele><time>2026-03-22T12:11:46.999Z</time></trkpt><trkpt lat="41.56367418816083" lon="12.971372329274141"><ele>54.00000000000001</ele><time>2026-03-22T12:11:47.999Z</time></trkpt><trkpt lat="41.56365641511287" lon="12.97126566458002"><ele>54.0</ele><time>2026-03-22T12:11:49.001Z</time></trkpt><trkpt lat="41.56372138472075" lon="12.971146996976234"><ele>54.0</ele><time>2026-03-22T12:11:50.001Z</time></trkpt><trkpt lat="41.563789062956346" lon="12.9710429437843"><ele>54.0</ele><time>2026-03-22T12:11:51.001Z</time></trkpt><trkpt lat="41.5638520648666" lon="12.970953092593405"><ele>54.00000000000001</ele><time>2026-03-22T12:11:52.001Z</time></trkpt><trkpt lat="41.56391057588554" lon="12.97086088083603"><ele>54.00000000000001</ele><time>2026-03-22T12:11:53.001Z</time></trkpt><trkpt lat="41.5639599966807" lon="12.970748366041981"><ele>54.0</ele><time>2026-03-22T12:11:54.001Z</time></trkpt><trkpt lat="41.563992135773894" lon="12.970627976093139"><ele>54.0</ele><time>2026-03-22T12:11:55.001Z</time></trkpt><trkpt lat="41.5639959307438" lon="12.970496619414352"><ele>53.6</ele><time>2026-03-22T12:11:56.001Z</time></trkpt><trkpt lat="41.563957492064205" lon="12.970372541489999"><ele>53.2</ele><time>2026-03-22T12:11:57Z</time></trkpt><trkpt lat="41.563898510769434" lon="12.970260456888322"><ele>52.800000000000004</ele><time>2026-03-22T12:11:58.001Z</time></trkpt><trkpt lat="41.56384506219286" lon="12.970149364031046"><ele>52.400000000000006</ele><time>2026-03-22T12:11:59.001Z</time></trkpt><trkpt lat="41.56378605000466" lon="12.970032338508217"><ele>52.0</ele><time>2026-03-22T12:12:00Z</time></trkpt><trkpt lat="41.56372474159366" lon="12.969912178601373"><ele>51.25</ele><time>2026-03-22T12:12:01Z</time></trkpt><trkpt lat="41.563661080374224" lon="12.969790225703413"><ele>50.5</ele><time>2026-03-22T12:12:02Z</time></trkpt><trkpt lat="41.563592646934396" lon="12.969662784693073"><ele>49.75</ele><time>2026-03-22T12:12:03Z</time></trkpt><trkpt lat="41.563524372045514" lon="12.969530505137408"><ele>49.0</ele><time>2026-03-22T12:12:04Z</time></trkpt><trkpt lat="41.563456790405034" lon="12.969399170940237"><ele>49.0</ele><time>2026-03-22T12:12:05Z</time></trkpt><trkpt lat="41.56338268383715" lon="12.969257094068526"><ele>49.0</ele><time>2026-03-22T12:12:06Z</time></trkpt><trkpt lat="41.56330491325029" lon="12.969110666368866"><ele>49.0</ele><time>2026-03-22T12:12:07Z</time></trkpt><trkpt lat="41.563211014044526" lon="12.968945578218435"><ele>49.0</ele><time>2026-03-22T12:12:08Z</time></trkpt><trkpt lat="41.56311585604177" lon="12.968772054440013"><ele>48.666666666666664</ele><time>2026-03-22T12:12:09Z</time></trkpt><trkpt lat="41.563024448471" lon="12.968591742287652"><ele>48.33333333333333</ele><time>2026-03-22T12:12:10Z</time></trkpt><trkpt lat="41.562944371897196" lon="12.96841953700751"><ele>48.0</ele><time>2026-03-22T12:12:11Z</time></trkpt><trkpt lat="41.562872386257155" lon="12.968255420446859"><ele>47.5</ele><time>2026-03-22T12:12:12Z</time></trkpt><trkpt lat="41.56280030751379" lon="12.968094908215516"><ele>47.0</ele><time>2026-03-22T12:12:13Z</time></trkpt><trkpt lat="41.56271450053786" lon="12.967935181077221"><ele>46.5</ele><time>2026-03-22T12:12:14Z</time></trkpt><trkpt lat="41.5626269890921" lon="12.967779106870129"><ele>46.0</ele><time>2026-03-22T12:12:15Z</time></trkpt><trkpt lat="41.5625438828181" lon="12.967627323942269"><ele>45.4</ele><time>2026-03-22T12:12:16Z</time></trkpt><trkpt lat="41.562470863200545" lon="12.967499919212923"><ele>44.8</ele><time>2026-03-22T12:12:17Z</time></trkpt><trkpt lat="41.56241049353037" lon="12.96738341317472"><ele>44.199999999999996</ele><time>2026-03-22T12:12:18Z</time></trkpt><trkpt lat="41.56235893928266" lon="12.967271076684776"><ele>43.599999999999994</ele><time>2026-03-22T12:12:19Z</time></trkpt><trkpt lat="41.56230979783987" lon="12.967170830735228"><ele>43.0</ele><time>2026-03-22T12:12:20Z</time></trkpt><trkpt lat="41.56226980484277" lon="12.967086634536095"><ele>43.0</ele><time>2026-03-22T12:12:21Z</time></trkpt><trkpt lat="41.562219291188" lon="12.966978250647118"><ele>43.0</ele><time>2026-03-22T12:12:23Z</time></trkpt><trkpt lat="41.562178563313246" lon="12.966894389739185"><ele>43.0</ele><time>2026-03-22T12:12:36Z</time></trkpt><trkpt lat="41.56211479534983" lon="12.966776364700564"><ele>43.0</ele><time>2026-03-22T12:12:38Z</time></trkpt><trkpt lat="41.56204397753054" lon="12.966646314851126"><ele>43.0</ele><time>2026-03-22T12:12:40Z</time></trkpt><trkpt lat="41.56200321794988" lon="12.966566117582204"><ele>42.4</ele><time>2026-03-22T12:12:41Z</time></trkpt><trkpt lat="41.56195758162785" lon="12.96648481217388"><ele>41.8</ele><time>2026-03-22T12:12:42Z</time></trkpt><trkpt lat="41.56190571892017" lon="12.966393913700337"><ele>41.2</ele><time>2026-03-22T12:12:43Z</time></trkpt><trkpt lat="41.56184832279753" lon="12.966289553584907"><ele>40.6</ele><time>2026-03-22T12:12:44Z</time></trkpt><trkpt lat="41.561792962599995" lon="12.966185092901528"><ele>40.0</ele><time>2026-03-22T12:12:45Z</time></trkpt><trkpt lat="41.56173194665461" lon="12.966073640416042"><ele>40.0</ele><time>2026-03-22T12:12:46Z</time></trkpt><trkpt lat="41.56166435148939" lon="12.965954736847442"><ele>40.0</ele><time>2026-03-22T12:12:47Z</time></trkpt><trkpt lat="41.56159720765822" lon="12.965838103260374"><ele>40.0</ele><time>2026-03-22T12:12:48Z</time></trkpt><trkpt lat="41.56152876438648" lon="12.965721385703956"><ele>40.0</ele><time>2026-03-22T12:12:49Z</time></trkpt><trkpt lat="41.561461218823176" lon="12.965604220364213"><ele>40.0</ele><time>2026-03-22T12:12:50Z</time></trkpt><trkpt lat="41.56138531488123" lon="12.965471756752269"><ele>39.5</ele><time>2026-03-22T12:12:51Z</time></trkpt><trkpt lat="41.561310065719574" lon="12.965344263836995"><ele>39.0</ele><time>2026-03-22T12:12:52Z</time></trkpt><trkpt lat="41.56123159380564" lon="12.965214588847443"><ele>38.5</ele><time>2026-03-22T12:12:53Z</time></trkpt><trkpt lat="41.56115616759852" lon="12.965082766397387"><ele>38.0</ele><time>2026-03-22T12:12:54Z</time></trkpt><trkpt lat="41.5610796803045" lon="12.964950901566771"><ele>37.5</ele><time>2026-03-22T12:12:55Z</time></trkpt><trkpt lat="41.561005875104684" lon="12.964821524528835"><ele>37.0</ele><time>2026-03-22T12:12:56Z</time></trkpt><trkpt lat="41.56092475510167" lon="12.964688413490755"><ele>36.5</ele><time>2026-03-22T12:12:57Z</time></trkpt><trkpt lat="41.56084583439457" lon="12.964551832254134"><ele>36.0</ele><time>2026-03-22T12:12:58Z</time></trkpt><trkpt lat="41.56076581163897" lon="12.964414319529569"><ele>36.0</ele><time>2026-03-22T12:12:59Z</time></trkpt><trkpt lat="41.56068847000741" lon="12.964274966236074"><ele>36.0</ele><time>2026-03-22T12:12:59.999Z</time></trkpt><trkpt lat="41.5606058046472" lon="12.96412871494835"><ele>36.0</ele><time>2026-03-22T12:13:00.999Z</time></trkpt><trkpt lat="41.56051904725463" lon="12.96398076294883"><ele>36.0</ele><time>2026-03-22T12:13:01.999Z</time></trkpt><trkpt lat="41.56043221331289" lon="12.963831694533244"><ele>35.25</ele><time>2026-03-22T12:13:02.999Z</time></trkpt><trkpt lat="41.56034172470858" lon="12.96367935598644"><ele>34.5</ele><time>2026-03-22T12:13:03.999Z</time></trkpt><trkpt lat="41.56024809283827" lon="12.963520892407667"><ele>33.75</ele><time>2026-03-22T12:13:04.999Z</time></trkpt><trkpt lat="41.560160851188726" lon="12.963367739549293"><ele>33.0</ele><time>2026-03-22T12:13:05.999Z</time></trkpt><trkpt lat="41.560074689848236" lon="12.963218164768302"><ele>33.0</ele><time>2026-03-22T12:13:06.999Z</time></trkpt><trkpt lat="41.559994291871014" lon="12.963071469381653"><ele>33.0</ele><time>2026-03-22T12:13:07.999Z</time></trkpt><trkpt lat="41.55991317739573" lon="12.962924715716024"><ele>33.0</ele><time>2026-03-22T12:13:08.999Z</time></trkpt><trkpt lat="41.55982475535995" lon="12.962775469851119"><ele>33.0</ele><time>2026-03-22T12:13:09.999Z</time></trkpt><trkpt lat="41.55973916742949" lon="12.962626150095812"><ele>32.5</ele><time>2026-03-22T12:13:10.999Z</time></trkpt><trkpt lat="41.55964941248782" lon="12.962471615140405"><ele>32.0</ele><time>2026-03-22T12:13:11.999Z</time></trkpt><trkpt lat="41.55955815196644" lon="12.9623151233797"><ele>31.5</ele><time>2026-03-22T12:13:12.999Z</time></trkpt><trkpt lat="41.55946977512636" lon="12.962161585973925"><ele>31.0</ele><time>2026-03-22T12:13:13.999Z</time></trkpt><trkpt lat="41.55937978729011" lon="12.962008818593151"><ele>30.5</ele><time>2026-03-22T12:13:14.999Z</time></trkpt><trkpt lat="41.559290589404824" lon="12.961858388206611"><ele>30.0</ele><time>2026-03-22T12:13:15.999Z</time></trkpt><trkpt lat="41.559203162732956" lon="12.96170229780057"><ele>29.5</ele><time>2026-03-22T12:13:16.999Z</time></trkpt><trkpt lat="41.559114214495416" lon="12.961545242262243"><ele>29.0</ele><time>2026-03-22T12:13:17.999Z</time></trkpt><trkpt lat="41.55902870997886" lon="12.961392691102922"><ele>28.75</ele><time>2026-03-22T12:13:18.999Z</time></trkpt><trkpt lat="41.55894417291821" lon="12.96124732473797"><ele>28.5</ele><time>2026-03-22T12:13:19.999Z</time></trkpt><trkpt lat="41.55885880260994" lon="12.96110489250664"><ele>28.25</ele><time>2026-03-22T12:13:20.999Z</time></trkpt><trkpt lat="41.55877681626317" lon="12.96096378800406"><ele>28.0</ele><time>2026-03-22T12:13:21.999Z</time></trkpt><trkpt lat="41.55868969026362" lon="12.960821785697936"><ele>27.25</ele><time>2026-03-22T12:13:22.999Z</time></trkpt><trkpt lat="41.558600558784924" lon="12.960673983770368"><ele>26.5</ele><time>2026-03-22T12:13:23.999Z</time></trkpt><trkpt lat="41.55850379508526" lon="12.96052148003127"><ele>25.75</ele><time>2026-03-22T12:13:24.999Z</time></trkpt><trkpt lat="41.558400475014246" lon="12.960372730174123"><ele>25.0</ele><time>2026-03-22T12:13:25.999Z</time></trkpt><trkpt lat="41.55828359938829" lon="12.960237628348901"><ele>25.0</ele><time>2026-03-22T12:13:26.999Z</time></trkpt><trkpt lat="41.55815605655785" lon="12.960114311778801"><ele>25.0</ele><time>2026-03-22T12:13:27.999Z</time></trkpt><trkpt lat="41.55802042879144" lon="12.960006189220094"><ele>25.0</ele><time>2026-03-22T12:13:28.999Z</time></trkpt><trkpt lat="41.5578793301886" lon="12.95991494696618"><ele>24.75</ele><time>2026-03-22T12:13:29.999Z</time></trkpt><trkpt lat="41.557743599369815" lon="12.959830837466678"><ele>24.5</ele><time>2026-03-22T12:13:30.999Z</time></trkpt><trkpt lat="41.55761054369988" lon="12.959749236849904"><ele>24.25</ele><time>2026-03-22T12:13:31.999Z</time></trkpt><trkpt lat="41.55748066678692" lon="12.959671035914877"><ele>24.0</ele><time>2026-03-22T12:13:32.999Z</time></trkpt><trkpt lat="41.55735163159701" lon="12.959592908397259"><ele>24.0</ele><time>2026-03-22T12:13:33.999Z</time></trkpt><trkpt lat="41.557226974763516" lon="12.959518344609544"><ele>24.0</ele><time>2026-03-22T12:13:34.999Z</time></trkpt><trkpt lat="41.55710166031212" lon="12.959445028379863"><ele>24.0</ele><time>2026-03-22T12:13:35.999Z</time></trkpt><trkpt lat="41.55697583578769" lon="12.959369415445888"><ele>24.0</ele><time>2026-03-22T12:13:36.999Z</time></trkpt><trkpt lat="41.55685175392181" lon="12.959292613631135"><ele>24.0</ele><time>2026-03-22T12:13:37.999Z</time></trkpt><trkpt lat="41.556725555939025" lon="12.959217317523208"><ele>24.0</ele><time>2026-03-22T12:13:38.999Z</time></trkpt><trkpt lat="41.556599052769286" lon="12.959140564083441"><ele>24.0</ele><time>2026-03-22T12:13:39.999Z</time></trkpt><trkpt lat="41.55647152372428" lon="12.959070569011773"><ele>24.0</ele><time>2026-03-22T12:13:40.999Z</time></trkpt><trkpt lat="41.55634191441761" lon="12.958992702048135"><ele>24.5</ele><time>2026-03-22T12:13:41.999Z</time></trkpt><trkpt lat="41.55621332683536" lon="12.958905711050036"><ele>25.0</ele><time>2026-03-22T12:13:42.999Z</time></trkpt><trkpt lat="41.5560806091554" lon="12.958828576819812"><ele>25.5</ele><time>2026-03-22T12:13:43.999Z</time></trkpt><trkpt lat="41.555946476013936" lon="12.958746675262947"><ele>26.0</ele><time>2026-03-22T12:13:44.999Z</time></trkpt><trkpt lat="41.555809457148435" lon="12.958664403838279"><ele>25.25</ele><time>2026-03-22T12:13:45.999Z</time></trkpt><trkpt lat="41.55567104781632" lon="12.958581811017737"><ele>24.5</ele><time>2026-03-22T12:13:46.999Z</time></trkpt><trkpt lat="41.5555355118832" lon="12.958498684708177"><ele>23.75</ele><time>2026-03-22T12:13:47.999Z</time></trkpt><trkpt lat="41.55540365735081" lon="12.95841912188733"><ele>23.0</ele><time>2026-03-22T12:13:48.999Z</time></trkpt><trkpt lat="41.555271523467376" lon="12.958336712584707"><ele>23.0</ele><time>2026-03-22T12:13:49.999Z</time></trkpt><trkpt lat="41.55515509029976" lon="12.958263133978031"><ele>23.0</ele><time>2026-03-22T12:13:50.999Z</time></trkpt><trkpt lat="41.5550322419322" lon="12.95819152437359"><ele>23.0</ele><time>2026-03-22T12:13:51.999Z</time></trkpt><trkpt lat="41.55492260924304" lon="12.958124569290792"><ele>23.0</ele><time>2026-03-22T12:13:52.999Z</time></trkpt><trkpt lat="41.554814798270186" lon="12.9580569471019"><ele>23.0</ele><time>2026-03-22T12:13:53.999Z</time></trkpt><trkpt lat="41.55471024814026" lon="12.95799374768976"><ele>23.0</ele><time>2026-03-22T12:13:55Z</time></trkpt><trkpt lat="41.554605113778074" lon="12.957932617888964"><ele>23.0</ele><time>2026-03-22T12:13:56Z</time></trkpt><trkpt lat="41.55449721963974" lon="12.957866381210904"><ele>23.0</ele><time>2026-03-22T12:13:57Z</time></trkpt><trkpt lat="41.55439669955785" lon="12.95780605435602"><ele>23.0</ele><time>2026-03-22T12:13:58Z</time></trkpt><trkpt lat="41.55429233094168" lon="12.957743345651926"><ele>23.0</ele><time>2026-03-22T12:13:59Z</time></trkpt><trkpt lat="41.55418214064179" lon="12.957676911948232"><ele>23.0</ele><time>2026-03-22T12:14:00Z</time></trkpt><trkpt lat="41.55406622979743" lon="12.9576069913663"><ele>23.0</ele><time>2026-03-22T12:14:01Z</time></trkpt><trkpt lat="41.553950776162466" lon="12.957532829863554"><ele>22.599999999999998</ele><time>2026-03-22T12:14:02Z</time></trkpt><trkpt lat="41.553844769827" lon="12.957466244267067"><ele>22.2</ele><time>2026-03-22T12:14:03Z</time></trkpt><trkpt lat="41.553745376848056" lon="12.957404213869221"><ele>21.8</ele><time>2026-03-22T12:14:04Z</time></trkpt><trkpt lat="41.55365032335208" lon="12.95734794494994"><ele>21.4</ele><time>2026-03-22T12:14:05Z</time></trkpt><trkpt lat="41.55356428476832" lon="12.957294956483683"><ele>21.0</ele><time>2026-03-22T12:14:06Z</time></trkpt><trkpt lat="41.553487359783695" lon="12.957245251496644"><ele>20.8</ele><time>2026-03-22T12:14:07Z</time></trkpt><trkpt lat="41.553429154300126" lon="12.957188575011545"><ele>20.6</ele><time>2026-03-22T12:14:08Z</time></trkpt><trkpt lat="41.55339179999811" lon="12.957118437522867"><ele>20.4</ele><time>2026-03-22T12:14:09Z</time></trkpt><trkpt lat="41.55333984989149" lon="12.95698646502147"><ele>20.2</ele><time>2026-03-22T12:14:11Z</time></trkpt><trkpt lat="41.55324605498182" lon="12.95689756028685"><ele>20.0</ele><time>2026-03-22T12:14:13Z</time></trkpt><trkpt lat="41.55314082002232" lon="12.956985871472959"><ele>20.0</ele><time>2026-03-22T12:14:14Z</time></trkpt><trkpt lat="41.55306287551992" lon="12.956939926452634"><ele>20.0</ele><time>2026-03-22T12:14:15Z</time></trkpt><trkpt lat="41.55298171150159" lon="12.956911453699355"><ele>20.0</ele><time>2026-03-22T12:14:16Z</time></trkpt><trkpt lat="41.55289744910435" lon="12.9568927285535"><ele>20.0</ele><time>2026-03-22T12:14:17Z</time></trkpt><trkpt lat="41.5528149400166" lon="12.956840132424988"><ele>20.0</ele><time>2026-03-22T12:14:18Z</time></trkpt><trkpt lat="41.5527269914648" lon="12.956789365454549"><ele>20.0</ele><time>2026-03-22T12:14:19Z</time></trkpt><trkpt lat="41.552636617576894" lon="12.956736598680683"><ele>20.166666666666668</ele><time>2026-03-22T12:14:20Z</time></trkpt><trkpt lat="41.55255127109266" lon="12.956685697141554"><ele>20.333333333333336</ele><time>2026-03-22T12:14:21Z</time></trkpt><trkpt lat="41.55247239798349" lon="12.956635699879063"><ele>20.5</ele><time>2026-03-22T12:14:22Z</time></trkpt><trkpt lat="41.5523964551296" lon="12.95658718334279"><ele>20.666666666666668</ele><time>2026-03-22T12:14:23Z</time></trkpt><trkpt lat="41.552317657820176" lon="12.956540856529259"><ele>20.833333333333332</ele><time>2026-03-22T12:14:24Z</time></trkpt><trkpt lat="41.55223844203067" lon="12.956496039586678"><ele>21.0</ele><time>2026-03-22T12:14:25Z</time></trkpt><trkpt lat="41.552172569403574" lon="12.956450975916384"><ele>21.0</ele><time>2026-03-22T12:14:26Z</time></trkpt><trkpt lat="41.55211729762969" lon="12.956343033411164"><ele>21.0</ele><time>2026-03-22T12:14:28Z</time></trkpt><trkpt lat="41.5521926089137" lon="12.956245783680528"><ele>21.0</ele><time>2026-03-22T12:14:30Z</time></trkpt><trkpt lat="41.55227626993023" lon="12.95616909990645"><ele>21.0</ele><time>2026-03-22T12:14:32Z</time></trkpt><trkpt lat="41.552364582795185" lon="12.956084737964765"><ele>21.0</ele><time>2026-03-22T12:14:34Z</time></trkpt><trkpt lat="41.552460536024874" lon="12.956000577581866"><ele>21.0</ele><time>2026-03-22T12:14:36Z</time></trkpt><trkpt lat="41.55251628664041" lon="12.955952897107302"><ele>21.0</ele><time>2026-03-22T12:14:38Z</time></trkpt><trkpt lat="41.552484331339464" lon="12.955813453658848"><ele>18.0</ele><time>2026-03-22T12:14:51Z</time></trkpt></trkseg></trk></gpx>